<?xml version='1.0' encoding='UTF-8'?><gpx version="1.1" creator="JPX - https://github.com/jenetics/jpx" xmlns="http://www.topografix.com/GPX/1/1"><trk><trkseg><trkpt lat="44.80603001976948" lon="10.33052365717097"><ele>61.0</ele><time>2026-04-10T13:21:58Z</time></trkpt><trkpt lat="44.80614332711194" lon="10.33054757367683"><ele>61.0</ele><time>2026-04-10T13:22:41.999Z</time></trkpt><trkpt lat="44.806073618257145" lon="10.330526167146777"><ele>61.0</ele><time>2026-04-10T13:22:42.999Z</time></trkpt><trkpt lat="44.80599270210808" lon="10.33040735176407"><ele>61.0</ele><time>2026-04-10T13:22:56.999Z</time></trkpt><trkpt lat="44.80609984518555" lon="10.330220544643364"><ele>61.0</ele><time>2026-04-10T13:23:05.999Z</time></trkpt><trkpt lat="44.806130375300725" lon="10.330132297096423"><ele>60.99999999999999</ele><time>2026-04-10T13:23:06.999Z</time></trkpt><trkpt lat="44.80617124871509" lon="10.33001740683976"><ele>60.99999999999999</ele><time>2026-04-10T13:23:07.999Z</time></trkpt><trkpt lat="44.806236929084584" lon="10.329828234184141"><ele>61.0</ele><time>2026-04-10T13:23:09.999Z</time></trkpt><trkpt lat="44.8062668421484" lon="10.329743687742765"><ele>61.0</ele><time>2026-04-10T13:23:10.999Z</time></trkpt><trkpt lat="44.80632166118621" lon="10.329580097785058"><ele>61.199999999999996</ele><time>2026-04-10T13:23:11.999Z</time></trkpt><trkpt lat="44.80639065574749" lon="10.32936800160646"><ele>61.39999999999999</ele><time>2026-04-10T13:23:12.999Z</time></trkpt><trkpt lat="44.806428352685636" lon="10.329270530529493"><ele>61.6</ele><time>2026-04-10T13:23:13.999Z</time></trkpt><trkpt lat="44.806448021176415" lon="10.329186143817848"><ele>61.8</ele><time>2026-04-10T13:23:14.999Z</time></trkpt><trkpt lat="44.80646403533849" lon="10.329092111637342"><ele>62.0</ele><time>2026-04-10T13:23:16.999Z</time></trkpt><trkpt lat="44.806613553293246" lon="10.329146278205805"><ele>62.0</ele><time>2026-04-10T13:23:25.999Z</time></trkpt><trkpt lat="44.80670106105045" lon="10.329186614496347"><ele>62.0</ele><time>2026-04-10T13:23:26.999Z</time></trkpt><trkpt lat="44.80685606575066" lon="10.329255458833723"><ele>62.0</ele><time>2026-04-10T13:23:27.999Z</time></trkpt><trkpt lat="44.80699828240502" lon="10.32931276689842"><ele>62.0</ele><time>2026-04-10T13:23:28.999Z</time></trkpt><trkpt lat="44.807180601926945" lon="10.329381498545304"><ele>61.6</ele><time>2026-04-10T13:23:29.999Z</time></trkpt><trkpt lat="44.80732249260496" lon="10.329418111002667"><ele>61.2</ele><time>2026-04-10T13:23:30.999Z</time></trkpt><trkpt lat="44.80743346471845" lon="10.329445108968102"><ele>60.8</ele><time>2026-04-10T13:23:31.999Z</time></trkpt><trkpt lat="44.80751183673558" lon="10.329493921638026"><ele>60.4</ele><time>2026-04-10T13:23:32.999Z</time></trkpt><trkpt lat="44.80759096021203" lon="10.329525521074851"><ele>60.0</ele><time>2026-04-10T13:23:33.999Z</time></trkpt><trkpt lat="44.80766279192348" lon="10.32956034505226"><ele>60.0</ele><time>2026-04-10T13:23:35.999Z</time></trkpt><trkpt lat="44.80772614196083" lon="10.329603599990802"><ele>60.0</ele><time>2026-04-10T13:23:40.999Z</time></trkpt><trkpt lat="44.80780523573828" lon="10.329691413395249"><ele>60.0</ele><time>2026-04-10T13:23:42.999Z</time></trkpt><trkpt lat="44.80786213490549" lon="10.329755574616952"><ele>60.0</ele><time>2026-04-10T13:23:43.999Z</time></trkpt><trkpt lat="44.80796465102749" lon="10.329700392785133"><ele>60.0</ele><time>2026-04-10T13:23:44.999Z</time></trkpt><trkpt lat="44.808027777656925" lon="10.329717110793078"><ele>60.0</ele><time>2026-04-10T13:23:45.999Z</time></trkpt><trkpt lat="44.80811957367202" lon="10.329744220084056"><ele>60.0</ele><time>2026-04-10T13:23:46.999Z</time></trkpt><trkpt lat="44.80822648042107" lon="10.329800059396893"><ele>60.0</ele><time>2026-04-10T13:23:47.999Z</time></trkpt><trkpt lat="44.808311509530704" lon="10.329803058747634"><ele>60.0</ele><time>2026-04-10T13:23:48.999Z</time></trkpt><trkpt lat="44.808412427041915" lon="10.32985823632847"><ele>60.0</ele><time>2026-04-10T13:23:50.999Z</time></trkpt><trkpt lat="44.80849512930356" lon="10.329861692006148"><ele>60.0</ele><time>2026-04-10T13:23:52.999Z</time></trkpt><trkpt lat="44.80854166153395" lon="10.329570136648062"><ele>60.166666666666664</ele><time>2026-04-10T13:23:53.999Z</time></trkpt><trkpt lat="44.808560778128665" lon="10.32947283195675"><ele>60.33333333333333</ele><time>2026-04-10T13:23:54.999Z</time></trkpt><trkpt lat="44.80857100144966" lon="10.329372370357968"><ele>60.5</ele><time>2026-04-10T13:23:55.999Z</time></trkpt><trkpt lat="44.80858114286397" lon="10.329260945645784"><ele>60.666666666666664</ele><time>2026-04-10T13:23:56.999Z</time></trkpt><trkpt lat="44.8086019809416" lon="10.32915816461302"><ele>60.83333333333333</ele><time>2026-04-10T13:23:57.999Z</time></trkpt><trkpt lat="44.808612836862686" lon="10.329038621649573"><ele>61.0</ele><time>2026-04-10T13:23:58.999Z</time></trkpt><trkpt lat="44.80862435636682" lon="10.328917514692302"><ele>60.599999999999994</ele><time>2026-04-10T13:23:59.999Z</time></trkpt><trkpt lat="44.80864374182368" lon="10.32879115676083"><ele>60.199999999999996</ele><time>2026-04-10T13:24:00.999Z</time></trkpt><trkpt lat="44.808656762102395" lon="10.328662008714277"><ele>59.800000000000004</ele><time>2026-04-10T13:24:01.999Z</time></trkpt><trkpt lat="44.80868578729055" lon="10.328523834102679"><ele>59.400000000000006</ele><time>2026-04-10T13:24:02.999Z</time></trkpt><trkpt lat="44.808709456626815" lon="10.328370752756356"><ele>59.0</ele><time>2026-04-10T13:24:03.999Z</time></trkpt><trkpt lat="44.80873622767537" lon="10.328213858302343"><ele>59.2</ele><time>2026-04-10T13:24:04.999Z</time></trkpt><trkpt lat="44.808754403657304" lon="10.328056327592206"><ele>59.400000000000006</ele><time>2026-04-10T13:24:05.999Z</time></trkpt><trkpt lat="44.808776067103366" lon="10.327909880824935"><ele>59.6</ele><time>2026-04-10T13:24:06.999Z</time></trkpt><trkpt lat="44.80878922227268" lon="10.32778393217503"><ele>59.8</ele><time>2026-04-10T13:24:07.999Z</time></trkpt><trkpt lat="44.808805558892104" lon="10.327649446393771"><ele>60.0</ele><time>2026-04-10T13:24:08.999Z</time></trkpt><trkpt lat="44.80882348831377" lon="10.32750510388801"><ele>60.0</ele><time>2026-04-10T13:24:09.999Z</time></trkpt><trkpt lat="44.808847771257845" lon="10.327367429018384"><ele>60.0</ele><time>2026-04-10T13:24:10.999Z</time></trkpt><trkpt lat="44.80887227783254" lon="10.327256679676687"><ele>60.0</ele><time>2026-04-10T13:24:11.999Z</time></trkpt><trkpt lat="44.80890113975272" lon="10.327169232461813"><ele>60.0</ele><time>2026-04-10T13:24:12.999Z</time></trkpt><trkpt lat="44.80893474703082" lon="10.327069309254087"><ele>60.0</ele><time>2026-04-10T13:24:14.999Z</time></trkpt><trkpt lat="44.808941123259885" lon="10.326952175946966"><ele>60.0</ele><time>2026-04-10T13:25:30.999Z</time></trkpt><trkpt lat="44.80892665446843" lon="10.326781579960652"><ele>59.666666666666664</ele><time>2026-04-10T13:25:32.999Z</time></trkpt><trkpt lat="44.80893368311967" lon="10.32667576904449"><ele>59.33333333333333</ele><time>2026-04-10T13:25:33.999Z</time></trkpt><trkpt lat="44.808956430397394" lon="10.32656923187258"><ele>59.0</ele><time>2026-04-10T13:25:34.999Z</time></trkpt><trkpt lat="44.80897302620356" lon="10.326481168955343"><ele>58.666666666666664</ele><time>2026-04-10T13:25:35.999Z</time></trkpt><trkpt lat="44.80899416640999" lon="10.326390113282978"><ele>58.33333333333333</ele><time>2026-04-10T13:25:36.999Z</time></trkpt><trkpt lat="44.809019298556585" lon="10.32624472263493"><ele>58.0</ele><time>2026-04-10T13:25:38.999Z</time></trkpt><trkpt lat="44.80902863219697" lon="10.326126569401278"><ele>57.25</ele><time>2026-04-10T13:25:40.999Z</time></trkpt><trkpt lat="44.80890192074334" lon="10.326115346552555"><ele>56.5</ele><time>2026-04-10T13:25:41.999Z</time></trkpt><trkpt lat="44.80875929842732" lon="10.326276793964666"><ele>55.75</ele><time>2026-04-10T13:25:43.999Z</time></trkpt><trkpt lat="44.808690054710816" lon="10.326283390216048"><ele>55.0</ele><time>2026-04-10T13:25:44.999Z</time></trkpt><trkpt lat="44.8086196372856" lon="10.326256092697756"><ele>54.99999999999999</ele><time>2026-04-10T13:25:45.999Z</time></trkpt><trkpt lat="44.80854204400326" lon="10.326219207183604"><ele>55.0</ele><time>2026-04-10T13:25:46.999Z</time></trkpt><trkpt lat="44.80846085752943" lon="10.326179097575643"><ele>55.0</ele><time>2026-04-10T13:25:47.999Z</time></trkpt><trkpt lat="44.80838495157502" lon="10.326151824454005"><ele>55.0</ele><time>2026-04-10T13:25:48.999Z</time></trkpt><trkpt lat="44.808313259408386" lon="10.326134874457713"><ele>54.99999999999999</ele><time>2026-04-10T13:25:49.999Z</time></trkpt><trkpt lat="44.80824106421985" lon="10.326118623301538"><ele>55.0</ele><time>2026-04-10T13:25:50.999Z</time></trkpt><trkpt lat="44.80816708217817" lon="10.326095208145684"><ele>55.2</ele><time>2026-04-10T13:25:51.999Z</time></trkpt><trkpt lat="44.808097515459224" lon="10.326073620446389"><ele>55.4</ele><time>2026-04-10T13:25:52.999Z</time></trkpt><trkpt lat="44.80798362988748" lon="10.326043612221966"><ele>55.599999999999994</ele><time>2026-04-10T13:25:54.999Z</time></trkpt><trkpt lat="44.80788605300277" lon="10.3260123657741"><ele>55.8</ele><time>2026-04-10T13:25:56.999Z</time></trkpt><trkpt lat="44.80780721067629" lon="10.32599120383172"><ele>56.0</ele><time>2026-04-10T13:25:59.999Z</time></trkpt><trkpt lat="44.80771875612691" lon="10.325971638440135"><ele>56.199999999999996</ele><time>2026-04-10T13:26:13.999Z</time></trkpt><trkpt lat="44.80764224442528" lon="10.325949518062275"><ele>56.39999999999999</ele><time>2026-04-10T13:26:14.999Z</time></trkpt><trkpt lat="44.807546566922184" lon="10.325919787855208"><ele>56.6</ele><time>2026-04-10T13:26:15.999Z</time></trkpt><trkpt lat="44.807446343384655" lon="10.325886203849155"><ele>56.8</ele><time>2026-04-10T13:26:16.999Z</time></trkpt><trkpt lat="44.807335538652374" lon="10.32585179842403"><ele>57.0</ele><time>2026-04-10T13:26:17.999Z</time></trkpt><trkpt lat="44.80721727872581" lon="10.325816979384165"><ele>57.0</ele><time>2026-04-10T13:26:18.999Z</time></trkpt><trkpt lat="44.80711190819581" lon="10.325782371220765"><ele>57.0</ele><time>2026-04-10T13:26:19.999Z</time></trkpt><trkpt lat="44.80701935619507" lon="10.32574810980077"><ele>57.0</ele><time>2026-04-10T13:26:20.999Z</time></trkpt><trkpt lat="44.80693660337686" lon="10.325712745021976"><ele>57.0</ele><time>2026-04-10T13:26:21.999Z</time></trkpt><trkpt lat="44.80685944600224" lon="10.325692876888187"><ele>57.0</ele><time>2026-04-10T13:26:22.999Z</time></trkpt><trkpt lat="44.80678122070887" lon="10.32569756088997"><ele>57.0</ele><time>2026-04-10T13:26:23.999Z</time></trkpt><trkpt lat="44.80671496525304" lon="10.325751447073587"><ele>57.2</ele><time>2026-04-10T13:26:24.999Z</time></trkpt><trkpt lat="44.8066640301527" lon="10.325834923188587"><ele>57.400000000000006</ele><time>2026-04-10T13:26:25.999Z</time></trkpt><trkpt lat="44.80665357121807" lon="10.325931195310861"><ele>57.599999999999994</ele><time>2026-04-10T13:26:26.999Z</time></trkpt><trkpt lat="44.806615761438394" lon="10.326024822582239"><ele>57.8</ele><time>2026-04-10T13:26:28.999Z</time></trkpt><trkpt lat="44.80645467988681" lon="10.325941245528604"><ele>58.0</ele><time>2026-04-10T13:26:29.999Z</time></trkpt><trkpt lat="44.80636754633662" lon="10.325865160959555"><ele>58.0</ele><time>2026-04-10T13:26:30.999Z</time></trkpt><trkpt lat="44.80624480568666" lon="10.32580721167147"><ele>58.0</ele><time>2026-04-10T13:26:31.999Z</time></trkpt><trkpt lat="44.80612177709176" lon="10.325723912367623"><ele>58.0</ele><time>2026-04-10T13:26:32.998Z</time></trkpt><trkpt lat="44.805986741486" lon="10.325639546167682"><ele>58.0</ele><time>2026-04-10T13:26:33.998Z</time></trkpt><trkpt lat="44.805855263908235" lon="10.325566186994983"><ele>57.25</ele><time>2026-04-10T13:26:34.998Z</time></trkpt><trkpt lat="44.8057381974049" lon="10.32550567807015"><ele>56.5</ele><time>2026-04-10T13:26:35.998Z</time></trkpt><trkpt lat="44.80562450396698" lon="10.325440868074363"><ele>55.75</ele><time>2026-04-10T13:26:36.998Z</time></trkpt><trkpt lat="44.805516450537105" lon="10.32537999857451"><ele>55.0</ele><time>2026-04-10T13:26:37.998Z</time></trkpt><trkpt lat="44.80541710087821" lon="10.325324877043835"><ele>55.0</ele><time>2026-04-10T13:26:38.998Z</time></trkpt><trkpt lat="44.80533621290096" lon="10.32526438118669"><ele>55.0</ele><time>2026-04-10T13:26:39.998Z</time></trkpt><trkpt lat="44.805258623204416" lon="10.325198736568174"><ele>55.0</ele><time>2026-04-10T13:26:40.998Z</time></trkpt><trkpt lat="44.80515804070573" lon="10.325132417604822"><ele>55.0</ele><time>2026-04-10T13:26:41.998Z</time></trkpt><trkpt lat="44.805026717391925" lon="10.325077303290083"><ele>55.0</ele><time>2026-04-10T13:26:42.998Z</time></trkpt><trkpt lat="44.8048712314509" lon="10.325030714683981"><ele>56.0</ele><time>2026-04-10T13:26:43.998Z</time></trkpt><trkpt lat="44.80470387759066" lon="10.324976477229848"><ele>57.0</ele><time>2026-04-10T13:26:44.998Z</time></trkpt><trkpt lat="44.80454710247533" lon="10.324922422450811"><ele>58.0</ele><time>2026-04-10T13:26:45.998Z</time></trkpt><trkpt lat="44.804393343458386" lon="10.324868728072307"><ele>58.0</ele><time>2026-04-10T13:26:46.998Z</time></trkpt><trkpt lat="44.80424135994264" lon="10.324818063848884"><ele>58.0</ele><time>2026-04-10T13:26:47.998Z</time></trkpt><trkpt lat="44.80410542832177" lon="10.324780140492825"><ele>58.0</ele><time>2026-04-10T13:26:48.998Z</time></trkpt><trkpt lat="44.8039760639334" lon="10.324745152753565"><ele>58.0</ele><time>2026-04-10T13:26:49.998Z</time></trkpt><trkpt lat="44.80385703723259" lon="10.32470990354038"><ele>58.0</ele><time>2026-04-10T13:26:50.998Z</time></trkpt><trkpt lat="44.80374577822057" lon="10.324678129100047"><ele>58.0</ele><time>2026-04-10T13:26:51.999Z</time></trkpt><trkpt lat="44.80365082079061" lon="10.324626141484748"><ele>58.0</ele><time>2026-04-10T13:26:52.999Z</time></trkpt><trkpt lat="44.803542970710915" lon="10.324587795952127"><ele>58.0</ele><time>2026-04-10T13:26:53.999Z</time></trkpt><trkpt lat="44.80341887219085" lon="10.324544765931035"><ele>58.0</ele><time>2026-04-10T13:26:54.999Z</time></trkpt><trkpt lat="44.8032893082224" lon="10.324501027778679"><ele>58.0</ele><time>2026-04-10T13:26:55.999Z</time></trkpt><trkpt lat="44.803183274516364" lon="10.324465232957529"><ele>58.0</ele><time>2026-04-10T13:26:56.999Z</time></trkpt><trkpt lat="44.80308547781555" lon="10.324434103305073"><ele>58.0</ele><time>2026-04-10T13:26:57.999Z</time></trkpt><trkpt lat="44.80299851798014" lon="10.324406796346693"><ele>58.0</ele><time>2026-04-10T13:26:58.999Z</time></trkpt><trkpt lat="44.80291735257688" lon="10.324401895475113"><ele>57.99999999999999</ele><time>2026-04-10T13:26:59.999Z</time></trkpt><trkpt lat="44.802846664208545" lon="10.324367279167193"><ele>58.0</ele><time>2026-04-10T13:27:00.999Z</time></trkpt><trkpt lat="44.80278105248022" lon="10.32435057403611"><ele>58.0</ele><time>2026-04-10T13:27:01.999Z</time></trkpt><trkpt lat="44.802710073376225" lon="10.324325130567717"><ele>58.0</ele><time>2026-04-10T13:27:02.999Z</time></trkpt><trkpt lat="44.80264468178691" lon="10.324304262716304"><ele>57.99999999999999</ele><time>2026-04-10T13:27:03.999Z</time></trkpt><trkpt lat="44.802541203704656" lon="10.324267757749169"><ele>58.0</ele><time>2026-04-10T13:27:05.999Z</time></trkpt><trkpt lat="44.80246354162767" lon="10.324247209820296"><ele>58.0</ele><time>2026-04-10T13:27:24.999Z</time></trkpt><trkpt lat="44.802379777132174" lon="10.324234759415335"><ele>58.0</ele><time>2026-04-10T13:27:27.999Z</time></trkpt><trkpt lat="44.802313293685486" lon="10.324215743341027"><ele>58.0</ele><time>2026-04-10T13:27:28.999Z</time></trkpt><trkpt lat="44.80225325251311" lon="10.324181714714648"><ele>58.0</ele><time>2026-04-10T13:27:30.999Z</time></trkpt><trkpt lat="44.802297041151256" lon="10.323927779105244"><ele>58.0</ele><time>2026-04-10T13:27:32.999Z</time></trkpt><trkpt lat="44.802328088054736" lon="10.32378898073066"><ele>58.0</ele><time>2026-04-10T13:27:33.999Z</time></trkpt><trkpt lat="44.80235363840653" lon="10.323639556597561"><ele>58.0</ele><time>2026-04-10T13:27:34.999Z</time></trkpt><trkpt lat="44.80237980585154" lon="10.323479993000923"><ele>58.0</ele><time>2026-04-10T13:27:35.999Z</time></trkpt><trkpt lat="44.80240639721768" lon="10.32333099620843"><ele>58.0</ele><time>2026-04-10T13:27:36.999Z</time></trkpt><trkpt lat="44.802429533131225" lon="10.32320271068033"><ele>58.0</ele><time>2026-04-10T13:27:37.999Z</time></trkpt><trkpt lat="44.8024458616092" lon="10.323098216793841"><ele>58.8</ele><time>2026-04-10T13:27:38.999Z</time></trkpt><trkpt lat="44.802469728083786" lon="10.32293855907143"><ele>59.599999999999994</ele><time>2026-04-10T13:27:40.999Z</time></trkpt><trkpt lat="44.80247247861697" lon="10.322820702378857"><ele>60.400000000000006</ele><time>2026-04-10T13:27:42.999Z</time></trkpt><trkpt lat="44.80237913683356" lon="10.322744856939533"><ele>61.2</ele><time>2026-04-10T13:27:44.999Z</time></trkpt><trkpt lat="44.80230208703587" lon="10.322696251700297"><ele>62.0</ele><time>2026-04-10T13:27:45.999Z</time></trkpt><trkpt lat="44.80223889539546" lon="10.322639916166588"><ele>62.0</ele><time>2026-04-10T13:27:46.999Z</time></trkpt><trkpt lat="44.80215453655391" lon="10.32260135004295"><ele>62.0</ele><time>2026-04-10T13:27:47.999Z</time></trkpt><trkpt lat="44.80205533766445" lon="10.322563810537318"><ele>62.0</ele><time>2026-04-10T13:27:48.999Z</time></trkpt><trkpt lat="44.80194925213334" lon="10.322502195183258"><ele>62.0</ele><time>2026-04-10T13:27:49.999Z</time></trkpt><trkpt lat="44.80183500075799" lon="10.32244289626337"><ele>62.0</ele><time>2026-04-10T13:27:50.999Z</time></trkpt><trkpt lat="44.801727754488155" lon="10.322370993752834"><ele>61.5</ele><time>2026-04-10T13:27:51.999Z</time></trkpt><trkpt lat="44.80162281014474" lon="10.32233060869206"><ele>61.0</ele><time>2026-04-10T13:27:52.999Z</time></trkpt><trkpt lat="44.80151448989941" lon="10.322293057735845"><ele>60.5</ele><time>2026-04-10T13:27:53.999Z</time></trkpt><trkpt lat="44.80139448819023" lon="10.322258319122934"><ele>60.0</ele><time>2026-04-10T13:27:54.999Z</time></trkpt><trkpt lat="44.801267421571644" lon="10.322306968725073"><ele>60.0</ele><time>2026-04-10T13:27:55.999Z</time></trkpt><trkpt lat="44.80114475103884" lon="10.322311844999998"><ele>60.0</ele><time>2026-04-10T13:27:56.999Z</time></trkpt><trkpt lat="44.80102308262444" lon="10.322281993778782"><ele>60.0</ele><time>2026-04-10T13:27:57.999Z</time></trkpt><trkpt lat="44.800914341619254" lon="10.322232198381833"><ele>60.0</ele><time>2026-04-10T13:27:58.999Z</time></trkpt><trkpt lat="44.800808359169736" lon="10.322186172252811"><ele>60.166666666666664</ele><time>2026-04-10T13:27:59.999Z</time></trkpt><trkpt lat="44.80072309900513" lon="10.322133610726311"><ele>60.33333333333333</ele><time>2026-04-10T13:28:00.999Z</time></trkpt><trkpt lat="44.80066131773366" lon="10.322038443831522"><ele>60.5</ele><time>2026-04-10T13:28:01.999Z</time></trkpt><trkpt lat="44.80058037105674" lon="10.321973530157127"><ele>60.666666666666664</ele><time>2026-04-10T13:28:02.999Z</time></trkpt><trkpt lat="44.800515912839344" lon="10.321894290322016"><ele>60.83333333333333</ele><time>2026-04-10T13:28:03.999Z</time></trkpt><trkpt lat="44.800451247737364" lon="10.321823234630628"><ele>61.0</ele><time>2026-04-10T13:28:04.999Z</time></trkpt><trkpt lat="44.80037873274457" lon="10.321764715171032"><ele>61.0</ele><time>2026-04-10T13:28:05.999Z</time></trkpt><trkpt lat="44.800316642819794" lon="10.321700123969537"><ele>60.99999999999999</ele><time>2026-04-10T13:28:06.999Z</time></trkpt><trkpt lat="44.800243949466356" lon="10.321653148226922"><ele>60.99999999999999</ele><time>2026-04-10T13:28:07.999Z</time></trkpt><trkpt lat="44.80018021836003" lon="10.321587815698281"><ele>61.0</ele><time>2026-04-10T13:28:08.999Z</time></trkpt><trkpt lat="44.80009045336186" lon="10.321520215321991"><ele>61.0</ele><time>2026-04-10T13:28:09.999Z</time></trkpt><trkpt lat="44.79998339719687" lon="10.321439754500965"><ele>61.0</ele><time>2026-04-10T13:28:10.999Z</time></trkpt><trkpt lat="44.799884158547876" lon="10.321382154572204"><ele>61.0</ele><time>2026-04-10T13:28:11.999Z</time></trkpt><trkpt lat="44.79978497861318" lon="10.321301193578396"><ele>61.0</ele><time>2026-04-10T13:28:12.999Z</time></trkpt><trkpt lat="44.799676079562" lon="10.32121243392354"><ele>61.0</ele><time>2026-04-10T13:28:13.999Z</time></trkpt><trkpt lat="44.79955997994623" lon="10.321120219946009"><ele>61.0</ele><time>2026-04-10T13:28:14.999Z</time></trkpt><trkpt lat="44.799448733088504" lon="10.321039339343876"><ele>61.0</ele><time>2026-04-10T13:28:15.999Z</time></trkpt><trkpt lat="44.79934915695319" lon="10.32094487707569"><ele>61.0</ele><time>2026-04-10T13:28:16.999Z</time></trkpt><trkpt lat="44.79924497893062" lon="10.320853197330978"><ele>61.0</ele><time>2026-04-10T13:28:17.999Z</time></trkpt><trkpt lat="44.799134738353786" lon="10.320768263551907"><ele>61.5</ele><time>2026-04-10T13:28:18.999Z</time></trkpt><trkpt lat="44.799020191945296" lon="10.320681581622136"><ele>62.0</ele><time>2026-04-10T13:28:19.999Z</time></trkpt><trkpt lat="44.79891692864491" lon="10.320590779867738"><ele>62.5</ele><time>2026-04-10T13:28:21Z</time></trkpt><trkpt lat="44.79881696145706" lon="10.32049948339774"><ele>63.0</ele><time>2026-04-10T13:28:22Z</time></trkpt><trkpt lat="44.79871852650775" lon="10.320413567480278"><ele>63.0</ele><time>2026-04-10T13:28:23Z</time></trkpt><trkpt lat="44.79862519278571" lon="10.320333288251181"><ele>63.0</ele><time>2026-04-10T13:28:24Z</time></trkpt><trkpt lat="44.79852964619394" lon="10.320253025024602"><ele>63.0</ele><time>2026-04-10T13:28:25Z</time></trkpt><trkpt lat="44.798428503559286" lon="10.320174411120615"><ele>63.0</ele><time>2026-04-10T13:28:26Z</time></trkpt><trkpt lat="44.798329643716144" lon="10.320102651485225"><ele>63.0</ele><time>2026-04-10T13:28:27Z</time></trkpt><trkpt lat="44.798242447564796" lon="10.320028486348795"><ele>63.0</ele><time>2026-04-10T13:28:28Z</time></trkpt><trkpt lat="44.798166303604454" lon="10.319955540100667"><ele>63.0</ele><time>2026-04-10T13:28:29Z</time></trkpt><trkpt lat="44.79808717313584" lon="10.319900806094534"><ele>63.0</ele><time>2026-04-10T13:28:30Z</time></trkpt><trkpt lat="44.798022633836524" lon="10.319846482784518"><ele>63.0</ele><time>2026-04-10T13:28:31Z</time></trkpt><trkpt lat="44.79796568638122" lon="10.31979589184974"><ele>63.0</ele><time>2026-04-10T13:28:32Z</time></trkpt><trkpt lat="44.79790432972648" lon="10.319736967137057"><ele>63.0</ele><time>2026-04-10T13:28:33Z</time></trkpt><trkpt lat="44.79782885127968" lon="10.31965344693099"><ele>63.0</ele><time>2026-04-10T13:28:34Z</time></trkpt><trkpt lat="44.79772649322163" lon="10.319540091464065"><ele>63.0</ele><time>2026-04-10T13:28:35Z</time></trkpt><trkpt lat="44.797616897770894" lon="10.319433568799386"><ele>63.0</ele><time>2026-04-10T13:28:36Z</time></trkpt><trkpt lat="44.797494827118356" lon="10.31932666361075"><ele>63.0</ele><time>2026-04-10T13:28:37Z</time></trkpt><trkpt lat="44.797372747436796" lon="10.319214809855316"><ele>63.0</ele><time>2026-04-10T13:28:38Z</time></trkpt><trkpt lat="44.79724582517471" lon="10.319099292054565"><ele>63.0</ele><time>2026-04-10T13:28:38.998Z</time></trkpt><trkpt lat="44.79711910522315" lon="10.318985913798025"><ele>63.0</ele><time>2026-04-10T13:28:39.998Z</time></trkpt><trkpt lat="44.79699137532263" lon="10.318875250984961"><ele>63.25</ele><time>2026-04-10T13:28:40.998Z</time></trkpt><trkpt lat="44.79687084051204" lon="10.318771833211038"><ele>63.5</ele><time>2026-04-10T13:28:41.998Z</time></trkpt><trkpt lat="44.79676003357681" lon="10.318670983228316"><ele>63.75</ele><time>2026-04-10T13:28:42.998Z</time></trkpt><trkpt lat="44.79665086419883" lon="10.318563796644192"><ele>64.0</ele><time>2026-04-10T13:28:43.998Z</time></trkpt><trkpt lat="44.79654778306115" lon="10.318469554890212"><ele>64.0</ele><time>2026-04-10T13:28:44.998Z</time></trkpt><trkpt lat="44.796453766766014" lon="10.31838520071811"><ele>64.0</ele><time>2026-04-10T13:28:45.998Z</time></trkpt><trkpt lat="44.79637419859976" lon="10.318304014215895"><ele>64.0</ele><time>2026-04-10T13:28:46.998Z</time></trkpt><trkpt lat="44.796319331940765" lon="10.318220474997272"><ele>64.0</ele><time>2026-04-10T13:28:47.998Z</time></trkpt><trkpt lat="44.796257469228856" lon="10.318144321729601"><ele>64.0</ele><time>2026-04-10T13:28:48.998Z</time></trkpt><trkpt lat="44.79623446149951" lon="10.318021795772635"><ele>63.800000000000004</ele><time>2026-04-10T13:28:49.998Z</time></trkpt><trkpt lat="44.79622989440001" lon="10.317930750741464"><ele>63.60000000000001</ele><time>2026-04-10T13:28:50.998Z</time></trkpt><trkpt lat="44.79625331851413" lon="10.317796500451886"><ele>63.4</ele><time>2026-04-10T13:28:52.999Z</time></trkpt><trkpt lat="44.79633981361178" lon="10.317683641101429"><ele>63.2</ele><time>2026-04-10T13:28:54.999Z</time></trkpt><trkpt lat="44.79642290418133" lon="10.317620528430641"><ele>63.0</ele><time>2026-04-10T13:28:55.999Z</time></trkpt><trkpt lat="44.79651422082338" lon="10.317527419794455"><ele>63.0</ele><time>2026-04-10T13:28:56.999Z</time></trkpt><trkpt lat="44.79660662052729" lon="10.31741089873451"><ele>63.0</ele><time>2026-04-10T13:28:57.999Z</time></trkpt><trkpt lat="44.796691174364604" lon="10.317336597267065"><ele>63.0</ele><time>2026-04-10T13:28:58.999Z</time></trkpt><trkpt lat="44.79676290123327" lon="10.317265461999273"><ele>63.0</ele><time>2026-04-10T13:28:59.999Z</time></trkpt><trkpt lat="44.79682243056919" lon="10.317206248450045"><ele>63.0</ele><time>2026-04-10T13:29:00.999Z</time></trkpt><trkpt lat="44.79688569698054" lon="10.317099265544902"><ele>63.166666666666664</ele><time>2026-04-10T13:29:02.999Z</time></trkpt><trkpt lat="44.796949679217356" lon="10.316972001495666"><ele>63.33333333333333</ele><time>2026-04-10T13:29:04.999Z</time></trkpt><trkpt lat="44.79693770562228" lon="10.316834611017143"><ele>63.5</ele><time>2026-04-10T13:29:06.999Z</time></trkpt><trkpt lat="44.79687989373627" lon="10.316786689326818"><ele>63.666666666666664</ele><time>2026-04-10T13:29:07.999Z</time></trkpt><trkpt lat="44.796813547707444" lon="10.316768957349227"><ele>63.83333333333333</ele><time>2026-04-10T13:29:08.999Z</time></trkpt><trkpt lat="44.79672585334766" lon="10.31677729371997"><ele>64.0</ele><time>2026-04-10T13:29:09.999Z</time></trkpt><trkpt lat="44.7966417365179" lon="10.316789909770334"><ele>63.99999999999999</ele><time>2026-04-10T13:29:10.999Z</time></trkpt><trkpt lat="44.79656771344758" lon="10.316778929687892"><ele>64.0</ele><time>2026-04-10T13:29:11.999Z</time></trkpt><trkpt lat="44.79648460878185" lon="10.316883014219668"><ele>64.0</ele><time>2026-04-10T13:29:12.999Z</time></trkpt><trkpt lat="44.7964137886846" lon="10.316942959056135"><ele>64.0</ele><time>2026-04-10T13:29:13.999Z</time></trkpt><trkpt lat="44.79636488762366" lon="10.316999979128882"><ele>63.99999999999999</ele><time>2026-04-10T13:29:14.999Z</time></trkpt><trkpt lat="44.796278223529335" lon="10.317099893192841"><ele>64.0</ele><time>2026-04-10T13:29:16.999Z</time></trkpt><trkpt lat="44.79619483699868" lon="10.31716648442052"><ele>64.0</ele><time>2026-04-10T13:29:18.999Z</time></trkpt><trkpt lat="44.796132708293044" lon="10.317214133860823"><ele>64.0</ele><time>2026-04-10T13:29:20.999Z</time></trkpt><trkpt lat="44.79603229731849" lon="10.317265386524602"><ele>64.0</ele><time>2026-04-10T13:29:26.999Z</time></trkpt><trkpt lat="44.795964296387645" lon="10.317177709285838"><ele>64.0</ele><time>2026-04-10T13:29:28.999Z</time></trkpt><trkpt lat="44.79593483099186" lon="10.31709467525895"><ele>64.0</ele><time>2026-04-10T13:29:32.999Z</time></trkpt><trkpt lat="44.79593643670932" lon="10.316930381078983"><ele>64.0</ele><time>2026-04-10T13:29:34.999Z</time></trkpt><trkpt lat="44.795960568996136" lon="10.316800005499706"><ele>64.0</ele><time>2026-04-10T13:29:35.999Z</time></trkpt><trkpt lat="44.79599700732528" lon="10.316649592677889"><ele>64.0</ele><time>2026-04-10T13:29:37Z</time></trkpt><trkpt lat="44.79602994645442" lon="10.316490060294992"><ele>64.0</ele><time>2026-04-10T13:29:38Z</time></trkpt><trkpt lat="44.79606785085229" lon="10.316301810336412"><ele>63.666666666666664</ele><time>2026-04-10T13:29:39Z</time></trkpt><trkpt lat="44.79610947172984" lon="10.316099095336796"><ele>63.33333333333333</ele><time>2026-04-10T13:29:40Z</time></trkpt><trkpt lat="44.79615344742229" lon="10.315890449769679"><ele>63.0</ele><time>2026-04-10T13:29:41Z</time></trkpt><trkpt lat="44.7962015428211" lon="10.315677433388538"><ele>63.33333333333333</ele><time>2026-04-10T13:29:42Z</time></trkpt><trkpt lat="44.79625703227721" lon="10.315472934838148"><ele>63.666666666666664</ele><time>2026-04-10T13:29:43Z</time></trkpt><trkpt lat="44.79631228470889" lon="10.315281020158462"><ele>64.0</ele><time>2026-04-10T13:29:44Z</time></trkpt><trkpt lat="44.79637845738037" lon="10.31507224250934"><ele>64.0</ele><time>2026-04-10T13:29:45Z</time></trkpt><trkpt lat="44.79643663114861" lon="10.314871520797851"><ele>64.0</ele><time>2026-04-10T13:29:46Z</time></trkpt><trkpt lat="44.79649306137272" lon="10.314682047001885"><ele>64.0</ele><time>2026-04-10T13:29:47Z</time></trkpt><trkpt lat="44.796538349585056" lon="10.314509355323455"><ele>64.0</ele><time>2026-04-10T13:29:48Z</time></trkpt><trkpt lat="44.79658393506427" lon="10.314345343930992"><ele>64.0</ele><time>2026-04-10T13:29:49Z</time></trkpt><trkpt lat="44.79663018205167" lon="10.31419394034425"><ele>64.0</ele><time>2026-04-10T13:29:50Z</time></trkpt><trkpt lat="44.79667927443058" lon="10.314020385522033"><ele>64.0</ele><time>2026-04-10T13:29:51Z</time></trkpt><trkpt lat="44.796709448864085" lon="10.31381973049663"><ele>64.0</ele><time>2026-04-10T13:29:52Z</time></trkpt><trkpt lat="44.79671707901157" lon="10.313592323264452"><ele>64.0</ele><time>2026-04-10T13:29:53Z</time></trkpt><trkpt lat="44.796717422309726" lon="10.313351594818819"><ele>64.0</ele><time>2026-04-10T13:29:54Z</time></trkpt><trkpt lat="44.79670329080408" lon="10.313113014470673"><ele>64.0</ele><time>2026-04-10T13:29:55Z</time></trkpt><trkpt lat="44.79669533772203" lon="10.312888077916108"><ele>62.666666666666664</ele><time>2026-04-10T13:29:56Z</time></trkpt><trkpt lat="44.796691915016176" lon="10.312662353934643"><ele>61.33333333333333</ele><time>2026-04-10T13:29:57Z</time></trkpt><trkpt lat="44.79668030859291" lon="10.312441847716237"><ele>60.0</ele><time>2026-04-10T13:29:58Z</time></trkpt><trkpt lat="44.796687668435084" lon="10.312218276268133"><ele>60.0</ele><time>2026-04-10T13:29:59Z</time></trkpt><trkpt lat="44.79668495242166" lon="10.311994434625225"><ele>60.0</ele><time>2026-04-10T13:30:00Z</time></trkpt><trkpt lat="44.79666715404005" lon="10.311756799727066"><ele>60.0</ele><time>2026-04-10T13:30:01Z</time></trkpt><trkpt lat="44.79666979086015" lon="10.311530015192261"><ele>60.5</ele><time>2026-04-10T13:30:02Z</time></trkpt><trkpt lat="44.796669350260004" lon="10.311320076626291"><ele>61.0</ele><time>2026-04-10T13:30:03Z</time></trkpt><trkpt lat="44.796664787356576" lon="10.311111085101997"><ele>61.5</ele><time>2026-04-10T13:30:04Z</time></trkpt><trkpt lat="44.7966623181334" lon="10.310899056299393"><ele>62.0</ele><time>2026-04-10T13:30:05Z</time></trkpt><trkpt lat="44.796661424580826" lon="10.310691672110954"><ele>62.0</ele><time>2026-04-10T13:30:06Z</time></trkpt><trkpt lat="44.7966614178957" lon="10.310499903743231"><ele>62.0</ele><time>2026-04-10T13:30:07Z</time></trkpt><trkpt lat="44.79665567013232" lon="10.310323547025211"><ele>62.0</ele><time>2026-04-10T13:30:08Z</time></trkpt><trkpt lat="44.79665254371332" lon="10.310147784082847"><ele>62.0</ele><time>2026-04-10T13:30:09Z</time></trkpt><trkpt lat="44.79664823880768" lon="10.309964244593413"><ele>62.0</ele><time>2026-04-10T13:30:10Z</time></trkpt><trkpt lat="44.7966445967778" lon="10.30977775473924"><ele>62.0</ele><time>2026-04-10T13:30:11Z</time></trkpt><trkpt lat="44.796641237660495" lon="10.309587205225654"><ele>62.0</ele><time>2026-04-10T13:30:12Z</time></trkpt><trkpt lat="44.79663741209964" lon="10.309398606313291"><ele>62.0</ele><time>2026-04-10T13:30:13Z</time></trkpt><trkpt lat="44.796635410527244" lon="10.309210428366592"><ele>62.0</ele><time>2026-04-10T13:30:14Z</time></trkpt><trkpt lat="44.79663323726407" lon="10.309031284803288"><ele>62.0</ele><time>2026-04-10T13:30:15Z</time></trkpt><trkpt lat="44.79662952721137" lon="10.308844674171798"><ele>62.0</ele><time>2026-04-10T13:30:16Z</time></trkpt><trkpt lat="44.7966269950214" lon="10.308667718060045"><ele>62.0</ele><time>2026-04-10T13:30:17Z</time></trkpt><trkpt lat="44.79662499415296" lon="10.308500165855312"><ele>61.8</ele><time>2026-04-10T13:30:18Z</time></trkpt><trkpt lat="44.796625669522356" lon="10.308354805004493"><ele>61.6</ele><time>2026-04-10T13:30:19Z</time></trkpt><trkpt lat="44.79662605836378" lon="10.308232442891446"><ele>61.39999999999999</ele><time>2026-04-10T13:30:20Z</time></trkpt><trkpt lat="44.796625939094696" lon="10.308124442720986"><ele>61.199999999999996</ele><time>2026-04-10T13:30:21Z</time></trkpt><trkpt lat="44.79662671886921" lon="10.307987289222156"><ele>61.0</ele><time>2026-04-10T13:30:22Z</time></trkpt><trkpt lat="44.79662387082064" lon="10.307837421062027"><ele>60.75</ele><time>2026-04-10T13:30:23Z</time></trkpt><trkpt lat="44.796617862693246" lon="10.307674045536684"><ele>60.5</ele><time>2026-04-10T13:30:24Z</time></trkpt><trkpt lat="44.79662664706209" lon="10.307493636960242"><ele>60.25</ele><time>2026-04-10T13:30:25Z</time></trkpt><trkpt lat="44.79662498824309" lon="10.307322974910774"><ele>60.0</ele><time>2026-04-10T13:30:26Z</time></trkpt><trkpt lat="44.79662358692011" lon="10.307178804546265"><ele>60.0</ele><time>2026-04-10T13:30:27Z</time></trkpt><trkpt lat="44.7966223365002" lon="10.307050159316551"><ele>60.0</ele><time>2026-04-10T13:30:28Z</time></trkpt><trkpt lat="44.79662104615598" lon="10.306917406696755"><ele>60.0</ele><time>2026-04-10T13:30:29Z</time></trkpt><trkpt lat="44.79661961259242" lon="10.306750983071428"><ele>60.0</ele><time>2026-04-10T13:30:30Z</time></trkpt><trkpt lat="44.796617971281584" lon="10.30655881287997"><ele>60.0</ele><time>2026-04-10T13:30:31Z</time></trkpt><trkpt lat="44.79660998625204" lon="10.306349690111336"><ele>60.25</ele><time>2026-04-10T13:30:32Z</time></trkpt><trkpt lat="44.79661168989791" lon="10.306125561653623"><ele>60.5</ele><time>2026-04-10T13:30:33Z</time></trkpt><trkpt lat="44.796610679018755" lon="10.305924782159805"><ele>60.75</ele><time>2026-04-10T13:30:34Z</time></trkpt><trkpt lat="44.79660776187095" lon="10.305726070530293"><ele>61.0</ele><time>2026-04-10T13:30:35Z</time></trkpt><trkpt lat="44.79660146463077" lon="10.305530466336318"><ele>61.0</ele><time>2026-04-10T13:30:36Z</time></trkpt><trkpt lat="44.79659152310786" lon="10.305355007176672"><ele>60.99999999999999</ele><time>2026-04-10T13:30:37Z</time></trkpt><trkpt lat="44.79658363473888" lon="10.305194195435424"><ele>60.99999999999999</ele><time>2026-04-10T13:30:38Z</time></trkpt><trkpt lat="44.79658213656646" lon="10.305056677979156"><ele>61.0</ele><time>2026-04-10T13:30:39Z</time></trkpt><trkpt lat="44.796585671949536" lon="10.304936099343696"><ele>61.0</ele><time>2026-04-10T13:30:40Z</time></trkpt><trkpt lat="44.796595245300104" lon="10.304838195611335"><ele>61.0</ele><time>2026-04-10T13:30:41Z</time></trkpt><trkpt lat="44.796623083956604" lon="10.304684923986548"><ele>60.99999999999999</ele><time>2026-04-10T13:30:43Z</time></trkpt><trkpt lat="44.79665396791911" lon="10.304551872386497"><ele>60.99999999999999</ele><time>2026-04-10T13:30:44.999Z</time></trkpt><trkpt lat="44.79662419499178" lon="10.304366254797525"><ele>61.0</ele><time>2026-04-10T13:30:46.999Z</time></trkpt><trkpt lat="44.796595576634175" lon="10.304231219350257"><ele>61.0</ele><time>2026-04-10T13:30:47.999Z</time></trkpt><trkpt lat="44.796577672330194" lon="10.304054604342872"><ele>60.666666666666664</ele><time>2026-04-10T13:30:48.999Z</time></trkpt><trkpt lat="44.79656996635806" lon="10.303847091785576"><ele>60.33333333333333</ele><time>2026-04-10T13:30:49.999Z</time></trkpt><trkpt lat="44.796567636165165" lon="10.303641032670859"><ele>60.0</ele><time>2026-04-10T13:30:50.999Z</time></trkpt><trkpt lat="44.79657081129032" lon="10.303411694728403"><ele>60.0</ele><time>2026-04-10T13:30:51.999Z</time></trkpt><trkpt lat="44.79657181385285" lon="10.30317898355794"><ele>60.0</ele><time>2026-04-10T13:30:52.999Z</time></trkpt><trkpt lat="44.796562530024524" lon="10.302943932191035"><ele>60.0</ele><time>2026-04-10T13:30:53.999Z</time></trkpt><trkpt lat="44.79657304325981" lon="10.302689233615803"><ele>60.0</ele><time>2026-04-10T13:30:54.999Z</time></trkpt><trkpt lat="44.79655283862254" lon="10.30242337925915"><ele>60.0</ele><time>2026-04-10T13:30:55.999Z</time></trkpt><trkpt lat="44.79656549430745" lon="10.302130436528435"><ele>60.0</ele><time>2026-04-10T13:30:56.999Z</time></trkpt><trkpt lat="44.796561795049556" lon="10.301831074238423"><ele>60.66666666666667</ele><time>2026-04-10T13:30:57.999Z</time></trkpt><trkpt lat="44.796558961552044" lon="10.301552737899188"><ele>61.333333333333336</ele><time>2026-04-10T13:30:58.999Z</time></trkpt><trkpt lat="44.79655693763942" lon="10.301292256486178"><ele>62.0</ele><time>2026-04-10T13:30:59.999Z</time></trkpt><trkpt lat="44.796555983826025" lon="10.301045821115427"><ele>62.0</ele><time>2026-04-10T13:31:00.999Z</time></trkpt><trkpt lat="44.79655548785064" lon="10.300824142176415"><ele>62.0</ele><time>2026-04-10T13:31:01.999Z</time></trkpt><trkpt lat="44.79655710447121" lon="10.300611854304085"><ele>62.0</ele><time>2026-04-10T13:31:02.999Z</time></trkpt><trkpt lat="44.79654381289694" lon="10.300415587194454"><ele>62.0</ele><time>2026-04-10T13:31:03.999Z</time></trkpt><trkpt lat="44.796555390686954" lon="10.300220368526535"><ele>62.0</ele><time>2026-04-10T13:31:04.999Z</time></trkpt><trkpt lat="44.796551571184196" lon="10.300003609189034"><ele>62.0</ele><time>2026-04-10T13:31:05.999Z</time></trkpt><trkpt lat="44.796543784847884" lon="10.299770313383021"><ele>62.0</ele><time>2026-04-10T13:31:06.999Z</time></trkpt><trkpt lat="44.796536082998344" lon="10.299535929598395"><ele>61.66666666666667</ele><time>2026-04-10T13:31:07.999Z</time></trkpt><trkpt lat="44.79651972711109" lon="10.299301792108922"><ele>61.33333333333333</ele><time>2026-04-10T13:31:08.999Z</time></trkpt><trkpt lat="44.79647988030971" lon="10.299068459692823"><ele>61.0</ele><time>2026-04-10T13:31:09.999Z</time></trkpt><trkpt lat="44.79641617118822" lon="10.29885172191739"><ele>61.0</ele><time>2026-04-10T13:31:10.999Z</time></trkpt><trkpt lat="44.79635412844057" lon="10.298658072313204"><ele>61.0</ele><time>2026-04-10T13:31:11.999Z</time></trkpt><trkpt lat="44.796299286822844" lon="10.29847907724092"><ele>61.0</ele><time>2026-04-10T13:31:12.999Z</time></trkpt><trkpt lat="44.79624869857448" lon="10.298315482013821"><ele>61.0</ele><time>2026-04-10T13:31:13.999Z</time></trkpt><trkpt lat="44.79619517384635" lon="10.298156414944403"><ele>61.0</ele><time>2026-04-10T13:31:15Z</time></trkpt><trkpt lat="44.79613581704007" lon="10.297974125915399"><ele>61.0</ele><time>2026-04-10T13:31:16Z</time></trkpt><trkpt lat="44.7960874274864" lon="10.297765418596082"><ele>61.0</ele><time>2026-04-10T13:31:17Z</time></trkpt><trkpt lat="44.79604261724895" lon="10.297539469664185"><ele>61.0</ele><time>2026-04-10T13:31:18Z</time></trkpt><trkpt lat="44.795979830145" lon="10.297304723101435"><ele>61.0</ele><time>2026-04-10T13:31:19Z</time></trkpt><trkpt lat="44.79590713162694" lon="10.297093929712748"><ele>61.0</ele><time>2026-04-10T13:31:20Z</time></trkpt><trkpt lat="44.795845894108616" lon="10.296889747797955"><ele>61.0</ele><time>2026-04-10T13:31:21Z</time></trkpt><trkpt lat="44.79579928405515" lon="10.296700472045998"><ele>61.0</ele><time>2026-04-10T13:31:22Z</time></trkpt><trkpt lat="44.79575625259325" lon="10.296535324243706"><ele>61.0</ele><time>2026-04-10T13:31:23Z</time></trkpt><trkpt lat="44.79573350876878" lon="10.296375450279951"><ele>61.0</ele><time>2026-04-10T13:31:24Z</time></trkpt><trkpt lat="44.79571773863783" lon="10.296239584291833"><ele>60.83333333333333</ele><time>2026-04-10T13:31:25Z</time></trkpt><trkpt lat="44.7956965284042" lon="10.296132219489348"><ele>60.666666666666664</ele><time>2026-04-10T13:31:26Z</time></trkpt><trkpt lat="44.79570948848508" lon="10.296032198322731"><ele>60.5</ele><time>2026-04-10T13:31:27Z</time></trkpt><trkpt lat="44.795746689112136" lon="10.29588567289259"><ele>60.33333333333333</ele><time>2026-04-10T13:31:29Z</time></trkpt><trkpt lat="44.79575778514219" lon="10.295796582248393"><ele>60.166666666666664</ele><time>2026-04-10T13:31:30Z</time></trkpt><trkpt lat="44.7957661996086" lon="10.295684215802385"><ele>60.0</ele><time>2026-04-10T13:31:31Z</time></trkpt><trkpt lat="44.795733768735744" lon="10.295516599682783"><ele>59.66666666666667</ele><time>2026-04-10T13:31:32Z</time></trkpt><trkpt lat="44.79564593229268" lon="10.29533780450035"><ele>59.333333333333336</ele><time>2026-04-10T13:31:33Z</time></trkpt><trkpt lat="44.79553712484654" lon="10.295180207711473"><ele>59.0</ele><time>2026-04-10T13:31:34Z</time></trkpt><trkpt lat="44.7954363458765" lon="10.295041265506807"><ele>59.0</ele><time>2026-04-10T13:31:35Z</time></trkpt><trkpt lat="44.79533875149424" lon="10.294906797295743"><ele>59.0</ele><time>2026-04-10T13:31:36Z</time></trkpt><trkpt lat="44.79526150683209" lon="10.29473870351439"><ele>59.0</ele><time>2026-04-10T13:31:37Z</time></trkpt><trkpt lat="44.795215061008115" lon="10.294520930281179"><ele>59.0</ele><time>2026-04-10T13:31:38Z</time></trkpt><trkpt lat="44.79514095209133" lon="10.294294354503803"><ele>59.0</ele><time>2026-04-10T13:31:39Z</time></trkpt><trkpt lat="44.79507942894007" lon="10.294059934462767"><ele>59.0</ele><time>2026-04-10T13:31:40Z</time></trkpt><trkpt lat="44.79501024312886" lon="10.293812477495228"><ele>59.0</ele><time>2026-04-10T13:31:41Z</time></trkpt><trkpt lat="44.79493868125258" lon="10.293562226196016"><ele>59.0</ele><time>2026-04-10T13:31:42Z</time></trkpt><trkpt lat="44.794870140204715" lon="10.293323859541864"><ele>59.0</ele><time>2026-04-10T13:31:43Z</time></trkpt><trkpt lat="44.79480918011126" lon="10.293110732998722"><ele>59.0</ele><time>2026-04-10T13:31:44Z</time></trkpt><trkpt lat="44.794749349457476" lon="10.292905575472211"><ele>59.0</ele><time>2026-04-10T13:31:45Z</time></trkpt><trkpt lat="44.79469213448378" lon="10.292708045269244"><ele>59.0</ele><time>2026-04-10T13:31:46Z</time></trkpt><trkpt lat="44.7946349958565" lon="10.292485646293482"><ele>59.0</ele><time>2026-04-10T13:31:47Z</time></trkpt><trkpt lat="44.79457374486874" lon="10.292255795772164"><ele>59.0</ele><time>2026-04-10T13:31:48Z</time></trkpt><trkpt lat="44.79451331022611" lon="10.292042452213543"><ele>59.0</ele><time>2026-04-10T13:31:49Z</time></trkpt><trkpt lat="44.79444923790007" lon="10.29182266464724"><ele>59.0</ele><time>2026-04-10T13:31:50Z</time></trkpt><trkpt lat="44.79437807496033" lon="10.291601198086266"><ele>61.0</ele><time>2026-04-10T13:31:51Z</time></trkpt><trkpt lat="44.79430430205585" lon="10.2913739129909"><ele>63.0</ele><time>2026-04-10T13:31:52Z</time></trkpt><trkpt lat="44.79426706672859" lon="10.29112493817808"><ele>65.0</ele><time>2026-04-10T13:31:53Z</time></trkpt><trkpt lat="44.79418518345055" lon="10.290891681276927"><ele>65.0</ele><time>2026-04-10T13:31:54Z</time></trkpt><trkpt lat="44.79412937504616" lon="10.290651381617675"><ele>65.0</ele><time>2026-04-10T13:31:55Z</time></trkpt><trkpt lat="44.79406180508661" lon="10.290437105699327"><ele>65.0</ele><time>2026-04-10T13:31:56Z</time></trkpt><trkpt lat="44.793993325574135" lon="10.290203775680968"><ele>64.0</ele><time>2026-04-10T13:31:57Z</time></trkpt><trkpt lat="44.79393305246915" lon="10.289984285914715"><ele>63.0</ele><time>2026-04-10T13:31:58Z</time></trkpt><trkpt lat="44.793873716657934" lon="10.28976368852813"><ele>62.0</ele><time>2026-04-10T13:31:59Z</time></trkpt><trkpt lat="44.7938171179157" lon="10.289545614548675"><ele>62.0</ele><time>2026-04-10T13:32:00Z</time></trkpt><trkpt lat="44.7937596709312" lon="10.289333767282224"><ele>62.0</ele><time>2026-04-10T13:32:01Z</time></trkpt><trkpt lat="44.79370922991836" lon="10.28913984912852"><ele>62.0</ele><time>2026-04-10T13:32:02Z</time></trkpt><trkpt lat="44.793661466994756" lon="10.288960676121787"><ele>62.0</ele><time>2026-04-10T13:32:03Z</time></trkpt><trkpt lat="44.79361091788341" lon="10.28879425406326"><ele>62.0</ele><time>2026-04-10T13:32:04Z</time></trkpt><trkpt lat="44.79356286693224" lon="10.288643493555698"><ele>62.0</ele><time>2026-04-10T13:32:05Z</time></trkpt><trkpt lat="44.793522789622465" lon="10.288514933204866"><ele>62.0</ele><time>2026-04-10T13:32:06Z</time></trkpt><trkpt lat="44.793490919573955" lon="10.288399145599255"><ele>62.0</ele><time>2026-04-10T13:32:07Z</time></trkpt><trkpt lat="44.79348005251529" lon="10.288277590546526"><ele>62.0</ele><time>2026-04-10T13:32:08Z</time></trkpt><trkpt lat="44.79349673715248" lon="10.288157306505815"><ele>62.2</ele><time>2026-04-10T13:32:09Z</time></trkpt><trkpt lat="44.79351484692817" lon="10.288056663182727"><ele>62.400000000000006</ele><time>2026-04-10T13:32:10Z</time></trkpt><trkpt lat="44.7934943400779" lon="10.287949574449309"><ele>62.599999999999994</ele><time>2026-04-10T13:32:11Z</time></trkpt><trkpt lat="44.79343985384001" lon="10.287855155087543"><ele>62.8</ele><time>2026-04-10T13:32:12Z</time></trkpt><trkpt lat="44.7933541752089" lon="10.287801996916516"><ele>63.0</ele><time>2026-04-10T13:32:13Z</time></trkpt><trkpt lat="44.79328663133283" lon="10.287660774704161"><ele>63.25</ele><time>2026-04-10T13:32:14Z</time></trkpt><trkpt lat="44.793226992456106" lon="10.287510009254282"><ele>63.5</ele><time>2026-04-10T13:32:15Z</time></trkpt><trkpt lat="44.79318146918742" lon="10.28732579891344"><ele>63.75</ele><time>2026-04-10T13:32:16Z</time></trkpt><trkpt lat="44.79314351695732" lon="10.287151462526726"><ele>64.0</ele><time>2026-04-10T13:32:17Z</time></trkpt><trkpt lat="44.7931058191419" lon="10.286998098235582"><ele>64.0</ele><time>2026-04-10T13:32:18Z</time></trkpt><trkpt lat="44.79306486032708" lon="10.286860443068159"><ele>64.0</ele><time>2026-04-10T13:32:19Z</time></trkpt><trkpt lat="44.793023785935645" lon="10.286716943370948"><ele>64.0</ele><time>2026-04-10T13:32:20Z</time></trkpt><trkpt lat="44.79297886376031" lon="10.28656295340557"><ele>64.0</ele><time>2026-04-10T13:32:21Z</time></trkpt><trkpt lat="44.79293135714512" lon="10.286391312184133"><ele>64.0</ele><time>2026-04-10T13:32:22Z</time></trkpt><trkpt lat="44.79288073102813" lon="10.286198378940409"><ele>64.0</ele><time>2026-04-10T13:32:23Z</time></trkpt><trkpt lat="44.79282879944246" lon="10.286001953215072"><ele>64.0</ele><time>2026-04-10T13:32:24Z</time></trkpt><trkpt lat="44.79277653014091" lon="10.285793067665013"><ele>63.33333333333333</ele><time>2026-04-10T13:32:25Z</time></trkpt><trkpt lat="44.792723988598766" lon="10.28557612540923"><ele>62.66666666666667</ele><time>2026-04-10T13:32:26Z</time></trkpt><trkpt lat="44.79266302514991" lon="10.285356298939154"><ele>62.0</ele><time>2026-04-10T13:32:27Z</time></trkpt><trkpt lat="44.79259792416149" lon="10.285142805325094"><ele>63.333333333333336</ele><time>2026-04-10T13:32:28Z</time></trkpt><trkpt lat="44.792535734541985" lon="10.284924355874072"><ele>64.66666666666667</ele><time>2026-04-10T13:32:29Z</time></trkpt><trkpt lat="44.79247530411721" lon="10.284705449120095"><ele>66.0</ele><time>2026-04-10T13:32:30Z</time></trkpt><trkpt lat="44.79241675856915" lon="10.28448524970922"><ele>66.33333333333333</ele><time>2026-04-10T13:32:31Z</time></trkpt><trkpt lat="44.792362810907335" lon="10.284262781315153"><ele>66.66666666666666</ele><time>2026-04-10T13:32:32Z</time></trkpt><trkpt lat="44.79231141446364" lon="10.284032985036774"><ele>67.0</ele><time>2026-04-10T13:32:33Z</time></trkpt><trkpt lat="44.792259212263446" lon="10.283826190832135"><ele>67.0</ele><time>2026-04-10T13:32:34Z</time></trkpt><trkpt lat="44.79220428218663" lon="10.283634356308953"><ele>67.0</ele><time>2026-04-10T13:32:35Z</time></trkpt><trkpt lat="44.792140697547595" lon="10.283426050692196"><ele>67.0</ele><time>2026-04-10T13:32:36Z</time></trkpt><trkpt lat="44.792077819458754" lon="10.283199693694671"><ele>66.0</ele><time>2026-04-10T13:32:37Z</time></trkpt><trkpt lat="44.79200884615691" lon="10.282944612761163"><ele>65.0</ele><time>2026-04-10T13:32:38Z</time></trkpt><trkpt lat="44.79193623157438" lon="10.282671119080229"><ele>64.0</ele><time>2026-04-10T13:32:39Z</time></trkpt><trkpt lat="44.79186186807922" lon="10.282397163102738"><ele>64.66666666666666</ele><time>2026-04-10T13:32:40Z</time></trkpt><trkpt lat="44.79178363661414" lon="10.282109875297799"><ele>65.33333333333333</ele><time>2026-04-10T13:32:41Z</time></trkpt><trkpt lat="44.79169944274135" lon="10.281857007923016"><ele>66.0</ele><time>2026-04-10T13:32:42Z</time></trkpt><trkpt lat="44.7916383342436" lon="10.281610915160103"><ele>65.66666666666667</ele><time>2026-04-10T13:32:43.001Z</time></trkpt><trkpt lat="44.79156636035684" lon="10.281366571761877"><ele>65.33333333333334</ele><time>2026-04-10T13:32:44.001Z</time></trkpt><trkpt lat="44.79149365078138" lon="10.281124337760975"><ele>65.0</ele><time>2026-04-10T13:32:45.001Z</time></trkpt><trkpt lat="44.791425798653904" lon="10.280879707965582"><ele>65.0</ele><time>2026-04-10T13:32:46.001Z</time></trkpt><trkpt lat="44.79135841815388" lon="10.280637226898502"><ele>65.0</ele><time>2026-04-10T13:32:47.001Z</time></trkpt><trkpt lat="44.791292523288" lon="10.28041477546312"><ele>65.0</ele><time>2026-04-10T13:32:48.001Z</time></trkpt><trkpt lat="44.79123018495698" lon="10.280208475172454"><ele>65.5</ele><time>2026-04-10T13:32:49.001Z</time></trkpt><trkpt lat="44.79117480178904" lon="10.280006603392373"><ele>66.0</ele><time>2026-04-10T13:32:50.001Z</time></trkpt><trkpt lat="44.79112937933517" lon="10.279810675438336"><ele>66.5</ele><time>2026-04-10T13:32:51Z</time></trkpt><trkpt lat="44.79107178440146" lon="10.279633323347495"><ele>67.0</ele><time>2026-04-10T13:32:52Z</time></trkpt><trkpt lat="44.79101967349723" lon="10.279444032228897"><ele>67.5</ele><time>2026-04-10T13:32:53Z</time></trkpt><trkpt lat="44.79096355119659" lon="10.27925607952331"><ele>68.0</ele><time>2026-04-10T13:32:54Z</time></trkpt><trkpt lat="44.79091509649398" lon="10.279085706835424"><ele>68.5</ele><time>2026-04-10T13:32:55Z</time></trkpt><trkpt lat="44.790871428701394" lon="10.278933370576503"><ele>69.0</ele><time>2026-04-10T13:32:56Z</time></trkpt><trkpt lat="44.790829508544235" lon="10.278780226448394"><ele>69.0</ele><time>2026-04-10T13:32:57Z</time></trkpt><trkpt lat="44.79078476311063" lon="10.278616753866489"><ele>69.0</ele><time>2026-04-10T13:32:58Z</time></trkpt><trkpt lat="44.79073254950275" lon="10.278427868717916"><ele>69.0</ele><time>2026-04-10T13:32:59Z</time></trkpt><trkpt lat="44.79067477588008" lon="10.278225007265911"><ele>69.0</ele><time>2026-04-10T13:33:00Z</time></trkpt><trkpt lat="44.79061918718357" lon="10.278034882262276"><ele>68.5</ele><time>2026-04-10T13:33:01Z</time></trkpt><trkpt lat="44.79056913211532" lon="10.277865596746885"><ele>68.0</ele><time>2026-04-10T13:33:02Z</time></trkpt><trkpt lat="44.79052496609653" lon="10.277711102924846"><ele>67.5</ele><time>2026-04-10T13:33:03Z</time></trkpt><trkpt lat="44.790484965443795" lon="10.277563475366247"><ele>67.0</ele><time>2026-04-10T13:33:04Z</time></trkpt><trkpt lat="44.79044271128542" lon="10.277413494270036"><ele>66.5</ele><time>2026-04-10T13:33:05Z</time></trkpt><trkpt lat="44.79039573817598" lon="10.27725398794352"><ele>66.0</ele><time>2026-04-10T13:33:06Z</time></trkpt><trkpt lat="44.79034596653018" lon="10.277091367353197"><ele>65.5</ele><time>2026-04-10T13:33:07Z</time></trkpt><trkpt lat="44.79028740981998" lon="10.276909234857166"><ele>65.0</ele><time>2026-04-10T13:33:08Z</time></trkpt><trkpt lat="44.79024353421256" lon="10.276703620889664"><ele>65.0</ele><time>2026-04-10T13:33:09Z</time></trkpt><trkpt lat="44.79018032468169" lon="10.276488399684823"><ele>65.0</ele><time>2026-04-10T13:33:10Z</time></trkpt><trkpt lat="44.790110487277545" lon="10.276250611513362"><ele>65.0</ele><time>2026-04-10T13:33:11Z</time></trkpt><trkpt lat="44.79004250615534" lon="10.276013301015515"><ele>66.66666666666667</ele><time>2026-04-10T13:33:12Z</time></trkpt><trkpt lat="44.789964211489554" lon="10.27577575049702"><ele>68.33333333333333</ele><time>2026-04-10T13:33:13Z</time></trkpt><trkpt lat="44.789901831849406" lon="10.275528868866358"><ele>70.0</ele><time>2026-04-10T13:33:14Z</time></trkpt><trkpt lat="44.789831640819685" lon="10.275276301350914"><ele>70.66666666666666</ele><time>2026-04-10T13:33:15Z</time></trkpt><trkpt lat="44.789761549492106" lon="10.275027976287735"><ele>71.33333333333333</ele><time>2026-04-10T13:33:16Z</time></trkpt><trkpt lat="44.78970109704245" lon="10.274803997683183"><ele>72.0</ele><time>2026-04-10T13:33:17Z</time></trkpt><trkpt lat="44.78963782430743" lon="10.274568136897825"><ele>72.0</ele><time>2026-04-10T13:33:18Z</time></trkpt><trkpt lat="44.789568795195095" lon="10.27434088456092"><ele>72.0</ele><time>2026-04-10T13:33:19Z</time></trkpt><trkpt lat="44.78950367171485" lon="10.274098458448846"><ele>72.0</ele><time>2026-04-10T13:33:20Z</time></trkpt><trkpt lat="44.7894395731929" lon="10.273865979481005"><ele>72.33333333333333</ele><time>2026-04-10T13:33:21Z</time></trkpt><trkpt lat="44.78937772623277" lon="10.273641810252984"><ele>72.66666666666666</ele><time>2026-04-10T13:33:22Z</time></trkpt><trkpt lat="44.78931190087963" lon="10.273410950556832"><ele>73.0</ele><time>2026-04-10T13:33:23Z</time></trkpt><trkpt lat="44.789245996793824" lon="10.273177115790675"><ele>73.0</ele><time>2026-04-10T13:33:24Z</time></trkpt><trkpt lat="44.789180980695704" lon="10.272959531351187"><ele>73.0</ele><time>2026-04-10T13:33:25Z</time></trkpt><trkpt lat="44.78912782244981" lon="10.272752113447412"><ele>73.0</ele><time>2026-04-10T13:33:26Z</time></trkpt><trkpt lat="44.78907537129357" lon="10.27256325611902"><ele>73.0</ele><time>2026-04-10T13:33:27Z</time></trkpt><trkpt lat="44.789017728302156" lon="10.272367789196274"><ele>73.0</ele><time>2026-04-10T13:33:28Z</time></trkpt><trkpt lat="44.78896364744405" lon="10.272189258272267"><ele>73.0</ele><time>2026-04-10T13:33:29Z</time></trkpt><trkpt lat="44.788927542581014" lon="10.272012458664106"><ele>73.0</ele><time>2026-04-10T13:33:30Z</time></trkpt><trkpt lat="44.788875461653355" lon="10.271828899926573"><ele>73.0</ele><time>2026-04-10T13:33:31Z</time></trkpt><trkpt lat="44.78880682044032" lon="10.271643119805608"><ele>73.0</ele><time>2026-04-10T13:33:32Z</time></trkpt><trkpt lat="44.78876107834877" lon="10.271464654356338"><ele>73.0</ele><time>2026-04-10T13:33:33Z</time></trkpt><trkpt lat="44.78871192773153" lon="10.271299931651317"><ele>73.0</ele><time>2026-04-10T13:33:34Z</time></trkpt><trkpt lat="44.788666826119595" lon="10.27113437140175"><ele>73.0</ele><time>2026-04-10T13:33:35Z</time></trkpt><trkpt lat="44.788618341177255" lon="10.270967320711014"><ele>73.0</ele><time>2026-04-10T13:33:36Z</time></trkpt><trkpt lat="44.78856855246466" lon="10.270789293476717"><ele>73.0</ele><time>2026-04-10T13:33:37Z</time></trkpt><trkpt lat="44.78851540485053" lon="10.270602666770785"><ele>73.0</ele><time>2026-04-10T13:33:38Z</time></trkpt><trkpt lat="44.78846281952551" lon="10.270418837321042"><ele>73.75</ele><time>2026-04-10T13:33:39Z</time></trkpt><trkpt lat="44.788413815060196" lon="10.270232091575894"><ele>74.5</ele><time>2026-04-10T13:33:40Z</time></trkpt><trkpt lat="44.78836619971172" lon="10.270045348986303"><ele>75.25</ele><time>2026-04-10T13:33:41Z</time></trkpt><trkpt lat="44.78831254175756" lon="10.269859128391898"><ele>76.0</ele><time>2026-04-10T13:33:42Z</time></trkpt><trkpt lat="44.78825454644645" lon="10.269674396085025"><ele>76.0</ele><time>2026-04-10T13:33:43Z</time></trkpt><trkpt lat="44.78819891442471" lon="10.269487612680843"><ele>76.0</ele><time>2026-04-10T13:33:44Z</time></trkpt><trkpt lat="44.788143096726245" lon="10.269304685607214"><ele>76.0</ele><time>2026-04-10T13:33:45Z</time></trkpt><trkpt lat="44.78809270993497" lon="10.269121987195797"><ele>76.0</ele><time>2026-04-10T13:33:46Z</time></trkpt><trkpt lat="44.78805823834666" lon="10.26893281924158"><ele>76.0</ele><time>2026-04-10T13:33:47Z</time></trkpt><trkpt lat="44.787995915478426" lon="10.268766797532887"><ele>76.0</ele><time>2026-04-10T13:33:48Z</time></trkpt><trkpt lat="44.78794777011699" lon="10.268592869743292"><ele>76.0</ele><time>2026-04-10T13:33:49Z</time></trkpt><trkpt lat="44.787913457232754" lon="10.26840662131845"><ele>76.0</ele><time>2026-04-10T13:33:50Z</time></trkpt><trkpt lat="44.78784965005608" lon="10.268233973873532"><ele>76.0</ele><time>2026-04-10T13:33:51Z</time></trkpt><trkpt lat="44.787804692008365" lon="10.268059284553768"><ele>76.0</ele><time>2026-04-10T13:33:52Z</time></trkpt><trkpt lat="44.78775582581437" lon="10.26788479054669"><ele>76.0</ele><time>2026-04-10T13:33:53Z</time></trkpt><trkpt lat="44.787710693631816" lon="10.267721136907172"><ele>76.0</ele><time>2026-04-10T13:33:54Z</time></trkpt><trkpt lat="44.787665208606114" lon="10.267549363357984"><ele>76.0</ele><time>2026-04-10T13:33:55Z</time></trkpt><trkpt lat="44.78761706581381" lon="10.267380032662029"><ele>76.0</ele><time>2026-04-10T13:33:56Z</time></trkpt><trkpt lat="44.78758821898253" lon="10.26720427749976"><ele>76.0</ele><time>2026-04-10T13:33:57Z</time></trkpt><trkpt lat="44.78753728098521" lon="10.267010797736363"><ele>76.0</ele><time>2026-04-10T13:33:58Z</time></trkpt><trkpt lat="44.7874726587417" lon="10.266771979130803"><ele>76.33333333333333</ele><time>2026-04-10T13:33:59.001Z</time></trkpt><trkpt lat="44.787402657255896" lon="10.266520411344924"><ele>76.66666666666667</ele><time>2026-04-10T13:34:00.001Z</time></trkpt><trkpt lat="44.78731211367123" lon="10.266257784427294"><ele>77.0</ele><time>2026-04-10T13:34:01.001Z</time></trkpt><trkpt lat="44.78724101767807" lon="10.265994652345286"><ele>77.0</ele><time>2026-04-10T13:34:02.001Z</time></trkpt><trkpt lat="44.78716935511243" lon="10.265751777916256"><ele>77.0</ele><time>2026-04-10T13:34:03.001Z</time></trkpt><trkpt lat="44.78711705564773" lon="10.265503096232852"><ele>77.0</ele><time>2026-04-10T13:34:04.001Z</time></trkpt><trkpt lat="44.78705076671461" lon="10.265267761204615"><ele>76.66666666666667</ele><time>2026-04-10T13:34:05.001Z</time></trkpt><trkpt lat="44.78697218728639" lon="10.265043567430522"><ele>76.33333333333333</ele><time>2026-04-10T13:34:06.001Z</time></trkpt><trkpt lat="44.78691333762926" lon="10.264827813132854"><ele>76.0</ele><time>2026-04-10T13:34:07.001Z</time></trkpt><trkpt lat="44.78685451444273" lon="10.264609038865133"><ele>75.75</ele><time>2026-04-10T13:34:08.001Z</time></trkpt><trkpt lat="44.78679892489606" lon="10.264402309039165"><ele>75.5</ele><time>2026-04-10T13:34:09.001Z</time></trkpt><trkpt lat="44.78674415626601" lon="10.264207520370176"><ele>75.25</ele><time>2026-04-10T13:34:10.001Z</time></trkpt><trkpt lat="44.78669161696388" lon="10.26404005892837"><ele>75.0</ele><time>2026-04-10T13:34:11.001Z</time></trkpt><trkpt lat="44.78664324653923" lon="10.263900202513835"><ele>75.0</ele><time>2026-04-10T13:34:12.001Z</time></trkpt><trkpt lat="44.78659453599986" lon="10.263768592824546"><ele>75.0</ele><time>2026-04-10T13:34:13.001Z</time></trkpt><trkpt lat="44.78653770481227" lon="10.263617247072027"><ele>75.0</ele><time>2026-04-10T13:34:14.001Z</time></trkpt><trkpt lat="44.7864900587757" lon="10.263448882469875"><ele>75.0</ele><time>2026-04-10T13:34:15.001Z</time></trkpt><trkpt lat="44.78646007331102" lon="10.263259199643874"><ele>75.5</ele><time>2026-04-10T13:34:16.001Z</time></trkpt><trkpt lat="44.786431626174384" lon="10.263061710189245"><ele>76.0</ele><time>2026-04-10T13:34:17.001Z</time></trkpt><trkpt lat="44.786383970260864" lon="10.262869675459871"><ele>76.5</ele><time>2026-04-10T13:34:18.001Z</time></trkpt><trkpt lat="44.78631858129134" lon="10.262682364454678"><ele>77.0</ele><time>2026-04-10T13:34:19.001Z</time></trkpt><trkpt lat="44.78626216233994" lon="10.262486955080787"><ele>77.0</ele><time>2026-04-10T13:34:20.001Z</time></trkpt><trkpt lat="44.786207333636774" lon="10.262284488225827"><ele>77.0</ele><time>2026-04-10T13:34:21.001Z</time></trkpt><trkpt lat="44.786157217460605" lon="10.262085484284846"><ele>77.0</ele><time>2026-04-10T13:34:22.001Z</time></trkpt><trkpt lat="44.7861044264145" lon="10.261891378045933"><ele>77.25</ele><time>2026-04-10T13:34:23.001Z</time></trkpt><trkpt lat="44.78604970921027" lon="10.261698631034204"><ele>77.5</ele><time>2026-04-10T13:34:24.001Z</time></trkpt><trkpt lat="44.785996702125395" lon="10.261505161113892"><ele>77.75</ele><time>2026-04-10T13:34:25.001Z</time></trkpt><trkpt lat="44.7859463648476" lon="10.261319268412354"><ele>78.0</ele><time>2026-04-10T13:34:26.001Z</time></trkpt><trkpt lat="44.78589206335431" lon="10.261135652614307"><ele>78.0</ele><time>2026-04-10T13:34:27.001Z</time></trkpt><trkpt lat="44.78583594499542" lon="10.260959730608404"><ele>78.0</ele><time>2026-04-10T13:34:28.001Z</time></trkpt><trkpt lat="44.78578520040053" lon="10.26079128210208"><ele>78.0</ele><time>2026-04-10T13:34:29.001Z</time></trkpt><trkpt lat="44.78574288568837" lon="10.260631840670703"><ele>78.0</ele><time>2026-04-10T13:34:30.001Z</time></trkpt><trkpt lat="44.785705551476056" lon="10.260485569967019"><ele>78.0</ele><time>2026-04-10T13:34:31.001Z</time></trkpt><trkpt lat="44.785663292324074" lon="10.260336861053739"><ele>78.0</ele><time>2026-04-10T13:34:32.001Z</time></trkpt><trkpt lat="44.78562371915368" lon="10.260180903629552"><ele>78.0</ele><time>2026-04-10T13:34:33.001Z</time></trkpt><trkpt lat="44.785582992463326" lon="10.26000952045768"><ele>78.0</ele><time>2026-04-10T13:34:34.001Z</time></trkpt><trkpt lat="44.78554160866455" lon="10.259858257207298"><ele>78.0</ele><time>2026-04-10T13:34:35.001Z</time></trkpt><trkpt lat="44.78550792714216" lon="10.259723223762645"><ele>78.0</ele><time>2026-04-10T13:34:36.001Z</time></trkpt><trkpt lat="44.78546873978724" lon="10.259558063906418"><ele>78.0</ele><time>2026-04-10T13:34:37.001Z</time></trkpt><trkpt lat="44.785419107779724" lon="10.259371323257103"><ele>78.0</ele><time>2026-04-10T13:34:38.001Z</time></trkpt><trkpt lat="44.78535936845503" lon="10.259172806258949"><ele>78.0</ele><time>2026-04-10T13:34:39.001Z</time></trkpt><trkpt lat="44.78529215295312" lon="10.258957795242074"><ele>78.0</ele><time>2026-04-10T13:34:40.001Z</time></trkpt><trkpt lat="44.78523844495208" lon="10.258785994335035"><ele>78.0</ele><time>2026-04-10T13:34:41.001Z</time></trkpt><trkpt lat="44.78519045328378" lon="10.258618779757851"><ele>78.0</ele><time>2026-04-10T13:34:42.001Z</time></trkpt><trkpt lat="44.78514641307805" lon="10.258468761904794"><ele>78.0</ele><time>2026-04-10T13:34:43.001Z</time></trkpt><trkpt lat="44.78510553260533" lon="10.2583273970769"><ele>78.0</ele><time>2026-04-10T13:34:44.001Z</time></trkpt><trkpt lat="44.7850665161697" lon="10.258189628831174"><ele>78.0</ele><time>2026-04-10T13:34:45.001Z</time></trkpt><trkpt lat="44.785025397430175" lon="10.258059642433649"><ele>78.0</ele><time>2026-04-10T13:34:46.001Z</time></trkpt><trkpt lat="44.78498695748759" lon="10.257935841955542"><ele>78.0</ele><time>2026-04-10T13:34:47.001Z</time></trkpt><trkpt lat="44.784953896255935" lon="10.257823952094522"><ele>78.0</ele><time>2026-04-10T13:34:48.001Z</time></trkpt><trkpt lat="44.7849196859099" lon="10.257721059636053"><ele>78.0</ele><time>2026-04-10T13:34:49.001Z</time></trkpt><trkpt lat="44.7848676730682" lon="10.257573403215284"><ele>78.0</ele><time>2026-04-10T13:34:50.001Z</time></trkpt><trkpt lat="44.78481999492467" lon="10.257387330917313"><ele>78.0</ele><time>2026-04-10T13:34:51.001Z</time></trkpt><trkpt lat="44.78475964426918" lon="10.257181550834526"><ele>77.33333333333333</ele><time>2026-04-10T13:34:52.001Z</time></trkpt><trkpt lat="44.78468403888149" lon="10.256961789596799"><ele>76.66666666666666</ele><time>2026-04-10T13:34:53.001Z</time></trkpt><trkpt lat="44.7846258393397" lon="10.256736457314549"><ele>76.0</ele><time>2026-04-10T13:34:54.001Z</time></trkpt><trkpt lat="44.784567022937026" lon="10.256536130339926"><ele>76.0</ele><time>2026-04-10T13:34:55.001Z</time></trkpt><trkpt lat="44.78451066669985" lon="10.256334984722171"><ele>76.0</ele><time>2026-04-10T13:34:56.001Z</time></trkpt><trkpt lat="44.78445194871018" lon="10.256125387793054"><ele>76.0</ele><time>2026-04-10T13:34:57.001Z</time></trkpt><trkpt lat="44.78438664982033" lon="10.255899267708777"><ele>75.66666666666666</ele><time>2026-04-10T13:34:58.001Z</time></trkpt><trkpt lat="44.78431995113042" lon="10.255663952030147"><ele>75.33333333333333</ele><time>2026-04-10T13:34:59.001Z</time></trkpt><trkpt lat="44.784251817642605" lon="10.255408772890302"><ele>75.0</ele><time>2026-04-10T13:35:00.001Z</time></trkpt><trkpt lat="44.78418093008293" lon="10.255146930112916"><ele>75.0</ele><time>2026-04-10T13:35:01.001Z</time></trkpt><trkpt lat="44.78410561655166" lon="10.254874273694348"><ele>75.0</ele><time>2026-04-10T13:35:02.001Z</time></trkpt><trkpt lat="44.78402651327391" lon="10.254598955944012"><ele>75.0</ele><time>2026-04-10T13:35:03.001Z</time></trkpt><trkpt lat="44.78394234418429" lon="10.254305205484808"><ele>73.5</ele><time>2026-04-10T13:35:04.001Z</time></trkpt><trkpt lat="44.783854692240865" lon="10.253997336822858"><ele>72.0</ele><time>2026-04-10T13:35:05.001Z</time></trkpt><trkpt lat="44.78377230849931" lon="10.25370465208666"><ele>72.0</ele><time>2026-04-10T13:35:06.001Z</time></trkpt><trkpt lat="44.78369315297016" lon="10.253420456468207"><ele>72.0</ele><time>2026-04-10T13:35:07.001Z</time></trkpt><trkpt lat="44.783611621379634" lon="10.253122239755275"><ele>72.0</ele><time>2026-04-10T13:35:08.001Z</time></trkpt><trkpt lat="44.783524866532325" lon="10.252808527370638"><ele>74.0</ele><time>2026-04-10T13:35:09.001Z</time></trkpt><trkpt lat="44.78343466067781" lon="10.252483313512545"><ele>76.0</ele><time>2026-04-10T13:35:10.001Z</time></trkpt><trkpt lat="44.78335102214344" lon="10.252169633718816"><ele>76.0</ele><time>2026-04-10T13:35:11.001Z</time></trkpt><trkpt lat="44.78327835607323" lon="10.251888107806845"><ele>76.0</ele><time>2026-04-10T13:35:12.001Z</time></trkpt><trkpt lat="44.783210209298616" lon="10.251630400453234"><ele>76.0</ele><time>2026-04-10T13:35:13.001Z</time></trkpt><trkpt lat="44.78314501708359" lon="10.251381877382219"><ele>76.0</ele><time>2026-04-10T13:35:14.001Z</time></trkpt><trkpt lat="44.783080922856335" lon="10.25113917968884"><ele>76.0</ele><time>2026-04-10T13:35:15.001Z</time></trkpt><trkpt lat="44.78302010788176" lon="10.250909621470445"><ele>76.0</ele><time>2026-04-10T13:35:16.001Z</time></trkpt><trkpt lat="44.78296251678624" lon="10.25069480468895"><ele>76.0</ele><time>2026-04-10T13:35:17.001Z</time></trkpt><trkpt lat="44.782909241245655" lon="10.250498827767473"><ele>76.0</ele><time>2026-04-10T13:35:18.001Z</time></trkpt><trkpt lat="44.78285557490363" lon="10.250310378896081"><ele>76.0</ele><time>2026-04-10T13:35:19.001Z</time></trkpt><trkpt lat="44.78280088204261" lon="10.250109969174824"><ele>76.0</ele><time>2026-04-10T13:35:20.001Z</time></trkpt><trkpt lat="44.78274925764663" lon="10.249926225941545"><ele>76.33333333333333</ele><time>2026-04-10T13:35:21.001Z</time></trkpt><trkpt lat="44.78269194019708" lon="10.249715413665422"><ele>76.66666666666667</ele><time>2026-04-10T13:35:22.001Z</time></trkpt><trkpt lat="44.782627788511775" lon="10.24948177657307"><ele>77.0</ele><time>2026-04-10T13:35:23.001Z</time></trkpt><trkpt lat="44.78256077041202" lon="10.249245675258122"><ele>77.66666666666667</ele><time>2026-04-10T13:35:24.001Z</time></trkpt><trkpt lat="44.78248687293782" lon="10.24899383909914"><ele>78.33333333333333</ele><time>2026-04-10T13:35:25.001Z</time></trkpt><trkpt lat="44.78241586725759" lon="10.248744959968654"><ele>79.0</ele><time>2026-04-10T13:35:26.001Z</time></trkpt><trkpt lat="44.78234461730314" lon="10.248491885455609"><ele>79.0</ele><time>2026-04-10T13:35:27.001Z</time></trkpt><trkpt lat="44.78227268895721" lon="10.248225916771826"><ele>79.0</ele><time>2026-04-10T13:35:28.001Z</time></trkpt><trkpt lat="44.7821960148852" lon="10.2479424907736"><ele>79.0</ele><time>2026-04-10T13:35:29.001Z</time></trkpt><trkpt lat="44.78211263987882" lon="10.247648968692296"><ele>79.0</ele><time>2026-04-10T13:35:30.001Z</time></trkpt><trkpt lat="44.782019793665796" lon="10.247338483885628"><ele>79.0</ele><time>2026-04-10T13:35:31.001Z</time></trkpt><trkpt lat="44.7819372098263" lon="10.247046938845003"><ele>79.0</ele><time>2026-04-10T13:35:32.001Z</time></trkpt><trkpt lat="44.78185808888028" lon="10.246763562414632"><ele>79.0</ele><time>2026-04-10T13:35:33.001Z</time></trkpt><trkpt lat="44.781780002948096" lon="10.246475661103247"><ele>79.0</ele><time>2026-04-10T13:35:34.001Z</time></trkpt><trkpt lat="44.78170099174742" lon="10.246172895533936"><ele>79.0</ele><time>2026-04-10T13:35:35.001Z</time></trkpt><trkpt lat="44.78163267627494" lon="10.245837174346736"><ele>79.0</ele><time>2026-04-10T13:35:36.001Z</time></trkpt><trkpt lat="44.78154403329019" lon="10.245490481076258"><ele>78.5</ele><time>2026-04-10T13:35:37.001Z</time></trkpt><trkpt lat="44.78143268688942" lon="10.24514777381657"><ele>78.0</ele><time>2026-04-10T13:35:38.001Z</time></trkpt><trkpt lat="44.781330470483596" lon="10.244774453264965"><ele>77.0</ele><time>2026-04-10T13:35:39.001Z</time></trkpt><trkpt lat="44.78122404597718" lon="10.244391822688684"><ele>76.0</ele><time>2026-04-10T13:35:40.001Z</time></trkpt><trkpt lat="44.7811262025553" lon="10.244041797247766"><ele>77.0</ele><time>2026-04-10T13:35:41.001Z</time></trkpt><trkpt lat="44.78103405517079" lon="10.243707180444991"><ele>78.0</ele><time>2026-04-10T13:35:42.001Z</time></trkpt><trkpt lat="44.780941963820766" lon="10.243374171587698"><ele>79.5</ele><time>2026-04-10T13:35:43.001Z</time></trkpt><trkpt lat="44.78085228247915" lon="10.243045139923815"><ele>81.0</ele><time>2026-04-10T13:35:44.001Z</time></trkpt><trkpt lat="44.7807675737209" lon="10.242737475056462"><ele>81.0</ele><time>2026-04-10T13:35:45.001Z</time></trkpt><trkpt lat="44.78068252946372" lon="10.242432191475253"><ele>81.0</ele><time>2026-04-10T13:35:46.001Z</time></trkpt><trkpt lat="44.780598912603935" lon="10.242128670461776"><ele>81.5</ele><time>2026-04-10T13:35:47.001Z</time></trkpt><trkpt lat="44.780513220857834" lon="10.241821643615184"><ele>82.0</ele><time>2026-04-10T13:35:48.001Z</time></trkpt><trkpt lat="44.78042875614916" lon="10.241511516947144"><ele>82.5</ele><time>2026-04-10T13:35:49.001Z</time></trkpt><trkpt lat="44.78034627458828" lon="10.241208798889362"><ele>83.0</ele><time>2026-04-10T13:35:50.001Z</time></trkpt><trkpt lat="44.7802605157963" lon="10.240904689737594"><ele>83.5</ele><time>2026-04-10T13:35:51.001Z</time></trkpt><trkpt lat="44.780175373968845" lon="10.240603691024477"><ele>84.0</ele><time>2026-04-10T13:35:52.001Z</time></trkpt><trkpt lat="44.780091651974914" lon="10.240304120007265"><ele>84.0</ele><time>2026-04-10T13:35:53.001Z</time></trkpt><trkpt lat="44.780006857802086" lon="10.240008239061256"><ele>84.0</ele><time>2026-04-10T13:35:54.001Z</time></trkpt><trkpt lat="44.779923668016" lon="10.239713208175418"><ele>84.33333333333333</ele><time>2026-04-10T13:35:55.001Z</time></trkpt><trkpt lat="44.77984055300611" lon="10.239421156320308"><ele>84.66666666666666</ele><time>2026-04-10T13:35:56.001Z</time></trkpt><trkpt lat="44.77975689045801" lon="10.239132004351712"><ele>85.0</ele><time>2026-04-10T13:35:57.001Z</time></trkpt><trkpt lat="44.77966780992716" lon="10.238825159274167"><ele>83.5</ele><time>2026-04-10T13:35:58.001Z</time></trkpt><trkpt lat="44.779575460211056" lon="10.238500069793634"><ele>82.0</ele><time>2026-04-10T13:35:59.001Z</time></trkpt><trkpt lat="44.779484498677185" lon="10.238179562746941"><ele>83.33333333333333</ele><time>2026-04-10T13:36:00.001Z</time></trkpt><trkpt lat="44.77940138247883" lon="10.237887202179966"><ele>84.66666666666667</ele><time>2026-04-10T13:36:01.001Z</time></trkpt><trkpt lat="44.7793256953524" lon="10.237624989312915"><ele>86.0</ele><time>2026-04-10T13:36:02.001Z</time></trkpt><trkpt lat="44.77925260085863" lon="10.237367437363572"><ele>86.0</ele><time>2026-04-10T13:36:03.001Z</time></trkpt><trkpt lat="44.77918363529685" lon="10.237114680610356"><ele>86.0</ele><time>2026-04-10T13:36:04.001Z</time></trkpt><trkpt lat="44.77911123294712" lon="10.236852002561767"><ele>86.0</ele><time>2026-04-10T13:36:05.001Z</time></trkpt><trkpt lat="44.77903218658356" lon="10.236577321664564"><ele>85.66666666666667</ele><time>2026-04-10T13:36:06.001Z</time></trkpt><trkpt lat="44.778954167935716" lon="10.236300981358244"><ele>85.33333333333333</ele><time>2026-04-10T13:36:07.001Z</time></trkpt><trkpt lat="44.778877749573724" lon="10.236028796530691"><ele>85.0</ele><time>2026-04-10T13:36:08.001Z</time></trkpt><trkpt lat="44.77880143274252" lon="10.235766843044624"><ele>85.0</ele><time>2026-04-10T13:36:09.001Z</time></trkpt><trkpt lat="44.778722740710755" lon="10.235514353991897"><ele>85.0</ele><time>2026-04-10T13:36:10.001Z</time></trkpt><trkpt lat="44.778651527857406" lon="10.235253089026502"><ele>85.0</ele><time>2026-04-10T13:36:11.001Z</time></trkpt><trkpt lat="44.77858258618485" lon="10.234984112968911"><ele>85.66666666666666</ele><time>2026-04-10T13:36:12.001Z</time></trkpt><trkpt lat="44.77851081949176" lon="10.234700986344018"><ele>86.33333333333333</ele><time>2026-04-10T13:36:13.001Z</time></trkpt><trkpt lat="44.77843725522655" lon="10.234420230395497"><ele>87.0</ele><time>2026-04-10T13:36:14.001Z</time></trkpt><trkpt lat="44.77835829151664" lon="10.234134449025273"><ele>86.66666666666667</ele><time>2026-04-10T13:36:15.001Z</time></trkpt><trkpt lat="44.77827747425391" lon="10.233850025307307"><ele>86.33333333333334</ele><time>2026-04-10T13:36:16.001Z</time></trkpt><trkpt lat="44.77819474050018" lon="10.233564791078493"><ele>86.0</ele><time>2026-04-10T13:36:17.001Z</time></trkpt><trkpt lat="44.77810944431673" lon="10.233272922642946"><ele>85.33333333333334</ele><time>2026-04-10T13:36:18.001Z</time></trkpt><trkpt lat="44.77802182130376" lon="10.232978282532212"><ele>84.66666666666667</ele><time>2026-04-10T13:36:19.001Z</time></trkpt><trkpt lat="44.777939149375314" lon="10.232700304494866"><ele>84.0</ele><time>2026-04-10T13:36:20.001Z</time></trkpt><trkpt lat="44.77785648940724" lon="10.232416415395198"><ele>84.0</ele><time>2026-04-10T13:36:21.001Z</time></trkpt><trkpt lat="44.7777738896859" lon="10.232129015152466"><ele>84.0</ele><time>2026-04-10T13:36:22.001Z</time></trkpt><trkpt lat="44.777685888137164" lon="10.231828572423554"><ele>85.0</ele><time>2026-04-10T13:36:23.001Z</time></trkpt><trkpt lat="44.77759471654968" lon="10.231527562062391"><ele>86.0</ele><time>2026-04-10T13:36:24.001Z</time></trkpt><trkpt lat="44.77750317767912" lon="10.231225930770032"><ele>86.0</ele><time>2026-04-10T13:36:25.001Z</time></trkpt><trkpt lat="44.777412772377616" lon="10.23091968821576"><ele>86.0</ele><time>2026-04-10T13:36:26.001Z</time></trkpt><trkpt lat="44.77732567239835" lon="10.230620132675492"><ele>86.5</ele><time>2026-04-10T13:36:27.001Z</time></trkpt><trkpt lat="44.77723678520315" lon="10.230310461420814"><ele>87.0</ele><time>2026-04-10T13:36:28.001Z</time></trkpt><trkpt lat="44.777151399852" lon="10.230015065440455"><ele>87.5</ele><time>2026-04-10T13:36:29.001Z</time></trkpt><trkpt lat="44.77706544023842" lon="10.229719548192787"><ele>88.0</ele><time>2026-04-10T13:36:30.001Z</time></trkpt><trkpt lat="44.776976936376826" lon="10.229424903797947"><ele>88.0</ele><time>2026-04-10T13:36:31.001Z</time></trkpt><trkpt lat="44.77689099478464" lon="10.229136304619797"><ele>88.0</ele><time>2026-04-10T13:36:32.001Z</time></trkpt><trkpt lat="44.77680755687969" lon="10.228841090722236"><ele>88.0</ele><time>2026-04-10T13:36:33.001Z</time></trkpt><trkpt lat="44.776726263362754" lon="10.228547884955645"><ele>88.5</ele><time>2026-04-10T13:36:34.001Z</time></trkpt><trkpt lat="44.77664947654387" lon="10.228249146131088"><ele>89.0</ele><time>2026-04-10T13:36:35.001Z</time></trkpt><trkpt lat="44.77657035146112" lon="10.227947625700157"><ele>88.0</ele><time>2026-04-10T13:36:36.001Z</time></trkpt><trkpt lat="44.77649216341274" lon="10.22764788568122"><ele>87.0</ele><time>2026-04-10T13:36:37.001Z</time></trkpt><trkpt lat="44.7764141419953" lon="10.227345509367762"><ele>88.0</ele><time>2026-04-10T13:36:38.001Z</time></trkpt><trkpt lat="44.77633116547808" lon="10.22703478652576"><ele>89.0</ele><time>2026-04-10T13:36:39.001Z</time></trkpt><trkpt lat="44.776247653513806" lon="10.226731324974557"><ele>89.33333333333334</ele><time>2026-04-10T13:36:40.001Z</time></trkpt><trkpt lat="44.77616387553425" lon="10.226439403208255"><ele>89.66666666666667</ele><time>2026-04-10T13:36:41.001Z</time></trkpt><trkpt lat="44.776081815884446" lon="10.226153326614432"><ele>90.0</ele><time>2026-04-10T13:36:42.001Z</time></trkpt><trkpt lat="44.77600114282356" lon="10.225866017487661"><ele>89.33333333333333</ele><time>2026-04-10T13:36:43.001Z</time></trkpt><trkpt lat="44.775924473586585" lon="10.225598220472198"><ele>88.66666666666666</ele><time>2026-04-10T13:36:44.001Z</time></trkpt><trkpt lat="44.775843414591534" lon="10.225324555745328"><ele>88.0</ele><time>2026-04-10T13:36:45.001Z</time></trkpt><trkpt lat="44.775761608789" lon="10.22503991558615"><ele>87.0</ele><time>2026-04-10T13:36:46.001Z</time></trkpt><trkpt lat="44.77567980465303" lon="10.22474408143553"><ele>86.0</ele><time>2026-04-10T13:36:47.001Z</time></trkpt><trkpt lat="44.77559819054683" lon="10.224444566784253"><ele>86.0</ele><time>2026-04-10T13:36:48.001Z</time></trkpt><trkpt lat="44.775515482497916" lon="10.224139690918749"><ele>86.0</ele><time>2026-04-10T13:36:49.001Z</time></trkpt><trkpt lat="44.77543416689788" lon="10.223832965934166"><ele>86.66666666666667</ele><time>2026-04-10T13:36:50.001Z</time></trkpt><trkpt lat="44.775355430387535" lon="10.223536224626772"><ele>87.33333333333333</ele><time>2026-04-10T13:36:51.001Z</time></trkpt><trkpt lat="44.775278310190004" lon="10.223250951171767"><ele>88.0</ele><time>2026-04-10T13:36:52.001Z</time></trkpt><trkpt lat="44.77519835889834" lon="10.22296323404824"><ele>88.66666666666666</ele><time>2026-04-10T13:36:53.001Z</time></trkpt><trkpt lat="44.77512058488609" lon="10.222677080394481"><ele>89.33333333333333</ele><time>2026-04-10T13:36:54.001Z</time></trkpt><trkpt lat="44.77504771573478" lon="10.222386564189705"><ele>90.0</ele><time>2026-04-10T13:36:55.001Z</time></trkpt><trkpt lat="44.77497700726803" lon="10.22209960344334"><ele>90.0</ele><time>2026-04-10T13:36:56.001Z</time></trkpt><trkpt lat="44.774901272178205" lon="10.221801278126623"><ele>90.0</ele><time>2026-04-10T13:36:57.001Z</time></trkpt><trkpt lat="44.77482836589385" lon="10.221511648793635"><ele>90.0</ele><time>2026-04-10T13:36:58.001Z</time></trkpt><trkpt lat="44.7747566948019" lon="10.221217818849766"><ele>90.33333333333333</ele><time>2026-04-10T13:36:59.001Z</time></trkpt><trkpt lat="44.77468459641622" lon="10.220946461676938"><ele>90.66666666666666</ele><time>2026-04-10T13:37:00.001Z</time></trkpt><trkpt lat="44.77460970859067" lon="10.220676532846968"><ele>91.0</ele><time>2026-04-10T13:37:01.001Z</time></trkpt><trkpt lat="44.77453738522911" lon="10.220411485309635"><ele>91.66666666666666</ele><time>2026-04-10T13:37:02.001Z</time></trkpt><trkpt lat="44.774469182089526" lon="10.220177030722617"><ele>92.33333333333333</ele><time>2026-04-10T13:37:03.001Z</time></trkpt><trkpt lat="44.77439696036494" lon="10.219953917106858"><ele>93.0</ele><time>2026-04-10T13:37:04.001Z</time></trkpt><trkpt lat="44.77433057077178" lon="10.219746852999466"><ele>93.0</ele><time>2026-04-10T13:37:05.001Z</time></trkpt><trkpt lat="44.774269791610806" lon="10.219549384148923"><ele>93.0</ele><time>2026-04-10T13:37:06.001Z</time></trkpt><trkpt lat="44.77421365561485" lon="10.219362759309474"><ele>93.0</ele><time>2026-04-10T13:37:07.001Z</time></trkpt><trkpt lat="44.77415680617389" lon="10.219180675311998"><ele>93.0</ele><time>2026-04-10T13:37:08.001Z</time></trkpt><trkpt lat="44.7740986943339" lon="10.218986188623786"><ele>93.0</ele><time>2026-04-10T13:37:09.001Z</time></trkpt><trkpt lat="44.774038579379415" lon="10.218780679808907"><ele>93.0</ele><time>2026-04-10T13:37:10.001Z</time></trkpt><trkpt lat="44.77397744590105" lon="10.218572308904017"><ele>93.0</ele><time>2026-04-10T13:37:11.001Z</time></trkpt><trkpt lat="44.77392026427062" lon="10.218363213813541"><ele>93.0</ele><time>2026-04-10T13:37:12.001Z</time></trkpt><trkpt lat="44.77386150032366" lon="10.218158115579035"><ele>93.0</ele><time>2026-04-10T13:37:13.001Z</time></trkpt><trkpt lat="44.77380133396313" lon="10.217975107997841"><ele>93.0</ele><time>2026-04-10T13:37:14.001Z</time></trkpt><trkpt lat="44.7737657222694" lon="10.21779748965603"><ele>93.0</ele><time>2026-04-10T13:37:15.001Z</time></trkpt><trkpt lat="44.773725789657114" lon="10.217649823433904"><ele>92.80000000000001</ele><time>2026-04-10T13:37:16.001Z</time></trkpt><trkpt lat="44.77369387344314" lon="10.217531800938742"><ele>92.6</ele><time>2026-04-10T13:37:17.001Z</time></trkpt><trkpt lat="44.77367010478519" lon="10.21743937681476"><ele>92.4</ele><time>2026-04-10T13:37:18.001Z</time></trkpt><trkpt lat="44.773637749825966" lon="10.21735580202518"><ele>92.19999999999999</ele><time>2026-04-10T13:37:21.001Z</time></trkpt><trkpt lat="44.773606729047025" lon="10.217188751460386"><ele>92.0</ele><time>2026-04-10T13:37:55.001Z</time></trkpt><trkpt lat="44.77342466218515" lon="10.217132137943592"><ele>92.0</ele><time>2026-04-10T13:37:57.001Z</time></trkpt><trkpt lat="44.7733224858896" lon="10.217154456795127"><ele>92.0</ele><time>2026-04-10T13:37:58.001Z</time></trkpt><trkpt lat="44.77319978446614" lon="10.217183855511403"><ele>92.0</ele><time>2026-04-10T13:37:59.001Z</time></trkpt><trkpt lat="44.77305503220751" lon="10.217198969559945"><ele>92.0</ele><time>2026-04-10T13:38:00.001Z</time></trkpt><trkpt lat="44.77289646609985" lon="10.217205833463126"><ele>92.0</ele><time>2026-04-10T13:38:01.001Z</time></trkpt><trkpt lat="44.77272235958832" lon="10.217217076767039"><ele>92.0</ele><time>2026-04-10T13:38:02.001Z</time></trkpt><trkpt lat="44.77252492800064" lon="10.217234569070143"><ele>92.0</ele><time>2026-04-10T13:38:03.001Z</time></trkpt><trkpt lat="44.77232328609309" lon="10.21724654799498"><ele>92.66666666666667</ele><time>2026-04-10T13:38:04.001Z</time></trkpt><trkpt lat="44.77210862471262" lon="10.217264482993665"><ele>93.33333333333333</ele><time>2026-04-10T13:38:05.001Z</time></trkpt><trkpt lat="44.7718938996657" lon="10.21728064176284"><ele>94.0</ele><time>2026-04-10T13:38:06.001Z</time></trkpt><trkpt lat="44.77167685230001" lon="10.217298064197943"><ele>94.0</ele><time>2026-04-10T13:38:07.001Z</time></trkpt><trkpt lat="44.77147157876918" lon="10.217317435418726"><ele>94.0</ele><time>2026-04-10T13:38:08.001Z</time></trkpt><trkpt lat="44.771263630802814" lon="10.217335742390258"><ele>94.0</ele><time>2026-04-10T13:38:09.001Z</time></trkpt><trkpt lat="44.77105293316318" lon="10.217348113826308"><ele>94.33333333333333</ele><time>2026-04-10T13:38:10.001Z</time></trkpt><trkpt lat="44.77084357574823" lon="10.217355736724441"><ele>94.66666666666667</ele><time>2026-04-10T13:38:11.001Z</time></trkpt><trkpt lat="44.7706320059723" lon="10.217358516342781"><ele>95.0</ele><time>2026-04-10T13:38:12.001Z</time></trkpt><trkpt lat="44.77042107668677" lon="10.217345027281741"><ele>95.0</ele><time>2026-04-10T13:38:13.001Z</time></trkpt><trkpt lat="44.770213041418565" lon="10.21729814104365"><ele>95.0</ele><time>2026-04-10T13:38:14.001Z</time></trkpt><trkpt lat="44.77000497717327" lon="10.217228910746762"><ele>95.0</ele><time>2026-04-10T13:38:15.001Z</time></trkpt><trkpt lat="44.769792683375975" lon="10.217166509036542"><ele>95.0</ele><time>2026-04-10T13:38:16.001Z</time></trkpt><trkpt lat="44.76957724231543" lon="10.217117619967329"><ele>95.0</ele><time>2026-04-10T13:38:17.001Z</time></trkpt><trkpt lat="44.76935019052242" lon="10.217072206560086"><ele>95.0</ele><time>2026-04-10T13:38:18.001Z</time></trkpt><trkpt lat="44.76912131382889" lon="10.217025133372427"><ele>96.0</ele><time>2026-04-10T13:38:19.001Z</time></trkpt><trkpt lat="44.76888845581874" lon="10.216976742371175"><ele>97.0</ele><time>2026-04-10T13:38:20.001Z</time></trkpt><trkpt lat="44.76864744796676" lon="10.21693915630363"><ele>99.0</ele><time>2026-04-10T13:38:21.001Z</time></trkpt><trkpt lat="44.768395182646" lon="10.216903318194884"><ele>101.0</ele><time>2026-04-10T13:38:22.001Z</time></trkpt><trkpt lat="44.768127794826235" lon="10.216854255949205"><ele>101.0</ele><time>2026-04-10T13:38:23.001Z</time></trkpt><trkpt lat="44.76786023072954" lon="10.216798615556602"><ele>101.0</ele><time>2026-04-10T13:38:24.001Z</time></trkpt><trkpt lat="44.767608916990206" lon="10.216751646094753"><ele>99.0</ele><time>2026-04-10T13:38:25.001Z</time></trkpt><trkpt lat="44.76736654531574" lon="10.216705918972135"><ele>97.0</ele><time>2026-04-10T13:38:26.001Z</time></trkpt><trkpt lat="44.76712182301488" lon="10.21665404190821"><ele>97.0</ele><time>2026-04-10T13:38:27.001Z</time></trkpt><trkpt lat="44.76688425494962" lon="10.216601609771514"><ele>97.0</ele><time>2026-04-10T13:38:28.001Z</time></trkpt><trkpt lat="44.76664169328864" lon="10.216555125214676"><ele>97.0</ele><time>2026-04-10T13:38:29.001Z</time></trkpt><trkpt lat="44.7664017621544" lon="10.216507550695788"><ele>97.0</ele><time>2026-04-10T13:38:30.001Z</time></trkpt><trkpt lat="44.76616010866315" lon="10.216451693861066"><ele>99.5</ele><time>2026-04-10T13:38:31.001Z</time></trkpt><trkpt lat="44.76591867482136" lon="10.216381561125297"><ele>102.0</ele><time>2026-04-10T13:38:32.001Z</time></trkpt><trkpt lat="44.76567769995844" lon="10.216300447036398"><ele>102.0</ele><time>2026-04-10T13:38:33.001Z</time></trkpt><trkpt lat="44.7654243427166" lon="10.216208634306634"><ele>102.0</ele><time>2026-04-10T13:38:34.001Z</time></trkpt><trkpt lat="44.765165941627494" lon="10.216119248633301"><ele>100.5</ele><time>2026-04-10T13:38:35.001Z</time></trkpt><trkpt lat="44.76489744727246" lon="10.216028654391947"><ele>99.0</ele><time>2026-04-10T13:38:36.001Z</time></trkpt><trkpt lat="44.76462615364181" lon="10.215938402123635"><ele>98.5</ele><time>2026-04-10T13:38:37.001Z</time></trkpt><trkpt lat="44.764354706760386" lon="10.215847971165093"><ele>98.0</ele><time>2026-04-10T13:38:38.001Z</time></trkpt><trkpt lat="44.764086390263564" lon="10.215757937179692"><ele>98.0</ele><time>2026-04-10T13:38:39.001Z</time></trkpt><trkpt lat="44.763819276232056" lon="10.215666162456474"><ele>98.0</ele><time>2026-04-10T13:38:40.001Z</time></trkpt><trkpt lat="44.76357502440392" lon="10.215583988820224"><ele>98.5</ele><time>2026-04-10T13:38:41.001Z</time></trkpt><trkpt lat="44.76333883545399" lon="10.215504080033467"><ele>99.0</ele><time>2026-04-10T13:38:42.001Z</time></trkpt><trkpt lat="44.76310579514733" lon="10.21542409129189"><ele>99.0</ele><time>2026-04-10T13:38:43.001Z</time></trkpt><trkpt lat="44.7628776657652" lon="10.215345962508769"><ele>99.0</ele><time>2026-04-10T13:38:44.001Z</time></trkpt><trkpt lat="44.76265655296173" lon="10.215272900776226"><ele>101.0</ele><time>2026-04-10T13:38:45.001Z</time></trkpt><trkpt lat="44.762451728730255" lon="10.215203896758377"><ele>103.0</ele><time>2026-04-10T13:38:46.001Z</time></trkpt><trkpt lat="44.76224865428591" lon="10.215135784363921"><ele>105.0</ele><time>2026-04-10T13:38:47.001Z</time></trkpt><trkpt lat="44.762053774739904" lon="10.21506933974049"><ele>105.66666666666666</ele><time>2026-04-10T13:38:48.001Z</time></trkpt><trkpt lat="44.761864890399615" lon="10.215005102065142"><ele>106.33333333333333</ele><time>2026-04-10T13:38:49.001Z</time></trkpt><trkpt lat="44.76168734523378" lon="10.214947314486928"><ele>107.0</ele><time>2026-04-10T13:38:50.001Z</time></trkpt><trkpt lat="44.76152190669584" lon="10.214888773328841"><ele>107.0</ele><time>2026-04-10T13:38:51.001Z</time></trkpt><trkpt lat="44.76136588130765" lon="10.21483652149551"><ele>107.0</ele><time>2026-04-10T13:38:52.001Z</time></trkpt><trkpt lat="44.76121618115682" lon="10.214791040824977"><ele>107.0</ele><time>2026-04-10T13:38:53.001Z</time></trkpt><trkpt lat="44.76107434631186" lon="10.214744328839071"><ele>106.5</ele><time>2026-04-10T13:38:54.001Z</time></trkpt><trkpt lat="44.76094579095763" lon="10.214703526098853"><ele>106.0</ele><time>2026-04-10T13:38:55.001Z</time></trkpt><trkpt lat="44.76082993392188" lon="10.214660781628428"><ele>105.5</ele><time>2026-04-10T13:38:56.001Z</time></trkpt><trkpt lat="44.76070651431825" lon="10.214615932082646"><ele>105.0</ele><time>2026-04-10T13:38:57.001Z</time></trkpt><trkpt lat="44.76057404114218" lon="10.214572222767968"><ele>105.0</ele><time>2026-04-10T13:38:58.001Z</time></trkpt><trkpt lat="44.760436419770656" lon="10.214525676445627"><ele>105.0</ele><time>2026-04-10T13:38:59.001Z</time></trkpt><trkpt lat="44.76029799604903" lon="10.214480619601936"><ele>105.0</ele><time>2026-04-10T13:39:00.001Z</time></trkpt><trkpt lat="44.76015559174695" lon="10.214433772489384"><ele>105.0</ele><time>2026-04-10T13:39:01.001Z</time></trkpt><trkpt lat="44.76001165817003" lon="10.214386889196586"><ele>105.5</ele><time>2026-04-10T13:39:02.001Z</time></trkpt><trkpt lat="44.759867936563104" lon="10.21433932386963"><ele>106.0</ele><time>2026-04-10T13:39:03.001Z</time></trkpt><trkpt lat="44.75972460412171" lon="10.21428800174262"><ele>106.5</ele><time>2026-04-10T13:39:04.001Z</time></trkpt><trkpt lat="44.759575305866925" lon="10.21423745884416"><ele>107.0</ele><time>2026-04-10T13:39:05.001Z</time></trkpt><trkpt lat="44.7594333209479" lon="10.214186803577881"><ele>106.75</ele><time>2026-04-10T13:39:06.001Z</time></trkpt><trkpt lat="44.75930699159967" lon="10.214142363081857"><ele>106.5</ele><time>2026-04-10T13:39:07.001Z</time></trkpt><trkpt lat="44.75918924795323" lon="10.214107986835142"><ele>106.25</ele><time>2026-04-10T13:39:08.001Z</time></trkpt><trkpt lat="44.75908355695363" lon="10.214070475669311"><ele>106.0</ele><time>2026-04-10T13:39:09.001Z</time></trkpt><trkpt lat="44.758979988042476" lon="10.214036444723835"><ele>106.0</ele><time>2026-04-10T13:39:10.001Z</time></trkpt><trkpt lat="44.75887838784022" lon="10.21399154378795"><ele>106.0</ele><time>2026-04-10T13:39:11.001Z</time></trkpt><trkpt lat="44.75878083429908" lon="10.21394290995887"><ele>106.0</ele><time>2026-04-10T13:39:12.001Z</time></trkpt><trkpt lat="44.758682058941766" lon="10.213896366776659"><ele>106.0</ele><time>2026-04-10T13:39:13.001Z</time></trkpt><trkpt lat="44.75859029767673" lon="10.21383940546068"><ele>106.0</ele><time>2026-04-10T13:39:14.001Z</time></trkpt><trkpt lat="44.75851221523198" lon="10.21376872511845"><ele>105.6</ele><time>2026-04-10T13:39:15.001Z</time></trkpt><trkpt lat="44.75845715822001" lon="10.213661324515456"><ele>105.19999999999999</ele><time>2026-04-10T13:39:16.001Z</time></trkpt><trkpt lat="44.75842528851084" lon="10.213528375995946"><ele>104.80000000000001</ele><time>2026-04-10T13:39:17.001Z</time></trkpt><trkpt lat="44.75841727955516" lon="10.213385004616967"><ele>104.4</ele><time>2026-04-10T13:39:18.001Z</time></trkpt><trkpt lat="44.75846561776273" lon="10.213223995922892"><ele>104.0</ele><time>2026-04-10T13:39:19.001Z</time></trkpt><trkpt lat="44.75850715698091" lon="10.213062256536823"><ele>103.75</ele><time>2026-04-10T13:39:20.001Z</time></trkpt><trkpt lat="44.758525017285045" lon="10.212895246924505"><ele>103.5</ele><time>2026-04-10T13:39:21.001Z</time></trkpt><trkpt lat="44.758510283554855" lon="10.212720190816373"><ele>103.25</ele><time>2026-04-10T13:39:22.001Z</time></trkpt><trkpt lat="44.75846209268992" lon="10.212561118223684"><ele>103.0</ele><time>2026-04-10T13:39:23.001Z</time></trkpt><trkpt lat="44.75839205056725" lon="10.21242307345265"><ele>103.0</ele><time>2026-04-10T13:39:24.001Z</time></trkpt><trkpt lat="44.75828863828516" lon="10.212331549451676"><ele>103.0</ele><time>2026-04-10T13:39:25.001Z</time></trkpt><trkpt lat="44.75820998408095" lon="10.212204607336949"><ele>103.0</ele><time>2026-04-10T13:39:26.001Z</time></trkpt><trkpt lat="44.75815874956364" lon="10.212081571406435"><ele>103.0</ele><time>2026-04-10T13:39:27.001Z</time></trkpt><trkpt lat="44.75813342513381" lon="10.211929878995942"><ele>103.25</ele><time>2026-04-10T13:39:28.001Z</time></trkpt><trkpt lat="44.758135622238115" lon="10.211765497869495"><ele>103.5</ele><time>2026-04-10T13:39:29.001Z</time></trkpt><trkpt lat="44.75816336869326" lon="10.211594367837996"><ele>103.75</ele><time>2026-04-10T13:39:30.001Z</time></trkpt><trkpt lat="44.75818087436216" lon="10.211417422489864"><ele>104.0</ele><time>2026-04-10T13:39:31.001Z</time></trkpt><trkpt lat="44.75828431267933" lon="10.211241060568815"><ele>104.33333333333333</ele><time>2026-04-10T13:39:32.001Z</time></trkpt><trkpt lat="44.758357187168805" lon="10.21104456270127"><ele>104.66666666666666</ele><time>2026-04-10T13:39:33.001Z</time></trkpt><trkpt lat="44.758434032173724" lon="10.210830683901396"><ele>105.0</ele><time>2026-04-10T13:39:34.001Z</time></trkpt><trkpt lat="44.75852085865759" lon="10.210594382508955"><ele>103.66666666666666</ele><time>2026-04-10T13:39:35.001Z</time></trkpt><trkpt lat="44.75860517565683" lon="10.21035864784278"><ele>102.33333333333333</ele><time>2026-04-10T13:39:36.001Z</time></trkpt><trkpt lat="44.758684927923596" lon="10.210144318270226"><ele>101.0</ele><time>2026-04-10T13:39:37.001Z</time></trkpt><trkpt lat="44.75876193136282" lon="10.209948241816397"><ele>101.33333333333333</ele><time>2026-04-10T13:39:38.001Z</time></trkpt><trkpt lat="44.75884191038506" lon="10.209753385070293"><ele>101.66666666666666</ele><time>2026-04-10T13:39:39.001Z</time></trkpt><trkpt lat="44.75891954665433" lon="10.209557117365517"><ele>102.0</ele><time>2026-04-10T13:39:40.001Z</time></trkpt><trkpt lat="44.759002254695105" lon="10.209347723687147"><ele>102.0</ele><time>2026-04-10T13:39:41.001Z</time></trkpt><trkpt lat="44.75908744276259" lon="10.209130679842733"><ele>102.0</ele><time>2026-04-10T13:39:42.001Z</time></trkpt><trkpt lat="44.759178086795316" lon="10.208900526130996"><ele>102.0</ele><time>2026-04-10T13:39:43.001Z</time></trkpt><trkpt lat="44.759266592342975" lon="10.208670297213116"><ele>101.66666666666666</ele><time>2026-04-10T13:39:44.001Z</time></trkpt><trkpt lat="44.7593552223429" lon="10.208431053668388"><ele>101.33333333333333</ele><time>2026-04-10T13:39:45.001Z</time></trkpt><trkpt lat="44.759434240830586" lon="10.208186607056074"><ele>101.0</ele><time>2026-04-10T13:39:46.001Z</time></trkpt><trkpt lat="44.75949476632149" lon="10.207925798019206"><ele>100.66666666666666</ele><time>2026-04-10T13:39:47.001Z</time></trkpt><trkpt lat="44.75954246342668" lon="10.207648146290477"><ele>100.33333333333334</ele><time>2026-04-10T13:39:48.001Z</time></trkpt><trkpt lat="44.759575934808325" lon="10.207370776800214"><ele>100.0</ele><time>2026-04-10T13:39:49.001Z</time></trkpt><trkpt lat="44.7595985585928" lon="10.207104724761587"><ele>98.66666666666667</ele><time>2026-04-10T13:39:50.001Z</time></trkpt><trkpt lat="44.75961202874188" lon="10.206844391054473"><ele>97.33333333333334</ele><time>2026-04-10T13:39:51.001Z</time></trkpt><trkpt lat="44.759614258884646" lon="10.20658731727432"><ele>96.0</ele><time>2026-04-10T13:39:52.001Z</time></trkpt><trkpt lat="44.75960074689001" lon="10.206337936635283"><ele>96.0</ele><time>2026-04-10T13:39:53.001Z</time></trkpt><trkpt lat="44.759572401537056" lon="10.206108074752224"><ele>96.0</ele><time>2026-04-10T13:39:54.001Z</time></trkpt><trkpt lat="44.75953845015588" lon="10.205885489193781"><ele>96.0</ele><time>2026-04-10T13:39:55.001Z</time></trkpt><trkpt lat="44.75950314820912" lon="10.205668413912507"><ele>96.25</ele><time>2026-04-10T13:39:56.001Z</time></trkpt><trkpt lat="44.75945698267055" lon="10.205464090636676"><ele>96.5</ele><time>2026-04-10T13:39:57.001Z</time></trkpt><trkpt lat="44.759402443902964" lon="10.205276732281558"><ele>96.75</ele><time>2026-04-10T13:39:58.001Z</time></trkpt><trkpt lat="44.759360522935545" lon="10.205118232342938"><ele>97.0</ele><time>2026-04-10T13:39:59.001Z</time></trkpt><trkpt lat="44.759332876898874" lon="10.204979372244344"><ele>97.50000000000001</ele><time>2026-04-10T13:40:00.001Z</time></trkpt><trkpt lat="44.75931047812059" lon="10.204855072198155"><ele>98.0</ele><time>2026-04-10T13:40:01.001Z</time></trkpt><trkpt lat="44.75928634521978" lon="10.204730273380282"><ele>98.5</ele><time>2026-04-10T13:40:02.001Z</time></trkpt><trkpt lat="44.75926018147312" lon="10.204613416274238"><ele>99.0</ele><time>2026-04-10T13:40:03.001Z</time></trkpt><trkpt lat="44.75923362596305" lon="10.204498029114042"><ele>99.50000000000001</ele><time>2026-04-10T13:40:04.001Z</time></trkpt><trkpt lat="44.75921659942087" lon="10.204393495429265"><ele>100.0</ele><time>2026-04-10T13:40:05.001Z</time></trkpt><trkpt lat="44.75922398060219" lon="10.204294912589909"><ele>100.0</ele><time>2026-04-10T13:40:06.001Z</time></trkpt><trkpt lat="44.75924889741181" lon="10.20416910013431"><ele>100.0</ele><time>2026-04-10T13:40:07.001Z</time></trkpt><trkpt lat="44.75930530590741" lon="10.204047022528046"><ele>100.0</ele><time>2026-04-10T13:40:08.001Z</time></trkpt><trkpt lat="44.75936278158959" lon="10.203957378969724"><ele>100.0</ele><time>2026-04-10T13:40:09.001Z</time></trkpt><trkpt lat="44.75941061856944" lon="10.203853456683426"><ele>100.0</ele><time>2026-04-10T13:40:10.001Z</time></trkpt><trkpt lat="44.75943831886812" lon="10.203721349615416"><ele>99.75</ele><time>2026-04-10T13:40:11.001Z</time></trkpt><trkpt lat="44.75943933893945" lon="10.203567317758809"><ele>99.5</ele><time>2026-04-10T13:40:12.001Z</time></trkpt><trkpt lat="44.75941495555893" lon="10.203403428837387"><ele>99.25</ele><time>2026-04-10T13:40:13.001Z</time></trkpt><trkpt lat="44.75936161579261" lon="10.203249011100326"><ele>99.0</ele><time>2026-04-10T13:40:14.001Z</time></trkpt><trkpt lat="44.759292039742576" lon="10.20310744246098"><ele>99.0</ele><time>2026-04-10T13:40:15.001Z</time></trkpt><trkpt lat="44.75924251488996" lon="10.202962333549294"><ele>99.0</ele><time>2026-04-10T13:40:16.001Z</time></trkpt><trkpt lat="44.759234498173626" lon="10.20279598006816"><ele>99.0</ele><time>2026-04-10T13:40:17.001Z</time></trkpt><trkpt lat="44.759220798810865" lon="10.202627805806488"><ele>99.0</ele><time>2026-04-10T13:40:18.001Z</time></trkpt><trkpt lat="44.759297306231154" lon="10.202427575807473"><ele>98.66666666666666</ele><time>2026-04-10T13:40:19.001Z</time></trkpt><trkpt lat="44.75935468528729" lon="10.202227904427993"><ele>98.33333333333333</ele><time>2026-04-10T13:40:20.001Z</time></trkpt><trkpt lat="44.75942100383991" lon="10.20198994986497"><ele>98.0</ele><time>2026-04-10T13:40:21.001Z</time></trkpt><trkpt lat="44.759484648768066" lon="10.20172501040618"><ele>98.0</ele><time>2026-04-10T13:40:22.001Z</time></trkpt><trkpt lat="44.75954880648177" lon="10.20144183302233"><ele>98.0</ele><time>2026-04-10T13:40:23.001Z</time></trkpt><trkpt lat="44.75963748815772" lon="10.201137477826961"><ele>98.0</ele><time>2026-04-10T13:40:24.001Z</time></trkpt><trkpt lat="44.75971954936726" lon="10.200813792929335"><ele>97.0</ele><time>2026-04-10T13:40:25.001Z</time></trkpt><trkpt lat="44.7598082805627" lon="10.20046379847584"><ele>96.0</ele><time>2026-04-10T13:40:26.001Z</time></trkpt><trkpt lat="44.75989864551831" lon="10.200107359629207"><ele>96.0</ele><time>2026-04-10T13:40:27.001Z</time></trkpt><trkpt lat="44.759977794387424" lon="10.199733420134763"><ele>96.0</ele><time>2026-04-10T13:40:28.001Z</time></trkpt><trkpt lat="44.760075601201244" lon="10.199387898220976"><ele>96.0</ele><time>2026-04-10T13:40:29.001Z</time></trkpt><trkpt lat="44.76016190657525" lon="10.199057375311012"><ele>96.0</ele><time>2026-04-10T13:40:30.001Z</time></trkpt><trkpt lat="44.760243807855716" lon="10.198742565302817"><ele>96.5</ele><time>2026-04-10T13:40:31.001Z</time></trkpt><trkpt lat="44.760325285332065" lon="10.198432240297022"><ele>97.0</ele><time>2026-04-10T13:40:32.001Z</time></trkpt><trkpt lat="44.76040906460222" lon="10.19811568060299"><ele>97.0</ele><time>2026-04-10T13:40:33.001Z</time></trkpt><trkpt lat="44.76049325195321" lon="10.197793524265661"><ele>97.0</ele><time>2026-04-10T13:40:34.001Z</time></trkpt><trkpt lat="44.760577450949995" lon="10.197475481009763"><ele>96.0</ele><time>2026-04-10T13:40:35.001Z</time></trkpt><trkpt lat="44.76066643351965" lon="10.197152301718504"><ele>95.0</ele><time>2026-04-10T13:40:36.001Z</time></trkpt><trkpt lat="44.76075806262873" lon="10.196825325296345"><ele>95.0</ele><time>2026-04-10T13:40:37.001Z</time></trkpt><trkpt lat="44.76084940512179" lon="10.196505270485755"><ele>95.0</ele><time>2026-04-10T13:40:38.001Z</time></trkpt><trkpt lat="44.76094127557498" lon="10.19619599596896"><ele>94.5</ele><time>2026-04-10T13:40:39.001Z</time></trkpt><trkpt lat="44.76103626651359" lon="10.195885396973315"><ele>94.0</ele><time>2026-04-10T13:40:40.001Z</time></trkpt><trkpt lat="44.761133677130466" lon="10.195580768160339"><ele>93.0</ele><time>2026-04-10T13:40:41.001Z</time></trkpt><trkpt lat="44.7612326067834" lon="10.195273741527183"><ele>92.0</ele><time>2026-04-10T13:40:42.001Z</time></trkpt><trkpt lat="44.761329515887134" lon="10.194969761683325"><ele>92.0</ele><time>2026-04-10T13:40:43.001Z</time></trkpt><trkpt lat="44.76142875990473" lon="10.19466266306322"><ele>92.0</ele><time>2026-04-10T13:40:44.001Z</time></trkpt><trkpt lat="44.76152736694692" lon="10.194356983269243"><ele>92.0</ele><time>2026-04-10T13:40:45.001Z</time></trkpt><trkpt lat="44.761628787879275" lon="10.194047344599362"><ele>92.0</ele><time>2026-04-10T13:40:46.001Z</time></trkpt><trkpt lat="44.76172633371419" lon="10.193744756486955"><ele>92.5</ele><time>2026-04-10T13:40:47.001Z</time></trkpt><trkpt lat="44.761827029229906" lon="10.193434500627822"><ele>93.0</ele><time>2026-04-10T13:40:48.001Z</time></trkpt><trkpt lat="44.76192584631999" lon="10.193125439130547"><ele>91.5</ele><time>2026-04-10T13:40:49.001Z</time></trkpt><trkpt lat="44.76203028625525" lon="10.192811956719677"><ele>90.0</ele><time>2026-04-10T13:40:50.001Z</time></trkpt><trkpt lat="44.76213382080731" lon="10.192499172969692"><ele>90.5</ele><time>2026-04-10T13:40:51.001Z</time></trkpt><trkpt lat="44.762235087948916" lon="10.192186780317765"><ele>91.0</ele><time>2026-04-10T13:40:52.001Z</time></trkpt><trkpt lat="44.76233548143687" lon="10.19186854763032"><ele>91.0</ele><time>2026-04-10T13:40:53.001Z</time></trkpt><trkpt lat="44.76243453994215" lon="10.19154883675178"><ele>91.0</ele><time>2026-04-10T13:40:54.001Z</time></trkpt><trkpt lat="44.762537747655365" lon="10.191222646784741"><ele>91.0</ele><time>2026-04-10T13:40:55.001Z</time></trkpt><trkpt lat="44.76263681776977" lon="10.190911950109404"><ele>91.0</ele><time>2026-04-10T13:40:56.001Z</time></trkpt><trkpt lat="44.76273759311059" lon="10.190612612874318"><ele>89.0</ele><time>2026-04-10T13:40:57.001Z</time></trkpt><trkpt lat="44.76283780071795" lon="10.190310455079098"><ele>87.0</ele><time>2026-04-10T13:40:58.001Z</time></trkpt><trkpt lat="44.76293905017889" lon="10.18999704010865"><ele>87.0</ele><time>2026-04-10T13:40:59.001Z</time></trkpt><trkpt lat="44.76304306482489" lon="10.189675983938084"><ele>87.0</ele><time>2026-04-10T13:41:00.001Z</time></trkpt><trkpt lat="44.76314744977804" lon="10.189347630772243"><ele>88.0</ele><time>2026-04-10T13:41:01.001Z</time></trkpt><trkpt lat="44.76325633910545" lon="10.189004508644686"><ele>89.0</ele><time>2026-04-10T13:41:02.001Z</time></trkpt><trkpt lat="44.76336529076105" lon="10.188661083305108"><ele>89.0</ele><time>2026-04-10T13:41:03.001Z</time></trkpt><trkpt lat="44.76347195077787" lon="10.188317110109185"><ele>89.0</ele><time>2026-04-10T13:41:04.001Z</time></trkpt><trkpt lat="44.76357394789627" lon="10.187997149133402"><ele>90.0</ele><time>2026-04-10T13:41:05.001Z</time></trkpt><trkpt lat="44.763677185426076" lon="10.187693313146708"><ele>91.0</ele><time>2026-04-10T13:41:06.001Z</time></trkpt><trkpt lat="44.76378043887669" lon="10.187387850318562"><ele>91.5</ele><time>2026-04-10T13:41:07.001Z</time></trkpt><trkpt lat="44.76388125625536" lon="10.187082431345061"><ele>92.0</ele><time>2026-04-10T13:41:08.001Z</time></trkpt><trkpt lat="44.763977785428935" lon="10.18677724082529"><ele>92.0</ele><time>2026-04-10T13:41:09.001Z</time></trkpt><trkpt lat="44.76407948971814" lon="10.186457145237918"><ele>92.0</ele><time>2026-04-10T13:41:10.001Z</time></trkpt><trkpt lat="44.76418079545796" lon="10.18613777883695"><ele>92.0</ele><time>2026-04-10T13:41:11.001Z</time></trkpt><trkpt lat="44.76428808666562" lon="10.185795322824712"><ele>92.0</ele><time>2026-04-10T13:41:12.001Z</time></trkpt><trkpt lat="44.764398354671535" lon="10.185431856390815"><ele>89.5</ele><time>2026-04-10T13:41:13.001Z</time></trkpt><trkpt lat="44.764513036886925" lon="10.185055295567436"><ele>87.0</ele><time>2026-04-10T13:41:14.001Z</time></trkpt><trkpt lat="44.76463948118002" lon="10.18467345113107"><ele>85.5</ele><time>2026-04-10T13:41:15.001Z</time></trkpt><trkpt lat="44.76477220320896" lon="10.184290760534967"><ele>84.0</ele><time>2026-04-10T13:41:16.001Z</time></trkpt><trkpt lat="44.764907097532515" lon="10.183907622358184"><ele>83.5</ele><time>2026-04-10T13:41:17.001Z</time></trkpt><trkpt lat="44.76504013860229" lon="10.183512769503817"><ele>83.0</ele><time>2026-04-10T13:41:18.001Z</time></trkpt><trkpt lat="44.76517030918527" lon="10.183108841691563"><ele>82.5</ele><time>2026-04-10T13:41:19.001Z</time></trkpt><trkpt lat="44.76529390226875" lon="10.18272733274133"><ele>82.0</ele><time>2026-04-10T13:41:20.001Z</time></trkpt><trkpt lat="44.76541249414737" lon="10.182362486979496"><ele>81.5</ele><time>2026-04-10T13:41:21.001Z</time></trkpt><trkpt lat="44.765529705106424" lon="10.182002700048542"><ele>81.0</ele><time>2026-04-10T13:41:22.001Z</time></trkpt><trkpt lat="44.765646036095696" lon="10.181642415142008"><ele>81.0</ele><time>2026-04-10T13:41:23.001Z</time></trkpt><trkpt lat="44.765761685432246" lon="10.181290402097614"><ele>81.0</ele><time>2026-04-10T13:41:24.001Z</time></trkpt><trkpt lat="44.76587769536039" lon="10.180935524383116"><ele>81.5</ele><time>2026-04-10T13:41:25.001Z</time></trkpt><trkpt lat="44.76599128582086" lon="10.18058197159601"><ele>82.0</ele><time>2026-04-10T13:41:26.001Z</time></trkpt><trkpt lat="44.76610582183736" lon="10.180224363870181"><ele>82.0</ele><time>2026-04-10T13:41:27.001Z</time></trkpt><trkpt lat="44.76622156501775" lon="10.179866966607365"><ele>82.0</ele><time>2026-04-10T13:41:28.001Z</time></trkpt><trkpt lat="44.76633731409362" lon="10.179509866271255"><ele>82.5</ele><time>2026-04-10T13:41:29.001Z</time></trkpt><trkpt lat="44.766454919837145" lon="10.179145669039546"><ele>83.0</ele><time>2026-04-10T13:41:30.001Z</time></trkpt><trkpt lat="44.76657257643284" lon="10.178784675552384"><ele>84.0</ele><time>2026-04-10T13:41:31.001Z</time></trkpt><trkpt lat="44.76669056947125" lon="10.178418923789975"><ele>85.0</ele><time>2026-04-10T13:41:32.001Z</time></trkpt><trkpt lat="44.76680249273431" lon="10.178070353086886"><ele>85.0</ele><time>2026-04-10T13:41:33.001Z</time></trkpt><trkpt lat="44.76691078807886" lon="10.177737376568096"><ele>85.0</ele><time>2026-04-10T13:41:34.001Z</time></trkpt><trkpt lat="44.767017728465724" lon="10.177408495939263"><ele>85.5</ele><time>2026-04-10T13:41:35.001Z</time></trkpt><trkpt lat="44.767125305910376" lon="10.177080882251063"><ele>86.0</ele><time>2026-04-10T13:41:36.001Z</time></trkpt><trkpt lat="44.76723441356288" lon="10.176752417278989"><ele>85.5</ele><time>2026-04-10T13:41:37.001Z</time></trkpt><trkpt lat="44.76734480180558" lon="10.176427730322072"><ele>85.0</ele><time>2026-04-10T13:41:38.001Z</time></trkpt><trkpt lat="44.76745477669844" lon="10.176102243690158"><ele>85.0</ele><time>2026-04-10T13:41:39.001Z</time></trkpt><trkpt lat="44.767564659384256" lon="10.175777293244684"><ele>85.0</ele><time>2026-04-10T13:41:40.001Z</time></trkpt><trkpt lat="44.76767486069191" lon="10.175449178775402"><ele>84.5</ele><time>2026-04-10T13:41:41.001Z</time></trkpt><trkpt lat="44.76778841248596" lon="10.175124682048208"><ele>84.0</ele><time>2026-04-10T13:41:42.001Z</time></trkpt><trkpt lat="44.767901588252954" lon="10.174813605780855"><ele>83.0</ele><time>2026-04-10T13:41:43.001Z</time></trkpt><trkpt lat="44.768021660754144" lon="10.174499378358945"><ele>82.0</ele><time>2026-04-10T13:41:44.001Z</time></trkpt><trkpt lat="44.76814480197269" lon="10.174191672023179"><ele>82.0</ele><time>2026-04-10T13:41:45.001Z</time></trkpt><trkpt lat="44.76827145937717" lon="10.173887417665894"><ele>82.0</ele><time>2026-04-10T13:41:46.001Z</time></trkpt><trkpt lat="44.76840055565082" lon="10.173588466929433"><ele>82.0</ele><time>2026-04-10T13:41:47.001Z</time></trkpt><trkpt lat="44.768526272725744" lon="10.173305851411877"><ele>82.0</ele><time>2026-04-10T13:41:48.001Z</time></trkpt><trkpt lat="44.768645557905934" lon="10.173044388072109"><ele>83.0</ele><time>2026-04-10T13:41:49.001Z</time></trkpt><trkpt lat="44.76876139654308" lon="10.172796847190751"><ele>84.0</ele><time>2026-04-10T13:41:50.001Z</time></trkpt><trkpt lat="44.768887860775834" lon="10.172530805114372"><ele>85.0</ele><time>2026-04-10T13:41:51.001Z</time></trkpt><trkpt lat="44.76901811274351" lon="10.172266375907837"><ele>85.0</ele><time>2026-04-10T13:41:52.001Z</time></trkpt><trkpt lat="44.76915197690612" lon="10.172011629524855"><ele>85.0</ele><time>2026-04-10T13:41:53.001Z</time></trkpt><trkpt lat="44.76928464998956" lon="10.171765055547663"><ele>85.0</ele><time>2026-04-10T13:41:54.001Z</time></trkpt><trkpt lat="44.76941176730263" lon="10.171528759331808"><ele>85.66666666666666</ele><time>2026-04-10T13:41:55.001Z</time></trkpt><trkpt lat="44.76953569455542" lon="10.171309963856052"><ele>86.33333333333333</ele><time>2026-04-10T13:41:56.001Z</time></trkpt><trkpt lat="44.76964764622361" lon="10.17111365368771"><ele>87.0</ele><time>2026-04-10T13:41:57.001Z</time></trkpt><trkpt lat="44.769759692653636" lon="10.170919213612542"><ele>87.0</ele><time>2026-04-10T13:41:58.001Z</time></trkpt><trkpt lat="44.76986181541324" lon="10.170743501635268"><ele>87.0</ele><time>2026-04-10T13:41:59.001Z</time></trkpt><trkpt lat="44.76996550502091" lon="10.170574278644587"><ele>87.0</ele><time>2026-04-10T13:42:00.001Z</time></trkpt><trkpt lat="44.77006155442451" lon="10.17041939980594"><ele>87.0</ele><time>2026-04-10T13:42:01.001Z</time></trkpt><trkpt lat="44.77015892591908" lon="10.17027280696939"><ele>87.0</ele><time>2026-04-10T13:42:02.001Z</time></trkpt><trkpt lat="44.77025071509285" lon="10.17014022456146"><ele>87.0</ele><time>2026-04-10T13:42:03.001Z</time></trkpt><trkpt lat="44.77034416338026" lon="10.170020639613242"><ele>87.0</ele><time>2026-04-10T13:42:04.001Z</time></trkpt><trkpt lat="44.77045896526711" lon="10.169923327900749"><ele>87.0</ele><time>2026-04-10T13:42:05.001Z</time></trkpt><trkpt lat="44.77058131539983" lon="10.169870419798144"><ele>87.0</ele><time>2026-04-10T13:42:06.001Z</time></trkpt><trkpt lat="44.77070777773891" lon="10.169832438663848"><ele>87.0</ele><time>2026-04-10T13:42:07.001Z</time></trkpt><trkpt lat="44.77080231644784" lon="10.169754021428298"><ele>87.0</ele><time>2026-04-10T13:42:08.001Z</time></trkpt><trkpt lat="44.770855637901064" lon="10.169630941463705"><ele>86.75</ele><time>2026-04-10T13:42:09.001Z</time></trkpt><trkpt lat="44.7708795706581" lon="10.16946795166227"><ele>86.5</ele><time>2026-04-10T13:42:10.001Z</time></trkpt><trkpt lat="44.77090557174722" lon="10.169288385568345"><ele>86.25</ele><time>2026-04-10T13:42:11.001Z</time></trkpt><trkpt lat="44.77097115188179" lon="10.169111214103266"><ele>86.0</ele><time>2026-04-10T13:42:12.001Z</time></trkpt><trkpt lat="44.77108174951154" lon="10.168944474447901"><ele>86.0</ele><time>2026-04-10T13:42:13.001Z</time></trkpt><trkpt lat="44.771217998592235" lon="10.168782897136406"><ele>86.0</ele><time>2026-04-10T13:42:14.001Z</time></trkpt><trkpt lat="44.77135174003765" lon="10.168604306884953"><ele>86.0</ele><time>2026-04-10T13:42:15.001Z</time></trkpt><trkpt lat="44.771489716846865" lon="10.16841204309267"><ele>86.0</ele><time>2026-04-10T13:42:16.001Z</time></trkpt><trkpt lat="44.77163498645713" lon="10.168232004819817"><ele>86.0</ele><time>2026-04-10T13:42:17.001Z</time></trkpt><trkpt lat="44.771789949141954" lon="10.168054002535756"><ele>86.0</ele><time>2026-04-10T13:42:18.001Z</time></trkpt><trkpt lat="44.771946818674486" lon="10.167870889143142"><ele>86.0</ele><time>2026-04-10T13:42:19.001Z</time></trkpt><trkpt lat="44.77211057956444" lon="10.167684580439579"><ele>86.0</ele><time>2026-04-10T13:42:20.001Z</time></trkpt><trkpt lat="44.772282415555594" lon="10.167493757411652"><ele>86.0</ele><time>2026-04-10T13:42:21.001Z</time></trkpt><trkpt lat="44.77245554356007" lon="10.167309958358883"><ele>86.0</ele><time>2026-04-10T13:42:22.001Z</time></trkpt><trkpt lat="44.77263992058421" lon="10.167112922404858"><ele>86.0</ele><time>2026-04-10T13:42:23.001Z</time></trkpt><trkpt lat="44.772825907935804" lon="10.166918661929738"><ele>86.5</ele><time>2026-04-10T13:42:24.001Z</time></trkpt><trkpt lat="44.773016998492004" lon="10.16672117692131"><ele>87.0</ele><time>2026-04-10T13:42:25.001Z</time></trkpt><trkpt lat="44.77320754544815" lon="10.166527222847076"><ele>87.5</ele><time>2026-04-10T13:42:26.001Z</time></trkpt><trkpt lat="44.77340345583946" lon="10.166328031314071"><ele>88.0</ele><time>2026-04-10T13:42:27.001Z</time></trkpt><trkpt lat="44.773594082611964" lon="10.166134291481264"><ele>88.0</ele><time>2026-04-10T13:42:28.001Z</time></trkpt><trkpt lat="44.773786869733115" lon="10.165936603393817"><ele>88.0</ele><time>2026-04-10T13:42:29.001Z</time></trkpt><trkpt lat="44.773982152814405" lon="10.165736322489355"><ele>88.0</ele><time>2026-04-10T13:42:30.001Z</time></trkpt><trkpt lat="44.77417696572626" lon="10.165537549613443"><ele>88.0</ele><time>2026-04-10T13:42:31.001Z</time></trkpt><trkpt lat="44.77437256790012" lon="10.165339849406632"><ele>88.0</ele><time>2026-04-10T13:42:32.001Z</time></trkpt><trkpt lat="44.77456751651647" lon="10.16514235750718"><ele>88.0</ele><time>2026-04-10T13:42:33.001Z</time></trkpt><trkpt lat="44.77476408985723" lon="10.164943010115932"><ele>88.5</ele><time>2026-04-10T13:42:34.001Z</time></trkpt><trkpt lat="44.77495881512779" lon="10.164745593188492"><ele>89.0</ele><time>2026-04-10T13:42:35.001Z</time></trkpt><trkpt lat="44.775151822428946" lon="10.164548813659366"><ele>91.5</ele><time>2026-04-10T13:42:36.001Z</time></trkpt><trkpt lat="44.77534428970324" lon="10.164349776853525"><ele>94.0</ele><time>2026-04-10T13:42:37.001Z</time></trkpt><trkpt lat="44.77553887077898" lon="10.164151003945044"><ele>97.5</ele><time>2026-04-10T13:42:38.001Z</time></trkpt><trkpt lat="44.7757315239209" lon="10.163955982399104"><ele>101.0</ele><time>2026-04-10T13:42:39.001Z</time></trkpt><trkpt lat="44.77592242488238" lon="10.163761944548854"><ele>103.5</ele><time>2026-04-10T13:42:40.001Z</time></trkpt><trkpt lat="44.77611632147032" lon="10.163563845069296"><ele>106.0</ele><time>2026-04-10T13:42:41.001Z</time></trkpt><trkpt lat="44.77630972826253" lon="10.163366930385253"><ele>105.0</ele><time>2026-04-10T13:42:42.001Z</time></trkpt><trkpt lat="44.77650179696227" lon="10.16317090379336"><ele>104.0</ele><time>2026-04-10T13:42:43.001Z</time></trkpt><trkpt lat="44.7766887420732" lon="10.162978973339076"><ele>104.0</ele><time>2026-04-10T13:42:44.001Z</time></trkpt><trkpt lat="44.776878570638836" lon="10.16278619722003"><ele>104.0</ele><time>2026-04-10T13:42:45.001Z</time></trkpt><trkpt lat="44.77706747421679" lon="10.162599139969272"><ele>104.0</ele><time>2026-04-10T13:42:46.001Z</time></trkpt><trkpt lat="44.77725598652423" lon="10.162407899365462"><ele>104.0</ele><time>2026-04-10T13:42:47.001Z</time></trkpt><trkpt lat="44.7774411072599" lon="10.162230004622025"><ele>102.5</ele><time>2026-04-10T13:42:48.001Z</time></trkpt><trkpt lat="44.77762736648569" lon="10.162051471288528"><ele>101.0</ele><time>2026-04-10T13:42:49.001Z</time></trkpt><trkpt lat="44.77781461526748" lon="10.16184876001435"><ele>101.0</ele><time>2026-04-10T13:42:50.001Z</time></trkpt><trkpt lat="44.77799776581569" lon="10.161655011056032"><ele>101.0</ele><time>2026-04-10T13:42:51.001Z</time></trkpt><trkpt lat="44.77817977616719" lon="10.161467497649546"><ele>101.0</ele><time>2026-04-10T13:42:52.001Z</time></trkpt><trkpt lat="44.77836200267094" lon="10.16127890665288"><ele>101.0</ele><time>2026-04-10T13:42:53.001Z</time></trkpt><trkpt lat="44.778542067801816" lon="10.161093087304693"><ele>101.0</ele><time>2026-04-10T13:42:54.001Z</time></trkpt><trkpt lat="44.77871928599172" lon="10.160913792708172"><ele>101.0</ele><time>2026-04-10T13:42:55.001Z</time></trkpt><trkpt lat="44.7788831801906" lon="10.160745724346274"><ele>101.0</ele><time>2026-04-10T13:42:56.001Z</time></trkpt><trkpt lat="44.779033510375946" lon="10.160586838554806"><ele>101.0</ele><time>2026-04-10T13:42:57.001Z</time></trkpt><trkpt lat="44.77917870804858" lon="10.160432532766933"><ele>102.0</ele><time>2026-04-10T13:42:58.001Z</time></trkpt><trkpt lat="44.7793170130959" lon="10.160282198864127"><ele>103.0</ele><time>2026-04-10T13:42:59.001Z</time></trkpt><trkpt lat="44.779450921587184" lon="10.16013163460409"><ele>104.0</ele><time>2026-04-10T13:43:00.001Z</time></trkpt><trkpt lat="44.779579138800074" lon="10.159981702157175"><ele>105.25</ele><time>2026-04-10T13:43:01.001Z</time></trkpt><trkpt lat="44.7796930646542" lon="10.159842673662917"><ele>106.5</ele><time>2026-04-10T13:43:02.001Z</time></trkpt><trkpt lat="44.779796456042" lon="10.15971585386643"><ele>107.75</ele><time>2026-04-10T13:43:03.001Z</time></trkpt><trkpt lat="44.77988801736391" lon="10.159601171894376"><ele>109.0</ele><time>2026-04-10T13:43:04.001Z</time></trkpt><trkpt lat="44.77997570100958" lon="10.159527547102398"><ele>109.0</ele><time>2026-04-10T13:43:05.001Z</time></trkpt><trkpt lat="44.78002562451546" lon="10.159462587001116"><ele>109.0</ele><time>2026-04-10T13:43:06.001Z</time></trkpt><trkpt lat="44.78011199854004" lon="10.159369134828488"><ele>109.0</ele><time>2026-04-10T13:43:08.001Z</time></trkpt><trkpt lat="44.780187774172134" lon="10.159340221733366"><ele>109.0</ele><time>2026-04-10T13:43:09.001Z</time></trkpt><trkpt lat="44.7802967794506" lon="10.159324780734275"><ele>109.0</ele><time>2026-04-10T13:43:10.001Z</time></trkpt><trkpt lat="44.78040372276965" lon="10.159322716327845"><ele>109.0</ele><time>2026-04-10T13:43:11.001Z</time></trkpt><trkpt lat="44.78049248014186" lon="10.159298053834515"><ele>109.0</ele><time>2026-04-10T13:43:12.001Z</time></trkpt><trkpt lat="44.780566858314984" lon="10.159288855727983"><ele>109.0</ele><time>2026-04-10T13:43:13.001Z</time></trkpt><trkpt lat="44.78060099482903" lon="10.159139698062756"><ele>109.0</ele><time>2026-04-10T13:43:14.001Z</time></trkpt><trkpt lat="44.780627836143424" lon="10.159017976294038"><ele>109.0</ele><time>2026-04-10T13:43:15.001Z</time></trkpt><trkpt lat="44.78064337281707" lon="10.158882822754649"><ele>109.0</ele><time>2026-04-10T13:43:16.001Z</time></trkpt><trkpt lat="44.780661099309604" lon="10.15874942689365"><ele>109.0</ele><time>2026-04-10T13:43:17.001Z</time></trkpt><trkpt lat="44.780790954134886" lon="10.158530000321237"><ele>109.0</ele><time>2026-04-10T13:43:19.001Z</time></trkpt><trkpt lat="44.78089189912181" lon="10.15843346289697"><ele>109.0</ele><time>2026-04-10T13:43:20.001Z</time></trkpt><trkpt lat="44.78099631953374" lon="10.158324620961572"><ele>109.66666666666667</ele><time>2026-04-10T13:43:21.001Z</time></trkpt><trkpt lat="44.78110829620476" lon="10.158194985007647"><ele>110.33333333333334</ele><time>2026-04-10T13:43:22.001Z</time></trkpt><trkpt lat="44.78122607167286" lon="10.158055762395351"><ele>111.0</ele><time>2026-04-10T13:43:23.001Z</time></trkpt><trkpt lat="44.781345235756206" lon="10.157918915274156"><ele>111.0</ele><time>2026-04-10T13:43:24.001Z</time></trkpt><trkpt lat="44.78147148298904" lon="10.15777309042891"><ele>111.0</ele><time>2026-04-10T13:43:25.001Z</time></trkpt><trkpt lat="44.781605985401704" lon="10.157613791518223"><ele>111.0</ele><time>2026-04-10T13:43:26.001Z</time></trkpt><trkpt lat="44.781769978803396" lon="10.157447806858842"><ele>111.5</ele><time>2026-04-10T13:43:27.001Z</time></trkpt><trkpt lat="44.78193864047157" lon="10.157252598457974"><ele>112.0</ele><time>2026-04-10T13:43:28.001Z</time></trkpt><trkpt lat="44.782119224298775" lon="10.157042426316556"><ele>112.0</ele><time>2026-04-10T13:43:29.001Z</time></trkpt><trkpt lat="44.78230446348301" lon="10.15682605534647"><ele>112.0</ele><time>2026-04-10T13:43:30.001Z</time></trkpt><trkpt lat="44.78249309480237" lon="10.156596244485844"><ele>111.0</ele><time>2026-04-10T13:43:31.001Z</time></trkpt><trkpt lat="44.78268757448842" lon="10.156383942452495"><ele>110.0</ele><time>2026-04-10T13:43:32.001Z</time></trkpt><trkpt lat="44.78287553193107" lon="10.15616989998001"><ele>110.0</ele><time>2026-04-10T13:43:33.001Z</time></trkpt><trkpt lat="44.78305690827258" lon="10.15595481323236"><ele>110.0</ele><time>2026-04-10T13:43:34.001Z</time></trkpt><trkpt lat="44.783240609303995" lon="10.155737224235173"><ele>110.0</ele><time>2026-04-10T13:43:35.001Z</time></trkpt><trkpt lat="44.78342496523297" lon="10.155521759602108"><ele>110.0</ele><time>2026-04-10T13:43:36.001Z</time></trkpt><trkpt lat="44.78360869882015" lon="10.155308854660099"><ele>108.5</ele><time>2026-04-10T13:43:37.001Z</time></trkpt><trkpt lat="44.78379268736855" lon="10.15509646111751"><ele>107.0</ele><time>2026-04-10T13:43:38.001Z</time></trkpt><trkpt lat="44.783981260438914" lon="10.154880901402798"><ele>107.5</ele><time>2026-04-10T13:43:39.001Z</time></trkpt><trkpt lat="44.78416840660365" lon="10.154661517847467"><ele>108.0</ele><time>2026-04-10T13:43:40.001Z</time></trkpt><trkpt lat="44.784357736690986" lon="10.154438597979404"><ele>108.0</ele><time>2026-04-10T13:43:41.001Z</time></trkpt><trkpt lat="44.78454358868124" lon="10.154221617510812"><ele>108.0</ele><time>2026-04-10T13:43:42.001Z</time></trkpt><trkpt lat="44.78472374279206" lon="10.154014717524996"><ele>107.0</ele><time>2026-04-10T13:43:43.001Z</time></trkpt><trkpt lat="44.784907275426995" lon="10.153801664896879"><ele>106.0</ele><time>2026-04-10T13:43:44.001Z</time></trkpt><trkpt lat="44.78508883369592" lon="10.153589247853931"><ele>106.0</ele><time>2026-04-10T13:43:45.001Z</time></trkpt><trkpt lat="44.78527113214192" lon="10.153378050226753"><ele>106.0</ele><time>2026-04-10T13:43:46.001Z</time></trkpt><trkpt lat="44.78545813809091" lon="10.153162615547803"><ele>106.0</ele><time>2026-04-10T13:43:47.001Z</time></trkpt><trkpt lat="44.78564513549433" lon="10.152948884575"><ele>106.0</ele><time>2026-04-10T13:43:48.001Z</time></trkpt><trkpt lat="44.78583161190936" lon="10.15273498853688"><ele>106.0</ele><time>2026-04-10T13:43:49.001Z</time></trkpt><trkpt lat="44.78602167429095" lon="10.152514639287892"><ele>106.0</ele><time>2026-04-10T13:43:50.001Z</time></trkpt><trkpt lat="44.78620981057887" lon="10.152296329523981"><ele>106.0</ele><time>2026-04-10T13:43:51.001Z</time></trkpt><trkpt lat="44.786400063294614" lon="10.152075836104828"><ele>106.0</ele><time>2026-04-10T13:43:52.001Z</time></trkpt><trkpt lat="44.786594971733" lon="10.151850851941285"><ele>106.0</ele><time>2026-04-10T13:43:53.001Z</time></trkpt><trkpt lat="44.786791691651196" lon="10.15162481474662"><ele>106.0</ele><time>2026-04-10T13:43:54.001Z</time></trkpt><trkpt lat="44.78698732988838" lon="10.151399737833847"><ele>106.0</ele><time>2026-04-10T13:43:55.001Z</time></trkpt><trkpt lat="44.787178983528136" lon="10.15117578495832"><ele>106.0</ele><time>2026-04-10T13:43:56.001Z</time></trkpt><trkpt lat="44.78737240179379" lon="10.15095070416085"><ele>106.0</ele><time>2026-04-10T13:43:57.001Z</time></trkpt><trkpt lat="44.78756475927379" lon="10.150726375919186"><ele>106.0</ele><time>2026-04-10T13:43:58.001Z</time></trkpt><trkpt lat="44.787756550793205" lon="10.150501121541533"><ele>104.5</ele><time>2026-04-10T13:43:59.001Z</time></trkpt><trkpt lat="44.787949421724804" lon="10.150276902679023"><ele>103.0</ele><time>2026-04-10T13:44:00.001Z</time></trkpt><trkpt lat="44.78813976732655" lon="10.150056250650179"><ele>102.5</ele><time>2026-04-10T13:44:01.001Z</time></trkpt><trkpt lat="44.78832240433105" lon="10.149844030824754"><ele>102.0</ele><time>2026-04-10T13:44:02.001Z</time></trkpt><trkpt lat="44.78850264177743" lon="10.149633861880549"><ele>100.0</ele><time>2026-04-10T13:44:03.001Z</time></trkpt><trkpt lat="44.788681296450065" lon="10.149429910364939"><ele>98.0</ele><time>2026-04-10T13:44:04.001Z</time></trkpt><trkpt lat="44.78886001191714" lon="10.14922359112146"><ele>98.33333333333333</ele><time>2026-04-10T13:44:05.001Z</time></trkpt><trkpt lat="44.78903512896162" lon="10.149018246114734"><ele>98.66666666666666</ele><time>2026-04-10T13:44:06.001Z</time></trkpt><trkpt lat="44.789204063861376" lon="10.148820636142064"><ele>99.0</ele><time>2026-04-10T13:44:07.001Z</time></trkpt><trkpt lat="44.78937321950453" lon="10.148626322293609"><ele>99.0</ele><time>2026-04-10T13:44:08.001Z</time></trkpt><trkpt lat="44.789532648632964" lon="10.148440155007629"><ele>99.0</ele><time>2026-04-10T13:44:09.001Z</time></trkpt><trkpt lat="44.789681179971694" lon="10.148269066706154"><ele>99.0</ele><time>2026-04-10T13:44:10.001Z</time></trkpt><trkpt lat="44.78982231908632" lon="10.148106649336247"><ele>98.66666666666666</ele><time>2026-04-10T13:44:11.001Z</time></trkpt><trkpt lat="44.789956998214386" lon="10.147955141540297"><ele>98.33333333333333</ele><time>2026-04-10T13:44:12.001Z</time></trkpt><trkpt lat="44.79008256865813" lon="10.147810127733567"><ele>98.0</ele><time>2026-04-10T13:44:13.001Z</time></trkpt><trkpt lat="44.79019917064791" lon="10.147670220473437"><ele>98.0</ele><time>2026-04-10T13:44:14.001Z</time></trkpt><trkpt lat="44.79029947548169" lon="10.147546004150582"><ele>98.0</ele><time>2026-04-10T13:44:15.001Z</time></trkpt><trkpt lat="44.79039765989029" lon="10.147438951046963"><ele>98.0</ele><time>2026-04-10T13:44:16.001Z</time></trkpt><trkpt lat="44.790495349668966" lon="10.147373395330156"><ele>98.0</ele><time>2026-04-10T13:44:17.001Z</time></trkpt><trkpt lat="44.790595112537765" lon="10.147353292743087"><ele>97.75</ele><time>2026-04-10T13:44:18.001Z</time></trkpt><trkpt lat="44.79069208712595" lon="10.147310385209686"><ele>97.5</ele><time>2026-04-10T13:44:19.001Z</time></trkpt><trkpt lat="44.790771577349474" lon="10.147213345863614"><ele>97.25</ele><time>2026-04-10T13:44:20.001Z</time></trkpt><trkpt lat="44.79083566343232" lon="10.147065083065945"><ele>97.0</ele><time>2026-04-10T13:44:21.001Z</time></trkpt><trkpt lat="44.79090572577106" lon="10.146904654595373"><ele>97.33333333333334</ele><time>2026-04-10T13:44:22.001Z</time></trkpt><trkpt lat="44.791010328329065" lon="10.146739749708525"><ele>97.66666666666666</ele><time>2026-04-10T13:44:23.001Z</time></trkpt><trkpt lat="44.791140483976946" lon="10.146576964060129"><ele>98.0</ele><time>2026-04-10T13:44:24.001Z</time></trkpt><trkpt lat="44.791282366547925" lon="10.14641739440825"><ele>98.33333333333333</ele><time>2026-04-10T13:44:25.001Z</time></trkpt><trkpt lat="44.79143487276336" lon="10.146246699928989"><ele>98.66666666666666</ele><time>2026-04-10T13:44:26.001Z</time></trkpt><trkpt lat="44.791602658231696" lon="10.146055493884722"><ele>99.0</ele><time>2026-04-10T13:44:27.001Z</time></trkpt><trkpt lat="44.791770619351134" lon="10.145863637648265"><ele>101.5</ele><time>2026-04-10T13:44:28.001Z</time></trkpt><trkpt lat="44.79194113904763" lon="10.14566319346913"><ele>104.0</ele><time>2026-04-10T13:44:29.001Z</time></trkpt><trkpt lat="44.79211904660296" lon="10.145456271565005"><ele>104.0</ele><time>2026-04-10T13:44:30.001Z</time></trkpt><trkpt lat="44.79229472592846" lon="10.145252990915827"><ele>104.0</ele><time>2026-04-10T13:44:31.001Z</time></trkpt><trkpt lat="44.79247983236004" lon="10.145040655620504"><ele>106.0</ele><time>2026-04-10T13:44:32.001Z</time></trkpt><trkpt lat="44.792663877235235" lon="10.14483041667972"><ele>108.0</ele><time>2026-04-10T13:44:33.001Z</time></trkpt><trkpt lat="44.79285624525411" lon="10.144609082476162"><ele>108.5</ele><time>2026-04-10T13:44:34.001Z</time></trkpt><trkpt lat="44.79304871985075" lon="10.144387233193989"><ele>109.0</ele><time>2026-04-10T13:44:35.001Z</time></trkpt><trkpt lat="44.79323672494004" lon="10.144171551692905"><ele>109.5</ele><time>2026-04-10T13:44:36.001Z</time></trkpt><trkpt lat="44.793426986365716" lon="10.143950944444668"><ele>110.0</ele><time>2026-04-10T13:44:37.001Z</time></trkpt><trkpt lat="44.79361620337784" lon="10.143730726406737"><ele>108.0</ele><time>2026-04-10T13:44:38.001Z</time></trkpt><trkpt lat="44.79380280524942" lon="10.143515205555214"><ele>106.0</ele><time>2026-04-10T13:44:39.001Z</time></trkpt><trkpt lat="44.7939950195005" lon="10.143291812762632"><ele>106.0</ele><time>2026-04-10T13:44:40.001Z</time></trkpt><trkpt lat="44.79417915911798" lon="10.143074470872204"><ele>106.0</ele><time>2026-04-10T13:44:41.001Z</time></trkpt><trkpt lat="44.79436314353069" lon="10.142855381143912"><ele>105.5</ele><time>2026-04-10T13:44:42.001Z</time></trkpt><trkpt lat="44.794546711761065" lon="10.142636324252802"><ele>105.0</ele><time>2026-04-10T13:44:43.001Z</time></trkpt><trkpt lat="44.79472840821613" lon="10.14241598056914"><ele>104.5</ele><time>2026-04-10T13:44:44.001Z</time></trkpt><trkpt lat="44.79490752426128" lon="10.142192570701779"><ele>104.0</ele><time>2026-04-10T13:44:45.001Z</time></trkpt><trkpt lat="44.79508605249095" lon="10.14195835881668"><ele>103.0</ele><time>2026-04-10T13:44:46.001Z</time></trkpt><trkpt lat="44.795260149925724" lon="10.141718626578326"><ele>102.0</ele><time>2026-04-10T13:44:47.001Z</time></trkpt><trkpt lat="44.79543321006479" lon="10.141473402427007"><ele>102.0</ele><time>2026-04-10T13:44:48.001Z</time></trkpt><trkpt lat="44.79560025531246" lon="10.14122113055037"><ele>102.0</ele><time>2026-04-10T13:44:49.001Z</time></trkpt><trkpt lat="44.79576727575219" lon="10.14096821866923"><ele>102.0</ele><time>2026-04-10T13:44:50.001Z</time></trkpt><trkpt lat="44.79592314116434" lon="10.140722797225314"><ele>102.0</ele><time>2026-04-10T13:44:51.001Z</time></trkpt><trkpt lat="44.79607434451089" lon="10.140479707248529"><ele>102.33333333333334</ele><time>2026-04-10T13:44:52.001Z</time></trkpt><trkpt lat="44.796217550356346" lon="10.140238310614942"><ele>102.66666666666667</ele><time>2026-04-10T13:44:53.001Z</time></trkpt><trkpt lat="44.796342552406344" lon="10.139988731286792"><ele>103.0</ele><time>2026-04-10T13:44:54.001Z</time></trkpt><trkpt lat="44.79644876484689" lon="10.1397260988428"><ele>104.0</ele><time>2026-04-10T13:44:55.001Z</time></trkpt><trkpt lat="44.796524001217435" lon="10.13944825198376"><ele>105.0</ele><time>2026-04-10T13:44:56.001Z</time></trkpt><trkpt lat="44.79657095590652" lon="10.139158685164457"><ele>106.0</ele><time>2026-04-10T13:44:57.001Z</time></trkpt><trkpt lat="44.79658665751789" lon="10.138861999158996"><ele>106.33333333333334</ele><time>2026-04-10T13:44:58.001Z</time></trkpt><trkpt lat="44.79659050985669" lon="10.138551024517438"><ele>106.66666666666666</ele><time>2026-04-10T13:44:59.001Z</time></trkpt><trkpt lat="44.7965905732181" lon="10.138238972937783"><ele>107.0</ele><time>2026-04-10T13:45:00.001Z</time></trkpt><trkpt lat="44.79659464919384" lon="10.137914070791059"><ele>107.5</ele><time>2026-04-10T13:45:01.001Z</time></trkpt><trkpt lat="44.796603752698175" lon="10.137590015569799"><ele>108.0</ele><time>2026-04-10T13:45:02.001Z</time></trkpt><trkpt lat="44.79661161794033" lon="10.137278203901898"><ele>108.0</ele><time>2026-04-10T13:45:03.001Z</time></trkpt><trkpt lat="44.7966154315816" lon="10.13695198352238"><ele>108.0</ele><time>2026-04-10T13:45:04.001Z</time></trkpt><trkpt lat="44.796619419219816" lon="10.136601692875201"><ele>108.0</ele><time>2026-04-10T13:45:05.001Z</time></trkpt><trkpt lat="44.79662588800318" lon="10.13624459225732"><ele>108.0</ele><time>2026-04-10T13:45:06.001Z</time></trkpt><trkpt lat="44.796640304708994" lon="10.135920436242612"><ele>108.0</ele><time>2026-04-10T13:45:07.001Z</time></trkpt><trkpt lat="44.79665977061051" lon="10.135611747668046"><ele>108.0</ele><time>2026-04-10T13:45:08.001Z</time></trkpt><trkpt lat="44.79667926195832" lon="10.135299143701785"><ele>108.0</ele><time>2026-04-10T13:45:09.001Z</time></trkpt><trkpt lat="44.79671062739328" lon="10.134981539315177"><ele>108.0</ele><time>2026-04-10T13:45:10.001Z</time></trkpt><trkpt lat="44.79676246429225" lon="10.13466827258357"><ele>108.0</ele><time>2026-04-10T13:45:11.001Z</time></trkpt><trkpt lat="44.79683775679604" lon="10.134364568472385"><ele>108.0</ele><time>2026-04-10T13:45:12.001Z</time></trkpt><trkpt lat="44.79692390909385" lon="10.134088064858995"><ele>108.0</ele><time>2026-04-10T13:45:13.001Z</time></trkpt><trkpt lat="44.797016770720155" lon="10.13382848739439"><ele>108.0</ele><time>2026-04-10T13:45:14.001Z</time></trkpt><trkpt lat="44.79711994502793" lon="10.133591172569956"><ele>108.0</ele><time>2026-04-10T13:45:15.001Z</time></trkpt><trkpt lat="44.797241143634146" lon="10.133362803688449"><ele>108.0</ele><time>2026-04-10T13:45:16.001Z</time></trkpt><trkpt lat="44.79737796152893" lon="10.133148374658553"><ele>108.0</ele><time>2026-04-10T13:45:17.001Z</time></trkpt><trkpt lat="44.797533430052766" lon="10.132941505048818"><ele>107.66666666666666</ele><time>2026-04-10T13:45:18.001Z</time></trkpt><trkpt lat="44.797701099212304" lon="10.132747818359814"><ele>107.33333333333333</ele><time>2026-04-10T13:45:19.001Z</time></trkpt><trkpt lat="44.797884925802855" lon="10.132558999441995"><ele>107.0</ele><time>2026-04-10T13:45:20.001Z</time></trkpt><trkpt lat="44.79807428545564" lon="10.132358837129336"><ele>108.0</ele><time>2026-04-10T13:45:21.001Z</time></trkpt><trkpt lat="44.79826312390707" lon="10.132160029512416"><ele>109.0</ele><time>2026-04-10T13:45:22.001Z</time></trkpt><trkpt lat="44.79845699697285" lon="10.131955026588635"><ele>108.5</ele><time>2026-04-10T13:45:23.001Z</time></trkpt><trkpt lat="44.798651778962245" lon="10.131746457908337"><ele>108.0</ele><time>2026-04-10T13:45:24.001Z</time></trkpt><trkpt lat="44.798848581926" lon="10.131532899935424"><ele>108.0</ele><time>2026-04-10T13:45:25.001Z</time></trkpt><trkpt lat="44.79904547027643" lon="10.131317210774498"><ele>108.0</ele><time>2026-04-10T13:45:26.001Z</time></trkpt><trkpt lat="44.79924823044482" lon="10.131096545886312"><ele>106.0</ele><time>2026-04-10T13:45:27.001Z</time></trkpt><trkpt lat="44.79945201825128" lon="10.130876390895967"><ele>104.0</ele><time>2026-04-10T13:45:28.001Z</time></trkpt><trkpt lat="44.79965533351115" lon="10.130658153835768"><ele>101.0</ele><time>2026-04-10T13:45:29.001Z</time></trkpt><trkpt lat="44.79985964567423" lon="10.130439505698611"><ele>98.0</ele><time>2026-04-10T13:45:30.001Z</time></trkpt><trkpt lat="44.800056741364045" lon="10.13023116682729"><ele>97.0</ele><time>2026-04-10T13:45:31.001Z</time></trkpt><trkpt lat="44.80025952930646" lon="10.130012839624573"><ele>96.0</ele><time>2026-04-10T13:45:32.001Z</time></trkpt><trkpt lat="44.800462462390556" lon="10.12979780552549"><ele>96.0</ele><time>2026-04-10T13:45:33.001Z</time></trkpt><trkpt lat="44.80067041074626" lon="10.1295772011712"><ele>96.0</ele><time>2026-04-10T13:45:34.001Z</time></trkpt><trkpt lat="44.80087433962079" lon="10.129355942335529"><ele>97.0</ele><time>2026-04-10T13:45:35.001Z</time></trkpt><trkpt lat="44.801080509587216" lon="10.129132810517529"><ele>98.0</ele><time>2026-04-10T13:45:36.001Z</time></trkpt><trkpt lat="44.80127596528369" lon="10.12892608291316"><ele>99.66666666666666</ele><time>2026-04-10T13:45:37.001Z</time></trkpt><trkpt lat="44.80144920651951" lon="10.128743497207314"><ele>101.33333333333334</ele><time>2026-04-10T13:45:38.001Z</time></trkpt><trkpt lat="44.8016089012513" lon="10.128573550911288"><ele>103.0</ele><time>2026-04-10T13:45:39.001Z</time></trkpt><trkpt lat="44.801777821608304" lon="10.128397230649048"><ele>103.66666666666667</ele><time>2026-04-10T13:45:40.001Z</time></trkpt><trkpt lat="44.80193502869997" lon="10.128225043638015"><ele>104.33333333333334</ele><time>2026-04-10T13:45:41.001Z</time></trkpt><trkpt lat="44.802085774632104" lon="10.128060476405201"><ele>105.0</ele><time>2026-04-10T13:45:42.001Z</time></trkpt><trkpt lat="44.80222865573991" lon="10.127897579119916"><ele>105.0</ele><time>2026-04-10T13:45:43.001Z</time></trkpt><trkpt lat="44.802352754301694" lon="10.12771903680897"><ele>105.0</ele><time>2026-04-10T13:45:44.001Z</time></trkpt><trkpt lat="44.80246654193993" lon="10.12750787185544"><ele>105.0</ele><time>2026-04-10T13:45:45.001Z</time></trkpt><trkpt lat="44.80255643310237" lon="10.12727050895208"><ele>105.66666666666666</ele><time>2026-04-10T13:45:46.001Z</time></trkpt><trkpt lat="44.80262378941692" lon="10.127020380402543"><ele>106.33333333333333</ele><time>2026-04-10T13:45:47.001Z</time></trkpt><trkpt lat="44.80266821573415" lon="10.126751573320425"><ele>107.0</ele><time>2026-04-10T13:45:48.001Z</time></trkpt><trkpt lat="44.80269131064303" lon="10.126479302881025"><ele>107.33333333333333</ele><time>2026-04-10T13:45:49.001Z</time></trkpt><trkpt lat="44.8026861083398" lon="10.12619714962775"><ele>107.66666666666666</ele><time>2026-04-10T13:45:50.001Z</time></trkpt><trkpt lat="44.80265505787013" lon="10.125917895576595"><ele>108.0</ele><time>2026-04-10T13:45:51.001Z</time></trkpt><trkpt lat="44.80260829083535" lon="10.125624412588074"><ele>108.0</ele><time>2026-04-10T13:45:52.001Z</time></trkpt><trkpt lat="44.80255268030001" lon="10.125337151325693"><ele>108.0</ele><time>2026-04-10T13:45:53.001Z</time></trkpt><trkpt lat="44.80252517441839" lon="10.125025561334189"><ele>108.0</ele><time>2026-04-10T13:45:54.001Z</time></trkpt><trkpt lat="44.80246615245307" lon="10.12472108847964"><ele>107.66666666666666</ele><time>2026-04-10T13:45:55.001Z</time></trkpt><trkpt lat="44.80242441967165" lon="10.124420508647015"><ele>107.33333333333333</ele><time>2026-04-10T13:45:56.001Z</time></trkpt><trkpt lat="44.80238312316558" lon="10.124114381254492"><ele>107.0</ele><time>2026-04-10T13:45:57.001Z</time></trkpt><trkpt lat="44.802342083146755" lon="10.123806546712432"><ele>107.0</ele><time>2026-04-10T13:45:58.001Z</time></trkpt><trkpt lat="44.80229817045049" lon="10.123500442492041"><ele>107.0</ele><time>2026-04-10T13:45:59.001Z</time></trkpt><trkpt lat="44.80225446775587" lon="10.123198840827577"><ele>107.0</ele><time>2026-04-10T13:46:00.001Z</time></trkpt><trkpt lat="44.80221061135267" lon="10.122903284030134"><ele>108.33333333333333</ele><time>2026-04-10T13:46:01.001Z</time></trkpt><trkpt lat="44.802169851740985" lon="10.12262339975527"><ele>109.66666666666666</ele><time>2026-04-10T13:46:02.001Z</time></trkpt><trkpt lat="44.8021490257917" lon="10.12236051504026"><ele>111.0</ele><time>2026-04-10T13:46:03.001Z</time></trkpt><trkpt lat="44.80211524269508" lon="10.122118388900684"><ele>112.66666666666666</ele><time>2026-04-10T13:46:04.001Z</time></trkpt><trkpt lat="44.8020814370902" lon="10.121876101430272"><ele>114.33333333333333</ele><time>2026-04-10T13:46:05.001Z</time></trkpt><trkpt lat="44.80204691733957" lon="10.121629580857702"><ele>116.0</ele><time>2026-04-10T13:46:06.001Z</time></trkpt><trkpt lat="44.80201326246153" lon="10.121380862932385"><ele>116.33333333333333</ele><time>2026-04-10T13:46:07.001Z</time></trkpt><trkpt lat="44.80197945730805" lon="10.121109612593145"><ele>116.66666666666666</ele><time>2026-04-10T13:46:08.001Z</time></trkpt><trkpt lat="44.801948790411394" lon="10.120854970441197"><ele>117.0</ele><time>2026-04-10T13:46:09.001Z</time></trkpt><trkpt lat="44.80191807694012" lon="10.120589621578981"><ele>117.0</ele><time>2026-04-10T13:46:10.001Z</time></trkpt><trkpt lat="44.801874299233674" lon="10.120312804350037"><ele>117.0</ele><time>2026-04-10T13:46:11.001Z</time></trkpt><trkpt lat="44.80184390382301" lon="10.120028453619845"><ele>117.0</ele><time>2026-04-10T13:46:12.001Z</time></trkpt><trkpt lat="44.80180732511701" lon="10.119741239687396"><ele>118.33333333333334</ele><time>2026-04-10T13:46:13.001Z</time></trkpt><trkpt lat="44.801767178657194" lon="10.119437993776739"><ele>119.66666666666667</ele><time>2026-04-10T13:46:14.001Z</time></trkpt><trkpt lat="44.80172447156907" lon="10.119136587317154"><ele>121.0</ele><time>2026-04-10T13:46:15.001Z</time></trkpt><trkpt lat="44.801693981451315" lon="10.118844433084126"><ele>121.0</ele><time>2026-04-10T13:46:16.001Z</time></trkpt><trkpt lat="44.80163833284324" lon="10.118527193702471"><ele>121.0</ele><time>2026-04-10T13:46:17.001Z</time></trkpt><trkpt lat="44.80159850874506" lon="10.118226616689649"><ele>121.0</ele><time>2026-04-10T13:46:18.001Z</time></trkpt><trkpt lat="44.80156008584823" lon="10.117927284502768"><ele>121.0</ele><time>2026-04-10T13:46:19.001Z</time></trkpt><trkpt lat="44.80152115611299" lon="10.117637580308177"><ele>121.0</ele><time>2026-04-10T13:46:20.001Z</time></trkpt><trkpt lat="44.801478123101816" lon="10.117355695958969"><ele>121.0</ele><time>2026-04-10T13:46:21.001Z</time></trkpt><trkpt lat="44.80145650534395" lon="10.117079627498718"><ele>121.66666666666667</ele><time>2026-04-10T13:46:22.001Z</time></trkpt><trkpt lat="44.801420830877554" lon="10.116813812173724"><ele>122.33333333333334</ele><time>2026-04-10T13:46:23.001Z</time></trkpt><trkpt lat="44.80137052616618" lon="10.116563468246868"><ele>123.0</ele><time>2026-04-10T13:46:24.001Z</time></trkpt><trkpt lat="44.80133864277878" lon="10.116310739253793"><ele>123.0</ele><time>2026-04-10T13:46:25.001Z</time></trkpt><trkpt lat="44.801310839588034" lon="10.116072871299554"><ele>123.0</ele><time>2026-04-10T13:46:26.001Z</time></trkpt><trkpt lat="44.80128112133643" lon="10.115854148535965"><ele>123.0</ele><time>2026-04-10T13:46:27.001Z</time></trkpt><trkpt lat="44.80125423551678" lon="10.115645132847588"><ele>123.0</ele><time>2026-04-10T13:46:28.001Z</time></trkpt><trkpt lat="44.801227492499116" lon="10.115441466320883"><ele>123.0</ele><time>2026-04-10T13:46:29.001Z</time></trkpt><trkpt lat="44.80120203585465" lon="10.115238878991876"><ele>123.0</ele><time>2026-04-10T13:46:30.001Z</time></trkpt><trkpt lat="44.80117501715132" lon="10.115034780979714"><ele>123.0</ele><time>2026-04-10T13:46:31.001Z</time></trkpt><trkpt lat="44.801148741898125" lon="10.1148267121058"><ele>122.33333333333334</ele><time>2026-04-10T13:46:32.001Z</time></trkpt><trkpt lat="44.80112196059257" lon="10.114603656203665"><ele>121.66666666666667</ele><time>2026-04-10T13:46:33.001Z</time></trkpt><trkpt lat="44.80111922926461" lon="10.114386953866962"><ele>121.0</ele><time>2026-04-10T13:46:34.001Z</time></trkpt><trkpt lat="44.80108949292864" lon="10.114181713243005"><ele>118.25</ele><time>2026-04-10T13:46:35.001Z</time></trkpt><trkpt lat="44.80108176130973" lon="10.113978027626906"><ele>115.5</ele><time>2026-04-10T13:46:36.001Z</time></trkpt><trkpt lat="44.80107353653489" lon="10.113781441482441"><ele>112.75</ele><time>2026-04-10T13:46:37.001Z</time></trkpt><trkpt lat="44.80105937627656" lon="10.113594423148918"><ele>110.0</ele><time>2026-04-10T13:46:38.001Z</time></trkpt><trkpt lat="44.801026705789035" lon="10.113409685853638"><ele>111.25</ele><time>2026-04-10T13:46:39.001Z</time></trkpt><trkpt lat="44.800976103469424" lon="10.113225503039983"><ele>112.5</ele><time>2026-04-10T13:46:40.001Z</time></trkpt><trkpt lat="44.80090719758192" lon="10.113055534579646"><ele>113.75</ele><time>2026-04-10T13:46:41.001Z</time></trkpt><trkpt lat="44.80083624513544" lon="10.112900635249018"><ele>115.0</ele><time>2026-04-10T13:46:42.001Z</time></trkpt><trkpt lat="44.800765279863406" lon="10.112754233759636"><ele>115.0</ele><time>2026-04-10T13:46:43.001Z</time></trkpt><trkpt lat="44.80069082430218" lon="10.112604985161413"><ele>115.0</ele><time>2026-04-10T13:46:44.001Z</time></trkpt><trkpt lat="44.80062853978436" lon="10.11247370274486"><ele>115.0</ele><time>2026-04-10T13:46:45.001Z</time></trkpt><trkpt lat="44.80057162674603" lon="10.112351026935238"><ele>115.0</ele><time>2026-04-10T13:46:46.001Z</time></trkpt><trkpt lat="44.80053249597891" lon="10.112228144311677"><ele>115.0</ele><time>2026-04-10T13:46:47.001Z</time></trkpt><trkpt lat="44.80051186122078" lon="10.112103927157955"><ele>114.6</ele><time>2026-04-10T13:46:48.001Z</time></trkpt><trkpt lat="44.800512745415766" lon="10.111970600007005"><ele>114.2</ele><time>2026-04-10T13:46:49.001Z</time></trkpt><trkpt lat="44.80054235192933" lon="10.111843195209033"><ele>113.80000000000001</ele><time>2026-04-10T13:46:50.001Z</time></trkpt><trkpt lat="44.8005837666704" lon="10.111731843098754"><ele>113.4</ele><time>2026-04-10T13:46:51.001Z</time></trkpt><trkpt lat="44.80063477164965" lon="10.111605384319788"><ele>113.0</ele><time>2026-04-10T13:46:52.001Z</time></trkpt><trkpt lat="44.80067813974351" lon="10.111451784062004"><ele>113.0</ele><time>2026-04-10T13:46:53.001Z</time></trkpt><trkpt lat="44.80071550197815" lon="10.111277488697134"><ele>113.0</ele><time>2026-04-10T13:46:54.001Z</time></trkpt><trkpt lat="44.80074550212968" lon="10.111113750772956"><ele>113.0</ele><time>2026-04-10T13:46:55.001Z</time></trkpt><trkpt lat="44.80077251599625" lon="10.110951638380376"><ele>113.0</ele><time>2026-04-10T13:46:56.001Z</time></trkpt><trkpt lat="44.80080040483791" lon="10.11077475819812"><ele>111.66666666666666</ele><time>2026-04-10T13:46:57.001Z</time></trkpt><trkpt lat="44.80083055876578" lon="10.110578214408745"><ele>110.33333333333334</ele><time>2026-04-10T13:46:58.001Z</time></trkpt><trkpt lat="44.80086852272365" lon="10.110363812098612"><ele>109.0</ele><time>2026-04-10T13:46:59.001Z</time></trkpt><trkpt lat="44.80091014834628" lon="10.110150640575904"><ele>109.0</ele><time>2026-04-10T13:47:00.001Z</time></trkpt><trkpt lat="44.80095655257044" lon="10.10995759251279"><ele>109.0</ele><time>2026-04-10T13:47:01.001Z</time></trkpt><trkpt lat="44.80100806022792" lon="10.109769459648627"><ele>109.0</ele><time>2026-04-10T13:47:02.001Z</time></trkpt><trkpt lat="44.80107033269455" lon="10.109586352946652"><ele>109.0</ele><time>2026-04-10T13:47:03.001Z</time></trkpt><trkpt lat="44.80113323441819" lon="10.109435487119022"><ele>111.25</ele><time>2026-04-10T13:47:04.001Z</time></trkpt><trkpt lat="44.801196151785156" lon="10.10935609982047"><ele>113.5</ele><time>2026-04-10T13:47:05.001Z</time></trkpt><trkpt lat="44.80117927326479" lon="10.109100677356375"><ele>115.75</ele><time>2026-04-10T13:47:07.001Z</time></trkpt><trkpt lat="44.80117632547952" lon="10.108933401646462"><ele>118.0</ele><time>2026-04-10T13:47:08.001Z</time></trkpt><trkpt lat="44.801147674934874" lon="10.108737692347667"><ele>120.33333333333334</ele><time>2026-04-10T13:47:09.001Z</time></trkpt><trkpt lat="44.80111108564531" lon="10.108533689001995"><ele>122.66666666666666</ele><time>2026-04-10T13:47:10.001Z</time></trkpt><trkpt lat="44.80107007765463" lon="10.108313845643954"><ele>125.0</ele><time>2026-04-10T13:47:11.001Z</time></trkpt><trkpt lat="44.8010310931109" lon="10.108104850453033"><ele>123.0</ele><time>2026-04-10T13:47:12.001Z</time></trkpt><trkpt lat="44.80099556718225" lon="10.10791439688145"><ele>121.0</ele><time>2026-04-10T13:47:13.001Z</time></trkpt><trkpt lat="44.80096011116385" lon="10.107737771581727"><ele>119.0</ele><time>2026-04-10T13:47:14.001Z</time></trkpt><trkpt lat="44.800922115500605" lon="10.107583552129459"><ele>117.0</ele><time>2026-04-10T13:47:15.001Z</time></trkpt><trkpt lat="44.8008807484895" lon="10.107475809267104"><ele>117.25</ele><time>2026-04-10T13:47:16.001Z</time></trkpt><trkpt lat="44.80079519136934" lon="10.107386404191404"><ele>117.5</ele><time>2026-04-10T13:47:17.001Z</time></trkpt><trkpt lat="44.80065334651632" lon="10.107370041469348"><ele>117.75</ele><time>2026-04-10T13:47:18.001Z</time></trkpt><trkpt lat="44.80051474746126" lon="10.107335196542774"><ele>118.0</ele><time>2026-04-10T13:47:19.001Z</time></trkpt><trkpt lat="44.80037679335483" lon="10.107268717120137"><ele>118.0</ele><time>2026-04-10T13:47:20.001Z</time></trkpt><trkpt lat="44.800235114135006" lon="10.107203124385633"><ele>118.0</ele><time>2026-04-10T13:47:21.001Z</time></trkpt><trkpt lat="44.80009201521873" lon="10.107116591374897"><ele>118.0</ele><time>2026-04-10T13:47:22.001Z</time></trkpt><trkpt lat="44.7999728346646" lon="10.107030728193353"><ele>118.0</ele><time>2026-04-10T13:47:23.001Z</time></trkpt><trkpt lat="44.7998778610341" lon="10.106949878829008"><ele>117.60000000000001</ele><time>2026-04-10T13:47:24.001Z</time></trkpt><trkpt lat="44.799809712793135" lon="10.106876888555165"><ele>117.20000000000002</ele><time>2026-04-10T13:47:25.001Z</time></trkpt><trkpt lat="44.79974649513394" lon="10.106799071988355"><ele>116.8</ele><time>2026-04-10T13:47:26.001Z</time></trkpt><trkpt lat="44.79975285836751" lon="10.106644607747644"><ele>116.4</ele><time>2026-04-10T13:47:27.001Z</time></trkpt><trkpt lat="44.79973083340613" lon="10.106472954018447"><ele>116.0</ele><time>2026-04-10T13:47:28.001Z</time></trkpt><trkpt lat="44.799709192787816" lon="10.106287688259098"><ele>119.33333333333333</ele><time>2026-04-10T13:47:29.001Z</time></trkpt><trkpt lat="44.79968563692518" lon="10.106086025255296"><ele>122.66666666666666</ele><time>2026-04-10T13:47:30.001Z</time></trkpt><trkpt lat="44.799658780704114" lon="10.105863530643646"><ele>126.0</ele><time>2026-04-10T13:47:31.001Z</time></trkpt><trkpt lat="44.79963556355804" lon="10.105629603012732"><ele>127.33333333333334</ele><time>2026-04-10T13:47:32.001Z</time></trkpt><trkpt lat="44.799607534195644" lon="10.105399586429785"><ele>128.66666666666669</ele><time>2026-04-10T13:47:33.001Z</time></trkpt><trkpt lat="44.79957698652273" lon="10.105160469639094"><ele>130.0</ele><time>2026-04-10T13:47:34.001Z</time></trkpt><trkpt lat="44.79955055052203" lon="10.104937258040767"><ele>130.25</ele><time>2026-04-10T13:47:35.001Z</time></trkpt><trkpt lat="44.79952926309333" lon="10.104744159204733"><ele>130.5</ele><time>2026-04-10T13:47:36.001Z</time></trkpt><trkpt lat="44.79950043530452" lon="10.104577363908765"><ele>130.75</ele><time>2026-04-10T13:47:37.001Z</time></trkpt><trkpt lat="44.79944957866088" lon="10.104414347097556"><ele>131.0</ele><time>2026-04-10T13:47:38.001Z</time></trkpt><trkpt lat="44.79934967548481" lon="10.104253304831127"><ele>133.66666666666666</ele><time>2026-04-10T13:47:39.001Z</time></trkpt><trkpt lat="44.799261262493914" lon="10.10406161936017"><ele>136.33333333333334</ele><time>2026-04-10T13:47:40.001Z</time></trkpt><trkpt lat="44.79915342998198" lon="10.103859453578037"><ele>139.0</ele><time>2026-04-10T13:47:41.001Z</time></trkpt><trkpt lat="44.79903915571808" lon="10.103646399920258"><ele>139.0</ele><time>2026-04-10T13:47:42.001Z</time></trkpt><trkpt lat="44.79892082674227" lon="10.103427256241755"><ele>139.0</ele><time>2026-04-10T13:47:43.001Z</time></trkpt><trkpt lat="44.798797091970556" lon="10.103198710081035"><ele>139.0</ele><time>2026-04-10T13:47:44.001Z</time></trkpt><trkpt lat="44.79867619354066" lon="10.102975402892303"><ele>139.0</ele><time>2026-04-10T13:47:45.001Z</time></trkpt><trkpt lat="44.79855884450079" lon="10.102758651609982"><ele>139.0</ele><time>2026-04-10T13:47:46.001Z</time></trkpt><trkpt lat="44.79844736464292" lon="10.102552741105196"><ele>139.0</ele><time>2026-04-10T13:47:47.001Z</time></trkpt><trkpt lat="44.79833664677464" lon="10.102360179765748"><ele>142.66666666666669</ele><time>2026-04-10T13:47:48.001Z</time></trkpt><trkpt lat="44.79819994907925" lon="10.102188945166217"><ele>146.33333333333334</ele><time>2026-04-10T13:47:49.001Z</time></trkpt><trkpt lat="44.7980682592435" lon="10.101994190495702"><ele>150.0</ele><time>2026-04-10T13:47:50.001Z</time></trkpt><trkpt lat="44.797922021537936" lon="10.101805846975502"><ele>150.0</ele><time>2026-04-10T13:47:51.001Z</time></trkpt><trkpt lat="44.7977711762475" lon="10.10162230360037"><ele>150.0</ele><time>2026-04-10T13:47:52.001Z</time></trkpt><trkpt lat="44.79763382341914" lon="10.10140597243809"><ele>150.0</ele><time>2026-04-10T13:47:53.001Z</time></trkpt><trkpt lat="44.79748297271235" lon="10.10121728781059"><ele>150.66666666666666</ele><time>2026-04-10T13:47:54.001Z</time></trkpt><trkpt lat="44.79733001027519" lon="10.101028129549253"><ele>151.33333333333331</ele><time>2026-04-10T13:47:55.001Z</time></trkpt><trkpt lat="44.7971734134237" lon="10.10083911782477"><ele>152.0</ele><time>2026-04-10T13:47:56.001Z</time></trkpt><trkpt lat="44.797016490119745" lon="10.100650480087284"><ele>152.66666666666666</ele><time>2026-04-10T13:47:57.001Z</time></trkpt><trkpt lat="44.796854630554975" lon="10.100457629881712"><ele>153.33333333333334</ele><time>2026-04-10T13:47:58.001Z</time></trkpt><trkpt lat="44.7966834323817" lon="10.100288358212778"><ele>154.0</ele><time>2026-04-10T13:47:59.001Z</time></trkpt><trkpt lat="44.796529212169" lon="10.100080950871426"><ele>155.66666666666669</ele><time>2026-04-10T13:48:00.001Z</time></trkpt><trkpt lat="44.79636030412653" lon="10.099890850631986"><ele>157.33333333333334</ele><time>2026-04-10T13:48:01.001Z</time></trkpt><trkpt lat="44.796186115568204" lon="10.099723700772076"><ele>159.0</ele><time>2026-04-10T13:48:02.001Z</time></trkpt><trkpt lat="44.79603035666795" lon="10.099550585611523"><ele>160.0</ele><time>2026-04-10T13:48:03.001Z</time></trkpt><trkpt lat="44.79587930251143" lon="10.099385406368468"><ele>161.0</ele><time>2026-04-10T13:48:04.001Z</time></trkpt><trkpt lat="44.79573952682901" lon="10.09923311172231"><ele>162.0</ele><time>2026-04-10T13:48:05.001Z</time></trkpt><trkpt lat="44.79561786348099" lon="10.099098374276247"><ele>162.33333333333334</ele><time>2026-04-10T13:48:06.001Z</time></trkpt><trkpt lat="44.79551705216317" lon="10.098985517507474"><ele>162.66666666666666</ele><time>2026-04-10T13:48:07.001Z</time></trkpt><trkpt lat="44.79544922511128" lon="10.098880341755052"><ele>163.0</ele><time>2026-04-10T13:48:08.001Z</time></trkpt><trkpt lat="44.795390344259275" lon="10.098807228666974"><ele>163.33333333333331</ele><time>2026-04-10T13:48:09.001Z</time></trkpt><trkpt lat="44.79533713546263" lon="10.098749455363103"><ele>163.66666666666666</ele><time>2026-04-10T13:48:10.001Z</time></trkpt><trkpt lat="44.795332051622744" lon="10.098648438304034"><ele>164.0</ele><time>2026-04-10T13:48:11.001Z</time></trkpt><trkpt lat="44.795366190700086" lon="10.098542562716261"><ele>164.0</ele><time>2026-04-10T13:48:12.001Z</time></trkpt><trkpt lat="44.7954497468051" lon="10.098466356836552"><ele>164.0</ele><time>2026-04-10T13:48:13.001Z</time></trkpt><trkpt lat="44.79547647875024" lon="10.098355862630552"><ele>164.0</ele><time>2026-04-10T13:48:14.001Z</time></trkpt><trkpt lat="44.79545424530796" lon="10.098227018896102"><ele>164.0</ele><time>2026-04-10T13:48:15.001Z</time></trkpt><trkpt lat="44.795342546731376" lon="10.098139140775848"><ele>164.0</ele><time>2026-04-10T13:48:16.001Z</time></trkpt><trkpt lat="44.79524652459047" lon="10.098062297399885"><ele>164.5</ele><time>2026-04-10T13:48:17.001Z</time></trkpt><trkpt lat="44.79513885780806" lon="10.097993207304953"><ele>165.0</ele><time>2026-04-10T13:48:18.001Z</time></trkpt><trkpt lat="44.79502827964417" lon="10.097905567337593"><ele>165.5</ele><time>2026-04-10T13:48:19.001Z</time></trkpt><trkpt lat="44.794922510663355" lon="10.09781822450091"><ele>166.0</ele><time>2026-04-10T13:48:20.001Z</time></trkpt><trkpt lat="44.79483812569365" lon="10.097722103264294"><ele>166.0</ele><time>2026-04-10T13:48:21.001Z</time></trkpt><trkpt lat="44.79475878815585" lon="10.097654612169022"><ele>166.0</ele><time>2026-04-10T13:48:22.001Z</time></trkpt><trkpt lat="44.79469719236134" lon="10.097602651622958"><ele>166.0</ele><time>2026-04-10T13:48:23.001Z</time></trkpt><trkpt lat="44.794646657707716" lon="10.097535504090406"><ele>166.0</ele><time>2026-04-10T13:48:25.001Z</time></trkpt><trkpt lat="44.79472842642525" lon="10.097425565385857"><ele>166.0</ele><time>2026-04-10T13:48:26.001Z</time></trkpt><trkpt lat="44.79477859522122" lon="10.097307913132836"><ele>166.0</ele><time>2026-04-10T13:48:27.001Z</time></trkpt><trkpt lat="44.79483332641487" lon="10.097158902356004"><ele>164.0</ele><time>2026-04-10T13:48:28.001Z</time></trkpt><trkpt lat="44.79490485602573" lon="10.096995093109072"><ele>162.0</ele><time>2026-04-10T13:48:29.001Z</time></trkpt><trkpt lat="44.79498217369945" lon="10.096813870756733"><ele>160.0</ele><time>2026-04-10T13:48:30.001Z</time></trkpt><trkpt lat="44.79506516168909" lon="10.096615788503964"><ele>159.0</ele><time>2026-04-10T13:48:31.001Z</time></trkpt><trkpt lat="44.79514642734029" lon="10.096417625614693"><ele>158.0</ele><time>2026-04-10T13:48:32.001Z</time></trkpt><trkpt lat="44.79523354236627" lon="10.096210400329444"><ele>157.0</ele><time>2026-04-10T13:48:33.001Z</time></trkpt><trkpt lat="44.79532793254459" lon="10.095994950818351"><ele>154.0</ele><time>2026-04-10T13:48:34.001Z</time></trkpt><trkpt lat="44.79542091988334" lon="10.095779812501222"><ele>151.0</ele><time>2026-04-10T13:48:35.001Z</time></trkpt><trkpt lat="44.79551137328132" lon="10.095576228327193"><ele>148.0</ele><time>2026-04-10T13:48:36.001Z</time></trkpt><trkpt lat="44.795605584245656" lon="10.095362432489384"><ele>147.33333333333334</ele><time>2026-04-10T13:48:37.001Z</time></trkpt><trkpt lat="44.79569925479835" lon="10.095154557117574"><ele>146.66666666666666</ele><time>2026-04-10T13:48:38.001Z</time></trkpt><trkpt lat="44.79579402588468" lon="10.094941583521681"><ele>146.0</ele><time>2026-04-10T13:48:39.001Z</time></trkpt><trkpt lat="44.7958921259173" lon="10.094715630622668"><ele>145.33333333333331</ele><time>2026-04-10T13:48:40.001Z</time></trkpt><trkpt lat="44.79598641348202" lon="10.094496322448567"><ele>144.66666666666666</ele><time>2026-04-10T13:48:41.001Z</time></trkpt><trkpt lat="44.796091313412866" lon="10.094296714333874"><ele>144.0</ele><time>2026-04-10T13:48:42.001Z</time></trkpt><trkpt lat="44.79618341231426" lon="10.094086577107756"><ele>144.0</ele><time>2026-04-10T13:48:43.001Z</time></trkpt><trkpt lat="44.79627519737332" lon="10.093876801678617"><ele>144.0</ele><time>2026-04-10T13:48:44.001Z</time></trkpt><trkpt lat="44.79634356213372" lon="10.09367796024558"><ele>144.0</ele><time>2026-04-10T13:48:45.001Z</time></trkpt><trkpt lat="44.796421938244706" lon="10.093507452859795"><ele>144.0</ele><time>2026-04-10T13:48:46.001Z</time></trkpt><trkpt lat="44.79649577402755" lon="10.093342763910966"><ele>144.0</ele><time>2026-04-10T13:48:47.001Z</time></trkpt><trkpt lat="44.79656457190999" lon="10.093178450552328"><ele>144.0</ele><time>2026-04-10T13:48:48.001Z</time></trkpt><trkpt lat="44.796626935903475" lon="10.093019864805733"><ele>144.0</ele><time>2026-04-10T13:48:49.001Z</time></trkpt><trkpt lat="44.796687305640084" lon="10.092882374771538"><ele>145.8</ele><time>2026-04-10T13:48:50.001Z</time></trkpt><trkpt lat="44.79673224788187" lon="10.09275974480011"><ele>147.60000000000002</ele><time>2026-04-10T13:48:51.001Z</time></trkpt><trkpt lat="44.796769217839774" lon="10.09267221527069"><ele>149.4</ele><time>2026-04-10T13:48:52.001Z</time></trkpt><trkpt lat="44.79682613432384" lon="10.092566028020414"><ele>151.20000000000002</ele><time>2026-04-10T13:48:54.001Z</time></trkpt><trkpt lat="44.796861258449354" lon="10.09249030978206"><ele>153.0</ele><time>2026-04-10T13:49:01.001Z</time></trkpt><trkpt lat="44.796745279813635" lon="10.092366300374351"><ele>153.20000000000002</ele><time>2026-04-10T13:49:03.001Z</time></trkpt><trkpt lat="44.79666683831214" lon="10.092334727793558"><ele>153.4</ele><time>2026-04-10T13:49:04.001Z</time></trkpt><trkpt lat="44.79657379291037" lon="10.092278313493058"><ele>153.60000000000002</ele><time>2026-04-10T13:49:05.001Z</time></trkpt><trkpt lat="44.79647101865638" lon="10.092219867678011"><ele>153.8</ele><time>2026-04-10T13:49:06.001Z</time></trkpt><trkpt lat="44.79635484223046" lon="10.092156352476353"><ele>154.0</ele><time>2026-04-10T13:49:07.001Z</time></trkpt><trkpt lat="44.7962305624707" lon="10.092083881775698"><ele>154.0</ele><time>2026-04-10T13:49:08.001Z</time></trkpt><trkpt lat="44.79610446108554" lon="10.092006353602297"><ele>154.0</ele><time>2026-04-10T13:49:09.001Z</time></trkpt><trkpt lat="44.7959773856553" lon="10.091918716781388"><ele>154.0</ele><time>2026-04-10T13:49:10.001Z</time></trkpt><trkpt lat="44.795851503891946" lon="10.091830336106662"><ele>154.0</ele><time>2026-04-10T13:49:11.001Z</time></trkpt><trkpt lat="44.7957290949471" lon="10.09173103047348"><ele>154.75</ele><time>2026-04-10T13:49:12.001Z</time></trkpt><trkpt lat="44.795614451375315" lon="10.091622182380847"><ele>155.5</ele><time>2026-04-10T13:49:13.001Z</time></trkpt><trkpt lat="44.79551336617337" lon="10.091512780053115"><ele>156.25</ele><time>2026-04-10T13:49:14.001Z</time></trkpt><trkpt lat="44.79542175569311" lon="10.09141245822384"><ele>157.0</ele><time>2026-04-10T13:49:15.001Z</time></trkpt><trkpt lat="44.79534109555718" lon="10.091327498393742"><ele>157.0</ele><time>2026-04-10T13:49:16.001Z</time></trkpt><trkpt lat="44.79527332915349" lon="10.09123957121595"><ele>157.0</ele><time>2026-04-10T13:49:17.001Z</time></trkpt><trkpt lat="44.79522342013085" lon="10.09111492050394"><ele>157.0</ele><time>2026-04-10T13:49:18.001Z</time></trkpt><trkpt lat="44.79516479792826" lon="10.090987694821768"><ele>157.0</ele><time>2026-04-10T13:49:19.001Z</time></trkpt><trkpt lat="44.7951036703994" lon="10.090889060565917"><ele>157.0</ele><time>2026-04-10T13:49:20.001Z</time></trkpt><trkpt lat="44.7950803281036" lon="10.090770426469433"><ele>159.2</ele><time>2026-04-10T13:49:21.001Z</time></trkpt><trkpt lat="44.79509447235202" lon="10.090650769437564"><ele>161.39999999999998</ele><time>2026-04-10T13:49:22.001Z</time></trkpt><trkpt lat="44.79511208860968" lon="10.09046900250334"><ele>163.60000000000002</ele><time>2026-04-10T13:49:24.001Z</time></trkpt><trkpt lat="44.795120106064935" lon="10.090355801642634"><ele>165.8</ele><time>2026-04-10T13:49:25.001Z</time></trkpt><trkpt lat="44.79512778654777" lon="10.090247358577015"><ele>168.0</ele><time>2026-04-10T13:49:26.001Z</time></trkpt><trkpt lat="44.79512372828959" lon="10.090141216777731"><ele>168.0</ele><time>2026-04-10T13:49:27.001Z</time></trkpt><trkpt lat="44.79513426485848" lon="10.090024670110063"><ele>168.0</ele><time>2026-04-10T13:49:28.001Z</time></trkpt><trkpt lat="44.79514310389514" lon="10.089905884178929"><ele>168.0</ele><time>2026-04-10T13:49:29.001Z</time></trkpt><trkpt lat="44.79514411576479" lon="10.089782793366135"><ele>168.0</ele><time>2026-04-10T13:49:30.001Z</time></trkpt><trkpt lat="44.79514072839176" lon="10.089656399220168"><ele>168.0</ele><time>2026-04-10T13:49:31.001Z</time></trkpt><trkpt lat="44.79512687680769" lon="10.089525109459602"><ele>168.0</ele><time>2026-04-10T13:49:32.001Z</time></trkpt><trkpt lat="44.79510665455573" lon="10.089400937098496"><ele>167.0</ele><time>2026-04-10T13:49:33.001Z</time></trkpt><trkpt lat="44.79508614389317" lon="10.089271369712826"><ele>166.0</ele><time>2026-04-10T13:49:34.001Z</time></trkpt><trkpt lat="44.79507088682779" lon="10.089135141460035"><ele>165.0</ele><time>2026-04-10T13:49:35.001Z</time></trkpt><trkpt lat="44.79504998025902" lon="10.088994068794891"><ele>164.0</ele><time>2026-04-10T13:49:36.001Z</time></trkpt><trkpt lat="44.79503709849953" lon="10.08885327363567"><ele>163.0</ele><time>2026-04-10T13:49:37.001Z</time></trkpt><trkpt lat="44.79502021006521" lon="10.088710041647385"><ele>161.25</ele><time>2026-04-10T13:49:38.001Z</time></trkpt><trkpt lat="44.795007338362595" lon="10.088556349792825"><ele>159.5</ele><time>2026-04-10T13:49:39.001Z</time></trkpt><trkpt lat="44.7950066838297" lon="10.088383809288871"><ele>157.75</ele><time>2026-04-10T13:49:40.001Z</time></trkpt><trkpt lat="44.79501225820342" lon="10.088214123171287"><ele>156.0</ele><time>2026-04-10T13:49:41.001Z</time></trkpt><trkpt lat="44.79502357937404" lon="10.088057815654878"><ele>154.0</ele><time>2026-04-10T13:49:42.001Z</time></trkpt><trkpt lat="44.79503266106349" lon="10.087897660717873"><ele>152.0</ele><time>2026-04-10T13:49:43.001Z</time></trkpt><trkpt lat="44.79504016752161" lon="10.087747841153625"><ele>150.0</ele><time>2026-04-10T13:49:44.001Z</time></trkpt><trkpt lat="44.79505249416634" lon="10.087604988151439"><ele>148.0</ele><time>2026-04-10T13:49:45.001Z</time></trkpt><trkpt lat="44.795082309992694" lon="10.087465732434005"><ele>146.0</ele><time>2026-04-10T13:49:46.001Z</time></trkpt><trkpt lat="44.795129760563874" lon="10.087327748559463"><ele>143.6</ele><time>2026-04-10T13:49:47.001Z</time></trkpt><trkpt lat="44.795183862915685" lon="10.08721235769875"><ele>141.2</ele><time>2026-04-10T13:49:48.001Z</time></trkpt><trkpt lat="44.79525257102302" lon="10.087116143249219"><ele>138.8</ele><time>2026-04-10T13:49:49.001Z</time></trkpt><trkpt lat="44.79534078117377" lon="10.087062186725909"><ele>136.4</ele><time>2026-04-10T13:49:50.001Z</time></trkpt><trkpt lat="44.795435241474934" lon="10.087066030304774"><ele>134.0</ele><time>2026-04-10T13:49:51.001Z</time></trkpt><trkpt lat="44.79553572799946" lon="10.087129014516789"><ele>134.0</ele><time>2026-04-10T13:49:52.001Z</time></trkpt><trkpt lat="44.79563627832336" lon="10.087223266992435"><ele>134.0</ele><time>2026-04-10T13:49:53.001Z</time></trkpt><trkpt lat="44.7957394755358" lon="10.087338600127788"><ele>134.0</ele><time>2026-04-10T13:49:54.001Z</time></trkpt><trkpt lat="44.7958522314492" lon="10.087459343005122"><ele>134.0</ele><time>2026-04-10T13:49:55.001Z</time></trkpt><trkpt lat="44.79597115513533" lon="10.087577186392148"><ele>133.25</ele><time>2026-04-10T13:49:56.001Z</time></trkpt><trkpt lat="44.796094897390596" lon="10.087698057681179"><ele>132.5</ele><time>2026-04-10T13:49:57.001Z</time></trkpt><trkpt lat="44.7962114083825" lon="10.087821820884"><ele>131.75</ele><time>2026-04-10T13:49:58.001Z</time></trkpt><trkpt lat="44.79632133684712" lon="10.08794381073961"><ele>131.0</ele><time>2026-04-10T13:49:59.001Z</time></trkpt><trkpt lat="44.796427173447796" lon="10.088065045477494"><ele>131.0</ele><time>2026-04-10T13:50:00.001Z</time></trkpt><trkpt lat="44.79653193513238" lon="10.088191559483203"><ele>131.0</ele><time>2026-04-10T13:50:01.001Z</time></trkpt><trkpt lat="44.79662997199714" lon="10.088315248686547"><ele>131.0</ele><time>2026-04-10T13:50:02.001Z</time></trkpt><trkpt lat="44.79672538252315" lon="10.088432721191905"><ele>131.0</ele><time>2026-04-10T13:50:03.001Z</time></trkpt><trkpt lat="44.796819924849004" lon="10.088554489691896"><ele>130.75</ele><time>2026-04-10T13:50:04.001Z</time></trkpt><trkpt lat="44.79691069982485" lon="10.088669795832004"><ele>130.5</ele><time>2026-04-10T13:50:05.001Z</time></trkpt><trkpt lat="44.79699960067035" lon="10.088777851989741"><ele>130.25</ele><time>2026-04-10T13:50:06.001Z</time></trkpt><trkpt lat="44.797094705202625" lon="10.088874632627489"><ele>130.0</ele><time>2026-04-10T13:50:07.001Z</time></trkpt><trkpt lat="44.79719902307938" lon="10.088968009852467"><ele>130.0</ele><time>2026-04-10T13:50:08.001Z</time></trkpt><trkpt lat="44.79731133931289" lon="10.089032087280186"><ele>130.0</ele><time>2026-04-10T13:50:09.001Z</time></trkpt><trkpt lat="44.797424454377904" lon="10.089062366608497"><ele>130.0</ele><time>2026-04-10T13:50:10.001Z</time></trkpt><trkpt lat="44.79753521168388" lon="10.089047141605306"><ele>130.0</ele><time>2026-04-10T13:50:11.001Z</time></trkpt><trkpt lat="44.797641467035405" lon="10.088978703717702"><ele>128.5</ele><time>2026-04-10T13:50:12.001Z</time></trkpt><trkpt lat="44.7977445507614" lon="10.088864707456784"><ele>127.0</ele><time>2026-04-10T13:50:13.001Z</time></trkpt><trkpt lat="44.79784046608111" lon="10.08873122053704"><ele>125.5</ele><time>2026-04-10T13:50:14.001Z</time></trkpt><trkpt lat="44.797934120005834" lon="10.088611422588873"><ele>124.0</ele><time>2026-04-10T13:50:15.001Z</time></trkpt><trkpt lat="44.79802774100409" lon="10.088495965660746"><ele>124.0</ele><time>2026-04-10T13:50:16.001Z</time></trkpt><trkpt lat="44.798119498233994" lon="10.088381330799454"><ele>124.0</ele><time>2026-04-10T13:50:17.001Z</time></trkpt><trkpt lat="44.798215430393185" lon="10.088264813752922"><ele>124.0</ele><time>2026-04-10T13:50:18.001Z</time></trkpt><trkpt lat="44.79831339533079" lon="10.088140505418217"><ele>124.0</ele><time>2026-04-10T13:50:19.001Z</time></trkpt><trkpt lat="44.798415595096166" lon="10.088012176049306"><ele>124.0</ele><time>2026-04-10T13:50:20.001Z</time></trkpt><trkpt lat="44.79852761726815" lon="10.087881610294229"><ele>124.0</ele><time>2026-04-10T13:50:21.001Z</time></trkpt><trkpt lat="44.79864637630906" lon="10.087753667439829"><ele>124.0</ele><time>2026-04-10T13:50:22.001Z</time></trkpt><trkpt lat="44.798780705158514" lon="10.087583145063983"><ele>123.0</ele><time>2026-04-10T13:50:23.001Z</time></trkpt><trkpt lat="44.798930904675395" lon="10.087390519678737"><ele>122.0</ele><time>2026-04-10T13:50:24.001Z</time></trkpt><trkpt lat="44.79909151321811" lon="10.08718137309252"><ele>121.0</ele><time>2026-04-10T13:50:25.001Z</time></trkpt><trkpt lat="44.79925731693249" lon="10.086958675640021"><ele>120.5</ele><time>2026-04-10T13:50:26.001Z</time></trkpt><trkpt lat="44.79941922989092" lon="10.086734179414487"><ele>120.0</ele><time>2026-04-10T13:50:27.001Z</time></trkpt><trkpt lat="44.799586504415394" lon="10.086495634357375"><ele>121.0</ele><time>2026-04-10T13:50:28.001Z</time></trkpt><trkpt lat="44.79974770749155" lon="10.086254374347579"><ele>122.0</ele><time>2026-04-10T13:50:29.001Z</time></trkpt><trkpt lat="44.79989645253532" lon="10.085987212822427"><ele>121.0</ele><time>2026-04-10T13:50:30.001Z</time></trkpt><trkpt lat="44.80006036979139" lon="10.085759071649534"><ele>120.0</ele><time>2026-04-10T13:50:31.001Z</time></trkpt><trkpt lat="44.80020768655726" lon="10.085514487789633"><ele>120.0</ele><time>2026-04-10T13:50:32.001Z</time></trkpt><trkpt lat="44.80034537658907" lon="10.085252679738117"><ele>120.0</ele><time>2026-04-10T13:50:33.001Z</time></trkpt><trkpt lat="44.80048675209735" lon="10.085025184190322"><ele>120.0</ele><time>2026-04-10T13:50:34.001Z</time></trkpt><trkpt lat="44.80061628908601" lon="10.084813420967523"><ele>120.66666666666666</ele><time>2026-04-10T13:50:35.001Z</time></trkpt><trkpt lat="44.800737059304055" lon="10.084614550454189"><ele>121.33333333333333</ele><time>2026-04-10T13:50:36.001Z</time></trkpt><trkpt lat="44.800847151275" lon="10.084433383956522"><ele>122.0</ele><time>2026-04-10T13:50:37.001Z</time></trkpt><trkpt lat="44.80095358888018" lon="10.0842553415544"><ele>122.75</ele><time>2026-04-10T13:50:38.001Z</time></trkpt><trkpt lat="44.80105068103231" lon="10.084096008733274"><ele>123.5</ele><time>2026-04-10T13:50:39.001Z</time></trkpt><trkpt lat="44.80113682783631" lon="10.083948698415794"><ele>124.25</ele><time>2026-04-10T13:50:40.001Z</time></trkpt><trkpt lat="44.8011632836108" lon="10.08379722123503"><ele>125.0</ele><time>2026-04-10T13:50:41.001Z</time></trkpt><trkpt lat="44.80128540049298" lon="10.08368486809132"><ele>125.0</ele><time>2026-04-10T13:50:42.001Z</time></trkpt><trkpt lat="44.80137216562373" lon="10.083552433168279"><ele>125.0</ele><time>2026-04-10T13:50:43.001Z</time></trkpt><trkpt lat="44.80146525667074" lon="10.083406772533879"><ele>125.0</ele><time>2026-04-10T13:50:44.001Z</time></trkpt><trkpt lat="44.801559280633796" lon="10.08325659433979"><ele>125.0</ele><time>2026-04-10T13:50:45.001Z</time></trkpt><trkpt lat="44.80165633773488" lon="10.083100319821144"><ele>124.75</ele><time>2026-04-10T13:50:46.001Z</time></trkpt><trkpt lat="44.80175075510386" lon="10.082941547386545"><ele>124.5</ele><time>2026-04-10T13:50:47.001Z</time></trkpt><trkpt lat="44.80183523877495" lon="10.082797371080535"><ele>124.25</ele><time>2026-04-10T13:50:48.001Z</time></trkpt><trkpt lat="44.801908671660435" lon="10.082668414463635"><ele>124.0</ele><time>2026-04-10T13:50:49.001Z</time></trkpt><trkpt lat="44.801973478892364" lon="10.082555974024373"><ele>124.00000000000001</ele><time>2026-04-10T13:50:50.001Z</time></trkpt><trkpt lat="44.80202680906854" lon="10.082466977076551"><ele>124.0</ele><time>2026-04-10T13:50:51.001Z</time></trkpt><trkpt lat="44.80208727941264" lon="10.082384508592062"><ele>124.0</ele><time>2026-04-10T13:50:53.001Z</time></trkpt><trkpt lat="44.80203543983322" lon="10.082329600940701"><ele>124.0</ele><time>2026-04-10T14:00:24Z</time></trkpt><trkpt lat="44.80194910188347" lon="10.08234768444711"><ele>124.00000000000001</ele><time>2026-04-10T14:00:27Z</time></trkpt><trkpt lat="44.80187842991243" lon="10.082321411513643"><ele>124.0</ele><time>2026-04-10T14:00:29Z</time></trkpt><trkpt lat="44.801803345814726" lon="10.082280040552638"><ele>125.16666666666667</ele><time>2026-04-10T14:00:31Z</time></trkpt><trkpt lat="44.80177280786856" lon="10.082166105282036"><ele>126.33333333333334</ele><time>2026-04-10T14:00:33Z</time></trkpt><trkpt lat="44.801688478223035" lon="10.082103781318366"><ele>127.5</ele><time>2026-04-10T14:00:35Z</time></trkpt><trkpt lat="44.80162898043734" lon="10.082062145172769"><ele>128.66666666666666</ele><time>2026-04-10T14:00:36Z</time></trkpt><trkpt lat="44.80156206752253" lon="10.08201793048041"><ele>129.83333333333331</ele><time>2026-04-10T14:00:37Z</time></trkpt><trkpt lat="44.80148553832079" lon="10.081970120806233"><ele>131.0</ele><time>2026-04-10T14:00:39Z</time></trkpt><trkpt lat="44.80139652716535" lon="10.081915073354256"><ele>131.0</ele><time>2026-04-10T14:00:42Z</time></trkpt><trkpt lat="44.801336623183474" lon="10.081878292147067"><ele>131.0</ele><time>2026-04-10T14:00:43Z</time></trkpt><trkpt lat="44.80126799159074" lon="10.08182904659228"><ele>131.0</ele><time>2026-04-10T14:00:44Z</time></trkpt><trkpt lat="44.80120459476058" lon="10.081768075311794"><ele>131.0</ele><time>2026-04-10T14:00:45Z</time></trkpt><trkpt lat="44.80113625776032" lon="10.081696722344017"><ele>131.0</ele><time>2026-04-10T14:00:46Z</time></trkpt><trkpt lat="44.801072589172044" lon="10.081624395247202"><ele>131.0</ele><time>2026-04-10T14:00:47Z</time></trkpt><trkpt lat="44.80100660113048" lon="10.081546495731102"><ele>133.66666666666666</ele><time>2026-04-10T14:00:48Z</time></trkpt><trkpt lat="44.800939431875236" lon="10.08145700802783"><ele>136.33333333333331</ele><time>2026-04-10T14:00:49Z</time></trkpt><trkpt lat="44.80087225452259" lon="10.081365794176664"><ele>139.0</ele><time>2026-04-10T14:00:50Z</time></trkpt><trkpt lat="44.80080994441562" lon="10.081285307695902"><ele>141.66666666666666</ele><time>2026-04-10T14:00:51Z</time></trkpt><trkpt lat="44.80073564145401" lon="10.081199434622969"><ele>144.33333333333334</ele><time>2026-04-10T14:00:52Z</time></trkpt><trkpt lat="44.80066866004316" lon="10.081146416349226"><ele>147.0</ele><time>2026-04-10T14:00:53Z</time></trkpt><trkpt lat="44.80059447765432" lon="10.081080421894182"><ele>147.0</ele><time>2026-04-10T14:00:54Z</time></trkpt><trkpt lat="44.80052497839321" lon="10.080988672373696"><ele>147.0</ele><time>2026-04-10T14:00:55Z</time></trkpt><trkpt lat="44.80043973923503" lon="10.080916542636917"><ele>147.0</ele><time>2026-04-10T14:00:56Z</time></trkpt><trkpt lat="44.800342956720606" lon="10.080853799800643"><ele>147.0</ele><time>2026-04-10T14:00:57Z</time></trkpt><trkpt lat="44.800239298597305" lon="10.080817259025478"><ele>147.0</ele><time>2026-04-10T14:00:58Z</time></trkpt><trkpt lat="44.80013689552389" lon="10.080842388344077"><ele>148.83333333333334</ele><time>2026-04-10T14:00:59Z</time></trkpt><trkpt lat="44.80003684669967" lon="10.080851688111"><ele>150.66666666666666</ele><time>2026-04-10T14:01:00Z</time></trkpt><trkpt lat="44.7999576434048" lon="10.080830617989253"><ele>152.5</ele><time>2026-04-10T14:01:01Z</time></trkpt><trkpt lat="44.7998828124717" lon="10.080820214253695"><ele>154.33333333333331</ele><time>2026-04-10T14:01:02Z</time></trkpt><trkpt lat="44.7997995054174" lon="10.08078511269299"><ele>156.16666666666666</ele><time>2026-04-10T14:01:03Z</time></trkpt><trkpt lat="44.799766414987566" lon="10.08068808743482"><ele>158.0</ele><time>2026-04-10T14:01:04Z</time></trkpt><trkpt lat="44.79969679498453" lon="10.080598266393343"><ele>158.83333333333331</ele><time>2026-04-10T14:01:05Z</time></trkpt><trkpt lat="44.79960624611483" lon="10.080509175931029"><ele>159.66666666666666</ele><time>2026-04-10T14:01:06Z</time></trkpt><trkpt lat="44.79954143015842" lon="10.080408030287554"><ele>160.5</ele><time>2026-04-10T14:01:07Z</time></trkpt><trkpt lat="44.79949444511159" lon="10.08032385333369"><ele>161.33333333333334</ele><time>2026-04-10T14:01:08Z</time></trkpt><trkpt lat="44.799444138114055" lon="10.080232445942695"><ele>162.16666666666669</ele><time>2026-04-10T14:01:09Z</time></trkpt><trkpt lat="44.79941613533054" lon="10.080136058953055"><ele>163.0</ele><time>2026-04-10T14:01:10Z</time></trkpt><trkpt lat="44.79952624589622" lon="10.080013875309671"><ele>162.33333333333334</ele><time>2026-04-10T14:01:11Z</time></trkpt><trkpt lat="44.799538930941786" lon="10.079896498042435"><ele>161.66666666666669</ele><time>2026-04-10T14:01:12Z</time></trkpt><trkpt lat="44.79950938900918" lon="10.07975677434707"><ele>161.0</ele><time>2026-04-10T14:01:13Z</time></trkpt><trkpt lat="44.799450478493426" lon="10.079654546927092"><ele>160.33333333333334</ele><time>2026-04-10T14:01:14Z</time></trkpt><trkpt lat="44.79940678015384" lon="10.07957708612934"><ele>159.66666666666666</ele><time>2026-04-10T14:01:15Z</time></trkpt><trkpt lat="44.79935591396868" lon="10.079493330961327"><ele>159.0</ele><time>2026-04-10T14:01:16Z</time></trkpt><trkpt lat="44.799299063602746" lon="10.07939252531571"><ele>159.0</ele><time>2026-04-10T14:01:17Z</time></trkpt><trkpt lat="44.79924716853318" lon="10.079284528782955"><ele>159.0</ele><time>2026-04-10T14:01:18Z</time></trkpt><trkpt lat="44.79919054672986" lon="10.079161242604785"><ele>159.0</ele><time>2026-04-10T14:01:19Z</time></trkpt><trkpt lat="44.79914197088217" lon="10.079065818854819"><ele>159.0</ele><time>2026-04-10T14:01:20Z</time></trkpt><trkpt lat="44.79908111099778" lon="10.078966577849839"><ele>159.0</ele><time>2026-04-10T14:01:21Z</time></trkpt><trkpt lat="44.79901441807826" lon="10.07887024346425"><ele>159.0</ele><time>2026-04-10T14:01:22Z</time></trkpt><trkpt lat="44.798941017819814" lon="10.078797557722563"><ele>159.0</ele><time>2026-04-10T14:01:23Z</time></trkpt><trkpt lat="44.798846247793875" lon="10.078733202344011"><ele>159.0</ele><time>2026-04-10T14:01:24Z</time></trkpt><trkpt lat="44.79874513631005" lon="10.0787077585095"><ele>159.0</ele><time>2026-04-10T14:01:25Z</time></trkpt><trkpt lat="44.79864388279999" lon="10.078653287438975"><ele>159.0</ele><time>2026-04-10T14:01:26Z</time></trkpt><trkpt lat="44.79855131431947" lon="10.078619671361729"><ele>160.6</ele><time>2026-04-10T14:01:27Z</time></trkpt><trkpt lat="44.798446335860795" lon="10.07857798529991"><ele>162.2</ele><time>2026-04-10T14:01:28Z</time></trkpt><trkpt lat="44.79833374330941" lon="10.078516798964218"><ele>163.79999999999998</ele><time>2026-04-10T14:01:29Z</time></trkpt><trkpt lat="44.79823153645585" lon="10.078477000932637"><ele>165.4</ele><time>2026-04-10T14:01:30Z</time></trkpt><trkpt lat="44.79814252135922" lon="10.07843789670544"><ele>167.0</ele><time>2026-04-10T14:01:31Z</time></trkpt><trkpt lat="44.79805367815876" lon="10.07838679222299"><ele>167.0</ele><time>2026-04-10T14:01:32Z</time></trkpt><trkpt lat="44.797958307582604" lon="10.07831610292823"><ele>167.0</ele><time>2026-04-10T14:01:33Z</time></trkpt><trkpt lat="44.79785742853652" lon="10.07823799394978"><ele>167.0</ele><time>2026-04-10T14:01:34Z</time></trkpt><trkpt lat="44.7977525368436" lon="10.078156777693218"><ele>167.0</ele><time>2026-04-10T14:01:35Z</time></trkpt><trkpt lat="44.797649725605176" lon="10.078075950980988"><ele>169.2</ele><time>2026-04-10T14:01:36Z</time></trkpt><trkpt lat="44.79755592104572" lon="10.078000831473592"><ele>171.39999999999998</ele><time>2026-04-10T14:01:37Z</time></trkpt><trkpt lat="44.79746655323235" lon="10.077926040353574"><ele>173.60000000000002</ele><time>2026-04-10T14:01:38Z</time></trkpt><trkpt lat="44.79738138142391" lon="10.077852978166325"><ele>175.8</ele><time>2026-04-10T14:01:39Z</time></trkpt><trkpt lat="44.797300045815895" lon="10.077773421240087"><ele>178.0</ele><time>2026-04-10T14:01:40Z</time></trkpt><trkpt lat="44.79723259094885" lon="10.077687850274721"><ele>178.0</ele><time>2026-04-10T14:01:41Z</time></trkpt><trkpt lat="44.79718681013925" lon="10.077589133689855"><ele>178.0</ele><time>2026-04-10T14:01:42Z</time></trkpt><trkpt lat="44.79712936896104" lon="10.077497322137054"><ele>178.0</ele><time>2026-04-10T14:01:43Z</time></trkpt><trkpt lat="44.797092861420055" lon="10.077359444055185"><ele>178.0</ele><time>2026-04-10T14:01:44Z</time></trkpt><trkpt lat="44.79705533884579" lon="10.077202183021404"><ele>178.0</ele><time>2026-04-10T14:01:45Z</time></trkpt><trkpt lat="44.797026363476014" lon="10.077028392978994"><ele>178.75</ele><time>2026-04-10T14:01:46Z</time></trkpt><trkpt lat="44.7970195649845" lon="10.076865628288552"><ele>179.5</ele><time>2026-04-10T14:01:47Z</time></trkpt><trkpt lat="44.796985484590046" lon="10.076707416410294"><ele>180.25</ele><time>2026-04-10T14:01:48Z</time></trkpt><trkpt lat="44.79694864029511" lon="10.076547358202408"><ele>181.0</ele><time>2026-04-10T14:01:49Z</time></trkpt><trkpt lat="44.79690777429157" lon="10.076390317631814"><ele>180.4</ele><time>2026-04-10T14:01:50Z</time></trkpt><trkpt lat="44.79686594316997" lon="10.076246895811762"><ele>179.8</ele><time>2026-04-10T14:01:51Z</time></trkpt><trkpt lat="44.79682691497861" lon="10.076120976296927"><ele>179.20000000000002</ele><time>2026-04-10T14:01:52Z</time></trkpt><trkpt lat="44.79678856047055" lon="10.076005739859053"><ele>178.60000000000002</ele><time>2026-04-10T14:01:53Z</time></trkpt><trkpt lat="44.796748062369254" lon="10.075898266075985"><ele>178.0</ele><time>2026-04-10T14:01:54Z</time></trkpt><trkpt lat="44.79668779222131" lon="10.075772871027574"><ele>176.5</ele><time>2026-04-10T14:01:55Z</time></trkpt><trkpt lat="44.796608248928145" lon="10.075654940876223"><ele>175.0</ele><time>2026-04-10T14:01:56Z</time></trkpt><trkpt lat="44.79652572574553" lon="10.075559592766215"><ele>173.5</ele><time>2026-04-10T14:01:57Z</time></trkpt><trkpt lat="44.79643229108795" lon="10.075461880332028"><ele>172.0</ele><time>2026-04-10T14:01:58Z</time></trkpt><trkpt lat="44.79633796890433" lon="10.075364294384753"><ele>172.0</ele><time>2026-04-10T14:01:59Z</time></trkpt><trkpt lat="44.7962483439903" lon="10.075285299405754"><ele>172.0</ele><time>2026-04-10T14:02:00Z</time></trkpt><trkpt lat="44.796167392563845" lon="10.075203154323365"><ele>172.0</ele><time>2026-04-10T14:02:01Z</time></trkpt><trkpt lat="44.79610994137901" lon="10.075109506812618"><ele>172.0</ele><time>2026-04-10T14:02:02Z</time></trkpt><trkpt lat="44.79603531920819" lon="10.075028578791333"><ele>172.0</ele><time>2026-04-10T14:02:03Z</time></trkpt><trkpt lat="44.79596266432149" lon="10.074951620144253"><ele>174.0</ele><time>2026-04-10T14:02:04Z</time></trkpt><trkpt lat="44.79589503922727" lon="10.074891430918349"><ele>176.0</ele><time>2026-04-10T14:02:05Z</time></trkpt><trkpt lat="44.79582874810435" lon="10.074811841270513"><ele>178.0</ele><time>2026-04-10T14:02:06Z</time></trkpt><trkpt lat="44.79577330428787" lon="10.074708250557336"><ele>180.0</ele><time>2026-04-10T14:02:07Z</time></trkpt><trkpt lat="44.79572713270234" lon="10.074594145736725"><ele>182.0</ele><time>2026-04-10T14:02:08Z</time></trkpt><trkpt lat="44.7956850799764" lon="10.074466694631182"><ele>182.0</ele><time>2026-04-10T14:02:08.999Z</time></trkpt><trkpt lat="44.795647780905064" lon="10.074338268185558"><ele>182.0</ele><time>2026-04-10T14:02:09.999Z</time></trkpt><trkpt lat="44.79557780903399" lon="10.074229159454273"><ele>182.0</ele><time>2026-04-10T14:02:10.999Z</time></trkpt><trkpt lat="44.79552506743424" lon="10.07412421547892"><ele>182.0</ele><time>2026-04-10T14:02:11.999Z</time></trkpt><trkpt lat="44.795478050218264" lon="10.074035384757098"><ele>182.0</ele><time>2026-04-10T14:02:12.999Z</time></trkpt><trkpt lat="44.795430452138206" lon="10.073939606819675"><ele>184.2</ele><time>2026-04-10T14:02:13.999Z</time></trkpt><trkpt lat="44.79535506227147" lon="10.07384263735706"><ele>186.39999999999998</ele><time>2026-04-10T14:02:14.999Z</time></trkpt><trkpt lat="44.7952748296591" lon="10.073723777625931"><ele>188.60000000000002</ele><time>2026-04-10T14:02:15.999Z</time></trkpt><trkpt lat="44.79520012047446" lon="10.073598169824225"><ele>190.8</ele><time>2026-04-10T14:02:16.999Z</time></trkpt><trkpt lat="44.79512540399043" lon="10.073482581543082"><ele>193.0</ele><time>2026-04-10T14:02:17.999Z</time></trkpt><trkpt lat="44.795042770429994" lon="10.073380773796856"><ele>193.0</ele><time>2026-04-10T14:02:18.999Z</time></trkpt><trkpt lat="44.79495608654281" lon="10.07328479415967"><ele>193.0</ele><time>2026-04-10T14:02:19.999Z</time></trkpt><trkpt lat="44.79487956884452" lon="10.073169814240053"><ele>193.0</ele><time>2026-04-10T14:02:20.999Z</time></trkpt><trkpt lat="44.79479305433197" lon="10.073051772631475"><ele>193.0</ele><time>2026-04-10T14:02:21.999Z</time></trkpt><trkpt lat="44.794706426059086" lon="10.072934428490095"><ele>191.25</ele><time>2026-04-10T14:02:22.999Z</time></trkpt><trkpt lat="44.79462032626044" lon="10.072826483760789"><ele>189.5</ele><time>2026-04-10T14:02:23.999Z</time></trkpt><trkpt lat="44.794527294072175" lon="10.072721477479904"><ele>187.75</ele><time>2026-04-10T14:02:24.999Z</time></trkpt><trkpt lat="44.79442603716717" lon="10.07263743217514"><ele>186.0</ele><time>2026-04-10T14:02:25.999Z</time></trkpt><trkpt lat="44.79435381159929" lon="10.072516142166952"><ele>188.60000000000002</ele><time>2026-04-10T14:02:26.999Z</time></trkpt><trkpt lat="44.794285641611275" lon="10.07239459966074"><ele>191.2</ele><time>2026-04-10T14:02:27.999Z</time></trkpt><trkpt lat="44.79422518772804" lon="10.07226409186312"><ele>193.8</ele><time>2026-04-10T14:02:28.999Z</time></trkpt><trkpt lat="44.79419294833889" lon="10.072118889004408"><ele>196.39999999999998</ele><time>2026-04-10T14:02:29.999Z</time></trkpt><trkpt lat="44.794148504386555" lon="10.071985200000002"><ele>199.0</ele><time>2026-04-10T14:02:30.999Z</time></trkpt><trkpt lat="44.79410640596812" lon="10.07184398530561"><ele>199.0</ele><time>2026-04-10T14:02:31.999Z</time></trkpt><trkpt lat="44.79406867241981" lon="10.071715932795792"><ele>199.0</ele><time>2026-04-10T14:02:32.999Z</time></trkpt><trkpt lat="44.794029763114004" lon="10.071595283144617"><ele>199.0</ele><time>2026-04-10T14:02:33.999Z</time></trkpt><trkpt lat="44.793991969685344" lon="10.071473139316163"><ele>199.0</ele><time>2026-04-10T14:02:34.999Z</time></trkpt><trkpt lat="44.793942527555274" lon="10.07135700765992"><ele>199.0</ele><time>2026-04-10T14:02:35.999Z</time></trkpt><trkpt lat="44.79390544673805" lon="10.071245687881808"><ele>197.75</ele><time>2026-04-10T14:02:36.999Z</time></trkpt><trkpt lat="44.79385804849101" lon="10.07111655084449"><ele>196.5</ele><time>2026-04-10T14:02:37.999Z</time></trkpt><trkpt lat="44.79380277190898" lon="10.070967508754181"><ele>195.25</ele><time>2026-04-10T14:02:38.999Z</time></trkpt><trkpt lat="44.7937503364659" lon="10.070828100798625"><ele>194.0</ele><time>2026-04-10T14:02:39.999Z</time></trkpt><trkpt lat="44.79369497630617" lon="10.070685119655915"><ele>197.0</ele><time>2026-04-10T14:02:40.999Z</time></trkpt><trkpt lat="44.79363644853104" lon="10.070537333051961"><ele>200.0</ele><time>2026-04-10T14:02:42Z</time></trkpt><trkpt lat="44.79358192463977" lon="10.070405553787086"><ele>203.0</ele><time>2026-04-10T14:02:43Z</time></trkpt><trkpt lat="44.79351972919905" lon="10.070261298630482"><ele>206.0</ele><time>2026-04-10T14:02:44Z</time></trkpt><trkpt lat="44.793456578680846" lon="10.070126296737758"><ele>206.0</ele><time>2026-04-10T14:02:45Z</time></trkpt><trkpt lat="44.79338440372498" lon="10.06998838092367"><ele>206.0</ele><time>2026-04-10T14:02:46Z</time></trkpt><trkpt lat="44.79331551821937" lon="10.069863512269055"><ele>206.0</ele><time>2026-04-10T14:02:47Z</time></trkpt><trkpt lat="44.793258174805935" lon="10.069765196614352"><ele>206.0</ele><time>2026-04-10T14:02:48Z</time></trkpt><trkpt lat="44.793201498905326" lon="10.069670969513288"><ele>206.0</ele><time>2026-04-10T14:02:49Z</time></trkpt><trkpt lat="44.79314563104948" lon="10.06957894008475"><ele>204.25</ele><time>2026-04-10T14:02:50Z</time></trkpt><trkpt lat="44.79306830188723" lon="10.069451557931442"><ele>202.5</ele><time>2026-04-10T14:02:51Z</time></trkpt><trkpt lat="44.79298551925458" lon="10.069315191847183"><ele>200.75</ele><time>2026-04-10T14:02:52Z</time></trkpt><trkpt lat="44.79291076392438" lon="10.069183699060217"><ele>199.0</ele><time>2026-04-10T14:02:53Z</time></trkpt><trkpt lat="44.79282734613368" lon="10.06903724946703"><ele>195.66666666666666</ele><time>2026-04-10T14:02:54Z</time></trkpt><trkpt lat="44.79273496618291" lon="10.068872891320199"><ele>192.33333333333331</ele><time>2026-04-10T14:02:55Z</time></trkpt><trkpt lat="44.79262054809843" lon="10.068698838391098"><ele>189.0</ele><time>2026-04-10T14:02:56Z</time></trkpt><trkpt lat="44.79253726391711" lon="10.06853390894198"><ele>193.6</ele><time>2026-04-10T14:02:57Z</time></trkpt><trkpt lat="44.79246937364715" lon="10.068397459213694"><ele>198.2</ele><time>2026-04-10T14:02:58Z</time></trkpt><trkpt lat="44.7924293833777" lon="10.068257124577096"><ele>202.79999999999998</ele><time>2026-04-10T14:02:59Z</time></trkpt><trkpt lat="44.79238512656115" lon="10.068132852329457"><ele>207.39999999999998</ele><time>2026-04-10T14:03:00Z</time></trkpt><trkpt lat="44.79235485341838" lon="10.06800175349541"><ele>212.0</ele><time>2026-04-10T14:03:01Z</time></trkpt><trkpt lat="44.792316859066354" lon="10.067842439988496"><ele>212.25</ele><time>2026-04-10T14:03:02Z</time></trkpt><trkpt lat="44.792269328980964" lon="10.06767794951027"><ele>212.5</ele><time>2026-04-10T14:03:03Z</time></trkpt><trkpt lat="44.79223963254572" lon="10.067502965675867"><ele>212.75</ele><time>2026-04-10T14:03:04Z</time></trkpt><trkpt lat="44.79219050078777" lon="10.067320292714642"><ele>213.0</ele><time>2026-04-10T14:03:05Z</time></trkpt><trkpt lat="44.79213293459924" lon="10.067141341426286"><ele>211.5</ele><time>2026-04-10T14:03:06Z</time></trkpt><trkpt lat="44.792072922768675" lon="10.066976649190327"><ele>210.0</ele><time>2026-04-10T14:03:07Z</time></trkpt><trkpt lat="44.79201062203634" lon="10.066818522278888"><ele>208.5</ele><time>2026-04-10T14:03:08Z</time></trkpt><trkpt lat="44.791953396909975" lon="10.06667987012788"><ele>207.0</ele><time>2026-04-10T14:03:09Z</time></trkpt><trkpt lat="44.79187296359251" lon="10.066557910171806"><ele>210.5</ele><time>2026-04-10T14:03:10Z</time></trkpt><trkpt lat="44.791795416499355" lon="10.06642320347612"><ele>214.0</ele><time>2026-04-10T14:03:11Z</time></trkpt><trkpt lat="44.79171259695958" lon="10.066287017472792"><ele>217.5</ele><time>2026-04-10T14:03:12Z</time></trkpt><trkpt lat="44.79164297967977" lon="10.066137424188842"><ele>221.0</ele><time>2026-04-10T14:03:13Z</time></trkpt><trkpt lat="44.79155950639312" lon="10.066003266664511"><ele>221.0</ele><time>2026-04-10T14:03:14Z</time></trkpt><trkpt lat="44.79147644298699" lon="10.065886392436692"><ele>221.0</ele><time>2026-04-10T14:03:15Z</time></trkpt><trkpt lat="44.7913802533868" lon="10.065791563971983"><ele>221.0</ele><time>2026-04-10T14:03:16Z</time></trkpt><trkpt lat="44.791301158176395" lon="10.065662459326923"><ele>221.0</ele><time>2026-04-10T14:03:17Z</time></trkpt><trkpt lat="44.79121571484022" lon="10.065550649756434"><ele>222.5</ele><time>2026-04-10T14:03:18Z</time></trkpt><trkpt lat="44.79112049366806" lon="10.065439149395493"><ele>224.0</ele><time>2026-04-10T14:03:19Z</time></trkpt><trkpt lat="44.79104059035924" lon="10.065321144776735"><ele>225.5</ele><time>2026-04-10T14:03:20Z</time></trkpt><trkpt lat="44.7909630164743" lon="10.065213992821077"><ele>227.0</ele><time>2026-04-10T14:03:21Z</time></trkpt><trkpt lat="44.79090773527678" lon="10.065094097056887"><ele>227.0</ele><time>2026-04-10T14:03:22Z</time></trkpt><trkpt lat="44.79084238201849" lon="10.064972182238698"><ele>227.0</ele><time>2026-04-10T14:03:23Z</time></trkpt><trkpt lat="44.790781872887116" lon="10.064842864241099"><ele>227.0</ele><time>2026-04-10T14:03:24Z</time></trkpt><trkpt lat="44.79072257513839" lon="10.064716990485323"><ele>227.0</ele><time>2026-04-10T14:03:25Z</time></trkpt><trkpt lat="44.79067079509432" lon="10.06460176725066"><ele>227.0</ele><time>2026-04-10T14:03:26Z</time></trkpt><trkpt lat="44.7906266493888" lon="10.064493797467147"><ele>227.00000000000003</ele><time>2026-04-10T14:03:27Z</time></trkpt><trkpt lat="44.79059458277972" lon="10.064406167688214"><ele>227.0</ele><time>2026-04-10T14:03:28Z</time></trkpt><trkpt lat="44.79056683454455" lon="10.064320726074481"><ele>227.0</ele><time>2026-04-10T14:03:29Z</time></trkpt><trkpt lat="44.79054030219639" lon="10.064222394836715"><ele>227.0</ele><time>2026-04-10T14:03:30Z</time></trkpt><trkpt lat="44.790502101985254" lon="10.064088179196245"><ele>227.00000000000003</ele><time>2026-04-10T14:03:31Z</time></trkpt><trkpt lat="44.790506315205995" lon="10.063907339995685"><ele>227.0</ele><time>2026-04-10T14:03:32Z</time></trkpt><trkpt lat="44.790513400337296" lon="10.063754830036848"><ele>227.25</ele><time>2026-04-10T14:03:33Z</time></trkpt><trkpt lat="44.79052244874496" lon="10.063591086064424"><ele>227.5</ele><time>2026-04-10T14:03:34Z</time></trkpt><trkpt lat="44.7905391290338" lon="10.063397043614668"><ele>227.75</ele><time>2026-04-10T14:03:35Z</time></trkpt><trkpt lat="44.79054972799274" lon="10.063208685869679"><ele>228.0</ele><time>2026-04-10T14:03:36Z</time></trkpt><trkpt lat="44.79055461237257" lon="10.063063662604211"><ele>228.2</ele><time>2026-04-10T14:03:37Z</time></trkpt><trkpt lat="44.79054897576345" lon="10.062942902349748"><ele>228.4</ele><time>2026-04-10T14:03:38Z</time></trkpt><trkpt lat="44.790531786626865" lon="10.06284030779831"><ele>228.59999999999997</ele><time>2026-04-10T14:03:39Z</time></trkpt><trkpt lat="44.79053829329842" lon="10.06272307992609"><ele>228.79999999999998</ele><time>2026-04-10T14:03:40Z</time></trkpt><trkpt lat="44.790521204000825" lon="10.062573437563646"><ele>229.0</ele><time>2026-04-10T14:03:41Z</time></trkpt><trkpt lat="44.790460790042076" lon="10.062405752185883"><ele>229.0</ele><time>2026-04-10T14:03:42Z</time></trkpt><trkpt lat="44.790394101452236" lon="10.062296220788834"><ele>228.99999999999997</ele><time>2026-04-10T14:03:43Z</time></trkpt><trkpt lat="44.79033899201113" lon="10.062171486506474"><ele>228.99999999999997</ele><time>2026-04-10T14:03:44Z</time></trkpt><trkpt lat="44.79029742342828" lon="10.062031959271371"><ele>229.0</ele><time>2026-04-10T14:03:45Z</time></trkpt><trkpt lat="44.79026147787469" lon="10.0618814840098"><ele>229.0</ele><time>2026-04-10T14:03:46Z</time></trkpt><trkpt lat="44.79023690265166" lon="10.061737995642986"><ele>228.99999999999997</ele><time>2026-04-10T14:03:47Z</time></trkpt><trkpt lat="44.790224214513366" lon="10.061622019572061"><ele>229.0</ele><time>2026-04-10T14:03:48Z</time></trkpt><trkpt lat="44.79021981613509" lon="10.061491095000278"><ele>229.0</ele><time>2026-04-10T14:03:49Z</time></trkpt><trkpt lat="44.79021866200599" lon="10.061384795424603"><ele>229.0</ele><time>2026-04-10T14:03:50Z</time></trkpt><trkpt lat="44.79021695651477" lon="10.061229596532973"><ele>228.99999999999997</ele><time>2026-04-10T14:03:52Z</time></trkpt><trkpt lat="44.79019496080077" lon="10.061134657954126"><ele>229.0</ele><time>2026-04-10T14:03:53Z</time></trkpt><trkpt lat="44.790200943016025" lon="10.061028925252497"><ele>228.2</ele><time>2026-04-10T14:03:54Z</time></trkpt><trkpt lat="44.790180434757424" lon="10.060916204042547"><ele>227.39999999999998</ele><time>2026-04-10T14:03:55Z</time></trkpt><trkpt lat="44.790149392157765" lon="10.060776813550037"><ele>226.6</ele><time>2026-04-10T14:03:56Z</time></trkpt><trkpt lat="44.790118981958166" lon="10.060655389508467"><ele>225.8</ele><time>2026-04-10T14:03:57Z</time></trkpt><trkpt lat="44.79009595825756" lon="10.060568719190957"><ele>225.0</ele><time>2026-04-10T14:03:58Z</time></trkpt><trkpt lat="44.790043010782824" lon="10.060407907132252"><ele>225.0</ele><time>2026-04-10T14:04:00Z</time></trkpt><trkpt lat="44.789993352691056" lon="10.060274946667308"><ele>225.0</ele><time>2026-04-10T14:04:02Z</time></trkpt><trkpt lat="44.78995634217248" lon="10.060174640504878"><ele>225.0</ele><time>2026-04-10T14:04:03Z</time></trkpt><trkpt lat="44.78991996304987" lon="10.060062101174164"><ele>225.0</ele><time>2026-04-10T14:04:04Z</time></trkpt><trkpt lat="44.78988718609374" lon="10.05993973752793"><ele>225.0</ele><time>2026-04-10T14:04:05Z</time></trkpt><trkpt lat="44.78984665469699" lon="10.05984257449167"><ele>225.0</ele><time>2026-04-10T14:04:06Z</time></trkpt><trkpt lat="44.78979231477025" lon="10.059745713515781"><ele>223.4</ele><time>2026-04-10T14:04:07Z</time></trkpt><trkpt lat="44.78972861683288" lon="10.059657717541212"><ele>221.8</ele><time>2026-04-10T14:04:08Z</time></trkpt><trkpt lat="44.78963175018729" lon="10.059532567191734"><ele>220.2</ele><time>2026-04-10T14:04:09Z</time></trkpt><trkpt lat="44.789551543791745" lon="10.059427131915394"><ele>218.6</ele><time>2026-04-10T14:04:10Z</time></trkpt><trkpt lat="44.78948380528715" lon="10.059331428698666"><ele>217.0</ele><time>2026-04-10T14:04:11Z</time></trkpt><trkpt lat="44.78942011438299" lon="10.059232685051438"><ele>217.0</ele><time>2026-04-10T14:04:12Z</time></trkpt><trkpt lat="44.78936155703323" lon="10.059127006376745"><ele>217.0</ele><time>2026-04-10T14:04:13Z</time></trkpt><trkpt lat="44.78930493927263" lon="10.059011232246569"><ele>217.0</ele><time>2026-04-10T14:04:14Z</time></trkpt><trkpt lat="44.78924457856465" lon="10.05888614250927"><ele>217.0</ele><time>2026-04-10T14:04:15Z</time></trkpt><trkpt lat="44.789182532550406" lon="10.058754480311032"><ele>217.0</ele><time>2026-04-10T14:04:16Z</time></trkpt><trkpt lat="44.78911972069708" lon="10.05861087448479"><ele>217.5</ele><time>2026-04-10T14:04:17Z</time></trkpt><trkpt lat="44.78905624016504" lon="10.058456863730015"><ele>218.0</ele><time>2026-04-10T14:04:18Z</time></trkpt><trkpt lat="44.78898249768769" lon="10.058307294329001"><ele>218.5</ele><time>2026-04-10T14:04:19Z</time></trkpt><trkpt lat="44.788938172859254" lon="10.058132441013733"><ele>219.0</ele><time>2026-04-10T14:04:20Z</time></trkpt><trkpt lat="44.78888860413879" lon="10.057967121332192"><ele>219.2</ele><time>2026-04-10T14:04:20.999Z</time></trkpt><trkpt lat="44.78884882769602" lon="10.057800705470465"><ele>219.39999999999998</ele><time>2026-04-10T14:04:21.999Z</time></trkpt><trkpt lat="44.78880503234806" lon="10.057655747556314"><ele>219.6</ele><time>2026-04-10T14:04:22.999Z</time></trkpt><trkpt lat="44.7887819163629" lon="10.057529652983614"><ele>219.8</ele><time>2026-04-10T14:04:23.999Z</time></trkpt><trkpt lat="44.78876354567766" lon="10.057426206658667"><ele>220.0</ele><time>2026-04-10T14:04:24.999Z</time></trkpt><trkpt lat="44.788770315227524" lon="10.057335735691305"><ele>220.16666666666666</ele><time>2026-04-10T14:04:25.999Z</time></trkpt><trkpt lat="44.78878796464115" lon="10.057185431840846"><ele>220.33333333333331</ele><time>2026-04-10T14:04:27.999Z</time></trkpt><trkpt lat="44.78878820309439" lon="10.057069404415971"><ele>220.5</ele><time>2026-04-10T14:04:28.999Z</time></trkpt><trkpt lat="44.788788024530945" lon="10.056966290454321"><ele>220.66666666666669</ele><time>2026-04-10T14:04:29.999Z</time></trkpt><trkpt lat="44.788767112834385" lon="10.05686925656806"><ele>220.83333333333334</ele><time>2026-04-10T14:04:30.999Z</time></trkpt><trkpt lat="44.78870092116323" lon="10.056743435713695"><ele>221.0</ele><time>2026-04-10T14:04:32.999Z</time></trkpt><trkpt lat="44.78860018678395" lon="10.05666341790828"><ele>223.0</ele><time>2026-04-10T14:04:34.999Z</time></trkpt><trkpt lat="44.788488928437566" lon="10.05660370510602"><ele>225.00000000000003</ele><time>2026-04-10T14:04:36.999Z</time></trkpt><trkpt lat="44.78842218524576" lon="10.056550822954474"><ele>227.00000000000003</ele><time>2026-04-10T14:04:37.999Z</time></trkpt><trkpt lat="44.78832757101164" lon="10.056522564611358"><ele>229.0</ele><time>2026-04-10T14:04:39.999Z</time></trkpt><trkpt lat="44.788211818809415" lon="10.056503458560874"><ele>231.0</ele><time>2026-04-10T14:04:41.999Z</time></trkpt><trkpt lat="44.78812972284983" lon="10.056490019418213"><ele>231.0</ele><time>2026-04-10T14:04:43.999Z</time></trkpt><trkpt lat="44.7880129290703" lon="10.056465079319475"><ele>231.00000000000003</ele><time>2026-04-10T14:04:45.999Z</time></trkpt><trkpt lat="44.787902085040805" lon="10.05643914654486"><ele>231.00000000000003</ele><time>2026-04-10T14:04:47.999Z</time></trkpt><trkpt lat="44.78780172105166" lon="10.05638915793795"><ele>231.0</ele><time>2026-04-10T14:04:49.999Z</time></trkpt><trkpt lat="44.78771817171132" lon="10.056283862305545"><ele>231.0</ele><time>2026-04-10T14:04:52Z</time></trkpt><trkpt lat="44.787675245180864" lon="10.056200877934588"><ele>233.66666666666666</ele><time>2026-04-10T14:04:53Z</time></trkpt><trkpt lat="44.78763244171815" lon="10.056114361906788"><ele>236.33333333333331</ele><time>2026-04-10T14:04:54Z</time></trkpt><trkpt lat="44.78757145692815" lon="10.056021251348898"><ele>239.0</ele><time>2026-04-10T14:04:55Z</time></trkpt><trkpt lat="44.78752941064703" lon="10.055889827884585"><ele>241.66666666666666</ele><time>2026-04-10T14:04:56Z</time></trkpt><trkpt lat="44.78746796597925" lon="10.055783146712555"><ele>244.33333333333331</ele><time>2026-04-10T14:04:58Z</time></trkpt><trkpt lat="44.78742829075033" lon="10.055694722198412"><ele>247.0</ele><time>2026-04-10T14:04:59Z</time></trkpt><trkpt lat="44.787381814073676" lon="10.055602286692247"><ele>247.42857142857144</ele><time>2026-04-10T14:05:00Z</time></trkpt><trkpt lat="44.78734471532167" lon="10.055526239347639"><ele>247.85714285714283</ele><time>2026-04-10T14:05:01Z</time></trkpt><trkpt lat="44.78729102066053" lon="10.05546289308851"><ele>248.28571428571428</ele><time>2026-04-10T14:05:03Z</time></trkpt><trkpt lat="44.7872635269415" lon="10.055381324132727"><ele>248.71428571428572</ele><time>2026-04-10T14:05:05Z</time></trkpt><trkpt lat="44.78728984683629" lon="10.05529690281248"><ele>249.14285714285717</ele><time>2026-04-10T14:05:06Z</time></trkpt><trkpt lat="44.78728984683532" lon="10.055178945397307"><ele>249.57142857142856</ele><time>2026-04-10T14:05:07Z</time></trkpt><trkpt lat="44.787289229158254" lon="10.055044966570401"><ele>250.0</ele><time>2026-04-10T14:05:08Z</time></trkpt><trkpt lat="44.78728452152342" lon="10.054898758064757"><ele>250.2</ele><time>2026-04-10T14:05:09Z</time></trkpt><trkpt lat="44.787276513934415" lon="10.054784832935843"><ele>250.4</ele><time>2026-04-10T14:05:10Z</time></trkpt><trkpt lat="44.78725509826292" lon="10.054658424046208"><ele>250.60000000000002</ele><time>2026-04-10T14:05:11Z</time></trkpt><trkpt lat="44.787203221045345" lon="10.054545882098195"><ele>250.8</ele><time>2026-04-10T14:05:12Z</time></trkpt><trkpt lat="44.78716009462446" lon="10.05443397104512"><ele>251.0</ele><time>2026-04-10T14:05:13Z</time></trkpt><trkpt lat="44.787103656373276" lon="10.054311423337884"><ele>251.00000000000003</ele><time>2026-04-10T14:05:14Z</time></trkpt><trkpt lat="44.78704309003608" lon="10.054195777909275"><ele>251.0</ele><time>2026-04-10T14:05:15Z</time></trkpt><trkpt lat="44.78697522230508" lon="10.054080279438425"><ele>251.0</ele><time>2026-04-10T14:05:16Z</time></trkpt><trkpt lat="44.78690968405448" lon="10.05398265204257"><ele>251.0</ele><time>2026-04-10T14:05:17Z</time></trkpt><trkpt lat="44.78685962659823" lon="10.053910893176448"><ele>251.00000000000003</ele><time>2026-04-10T14:05:18Z</time></trkpt><trkpt lat="44.78679521998801" lon="10.053861532257905"><ele>251.0</ele><time>2026-04-10T14:05:19Z</time></trkpt><trkpt lat="44.78672682756122" lon="10.053824181648466"><ele>252.60000000000002</ele><time>2026-04-10T14:05:20Z</time></trkpt><trkpt lat="44.78663389571149" lon="10.05380540588178"><ele>254.20000000000002</ele><time>2026-04-10T14:05:21Z</time></trkpt><trkpt lat="44.786539084234356" lon="10.053758899025697"><ele>255.79999999999998</ele><time>2026-04-10T14:05:22Z</time></trkpt><trkpt lat="44.78643993977655" lon="10.05371480065087"><ele>257.4</ele><time>2026-04-10T14:05:23Z</time></trkpt><trkpt lat="44.78636037285716" lon="10.053660306174901"><ele>259.0</ele><time>2026-04-10T14:05:24Z</time></trkpt><trkpt lat="44.78629194020847" lon="10.053592573056301"><ele>259.0</ele><time>2026-04-10T14:05:25Z</time></trkpt><trkpt lat="44.78623071000568" lon="10.053521713853737"><ele>259.0</ele><time>2026-04-10T14:05:26Z</time></trkpt><trkpt lat="44.78617307341259" lon="10.053463659333135"><ele>259.0</ele><time>2026-04-10T14:05:27Z</time></trkpt><trkpt lat="44.78610605285534" lon="10.053321831778272"><ele>259.0</ele><time>2026-04-10T14:05:28Z</time></trkpt><trkpt lat="44.78606787693151" lon="10.053223962437835"><ele>259.0</ele><time>2026-04-10T14:05:29Z</time></trkpt><trkpt lat="44.78604782577255" lon="10.05311644203412"><ele>259.0</ele><time>2026-04-10T14:05:30Z</time></trkpt><trkpt lat="44.78603971410351" lon="10.05299515549459"><ele>259.0</ele><time>2026-04-10T14:05:31Z</time></trkpt><trkpt lat="44.78604286929061" lon="10.052848820185856"><ele>259.0</ele><time>2026-04-10T14:05:32Z</time></trkpt><trkpt lat="44.78604723519932" lon="10.052691230145397"><ele>259.0</ele><time>2026-04-10T14:05:33Z</time></trkpt><trkpt lat="44.78604093258198" lon="10.052529243428905"><ele>259.0</ele><time>2026-04-10T14:05:34Z</time></trkpt><trkpt lat="44.78604903195108" lon="10.052380363856878"><ele>259.0</ele><time>2026-04-10T14:05:35Z</time></trkpt><trkpt lat="44.78605595437397" lon="10.052256641636536"><ele>259.0</ele><time>2026-04-10T14:05:36Z</time></trkpt><trkpt lat="44.786043677078816" lon="10.05213208220661"><ele>259.0</ele><time>2026-04-10T14:05:37Z</time></trkpt><trkpt lat="44.78602574612419" lon="10.05198438273"><ele>259.0</ele><time>2026-04-10T14:05:38Z</time></trkpt><trkpt lat="44.78599435078664" lon="10.051842825157877"><ele>259.0</ele><time>2026-04-10T14:05:39Z</time></trkpt><trkpt lat="44.78595937544495" lon="10.051719450303223"><ele>259.0</ele><time>2026-04-10T14:05:40Z</time></trkpt><trkpt lat="44.7859171215216" lon="10.051614309719266"><ele>259.2</ele><time>2026-04-10T14:05:41Z</time></trkpt><trkpt lat="44.785870652054484" lon="10.051488275976684"><ele>259.4</ele><time>2026-04-10T14:05:42Z</time></trkpt><trkpt lat="44.78580357018983" lon="10.051333327415737"><ele>259.6</ele><time>2026-04-10T14:05:43Z</time></trkpt><trkpt lat="44.78574767318727" lon="10.051204214674518"><ele>259.8</ele><time>2026-04-10T14:05:44Z</time></trkpt><trkpt lat="44.785701004032546" lon="10.051089714633209"><ele>260.0</ele><time>2026-04-10T14:05:45Z</time></trkpt><trkpt lat="44.7856589625056" lon="10.050983346973373"><ele>260.0</ele><time>2026-04-10T14:05:46Z</time></trkpt><trkpt lat="44.78561387189293" lon="10.050866423639215"><ele>260.0</ele><time>2026-04-10T14:05:47Z</time></trkpt><trkpt lat="44.78556307247302" lon="10.050737531384218"><ele>260.0</ele><time>2026-04-10T14:05:48Z</time></trkpt><trkpt lat="44.78549867048606" lon="10.050626359097668"><ele>260.0</ele><time>2026-04-10T14:05:49Z</time></trkpt><trkpt lat="44.78544228829208" lon="10.050502807564424"><ele>260.0</ele><time>2026-04-10T14:05:50Z</time></trkpt><trkpt lat="44.7853922873061" lon="10.050358668955099"><ele>257.4</ele><time>2026-04-10T14:05:51Z</time></trkpt><trkpt lat="44.78533075876856" lon="10.05023722119179"><ele>254.8</ele><time>2026-04-10T14:05:52Z</time></trkpt><trkpt lat="44.78526954412737" lon="10.050117199830552"><ele>252.2</ele><time>2026-04-10T14:05:53Z</time></trkpt><trkpt lat="44.785208416280604" lon="10.04999713061929"><ele>249.6</ele><time>2026-04-10T14:05:54Z</time></trkpt><trkpt lat="44.785149932300186" lon="10.049876677254497"><ele>247.0</ele><time>2026-04-10T14:05:55Z</time></trkpt><trkpt lat="44.7850854293216" lon="10.0497475765987"><ele>246.75</ele><time>2026-04-10T14:05:56Z</time></trkpt><trkpt lat="44.78502106664817" lon="10.049627037237881"><ele>246.5</ele><time>2026-04-10T14:05:57Z</time></trkpt><trkpt lat="44.78494603645926" lon="10.049511881567629"><ele>246.25</ele><time>2026-04-10T14:05:58Z</time></trkpt><trkpt lat="44.78485755307322" lon="10.049400791283043"><ele>246.0</ele><time>2026-04-10T14:05:59Z</time></trkpt><trkpt lat="44.784752953303624" lon="10.049289381519063"><ele>246.0</ele><time>2026-04-10T14:06:00Z</time></trkpt><trkpt lat="44.78464914401912" lon="10.049180063262147"><ele>246.0</ele><time>2026-04-10T14:06:01Z</time></trkpt><trkpt lat="44.78454912630821" lon="10.049074029766674"><ele>246.0</ele><time>2026-04-10T14:06:02Z</time></trkpt><trkpt lat="44.78445721864802" lon="10.04897404822585"><ele>246.0</ele><time>2026-04-10T14:06:03Z</time></trkpt><trkpt lat="44.78436986613494" lon="10.048878697281937"><ele>246.75</ele><time>2026-04-10T14:06:04Z</time></trkpt><trkpt lat="44.784281166724774" lon="10.048781876022302"><ele>247.5</ele><time>2026-04-10T14:06:05Z</time></trkpt><trkpt lat="44.784185516470444" lon="10.048674429791358"><ele>248.25</ele><time>2026-04-10T14:06:06Z</time></trkpt><trkpt lat="44.78409730115162" lon="10.04855314700741"><ele>249.0</ele><time>2026-04-10T14:06:07Z</time></trkpt><trkpt lat="44.78401228975435" lon="10.04842616463451"><ele>247.75</ele><time>2026-04-10T14:06:08Z</time></trkpt><trkpt lat="44.78392902105322" lon="10.048292270554244"><ele>246.5</ele><time>2026-04-10T14:06:09Z</time></trkpt><trkpt lat="44.78384400389243" lon="10.048154647027916"><ele>245.25</ele><time>2026-04-10T14:06:10Z</time></trkpt><trkpt lat="44.78375642129228" lon="10.04802559964135"><ele>244.0</ele><time>2026-04-10T14:06:11Z</time></trkpt><trkpt lat="44.783695190796095" lon="10.047871026569572"><ele>244.0</ele><time>2026-04-10T14:06:12Z</time></trkpt><trkpt lat="44.78363279928543" lon="10.047728921340768"><ele>244.0</ele><time>2026-04-10T14:06:13Z</time></trkpt><trkpt lat="44.78355903109293" lon="10.04758981148584"><ele>244.0</ele><time>2026-04-10T14:06:14Z</time></trkpt><trkpt lat="44.783519773789614" lon="10.047418584119045"><ele>244.0</ele><time>2026-04-10T14:06:15Z</time></trkpt><trkpt lat="44.783474202808165" lon="10.047261747622757"><ele>246.0</ele><time>2026-04-10T14:06:16Z</time></trkpt><trkpt lat="44.78343684921779" lon="10.047128930502668"><ele>247.99999999999997</ele><time>2026-04-10T14:06:17Z</time></trkpt><trkpt lat="44.783400678009535" lon="10.04700031852267"><ele>249.99999999999997</ele><time>2026-04-10T14:06:18Z</time></trkpt><trkpt lat="44.7833501183834" lon="10.046871895782008"><ele>252.0</ele><time>2026-04-10T14:06:19Z</time></trkpt><trkpt lat="44.78331277559133" lon="10.046735691027187"><ele>254.0</ele><time>2026-04-10T14:06:20Z</time></trkpt><trkpt lat="44.78327492349001" lon="10.04660294077034"><ele>254.0</ele><time>2026-04-10T14:06:21Z</time></trkpt><trkpt lat="44.7832383522223" lon="10.046473506331566"><ele>253.99999999999997</ele><time>2026-04-10T14:06:22Z</time></trkpt><trkpt lat="44.78320214319631" lon="10.046342796706552"><ele>253.99999999999997</ele><time>2026-04-10T14:06:23Z</time></trkpt><trkpt lat="44.78316295266567" lon="10.046214392814228"><ele>254.0</ele><time>2026-04-10T14:06:24Z</time></trkpt><trkpt lat="44.783142492947604" lon="10.046077378242938"><ele>254.0</ele><time>2026-04-10T14:06:25Z</time></trkpt><trkpt lat="44.78310538839387" lon="10.045939913934664"><ele>254.0</ele><time>2026-04-10T14:06:26Z</time></trkpt><trkpt lat="44.78306845949746" lon="10.045799529945791"><ele>253.99999999999997</ele><time>2026-04-10T14:06:26.999Z</time></trkpt><trkpt lat="44.783031560649675" lon="10.045654634625734"><ele>253.99999999999997</ele><time>2026-04-10T14:06:27.999Z</time></trkpt><trkpt lat="44.78299585938657" lon="10.045508757502935"><ele>254.0</ele><time>2026-04-10T14:06:28.999Z</time></trkpt><trkpt lat="44.78296294808341" lon="10.045363616987036"><ele>254.0</ele><time>2026-04-10T14:06:29.999Z</time></trkpt><trkpt lat="44.78292026419153" lon="10.0452218946757"><ele>252.79999999999998</ele><time>2026-04-10T14:06:30.999Z</time></trkpt><trkpt lat="44.782896274057435" lon="10.045070617865461"><ele>251.59999999999997</ele><time>2026-04-10T14:06:31.999Z</time></trkpt><trkpt lat="44.78287843785253" lon="10.044918599610305"><ele>250.4</ele><time>2026-04-10T14:06:33Z</time></trkpt><trkpt lat="44.782871026728195" lon="10.044770687611813"><ele>249.2</ele><time>2026-04-10T14:06:34Z</time></trkpt><trkpt lat="44.78287249518993" lon="10.044606525099915"><ele>248.0</ele><time>2026-04-10T14:06:35Z</time></trkpt><trkpt lat="44.78287540300576" lon="10.044434785119513"><ele>247.25</ele><time>2026-04-10T14:06:36Z</time></trkpt><trkpt lat="44.782883486543774" lon="10.044250218044821"><ele>246.5</ele><time>2026-04-10T14:06:37Z</time></trkpt><trkpt lat="44.78289168438033" lon="10.044057114376105"><ele>245.75</ele><time>2026-04-10T14:06:38Z</time></trkpt><trkpt lat="44.782901656669594" lon="10.043872861816064"><ele>245.0</ele><time>2026-04-10T14:06:39Z</time></trkpt><trkpt lat="44.78290596473634" lon="10.04370537954299"><ele>245.0</ele><time>2026-04-10T14:06:40Z</time></trkpt><trkpt lat="44.782915370356335" lon="10.04356022148738"><ele>245.0</ele><time>2026-04-10T14:06:41Z</time></trkpt><trkpt lat="44.78291589349178" lon="10.043428481892619"><ele>245.0</ele><time>2026-04-10T14:06:42Z</time></trkpt><trkpt lat="44.782898711968535" lon="10.043306708909086"><ele>245.0</ele><time>2026-04-10T14:06:43Z</time></trkpt><trkpt lat="44.78286758807888" lon="10.0431893039903"><ele>245.0</ele><time>2026-04-10T14:06:44Z</time></trkpt><trkpt lat="44.7828233072109" lon="10.04307674156243"><ele>246.6</ele><time>2026-04-10T14:06:45Z</time></trkpt><trkpt lat="44.78276369245513" lon="10.042975358731786"><ele>248.2</ele><time>2026-04-10T14:06:46Z</time></trkpt><trkpt lat="44.78269383414139" lon="10.042905347924748"><ele>249.8</ele><time>2026-04-10T14:06:47Z</time></trkpt><trkpt lat="44.78262223459237" lon="10.042785823274954"><ele>251.4</ele><time>2026-04-10T14:06:48Z</time></trkpt><trkpt lat="44.7825465414808" lon="10.042671529863139"><ele>253.0</ele><time>2026-04-10T14:06:49Z</time></trkpt><trkpt lat="44.78247180200254" lon="10.042538151528854"><ele>257.0</ele><time>2026-04-10T14:06:50Z</time></trkpt><trkpt lat="44.782415211556085" lon="10.042414633943098"><ele>261.0</ele><time>2026-04-10T14:06:51Z</time></trkpt><trkpt lat="44.78236412427051" lon="10.042277230777794"><ele>265.0</ele><time>2026-04-10T14:06:52Z</time></trkpt><trkpt lat="44.78231905000147" lon="10.042113145268605"><ele>269.0</ele><time>2026-04-10T14:06:53Z</time></trkpt><trkpt lat="44.782291606723014" lon="10.0419641996368"><ele>273.0</ele><time>2026-04-10T14:06:54Z</time></trkpt><trkpt lat="44.782251509380615" lon="10.04185055643279"><ele>273.0</ele><time>2026-04-10T14:06:55Z</time></trkpt><trkpt lat="44.78223570354102" lon="10.041730935629923"><ele>273.0</ele><time>2026-04-10T14:06:56Z</time></trkpt><trkpt lat="44.78219074900947" lon="10.041625279853537"><ele>273.0</ele><time>2026-04-10T14:06:57Z</time></trkpt><trkpt lat="44.78211715188356" lon="10.04155532154641"><ele>273.0</ele><time>2026-04-10T14:06:58Z</time></trkpt><trkpt lat="44.782031574244634" lon="10.041547787315794"><ele>273.0</ele><time>2026-04-10T14:06:59Z</time></trkpt><trkpt lat="44.781954045679136" lon="10.041517835709147"><ele>273.0</ele><time>2026-04-10T14:07:00Z</time></trkpt><trkpt lat="44.78189036915923" lon="10.041491075872244"><ele>273.8</ele><time>2026-04-10T14:07:01Z</time></trkpt><trkpt lat="44.78179877351047" lon="10.041408095142701"><ele>274.6</ele><time>2026-04-10T14:07:03Z</time></trkpt><trkpt lat="44.781814798565826" lon="10.041243125271645"><ele>275.4</ele><time>2026-04-10T14:07:04Z</time></trkpt><trkpt lat="44.78180313193575" lon="10.041110555147405"><ele>276.2</ele><time>2026-04-10T14:07:05Z</time></trkpt><trkpt lat="44.78177484600933" lon="10.040939501273558"><ele>277.0</ele><time>2026-04-10T14:07:06Z</time></trkpt><trkpt lat="44.78175562198573" lon="10.040738937474533"><ele>278.66666666666663</ele><time>2026-04-10T14:07:07Z</time></trkpt><trkpt lat="44.7817381674219" lon="10.040529850628452"><ele>280.3333333333333</ele><time>2026-04-10T14:07:08Z</time></trkpt><trkpt lat="44.78171746357418" lon="10.040297896429399"><ele>282.0</ele><time>2026-04-10T14:07:09Z</time></trkpt><trkpt lat="44.78169930241082" lon="10.040104488431497"><ele>283.4</ele><time>2026-04-10T14:07:10Z</time></trkpt><trkpt lat="44.78169974238002" lon="10.039945691281709"><ele>284.79999999999995</ele><time>2026-04-10T14:07:11Z</time></trkpt><trkpt lat="44.781696946786205" lon="10.039833422624366"><ele>286.2</ele><time>2026-04-10T14:07:12Z</time></trkpt><trkpt lat="44.781731262028075" lon="10.039695695040125"><ele>287.59999999999997</ele><time>2026-04-10T14:07:14Z</time></trkpt><trkpt lat="44.7817737445116" lon="10.039603426992201"><ele>289.0</ele><time>2026-04-10T14:07:15Z</time></trkpt><trkpt lat="44.78180807833408" lon="10.039476010294402"><ele>289.0</ele><time>2026-04-10T14:07:16Z</time></trkpt><trkpt lat="44.78182983544387" lon="10.039318393435833"><ele>289.0</ele><time>2026-04-10T14:07:17Z</time></trkpt><trkpt lat="44.78185166252334" lon="10.039167703276656"><ele>289.0</ele><time>2026-04-10T14:07:18Z</time></trkpt><trkpt lat="44.78186422797525" lon="10.03903733865669"><ele>289.0</ele><time>2026-04-10T14:07:19Z</time></trkpt><trkpt lat="44.78187509596186" lon="10.0389016398413"><ele>289.0</ele><time>2026-04-10T14:07:20Z</time></trkpt><trkpt lat="44.781911279613155" lon="10.038770419749433"><ele>293.0</ele><time>2026-04-10T14:07:21Z</time></trkpt><trkpt lat="44.781923756008965" lon="10.038649837287842"><ele>297.0</ele><time>2026-04-10T14:07:22Z</time></trkpt><trkpt lat="44.78192979579245" lon="10.038531816260146"><ele>301.0</ele><time>2026-04-10T14:07:23Z</time></trkpt><trkpt lat="44.781923249228946" lon="10.03842578967565"><ele>305.0</ele><time>2026-04-10T14:07:24Z</time></trkpt><trkpt lat="44.78187254502019" lon="10.038282730565053"><ele>309.0</ele><time>2026-04-10T14:07:26Z</time></trkpt><trkpt lat="44.78180552671219" lon="10.038203175447618"><ele>313.0</ele><time>2026-04-10T14:07:27Z</time></trkpt><trkpt lat="44.781721653144075" lon="10.038177236145893"><ele>313.6</ele><time>2026-04-10T14:07:28Z</time></trkpt><trkpt lat="44.7816333442294" lon="10.038169050878622"><ele>314.20000000000005</ele><time>2026-04-10T14:07:29Z</time></trkpt><trkpt lat="44.78150940456276" lon="10.038166037492733"><ele>314.8</ele><time>2026-04-10T14:07:30Z</time></trkpt><trkpt lat="44.78140389642499" lon="10.03816297204679"><ele>315.40000000000003</ele><time>2026-04-10T14:07:31Z</time></trkpt><trkpt lat="44.78132654178173" lon="10.03814776930595"><ele>316.0</ele><time>2026-04-10T14:07:32Z</time></trkpt><trkpt lat="44.781211022452155" lon="10.03806770693013"><ele>316.0</ele><time>2026-04-10T14:07:34Z</time></trkpt><trkpt lat="44.78115800036133" lon="10.037936861949872"><ele>316.0</ele><time>2026-04-10T14:07:36Z</time></trkpt><trkpt lat="44.78115880568904" lon="10.037783350924089"><ele>316.0</ele><time>2026-04-10T14:07:38Z</time></trkpt><trkpt lat="44.781164670352254" lon="10.037659694968177"><ele>316.0</ele><time>2026-04-10T14:07:39Z</time></trkpt><trkpt lat="44.78117273497224" lon="10.037518443648713"><ele>316.0</ele><time>2026-04-10T14:07:40Z</time></trkpt><trkpt lat="44.781167636648235" lon="10.037351483088262"><ele>317.8</ele><time>2026-04-10T14:07:41Z</time></trkpt><trkpt lat="44.78117851954044" lon="10.037181633021406"><ele>319.6</ele><time>2026-04-10T14:07:42Z</time></trkpt><trkpt lat="44.7811777976601" lon="10.037014490618091"><ele>321.4</ele><time>2026-04-10T14:07:43Z</time></trkpt><trkpt lat="44.78118962716928" lon="10.036859737644747"><ele>323.2</ele><time>2026-04-10T14:07:44Z</time></trkpt><trkpt lat="44.78118662447582" lon="10.036720054156392"><ele>325.0</ele><time>2026-04-10T14:07:45Z</time></trkpt><trkpt lat="44.781182423942106" lon="10.036622465397878"><ele>326.25</ele><time>2026-04-10T14:07:46Z</time></trkpt><trkpt lat="44.78116210207709" lon="10.036507191302464"><ele>327.5</ele><time>2026-04-10T14:07:47Z</time></trkpt><trkpt lat="44.78115792643463" lon="10.036346895968089"><ele>328.75</ele><time>2026-04-10T14:07:48Z</time></trkpt><trkpt lat="44.78117842213474" lon="10.036129658408344"><ele>330.0</ele><time>2026-04-10T14:07:49Z</time></trkpt><trkpt lat="44.78115628943112" lon="10.035934410509178"><ele>328.4</ele><time>2026-04-10T14:07:50Z</time></trkpt><trkpt lat="44.781114065378326" lon="10.035782551407603"><ele>326.8</ele><time>2026-04-10T14:07:51Z</time></trkpt><trkpt lat="44.78107338055533" lon="10.035637215889869"><ele>325.20000000000005</ele><time>2026-04-10T14:07:52Z</time></trkpt><trkpt lat="44.78102159764469" lon="10.035496084025375"><ele>323.6</ele><time>2026-04-10T14:07:53Z</time></trkpt><trkpt lat="44.78095323108913" lon="10.035383963768224"><ele>322.0</ele><time>2026-04-10T14:07:54Z</time></trkpt><trkpt lat="44.78087098752866" lon="10.035275588182287"><ele>321.5</ele><time>2026-04-10T14:07:55Z</time></trkpt><trkpt lat="44.78079097628442" lon="10.035152626539482"><ele>321.0</ele><time>2026-04-10T14:07:56Z</time></trkpt><trkpt lat="44.78070179391879" lon="10.035046565371594"><ele>320.5</ele><time>2026-04-10T14:07:57Z</time></trkpt><trkpt lat="44.78060731040858" lon="10.03495702345384"><ele>320.0</ele><time>2026-04-10T14:07:58Z</time></trkpt><trkpt lat="44.780551904815084" lon="10.03481297476074"><ele>319.0</ele><time>2026-04-10T14:07:59Z</time></trkpt><trkpt lat="44.78048979819477" lon="10.03467543647225"><ele>318.0</ele><time>2026-04-10T14:08:00Z</time></trkpt><trkpt lat="44.78043342085305" lon="10.034552317161308"><ele>317.0</ele><time>2026-04-10T14:08:01Z</time></trkpt><trkpt lat="44.780368336743514" lon="10.034442025349625"><ele>316.0</ele><time>2026-04-10T14:08:02Z</time></trkpt><trkpt lat="44.780315894787556" lon="10.034314958171327"><ele>315.0</ele><time>2026-04-10T14:08:03Z</time></trkpt><trkpt lat="44.780237164268605" lon="10.034227437570019"><ele>318.6</ele><time>2026-04-10T14:08:04Z</time></trkpt><trkpt lat="44.780174632088304" lon="10.034111853215899"><ele>322.2</ele><time>2026-04-10T14:08:05Z</time></trkpt><trkpt lat="44.78013427971662" lon="10.033975513253708"><ele>325.79999999999995</ele><time>2026-04-10T14:08:06Z</time></trkpt><trkpt lat="44.78011044218978" lon="10.033840762225486"><ele>329.4</ele><time>2026-04-10T14:08:07Z</time></trkpt><trkpt lat="44.78009204776212" lon="10.033694471477567"><ele>333.0</ele><time>2026-04-10T14:08:08Z</time></trkpt><trkpt lat="44.78005459026225" lon="10.03354467419201"><ele>333.0</ele><time>2026-04-10T14:08:09Z</time></trkpt><trkpt lat="44.780045278841875" lon="10.033376800683747"><ele>333.0</ele><time>2026-04-10T14:08:10Z</time></trkpt><trkpt lat="44.780010086173874" lon="10.03321290621591"><ele>333.0</ele><time>2026-04-10T14:08:11Z</time></trkpt><trkpt lat="44.779983690257076" lon="10.033054231062561"><ele>333.0</ele><time>2026-04-10T14:08:12Z</time></trkpt><trkpt lat="44.779961400977115" lon="10.03289983515408"><ele>334.25</ele><time>2026-04-10T14:08:13Z</time></trkpt><trkpt lat="44.77993644285747" lon="10.032745793143297"><ele>335.5</ele><time>2026-04-10T14:08:14Z</time></trkpt><trkpt lat="44.77990800524764" lon="10.032577808040525"><ele>336.75</ele><time>2026-04-10T14:08:15Z</time></trkpt><trkpt lat="44.77987708861665" lon="10.032387659780047"><ele>338.0</ele><time>2026-04-10T14:08:16Z</time></trkpt><trkpt lat="44.77985052089411" lon="10.032213504478387"><ele>338.25</ele><time>2026-04-10T14:08:17Z</time></trkpt><trkpt lat="44.77981810206068" lon="10.032037049571223"><ele>338.5</ele><time>2026-04-10T14:08:18Z</time></trkpt><trkpt lat="44.77978547841068" lon="10.031872666592244"><ele>338.75</ele><time>2026-04-10T14:08:19Z</time></trkpt><trkpt lat="44.779775127308575" lon="10.031701145016525"><ele>339.0</ele><time>2026-04-10T14:08:20Z</time></trkpt><trkpt lat="44.77974065722013" lon="10.031537273964203"><ele>339.4</ele><time>2026-04-10T14:08:21Z</time></trkpt><trkpt lat="44.779714630727746" lon="10.031381826311838"><ele>339.79999999999995</ele><time>2026-04-10T14:08:22Z</time></trkpt><trkpt lat="44.779706053160965" lon="10.031222914466618"><ele>340.20000000000005</ele><time>2026-04-10T14:08:23Z</time></trkpt><trkpt lat="44.779683958716575" lon="10.03109368380108"><ele>340.6</ele><time>2026-04-10T14:08:24Z</time></trkpt><trkpt lat="44.77966131561387" lon="10.030992959478858"><ele>341.0</ele><time>2026-04-10T14:08:25Z</time></trkpt><trkpt lat="44.779666374575704" lon="10.030889462531562"><ele>341.4</ele><time>2026-04-10T14:08:27Z</time></trkpt><trkpt lat="44.77967344721976" lon="10.03074199474285"><ele>341.8</ele><time>2026-04-10T14:08:29Z</time></trkpt><trkpt lat="44.77968768144388" lon="10.030641131051283"><ele>342.2</ele><time>2026-04-10T14:08:30Z</time></trkpt><trkpt lat="44.77971547611487" lon="10.030508940278638"><ele>342.59999999999997</ele><time>2026-04-10T14:08:31Z</time></trkpt><trkpt lat="44.779746631104615" lon="10.030375781324468"><ele>343.0</ele><time>2026-04-10T14:08:32Z</time></trkpt><trkpt lat="44.77977711304093" lon="10.030252022175418"><ele>343.0</ele><time>2026-04-10T14:08:33Z</time></trkpt><trkpt lat="44.77980731678298" lon="10.030129386075005"><ele>343.0</ele><time>2026-04-10T14:08:34Z</time></trkpt><trkpt lat="44.77983760440431" lon="10.03000640853341"><ele>343.0</ele><time>2026-04-10T14:08:35Z</time></trkpt><trkpt lat="44.77986544660106" lon="10.029893360209039"><ele>343.0</ele><time>2026-04-10T14:08:36Z</time></trkpt><trkpt lat="44.77963341730082" lon="10.029663592414803"><ele>342.2</ele><time>2026-04-10T14:08:37Z</time></trkpt><trkpt lat="44.779617453821565" lon="10.02953645977971"><ele>341.4</ele><time>2026-04-10T14:08:38Z</time></trkpt><trkpt lat="44.77960131177638" lon="10.029404058729261"><ele>340.59999999999997</ele><time>2026-04-10T14:08:39Z</time></trkpt><trkpt lat="44.77958520199634" lon="10.029264775818035"><ele>339.79999999999995</ele><time>2026-04-10T14:08:40Z</time></trkpt><trkpt lat="44.77957797596238" lon="10.029142253942176"><ele>339.0</ele><time>2026-04-10T14:08:41Z</time></trkpt><trkpt lat="44.77957084887116" lon="10.029022186640704"><ele>337.0</ele><time>2026-04-10T14:08:42Z</time></trkpt><trkpt lat="44.77957355263514" lon="10.028885235470735"><ele>335.0</ele><time>2026-04-10T14:08:43Z</time></trkpt><trkpt lat="44.77956892211516" lon="10.028775901626087"><ele>333.0</ele><time>2026-04-10T14:08:44Z</time></trkpt><trkpt lat="44.77955689744172" lon="10.028650449745516"><ele>331.0</ele><time>2026-04-10T14:08:45Z</time></trkpt><trkpt lat="44.77953282054375" lon="10.028556390180588"><ele>329.0</ele><time>2026-04-10T14:08:46Z</time></trkpt><trkpt lat="44.779490372152445" lon="10.028447710611204"><ele>327.0</ele><time>2026-04-10T14:08:47Z</time></trkpt><trkpt lat="44.77943575350996" lon="10.028336744960681"><ele>328.0</ele><time>2026-04-10T14:08:48Z</time></trkpt><trkpt lat="44.77937751984946" lon="10.028233197872495"><ele>329.0</ele><time>2026-04-10T14:08:49Z</time></trkpt><trkpt lat="44.779311982246256" lon="10.028136616719694"><ele>330.0</ele><time>2026-04-10T14:08:50Z</time></trkpt><trkpt lat="44.77924009607258" lon="10.028038592990267"><ele>331.0</ele><time>2026-04-10T14:08:51Z</time></trkpt><trkpt lat="44.77916827147019" lon="10.027935665314393"><ele>332.0</ele><time>2026-04-10T14:08:52Z</time></trkpt><trkpt lat="44.77910332883363" lon="10.027830948863318"><ele>332.0</ele><time>2026-04-10T14:08:53Z</time></trkpt><trkpt lat="44.77904790504314" lon="10.027735602427708"><ele>332.0</ele><time>2026-04-10T14:08:54Z</time></trkpt><trkpt lat="44.77899511422591" lon="10.027650200591168"><ele>332.0</ele><time>2026-04-10T14:08:55Z</time></trkpt><trkpt lat="44.77894341360911" lon="10.027566634324607"><ele>332.0</ele><time>2026-04-10T14:08:56Z</time></trkpt><trkpt lat="44.77888587369583" lon="10.027495501834148"><ele>332.0</ele><time>2026-04-10T14:08:57Z</time></trkpt><trkpt lat="44.77881004511429" lon="10.027424503234654"><ele>332.0</ele><time>2026-04-10T14:08:58Z</time></trkpt><trkpt lat="44.778729160309304" lon="10.027368903973887"><ele>333.40000000000003</ele><time>2026-04-10T14:08:59Z</time></trkpt><trkpt lat="44.77864615350593" lon="10.02733300526594"><ele>334.8</ele><time>2026-04-10T14:09:00Z</time></trkpt><trkpt lat="44.77855584529546" lon="10.027305699755559"><ele>336.2</ele><time>2026-04-10T14:09:01Z</time></trkpt><trkpt lat="44.778473960661685" lon="10.02727846702185"><ele>337.6</ele><time>2026-04-10T14:09:02Z</time></trkpt><trkpt lat="44.77838088057023" lon="10.02722172769331"><ele>339.0</ele><time>2026-04-10T14:09:03Z</time></trkpt><trkpt lat="44.77829417056435" lon="10.027152371402082"><ele>343.0</ele><time>2026-04-10T14:09:04Z</time></trkpt><trkpt lat="44.77822128439015" lon="10.027068829502598"><ele>347.0</ele><time>2026-04-10T14:09:05Z</time></trkpt><trkpt lat="44.77814222105805" lon="10.026974481273202"><ele>351.0</ele><time>2026-04-10T14:09:06Z</time></trkpt><trkpt lat="44.77806007061855" lon="10.026864497971184"><ele>355.0</ele><time>2026-04-10T14:09:07Z</time></trkpt><trkpt lat="44.77798541835485" lon="10.026752803490574"><ele>359.0</ele><time>2026-04-10T14:09:08Z</time></trkpt><trkpt lat="44.777914045977354" lon="10.026642266076452"><ele>359.79999999999995</ele><time>2026-04-10T14:09:09Z</time></trkpt><trkpt lat="44.77784460800564" lon="10.026541349503784"><ele>360.59999999999997</ele><time>2026-04-10T14:09:10Z</time></trkpt><trkpt lat="44.777768632084246" lon="10.02642965679046"><ele>361.4</ele><time>2026-04-10T14:09:11Z</time></trkpt><trkpt lat="44.77770120780185" lon="10.02631804753984"><ele>362.2</ele><time>2026-04-10T14:09:12Z</time></trkpt><trkpt lat="44.77764692691273" lon="10.026211916190487"><ele>363.0</ele><time>2026-04-10T14:09:13Z</time></trkpt><trkpt lat="44.777589200953265" lon="10.026099703854442"><ele>363.0</ele><time>2026-04-10T14:09:14Z</time></trkpt><trkpt lat="44.77754248801581" lon="10.025997656967972"><ele>363.0</ele><time>2026-04-10T14:09:15Z</time></trkpt><trkpt lat="44.7774982335055" lon="10.025903033155142"><ele>363.0</ele><time>2026-04-10T14:09:16Z</time></trkpt><trkpt lat="44.77744209446887" lon="10.025800026246191"><ele>363.0</ele><time>2026-04-10T14:09:17Z</time></trkpt><trkpt lat="44.77739002256044" lon="10.025721156585915"><ele>363.0</ele><time>2026-04-10T14:09:18Z</time></trkpt><trkpt lat="44.777342067657344" lon="10.025641443849075"><ele>363.0</ele><time>2026-04-10T14:09:19Z</time></trkpt><trkpt lat="44.77730901181457" lon="10.025542159772899"><ele>362.0</ele><time>2026-04-10T14:09:20Z</time></trkpt><trkpt lat="44.777278500096415" lon="10.025438597273078"><ele>361.0</ele><time>2026-04-10T14:09:21Z</time></trkpt><trkpt lat="44.77725620010346" lon="10.025336303529839"><ele>360.0</ele><time>2026-04-10T14:09:22Z</time></trkpt><trkpt lat="44.77723585965864" lon="10.025198604171578"><ele>359.0</ele><time>2026-04-10T14:09:23Z</time></trkpt><trkpt lat="44.77722265778044" lon="10.025083685483157"><ele>358.0</ele><time>2026-04-10T14:09:24Z</time></trkpt><trkpt lat="44.77720961581429" lon="10.024940421092024"><ele>357.0</ele><time>2026-04-10T14:09:25Z</time></trkpt><trkpt lat="44.7771982945827" lon="10.02480399108804"><ele>354.6</ele><time>2026-04-10T14:09:26Z</time></trkpt><trkpt lat="44.77718813570381" lon="10.02468009217759"><ele>352.20000000000005</ele><time>2026-04-10T14:09:27Z</time></trkpt><trkpt lat="44.77717199527678" lon="10.024552816299355"><ele>349.8</ele><time>2026-04-10T14:09:28Z</time></trkpt><trkpt lat="44.7771580523589" lon="10.024413914113381"><ele>347.4</ele><time>2026-04-10T14:09:29Z</time></trkpt><trkpt lat="44.777142111223114" lon="10.024287303246174"><ele>345.0</ele><time>2026-04-10T14:09:30Z</time></trkpt><trkpt lat="44.777122530235935" lon="10.0241667990184"><ele>342.4</ele><time>2026-04-10T14:09:31Z</time></trkpt><trkpt lat="44.77710329768708" lon="10.024038920756137"><ele>339.8</ele><time>2026-04-10T14:09:32Z</time></trkpt><trkpt lat="44.77707720577937" lon="10.023920121116399"><ele>337.20000000000005</ele><time>2026-04-10T14:09:33Z</time></trkpt><trkpt lat="44.777042208083195" lon="10.023805587623805"><ele>334.6</ele><time>2026-04-10T14:09:34Z</time></trkpt><trkpt lat="44.77699059331745" lon="10.023711059520368"><ele>332.0</ele><time>2026-04-10T14:09:35Z</time></trkpt><trkpt lat="44.77692773806732" lon="10.023606386571037"><ele>332.0</ele><time>2026-04-10T14:09:36Z</time></trkpt><trkpt lat="44.77685715327166" lon="10.023497038939375"><ele>332.0</ele><time>2026-04-10T14:09:37Z</time></trkpt><trkpt lat="44.77678156323775" lon="10.023396265790709"><ele>332.0</ele><time>2026-04-10T14:09:38Z</time></trkpt><trkpt lat="44.77668810727937" lon="10.023299609973863"><ele>332.0</ele><time>2026-04-10T14:09:39Z</time></trkpt><trkpt lat="44.77660701147673" lon="10.023234287185709"><ele>332.0</ele><time>2026-04-10T14:09:40Z</time></trkpt><trkpt lat="44.77655106493378" lon="10.02318741173772"><ele>333.1666666666667</ele><time>2026-04-10T14:09:41Z</time></trkpt><trkpt lat="44.77649390637286" lon="10.023129515109146"><ele>334.33333333333337</ele><time>2026-04-10T14:09:42Z</time></trkpt><trkpt lat="44.776445881422916" lon="10.023039222071064"><ele>335.5</ele><time>2026-04-10T14:09:43Z</time></trkpt><trkpt lat="44.77639825388568" lon="10.02291928994837"><ele>336.6666666666667</ele><time>2026-04-10T14:09:44Z</time></trkpt><trkpt lat="44.77635335899646" lon="10.022795623858602"><ele>337.8333333333333</ele><time>2026-04-10T14:09:45Z</time></trkpt><trkpt lat="44.77632510548717" lon="10.022682546528868"><ele>339.0</ele><time>2026-04-10T14:09:46Z</time></trkpt><trkpt lat="44.77631323906226" lon="10.022568958868387"><ele>338.1666666666667</ele><time>2026-04-10T14:09:47Z</time></trkpt><trkpt lat="44.77632287727739" lon="10.022434004218265"><ele>337.3333333333333</ele><time>2026-04-10T14:09:48Z</time></trkpt><trkpt lat="44.776356586715124" lon="10.022320430641278"><ele>336.5</ele><time>2026-04-10T14:09:49Z</time></trkpt><trkpt lat="44.77639134373976" lon="10.02220912765613"><ele>335.66666666666663</ele><time>2026-04-10T14:09:50Z</time></trkpt><trkpt lat="44.77638702473903" lon="10.022093346989426"><ele>334.8333333333333</ele><time>2026-04-10T14:09:51Z</time></trkpt><trkpt lat="44.77636316463505" lon="10.021965060543621"><ele>334.0</ele><time>2026-04-10T14:09:52Z</time></trkpt><trkpt lat="44.77632400272716" lon="10.02186379473043"><ele>334.0</ele><time>2026-04-10T14:09:53Z</time></trkpt><trkpt lat="44.77627388144689" lon="10.021792392433662"><ele>334.0</ele><time>2026-04-10T14:09:54Z</time></trkpt><trkpt lat="44.776206865888966" lon="10.021725380258204"><ele>334.0</ele><time>2026-04-10T14:09:55Z</time></trkpt><trkpt lat="44.7761373422226" lon="10.021700635843203"><ele>334.0</ele><time>2026-04-10T14:09:56Z</time></trkpt><trkpt lat="44.7760502802317" lon="10.021685903363583"><ele>334.0</ele><time>2026-04-10T14:09:57Z</time></trkpt><trkpt lat="44.77593281505976" lon="10.021642551083929"><ele>334.0</ele><time>2026-04-10T14:09:58Z</time></trkpt><trkpt lat="44.77582543737839" lon="10.021596256673844"><ele>336.0</ele><time>2026-04-10T14:09:59Z</time></trkpt><trkpt lat="44.77572978776948" lon="10.021549363580721"><ele>338.0</ele><time>2026-04-10T14:10:00Z</time></trkpt><trkpt lat="44.77565903208327" lon="10.021500170952484"><ele>340.0</ele><time>2026-04-10T14:10:01Z</time></trkpt><trkpt lat="44.775587898087" lon="10.02143181429867"><ele>342.0</ele><time>2026-04-10T14:10:02Z</time></trkpt><trkpt lat="44.77550548171499" lon="10.021353906997094"><ele>344.0</ele><time>2026-04-10T14:10:03Z</time></trkpt><trkpt lat="44.77543006442137" lon="10.021265497851976"><ele>344.0</ele><time>2026-04-10T14:10:04Z</time></trkpt><trkpt lat="44.775361070233274" lon="10.021175678531007"><ele>344.0</ele><time>2026-04-10T14:10:05Z</time></trkpt><trkpt lat="44.775296882993416" lon="10.021077490625215"><ele>344.0</ele><time>2026-04-10T14:10:06Z</time></trkpt><trkpt lat="44.77524669252387" lon="10.02098510677509"><ele>344.0</ele><time>2026-04-10T14:10:07Z</time></trkpt><trkpt lat="44.77518452996934" lon="10.0208884015422"><ele>344.0</ele><time>2026-04-10T14:10:08Z</time></trkpt><trkpt lat="44.77514660459806" lon="10.020811799842377"><ele>344.0</ele><time>2026-04-10T14:10:09Z</time></trkpt><trkpt lat="44.77512727055023" lon="10.02070260855561"><ele>347.0</ele><time>2026-04-10T14:10:11Z</time></trkpt><trkpt lat="44.77515227874706" lon="10.020543448528821"><ele>350.0</ele><time>2026-04-10T14:10:13Z</time></trkpt><trkpt lat="44.775139742508536" lon="10.020354145284468"><ele>353.0</ele><time>2026-04-10T14:10:14Z</time></trkpt><trkpt lat="44.77509068787603" lon="10.020163685002645"><ele>356.0</ele><time>2026-04-10T14:10:15Z</time></trkpt><trkpt lat="44.775082070630106" lon="10.019985872091745"><ele>355.6666666666667</ele><time>2026-04-10T14:10:16Z</time></trkpt><trkpt lat="44.77507990463261" lon="10.01983710250015"><ele>355.33333333333337</ele><time>2026-04-10T14:10:17Z</time></trkpt><trkpt lat="44.77509043901005" lon="10.01970219600369"><ele>355.0</ele><time>2026-04-10T14:10:18Z</time></trkpt><trkpt lat="44.775106605201266" lon="10.01960166088325"><ele>354.6666666666667</ele><time>2026-04-10T14:10:19Z</time></trkpt><trkpt lat="44.77513195955049" lon="10.01950182371773"><ele>354.3333333333333</ele><time>2026-04-10T14:10:20Z</time></trkpt><trkpt lat="44.77517900939603" lon="10.019388918568003"><ele>354.0</ele><time>2026-04-10T14:10:21Z</time></trkpt><trkpt lat="44.77523437230259" lon="10.019291143672119"><ele>354.0</ele><time>2026-04-10T14:10:22Z</time></trkpt><trkpt lat="44.77527870553856" lon="10.019200230126108"><ele>354.0</ele><time>2026-04-10T14:10:23Z</time></trkpt></trkseg><trkseg><trkpt lat="44.775264353972126" lon="10.019053382835018"><ele>339.0</ele><time>2026-04-10T14:26:22Z</time></trkpt><trkpt lat="44.77522564658196" lon="10.01893721643125"><ele>339.0</ele><time>2026-04-10T14:26:25Z</time></trkpt><trkpt lat="44.775188376986875" lon="10.018804225996336"><ele>339.0</ele><time>2026-04-10T14:26:27Z</time></trkpt><trkpt lat="44.77513287612519" lon="10.018675968515469"><ele>339.0</ele><time>2026-04-10T14:26:29Z</time></trkpt><trkpt lat="44.77505979147941" lon="10.018558254032618"><ele>339.0</ele><time>2026-04-10T14:26:31Z</time></trkpt><trkpt lat="44.774977104865215" lon="10.018442865049666"><ele>339.79999999999995</ele><time>2026-04-10T14:26:33Z</time></trkpt><trkpt lat="44.77488745472338" lon="10.018353722678874"><ele>340.59999999999997</ele><time>2026-04-10T14:26:35Z</time></trkpt><trkpt lat="44.77479290801183" lon="10.018255711377808"><ele>341.4</ele><time>2026-04-10T14:26:37Z</time></trkpt><trkpt lat="44.7747004951786" lon="10.018154684997976"><ele>342.2</ele><time>2026-04-10T14:26:39Z</time></trkpt><trkpt lat="44.7746391332207" lon="10.018097405980432"><ele>343.0</ele><time>2026-04-10T14:26:40Z</time></trkpt><trkpt lat="44.77455146675457" lon="10.01801116376076"><ele>339.5</ele><time>2026-04-10T14:26:42Z</time></trkpt><trkpt lat="44.77450641917805" lon="10.017927729156082"><ele>336.0</ele><time>2026-04-10T14:26:44Z</time></trkpt><trkpt lat="44.77447465765688" lon="10.01783108969264"><ele>332.5</ele><time>2026-04-10T14:26:46Z</time></trkpt><trkpt lat="44.77444563834148" lon="10.017687056812896"><ele>329.0</ele><time>2026-04-10T14:26:48Z</time></trkpt><trkpt lat="44.77442200061303" lon="10.017594501187968"><ele>325.5</ele><time>2026-04-10T14:26:49Z</time></trkpt><trkpt lat="44.774397630104744" lon="10.017509435161427"><ele>322.0</ele><time>2026-04-10T14:26:50Z</time></trkpt><trkpt lat="44.77437587059016" lon="10.017379881621277"><ele>321.20000000000005</ele><time>2026-04-10T14:26:51Z</time></trkpt><trkpt lat="44.77436022847599" lon="10.017247685378921"><ele>320.40000000000003</ele><time>2026-04-10T14:26:52Z</time></trkpt><trkpt lat="44.77434482341385" lon="10.01711340228239"><ele>319.6</ele><time>2026-04-10T14:26:53Z</time></trkpt><trkpt lat="44.77433111253694" lon="10.016979007033072"><ele>318.8</ele><time>2026-04-10T14:26:54Z</time></trkpt><trkpt lat="44.77431625540758" lon="10.0168817494082"><ele>318.0</ele><time>2026-04-10T14:26:55Z</time></trkpt><trkpt lat="44.774303106229254" lon="10.01675096747394"><ele>319.1666666666667</ele><time>2026-04-10T14:26:56Z</time></trkpt><trkpt lat="44.7742962144731" lon="10.016647786850521"><ele>320.3333333333333</ele><time>2026-04-10T14:26:57Z</time></trkpt><trkpt lat="44.7742903103927" lon="10.016535006274758"><ele>321.5</ele><time>2026-04-10T14:26:58Z</time></trkpt><trkpt lat="44.774289576192636" lon="10.016433161798048"><ele>322.66666666666663</ele><time>2026-04-10T14:26:59Z</time></trkpt><trkpt lat="44.77429019941418" lon="10.016323576878742"><ele>323.8333333333333</ele><time>2026-04-10T14:27:00Z</time></trkpt><trkpt lat="44.77432880999012" lon="10.016215695474092"><ele>325.0</ele><time>2026-04-10T14:27:01Z</time></trkpt><trkpt lat="44.774348026870534" lon="10.01610988087145"><ele>322.6</ele><time>2026-04-10T14:27:02Z</time></trkpt><trkpt lat="44.774368713325565" lon="10.01600131747858"><ele>320.2</ele><time>2026-04-10T14:27:03Z</time></trkpt><trkpt lat="44.774392600713576" lon="10.015900015105567"><ele>317.8</ele><time>2026-04-10T14:27:04Z</time></trkpt><trkpt lat="44.77442560459521" lon="10.015761378100269"><ele>315.4</ele><time>2026-04-10T14:27:06.001Z</time></trkpt><trkpt lat="44.77445659161229" lon="10.015623938531894"><ele>313.0</ele><time>2026-04-10T14:27:08Z</time></trkpt><trkpt lat="44.7745060181766" lon="10.015484424960754"><ele>313.0</ele><time>2026-04-10T14:27:10Z</time></trkpt><trkpt lat="44.77444533387915" lon="10.015370784414177"><ele>313.0</ele><time>2026-04-10T14:27:11Z</time></trkpt><trkpt lat="44.77447060519132" lon="10.015261358979563"><ele>313.0</ele><time>2026-04-10T14:27:13Z</time></trkpt><trkpt lat="44.77448667116588" lon="10.015155314892333"><ele>313.0</ele><time>2026-04-10T14:27:15Z</time></trkpt><trkpt lat="44.77452972935049" lon="10.014950532126495"><ele>313.0</ele><time>2026-04-10T14:27:17Z</time></trkpt><trkpt lat="44.77455817220201" lon="10.01482389150705"><ele>316.0</ele><time>2026-04-10T14:27:18Z</time></trkpt><trkpt lat="44.77458012542077" lon="10.014705621400841"><ele>319.0</ele><time>2026-04-10T14:27:19Z</time></trkpt><trkpt lat="44.774593752207984" lon="10.014598823265636"><ele>322.0</ele><time>2026-04-10T14:27:20Z</time></trkpt><trkpt lat="44.77462830523286" lon="10.014402546107648"><ele>325.0</ele><time>2026-04-10T14:27:22Z</time></trkpt><trkpt lat="44.77467425112336" lon="10.014311028763439"><ele>328.0</ele><time>2026-04-10T14:27:23Z</time></trkpt><trkpt lat="44.77471362801192" lon="10.014196007873409"><ele>328.4</ele><time>2026-04-10T14:27:24Z</time></trkpt><trkpt lat="44.774754645291814" lon="10.01410203757064"><ele>328.79999999999995</ele><time>2026-04-10T14:27:25Z</time></trkpt><trkpt lat="44.774817884855516" lon="10.013937003616912"><ele>329.2</ele><time>2026-04-10T14:27:27Z</time></trkpt><trkpt lat="44.7748453882589" lon="10.013779907838073"><ele>329.6</ele><time>2026-04-10T14:27:29Z</time></trkpt><trkpt lat="44.77483878866387" lon="10.013619871168007"><ele>330.0</ele><time>2026-04-10T14:27:31Z</time></trkpt><trkpt lat="44.77481058480919" lon="10.01348104107337"><ele>330.0</ele><time>2026-04-10T14:27:33Z</time></trkpt><trkpt lat="44.77477457024091" lon="10.013347099343429"><ele>330.0</ele><time>2026-04-10T14:27:35Z</time></trkpt><trkpt lat="44.77474667048781" lon="10.013202063915976"><ele>330.0</ele><time>2026-04-10T14:27:37Z</time></trkpt><trkpt lat="44.77471781664147" lon="10.013062631754233"><ele>330.0</ele><time>2026-04-10T14:27:39Z</time></trkpt><trkpt lat="44.7746992688056" lon="10.012974026311854"><ele>330.0</ele><time>2026-04-10T14:27:40Z</time></trkpt><trkpt lat="44.77465262195376" lon="10.012814454933446"><ele>327.0</ele><time>2026-04-10T14:27:42Z</time></trkpt><trkpt lat="44.77459571445147" lon="10.012659160378393"><ele>324.0</ele><time>2026-04-10T14:27:44Z</time></trkpt><trkpt lat="44.77451548966034" lon="10.012531620052233"><ele>321.0</ele><time>2026-04-10T14:27:46Z</time></trkpt><trkpt lat="44.77447438338066" lon="10.012460597621537"><ele>318.0</ele><time>2026-04-10T14:27:47Z</time></trkpt><trkpt lat="44.77439840845633" lon="10.012331804763157"><ele>315.0</ele><time>2026-04-10T14:27:49Z</time></trkpt><trkpt lat="44.77434986253329" lon="10.01218980651258"><ele>313.8333333333333</ele><time>2026-04-10T14:27:51Z</time></trkpt><trkpt lat="44.77433517360668" lon="10.012040790103466"><ele>312.6666666666667</ele><time>2026-04-10T14:27:53Z</time></trkpt><trkpt lat="44.774339901489334" lon="10.01187350017208"><ele>311.5</ele><time>2026-04-10T14:27:55Z</time></trkpt><trkpt lat="44.77434167286372" lon="10.011777616386453"><ele>310.33333333333337</ele><time>2026-04-10T14:27:56Z</time></trkpt><trkpt lat="44.77434908855406" lon="10.011657277988219"><ele>309.1666666666667</ele><time>2026-04-10T14:27:57Z</time></trkpt><trkpt lat="44.77435158004833" lon="10.0115673728342"><ele>308.0</ele><time>2026-04-10T14:27:58Z</time></trkpt><trkpt lat="44.77435532097753" lon="10.011460786234128"><ele>306.4</ele><time>2026-04-10T14:27:59Z</time></trkpt><trkpt lat="44.77435395264075" lon="10.011285843261623"><ele>304.8</ele><time>2026-04-10T14:28:01Z</time></trkpt><trkpt lat="44.77434647554767" lon="10.011153260097599"><ele>303.2</ele><time>2026-04-10T14:28:03Z</time></trkpt><trkpt lat="44.77438967122858" lon="10.011081039675338"><ele>301.6</ele><time>2026-04-10T14:28:04Z</time></trkpt><trkpt lat="44.774412216447715" lon="10.010955241490127"><ele>300.0</ele><time>2026-04-10T14:28:05Z</time></trkpt><trkpt lat="44.77443024020895" lon="10.010818482805599"><ele>298.6666666666667</ele><time>2026-04-10T14:28:06Z</time></trkpt><trkpt lat="44.77442080169792" lon="10.010674190732294"><ele>297.3333333333333</ele><time>2026-04-10T14:28:07Z</time></trkpt><trkpt lat="44.77444499339782" lon="10.01054721132393"><ele>296.0</ele><time>2026-04-10T14:28:08Z</time></trkpt><trkpt lat="44.774405367972555" lon="10.01041017189005"><ele>294.66666666666663</ele><time>2026-04-10T14:28:09Z</time></trkpt><trkpt lat="44.77435121781446" lon="10.010353939442261"><ele>293.3333333333333</ele><time>2026-04-10T14:28:10Z</time></trkpt><trkpt lat="44.77433248683524" lon="10.01025705661307"><ele>292.0</ele><time>2026-04-10T14:28:11Z</time></trkpt><trkpt lat="44.77460676201573" lon="10.009865530461482"><ele>290.8333333333333</ele><time>2026-04-10T14:28:13Z</time></trkpt><trkpt lat="44.774640560808166" lon="10.009730727809323"><ele>289.66666666666663</ele><time>2026-04-10T14:28:14Z</time></trkpt><trkpt lat="44.77466724848471" lon="10.00960089428798"><ele>288.5</ele><time>2026-04-10T14:28:15Z</time></trkpt><trkpt lat="44.774693864762824" lon="10.009477177972512"><ele>287.3333333333333</ele><time>2026-04-10T14:28:16Z</time></trkpt><trkpt lat="44.77471897453092" lon="10.009366559134671"><ele>286.1666666666667</ele><time>2026-04-10T14:28:17Z</time></trkpt><trkpt lat="44.774738342927854" lon="10.009268616068724"><ele>285.0</ele><time>2026-04-10T14:28:18Z</time></trkpt><trkpt lat="44.774752942752365" lon="10.009158310540077"><ele>282.2</ele><time>2026-04-10T14:28:19Z</time></trkpt><trkpt lat="44.77473218420403" lon="10.00899868754279"><ele>279.4</ele><time>2026-04-10T14:28:21Z</time></trkpt><trkpt lat="44.77465661383907" lon="10.00886062294228"><ele>276.6</ele><time>2026-04-10T14:28:23.001Z</time></trkpt><trkpt lat="44.77458789831795" lon="10.00881956367314"><ele>273.8</ele><time>2026-04-10T14:28:24.001Z</time></trkpt><trkpt lat="44.774497842780804" lon="10.008787478113694"><ele>271.0</ele><time>2026-04-10T14:28:25.001Z</time></trkpt><trkpt lat="44.77439255772845" lon="10.008742308861372"><ele>274.2</ele><time>2026-04-10T14:28:26.001Z</time></trkpt><trkpt lat="44.774294914528895" lon="10.008679605263866"><ele>277.40000000000003</ele><time>2026-04-10T14:28:27.001Z</time></trkpt><trkpt lat="44.77420899046412" lon="10.008631731521524"><ele>280.6</ele><time>2026-04-10T14:28:28.001Z</time></trkpt><trkpt lat="44.77410423292615" lon="10.008590283375828"><ele>283.8</ele><time>2026-04-10T14:28:29.001Z</time></trkpt><trkpt lat="44.77399798913047" lon="10.008563332966684"><ele>287.0</ele><time>2026-04-10T14:28:30.001Z</time></trkpt><trkpt lat="44.77389817312259" lon="10.008545679886293"><ele>287.0</ele><time>2026-04-10T14:28:31.001Z</time></trkpt><trkpt lat="44.77380108512174" lon="10.008532970175562"><ele>287.0</ele><time>2026-04-10T14:28:32.001Z</time></trkpt><trkpt lat="44.77370248595373" lon="10.008522807779489"><ele>287.0</ele><time>2026-04-10T14:28:33.001Z</time></trkpt><trkpt lat="44.773606532571" lon="10.008506449029834"><ele>287.0</ele><time>2026-04-10T14:28:34.001Z</time></trkpt><trkpt lat="44.77350949529157" lon="10.008479484120791"><ele>287.0</ele><time>2026-04-10T14:28:35.001Z</time></trkpt><trkpt lat="44.773404110824" lon="10.00843834888259"><ele>288.2</ele><time>2026-04-10T14:28:36.001Z</time></trkpt><trkpt lat="44.773306435068925" lon="10.008391709885379"><ele>289.4</ele><time>2026-04-10T14:28:37.001Z</time></trkpt><trkpt lat="44.77320888574155" lon="10.008342925453292"><ele>290.6</ele><time>2026-04-10T14:28:38.001Z</time></trkpt><trkpt lat="44.77311773706546" lon="10.008286626634929"><ele>291.8</ele><time>2026-04-10T14:28:39.001Z</time></trkpt><trkpt lat="44.77303581049849" lon="10.008219453480512"><ele>293.0</ele><time>2026-04-10T14:28:40.001Z</time></trkpt><trkpt lat="44.77296841392292" lon="10.008165290331258"><ele>293.57142857142856</ele><time>2026-04-10T14:28:41.001Z</time></trkpt><trkpt lat="44.77290403020861" lon="10.008111033384996"><ele>294.1428571428571</ele><time>2026-04-10T14:28:42.001Z</time></trkpt><trkpt lat="44.77283736657487" lon="10.008073210106737"><ele>294.7142857142857</ele><time>2026-04-10T14:28:43.001Z</time></trkpt><trkpt lat="44.77277310894636" lon="10.008030431236874"><ele>295.2857142857143</ele><time>2026-04-10T14:28:44.001Z</time></trkpt><trkpt lat="44.772713291397714" lon="10.007992560640027"><ele>295.8571428571429</ele><time>2026-04-10T14:28:45.001Z</time></trkpt><trkpt lat="44.77264448461163" lon="10.00794380334773"><ele>296.42857142857144</ele><time>2026-04-10T14:28:46.001Z</time></trkpt><trkpt lat="44.77257334370484" lon="10.007894533156504"><ele>297.0</ele><time>2026-04-10T14:28:47.001Z</time></trkpt><trkpt lat="44.77251118765468" lon="10.007855363996384"><ele>297.0</ele><time>2026-04-10T14:28:48.001Z</time></trkpt><trkpt lat="44.7724489523356" lon="10.007809488340001"><ele>297.0</ele><time>2026-04-10T14:28:49.001Z</time></trkpt><trkpt lat="44.772360500474406" lon="10.00773854830351"><ele>297.0</ele><time>2026-04-10T14:28:51.001Z</time></trkpt><trkpt lat="44.772285177404484" lon="10.00764259898843"><ele>297.0</ele><time>2026-04-10T14:28:53.001Z</time></trkpt><trkpt lat="44.77218260550166" lon="10.007539716511193"><ele>297.0</ele><time>2026-04-10T14:28:55.001Z</time></trkpt><trkpt lat="44.772107585409536" lon="10.007515805353245"><ele>297.0</ele><time>2026-04-10T14:28:56.001Z</time></trkpt><trkpt lat="44.772033609442786" lon="10.007503167231492"><ele>297.0</ele><time>2026-04-10T14:28:57.001Z</time></trkpt><trkpt lat="44.771966324358516" lon="10.007489668196902"><ele>297.0</ele><time>2026-04-10T14:28:58.001Z</time></trkpt><trkpt lat="44.77189043213786" lon="10.007464356154916"><ele>297.0</ele><time>2026-04-10T14:28:59.001Z</time></trkpt><trkpt lat="44.77182394696474" lon="10.007443409188522"><ele>297.0</ele><time>2026-04-10T14:29:00.001Z</time></trkpt><trkpt lat="44.77170519208078" lon="10.007379172408198"><ele>297.0</ele><time>2026-04-10T14:29:02.001Z</time></trkpt><trkpt lat="44.771652863632106" lon="10.007329825877802"><ele>297.3333333333333</ele><time>2026-04-10T14:29:03.001Z</time></trkpt><trkpt lat="44.77160204634514" lon="10.007270964373538"><ele>297.6666666666667</ele><time>2026-04-10T14:29:04.001Z</time></trkpt><trkpt lat="44.77154781281697" lon="10.007194797196773"><ele>298.0</ele><time>2026-04-10T14:29:05.001Z</time></trkpt><trkpt lat="44.77149507477849" lon="10.007108915221158"><ele>298.33333333333337</ele><time>2026-04-10T14:29:06.001Z</time></trkpt><trkpt lat="44.77143348756726" lon="10.007006081809385"><ele>298.6666666666667</ele><time>2026-04-10T14:29:07.001Z</time></trkpt><trkpt lat="44.77136215336883" lon="10.006910686595655"><ele>299.0</ele><time>2026-04-10T14:29:08.001Z</time></trkpt><trkpt lat="44.77128706992194" lon="10.006823285878877"><ele>299.0</ele><time>2026-04-10T14:29:09.001Z</time></trkpt><trkpt lat="44.771227477625715" lon="10.006737036062368"><ele>299.0</ele><time>2026-04-10T14:29:10.001Z</time></trkpt><trkpt lat="44.77118469743111" lon="10.006667840015348"><ele>299.0</ele><time>2026-04-10T14:29:11.001Z</time></trkpt><trkpt lat="44.77114250940959" lon="10.00654726681753"><ele>299.0</ele><time>2026-04-10T14:29:13Z</time></trkpt><trkpt lat="44.77113376896174" lon="10.006346969424158"><ele>299.0</ele><time>2026-04-10T14:29:15Z</time></trkpt><trkpt lat="44.771117301896844" lon="10.006195249634683"><ele>298.4</ele><time>2026-04-10T14:29:16Z</time></trkpt><trkpt lat="44.77109463639984" lon="10.00605478554565"><ele>297.79999999999995</ele><time>2026-04-10T14:29:17Z</time></trkpt><trkpt lat="44.77108286202206" lon="10.005938188855325"><ele>297.20000000000005</ele><time>2026-04-10T14:29:18Z</time></trkpt><trkpt lat="44.77108825758504" lon="10.005819239906877"><ele>296.6</ele><time>2026-04-10T14:29:19Z</time></trkpt><trkpt lat="44.7710882300695" lon="10.005706700114771"><ele>296.0</ele><time>2026-04-10T14:29:20Z</time></trkpt><trkpt lat="44.77108051057714" lon="10.00555305695598"><ele>298.33333333333337</ele><time>2026-04-10T14:29:22Z</time></trkpt><trkpt lat="44.77107214127231" lon="10.005451199984211"><ele>300.6666666666667</ele><time>2026-04-10T14:29:23Z</time></trkpt><trkpt lat="44.77106892615379" lon="10.005326856067862"><ele>303.0</ele><time>2026-04-10T14:29:24Z</time></trkpt><trkpt lat="44.77106465489879" lon="10.005200964022752"><ele>305.3333333333333</ele><time>2026-04-10T14:29:25Z</time></trkpt><trkpt lat="44.771068518296126" lon="10.005102275539754"><ele>307.66666666666663</ele><time>2026-04-10T14:29:26Z</time></trkpt><trkpt lat="44.771113948938094" lon="10.004989442604122"><ele>310.0</ele><time>2026-04-10T14:29:28Z</time></trkpt><trkpt lat="44.771170171626395" lon="10.004922889756475"><ele>311.2</ele><time>2026-04-10T14:29:29Z</time></trkpt><trkpt lat="44.77122631655701" lon="10.0048244346341"><ele>312.4</ele><time>2026-04-10T14:29:30Z</time></trkpt><trkpt lat="44.771278326111045" lon="10.004731093515732"><ele>313.6</ele><time>2026-04-10T14:29:31Z</time></trkpt><trkpt lat="44.771326089267376" lon="10.004662173108455"><ele>314.8</ele><time>2026-04-10T14:29:32Z</time></trkpt><trkpt lat="44.771424397086285" lon="10.004561010253628"><ele>316.0</ele><time>2026-04-10T14:29:34Z</time></trkpt><trkpt lat="44.77145380569139" lon="10.00442507615328"><ele>316.0</ele><time>2026-04-10T14:29:36Z</time></trkpt><trkpt lat="44.771399075591845" lon="10.004316526592394"><ele>316.0</ele><time>2026-04-10T14:29:39Z</time></trkpt><trkpt lat="44.77131216949537" lon="10.004208611534647"><ele>316.0</ele><time>2026-04-10T14:29:41Z</time></trkpt><trkpt lat="44.77123524377558" lon="10.004063274266644"><ele>316.0</ele><time>2026-04-10T14:29:43Z</time></trkpt><trkpt lat="44.77116424612571" lon="10.00396791556356"><ele>316.0</ele><time>2026-04-10T14:29:45Z</time></trkpt><trkpt lat="44.77104656340696" lon="10.003764625659366"><ele>323.20000000000005</ele><time>2026-04-10T14:29:47Z</time></trkpt><trkpt lat="44.770957355828536" lon="10.003686885570472"><ele>330.40000000000003</ele><time>2026-04-10T14:29:49Z</time></trkpt><trkpt lat="44.77089465138295" lon="10.003583673861257"><ele>337.6</ele><time>2026-04-10T14:29:51Z</time></trkpt><trkpt lat="44.77085751986649" lon="10.003413754768815"><ele>344.8</ele><time>2026-04-10T14:29:53Z</time></trkpt><trkpt lat="44.770829044148385" lon="10.003327157548814"><ele>352.0</ele><time>2026-04-10T14:29:54Z</time></trkpt><trkpt lat="44.77076779139778" lon="10.003231811299415"><ele>353.0</ele><time>2026-04-10T14:29:56Z</time></trkpt><trkpt lat="44.770721595263105" lon="10.003129776749294"><ele>354.0</ele><time>2026-04-10T14:29:58Z</time></trkpt><trkpt lat="44.770706909992775" lon="10.002992696270972"><ele>355.0</ele><time>2026-04-10T14:30:01Z</time></trkpt><trkpt lat="44.77067706769953" lon="10.002906108910558"><ele>356.0</ele><time>2026-04-10T14:30:03.001Z</time></trkpt><trkpt lat="44.77062831117966" lon="10.002799774611105"><ele>357.0</ele><time>2026-04-10T14:30:05.001Z</time></trkpt><trkpt lat="44.77055273652166" lon="10.002680911195666"><ele>357.0</ele><time>2026-04-10T14:30:07.001Z</time></trkpt><trkpt lat="44.77049739137475" lon="10.002614829367491"><ele>357.0</ele><time>2026-04-10T14:30:08.001Z</time></trkpt><trkpt lat="44.77042399972919" lon="10.002545095524692"><ele>357.0</ele><time>2026-04-10T14:30:09.001Z</time></trkpt><trkpt lat="44.770373975407324" lon="10.002458434920847"><ele>357.0</ele><time>2026-04-10T14:30:10.001Z</time></trkpt><trkpt lat="44.7703309975724" lon="10.002382146206129"><ele>357.0</ele><time>2026-04-10T14:30:11.001Z</time></trkpt><trkpt lat="44.770282304317014" lon="10.002269259226019"><ele>357.0</ele><time>2026-04-10T14:30:13.001Z</time></trkpt><trkpt lat="44.77028750713773" lon="10.002138770431634"><ele>359.0</ele><time>2026-04-10T14:30:15.001Z</time></trkpt><trkpt lat="44.770286314326704" lon="10.002048319696216"><ele>361.0</ele><time>2026-04-10T14:30:16.001Z</time></trkpt><trkpt lat="44.77028370037116" lon="10.001957544557927"><ele>363.0</ele><time>2026-04-10T14:30:17.001Z</time></trkpt><trkpt lat="44.770278987158164" lon="10.001807948751694"><ele>365.0</ele><time>2026-04-10T14:30:19.001Z</time></trkpt><trkpt lat="44.770273513376054" lon="10.001698792776786"><ele>367.0</ele><time>2026-04-10T14:30:21.001Z</time></trkpt><trkpt lat="44.770253017142906" lon="10.00157375192792"><ele>369.0</ele><time>2026-04-10T14:30:23.001Z</time></trkpt><trkpt lat="44.77022610655926" lon="10.001431862029456"><ele>369.79999999999995</ele><time>2026-04-10T14:30:25.001Z</time></trkpt><trkpt lat="44.77020393499256" lon="10.001283983696505"><ele>370.59999999999997</ele><time>2026-04-10T14:30:27.001Z</time></trkpt><trkpt lat="44.770210973465865" lon="10.001179552961574"><ele>371.4</ele><time>2026-04-10T14:30:28.001Z</time></trkpt><trkpt lat="44.77022432808458" lon="10.001072343024715"><ele>372.2</ele><time>2026-04-10T14:30:29.001Z</time></trkpt><trkpt lat="44.77025761223657" lon="10.000886592105907"><ele>373.0</ele><time>2026-04-10T14:30:31.001Z</time></trkpt><trkpt lat="44.770285895517866" lon="10.000783086392122"><ele>373.2</ele><time>2026-04-10T14:30:32.001Z</time></trkpt><trkpt lat="44.7703122198605" lon="10.000693314589492"><ele>373.4</ele><time>2026-04-10T14:30:33.001Z</time></trkpt><trkpt lat="44.77031623790466" lon="10.000504301650063"><ele>373.59999999999997</ele><time>2026-04-10T14:30:35.001Z</time></trkpt><trkpt lat="44.77030453829758" lon="10.000389090208646"><ele>373.79999999999995</ele><time>2026-04-10T14:30:36.001Z</time></trkpt><trkpt lat="44.770275783279374" lon="10.00027479647777"><ele>374.0</ele><time>2026-04-10T14:30:37.001Z</time></trkpt><trkpt lat="44.77023471643847" lon="10.000157813344758"><ele>374.0</ele><time>2026-04-10T14:30:38.001Z</time></trkpt><trkpt lat="44.77019980804483" lon="10.000030252844512"><ele>374.0</ele><time>2026-04-10T14:30:39.001Z</time></trkpt><trkpt lat="44.770173058607405" lon="9.999917360062444"><ele>374.0</ele><time>2026-04-10T14:30:40.001Z</time></trkpt><trkpt lat="44.770160248407294" lon="9.999799744487548"><ele>374.0</ele><time>2026-04-10T14:30:41.001Z</time></trkpt><trkpt lat="44.770151574747246" lon="9.999691626334446"><ele>374.0</ele><time>2026-04-10T14:30:42.001Z</time></trkpt><trkpt lat="44.77013976116432" lon="9.999575920914657"><ele>374.0</ele><time>2026-04-10T14:30:43.001Z</time></trkpt><trkpt lat="44.77012073920141" lon="9.999465652881108"><ele>371.0</ele><time>2026-04-10T14:30:44.001Z</time></trkpt><trkpt lat="44.77009321684938" lon="9.999357481743564"><ele>368.0</ele><time>2026-04-10T14:30:45.001Z</time></trkpt><trkpt lat="44.77005588915068" lon="9.999235570541288"><ele>365.0</ele><time>2026-04-10T14:30:46.001Z</time></trkpt><trkpt lat="44.77002355208341" lon="9.999147471036936"><ele>362.0</ele><time>2026-04-10T14:30:47.001Z</time></trkpt><trkpt lat="44.769989111114675" lon="9.999060999215272"><ele>359.0</ele><time>2026-04-10T14:30:48.001Z</time></trkpt><trkpt lat="44.76994935181408" lon="9.99897745441871"><ele>356.0</ele><time>2026-04-10T14:30:49.001Z</time></trkpt><trkpt lat="44.7698994379294" lon="9.998888249132406"><ele>356.0</ele><time>2026-04-10T14:30:50.001Z</time></trkpt><trkpt lat="44.76984892622636" lon="9.998812510488623"><ele>356.0</ele><time>2026-04-10T14:30:51.001Z</time></trkpt><trkpt lat="44.769794228638936" lon="9.998751852943885"><ele>356.0</ele><time>2026-04-10T14:30:52.001Z</time></trkpt><trkpt lat="44.76972109997318" lon="9.998703028645883"><ele>356.0</ele><time>2026-04-10T14:30:53.001Z</time></trkpt><trkpt lat="44.769645524941524" lon="9.998677068503085"><ele>356.0</ele><time>2026-04-10T14:30:54.001Z</time></trkpt><trkpt lat="44.76955444737282" lon="9.998644220363035"><ele>356.0</ele><time>2026-04-10T14:30:55.001Z</time></trkpt><trkpt lat="44.769467232356234" lon="9.998586800868683"><ele>356.0</ele><time>2026-04-10T14:30:56.001Z</time></trkpt><trkpt lat="44.76938456333237" lon="9.998535586795013"><ele>356.0</ele><time>2026-04-10T14:30:57.001Z</time></trkpt><trkpt lat="44.76929944303627" lon="9.99849382775427"><ele>356.0</ele><time>2026-04-10T14:30:58.001Z</time></trkpt><trkpt lat="44.76920012410654" lon="9.99845511638316"><ele>356.0</ele><time>2026-04-10T14:30:59.001Z</time></trkpt><trkpt lat="44.76909392695773" lon="9.998416428539228"><ele>356.0</ele><time>2026-04-10T14:31:00.001Z</time></trkpt><trkpt lat="44.76899636163667" lon="9.998385220615969"><ele>353.0</ele><time>2026-04-10T14:31:01.001Z</time></trkpt><trkpt lat="44.76890659873849" lon="9.998357300486997"><ele>350.0</ele><time>2026-04-10T14:31:02.001Z</time></trkpt><trkpt lat="44.76881436480911" lon="9.99833052478478"><ele>347.0</ele><time>2026-04-10T14:31:03.001Z</time></trkpt><trkpt lat="44.768725213048725" lon="9.998306433997056"><ele>344.0</ele><time>2026-04-10T14:31:04.001Z</time></trkpt><trkpt lat="44.7686296021235" lon="9.998287037802413"><ele>341.0</ele><time>2026-04-10T14:31:05.001Z</time></trkpt><trkpt lat="44.76853240285363" lon="9.998273392335358"><ele>344.6</ele><time>2026-04-10T14:31:06.001Z</time></trkpt><trkpt lat="44.76842670723555" lon="9.998263539739005"><ele>348.20000000000005</ele><time>2026-04-10T14:31:07.001Z</time></trkpt><trkpt lat="44.76832594696868" lon="9.9982627744662"><ele>351.79999999999995</ele><time>2026-04-10T14:31:08.001Z</time></trkpt><trkpt lat="44.768229802251064" lon="9.998264822055553"><ele>355.4</ele><time>2026-04-10T14:31:09.001Z</time></trkpt><trkpt lat="44.768139522012206" lon="9.998271371230539"><ele>359.0</ele><time>2026-04-10T14:31:10.001Z</time></trkpt><trkpt lat="44.76803738356666" lon="9.998278862072668"><ele>359.0</ele><time>2026-04-10T14:31:11.001Z</time></trkpt><trkpt lat="44.76792319189692" lon="9.998297206284256"><ele>359.0</ele><time>2026-04-10T14:31:12.001Z</time></trkpt><trkpt lat="44.767821064904474" lon="9.998315476489003"><ele>359.0</ele><time>2026-04-10T14:31:13.001Z</time></trkpt><trkpt lat="44.767714457170904" lon="9.998328944735848"><ele>359.0</ele><time>2026-04-10T14:31:14.001Z</time></trkpt><trkpt lat="44.76760246432811" lon="9.998338913539653"><ele>359.0</ele><time>2026-04-10T14:31:15.001Z</time></trkpt><trkpt lat="44.76750365068433" lon="9.998350717051801"><ele>358.0</ele><time>2026-04-10T14:31:16.001Z</time></trkpt><trkpt lat="44.76741236883791" lon="9.998363628078538"><ele>357.0</ele><time>2026-04-10T14:31:17.001Z</time></trkpt><trkpt lat="44.7673347869309" lon="9.998367546633338"><ele>356.0</ele><time>2026-04-10T14:31:18.001Z</time></trkpt><trkpt lat="44.76726608947347" lon="9.998359096645586"><ele>355.0</ele><time>2026-04-10T14:31:19Z</time></trkpt><trkpt lat="44.7671796509463" lon="9.998279771658492"><ele>354.0</ele><time>2026-04-10T14:31:21Z</time></trkpt><trkpt lat="44.767144037016806" lon="9.998144343713589"><ele>353.0</ele><time>2026-04-10T14:31:23Z</time></trkpt><trkpt lat="44.76715809564595" lon="9.997950625077362"><ele>353.0</ele><time>2026-04-10T14:31:25Z</time></trkpt><trkpt lat="44.76717510018543" lon="9.997820092869347"><ele>353.0</ele><time>2026-04-10T14:31:26Z</time></trkpt><trkpt lat="44.767201348617704" lon="9.99767523104859"><ele>353.0</ele><time>2026-04-10T14:31:27Z</time></trkpt><trkpt lat="44.76723424657608" lon="9.99751866195397"><ele>353.0</ele><time>2026-04-10T14:31:28Z</time></trkpt><trkpt lat="44.76726331200557" lon="9.997374843849599"><ele>353.0</ele><time>2026-04-10T14:31:29Z</time></trkpt><trkpt lat="44.76728914007346" lon="9.997237541567957"><ele>352.5</ele><time>2026-04-10T14:31:30Z</time></trkpt><trkpt lat="44.7673171612241" lon="9.997099839298846"><ele>352.0</ele><time>2026-04-10T14:31:31Z</time></trkpt><trkpt lat="44.76734953494995" lon="9.996953954489758"><ele>351.5</ele><time>2026-04-10T14:31:32Z</time></trkpt><trkpt lat="44.76738766743154" lon="9.996792363575304"><ele>351.0</ele><time>2026-04-10T14:31:33Z</time></trkpt><trkpt lat="44.767423507431694" lon="9.99662570924728"><ele>351.0</ele><time>2026-04-10T14:31:34Z</time></trkpt><trkpt lat="44.767458981255224" lon="9.996471301764773"><ele>351.0</ele><time>2026-04-10T14:31:35Z</time></trkpt><trkpt lat="44.767492432583104" lon="9.996321992003702"><ele>351.0</ele><time>2026-04-10T14:31:36.001Z</time></trkpt><trkpt lat="44.76752088016647" lon="9.996182649569326"><ele>351.0</ele><time>2026-04-10T14:31:37.001Z</time></trkpt><trkpt lat="44.76754474801834" lon="9.996049997771024"><ele>351.0</ele><time>2026-04-10T14:31:38.001Z</time></trkpt><trkpt lat="44.767563943357665" lon="9.99592117462588"><ele>349.4</ele><time>2026-04-10T14:31:39.001Z</time></trkpt><trkpt lat="44.76757969346268" lon="9.995796385229065"><ele>347.8</ele><time>2026-04-10T14:31:40.001Z</time></trkpt><trkpt lat="44.76759241922629" lon="9.995676876185765"><ele>346.2</ele><time>2026-04-10T14:31:41.001Z</time></trkpt><trkpt lat="44.76760744016131" lon="9.995541183921826"><ele>344.59999999999997</ele><time>2026-04-10T14:31:42.001Z</time></trkpt><trkpt lat="44.76763399288365" lon="9.99538821106798"><ele>343.0</ele><time>2026-04-10T14:31:43.001Z</time></trkpt><trkpt lat="44.76766227382809" lon="9.995257990351417"><ele>343.0</ele><time>2026-04-10T14:31:44.001Z</time></trkpt><trkpt lat="44.767686735705745" lon="9.99514013338166"><ele>343.0</ele><time>2026-04-10T14:31:45.001Z</time></trkpt><trkpt lat="44.76771024948712" lon="9.995017935396566"><ele>343.0</ele><time>2026-04-10T14:31:46.001Z</time></trkpt><trkpt lat="44.76773641366485" lon="9.994899647081892"><ele>343.0</ele><time>2026-04-10T14:31:47.001Z</time></trkpt><trkpt lat="44.767765146947205" lon="9.994771689866603"><ele>343.0</ele><time>2026-04-10T14:31:48.001Z</time></trkpt><trkpt lat="44.767801562208895" lon="9.994619291260198"><ele>344.66666666666663</ele><time>2026-04-10T14:31:49.001Z</time></trkpt><trkpt lat="44.767836932239945" lon="9.994435916347678"><ele>346.3333333333333</ele><time>2026-04-10T14:31:50.001Z</time></trkpt><trkpt lat="44.767867049029874" lon="9.994226169734569"><ele>348.0</ele><time>2026-04-10T14:31:51.001Z</time></trkpt><trkpt lat="44.76789335269162" lon="9.993978602277277"><ele>348.0</ele><time>2026-04-10T14:31:52.001Z</time></trkpt><trkpt lat="44.76792472286345" lon="9.99372715344244"><ele>348.0</ele><time>2026-04-10T14:31:53.001Z</time></trkpt><trkpt lat="44.76796632610005" lon="9.993500319079484"><ele>348.0</ele><time>2026-04-10T14:31:54.001Z</time></trkpt><trkpt lat="44.76801486630893" lon="9.993283505338065"><ele>344.3333333333333</ele><time>2026-04-10T14:31:55.001Z</time></trkpt><trkpt lat="44.76806446675715" lon="9.993070623131787"><ele>340.66666666666663</ele><time>2026-04-10T14:31:56.001Z</time></trkpt><trkpt lat="44.76811114622865" lon="9.992872286979852"><ele>337.0</ele><time>2026-04-10T14:31:57.001Z</time></trkpt><trkpt lat="44.76815641310551" lon="9.992676721983248"><ele>335.0</ele><time>2026-04-10T14:31:58.001Z</time></trkpt><trkpt lat="44.7681978020923" lon="9.992498448368886"><ele>333.0</ele><time>2026-04-10T14:31:59.001Z</time></trkpt><trkpt lat="44.768230214088845" lon="9.992322390404944"><ele>331.0</ele><time>2026-04-10T14:32:00.001Z</time></trkpt><trkpt lat="44.76825150099545" lon="9.992129533977428"><ele>329.0</ele><time>2026-04-10T14:32:01.001Z</time></trkpt><trkpt lat="44.76825329354093" lon="9.991928200293021"><ele>329.0</ele><time>2026-04-10T14:32:02.001Z</time></trkpt><trkpt lat="44.76823647211999" lon="9.991740490221677"><ele>329.0</ele><time>2026-04-10T14:32:03.001Z</time></trkpt><trkpt lat="44.76820474006616" lon="9.991562411630026"><ele>329.0</ele><time>2026-04-10T14:32:04.001Z</time></trkpt><trkpt lat="44.7681883431874" lon="9.99139722776819"><ele>329.0</ele><time>2026-04-10T14:32:05.001Z</time></trkpt><trkpt lat="44.76819340470585" lon="9.991243666539868"><ele>328.2</ele><time>2026-04-10T14:32:06.001Z</time></trkpt><trkpt lat="44.768186854137" lon="9.991097249620717"><ele>327.4</ele><time>2026-04-10T14:32:07.001Z</time></trkpt><trkpt lat="44.768144263825796" lon="9.990957867309985"><ele>326.6</ele><time>2026-04-10T14:32:08.001Z</time></trkpt><trkpt lat="44.76807224287989" lon="9.99082833350367"><ele>325.8</ele><time>2026-04-10T14:32:09.001Z</time></trkpt><trkpt lat="44.767995976919735" lon="9.990735872395387"><ele>325.0</ele><time>2026-04-10T14:32:10.001Z</time></trkpt><trkpt lat="44.76791064021434" lon="9.990646193836366"><ele>324.5</ele><time>2026-04-10T14:32:11.001Z</time></trkpt><trkpt lat="44.767806673796976" lon="9.990530349390221"><ele>324.0</ele><time>2026-04-10T14:32:12.001Z</time></trkpt><trkpt lat="44.76771168105481" lon="9.99041849226054"><ele>323.5</ele><time>2026-04-10T14:32:13.001Z</time></trkpt><trkpt lat="44.76761699383988" lon="9.990300453847018"><ele>323.0</ele><time>2026-04-10T14:32:14.001Z</time></trkpt><trkpt lat="44.76752348542947" lon="9.990188071012932"><ele>322.0</ele><time>2026-04-10T14:32:15.001Z</time></trkpt><trkpt lat="44.76742070968781" lon="9.990072897526352"><ele>321.0</ele><time>2026-04-10T14:32:16.001Z</time></trkpt><trkpt lat="44.767319516925475" lon="9.989948308303672"><ele>320.0</ele><time>2026-04-10T14:32:17.001Z</time></trkpt><trkpt lat="44.767217308238635" lon="9.989813786724435"><ele>319.0</ele><time>2026-04-10T14:32:18.001Z</time></trkpt><trkpt lat="44.76712157265446" lon="9.989686034213605"><ele>319.0</ele><time>2026-04-10T14:32:19.001Z</time></trkpt><trkpt lat="44.767031798541716" lon="9.989575454314526"><ele>319.0</ele><time>2026-04-10T14:32:20.001Z</time></trkpt><trkpt lat="44.76694065712961" lon="9.989502286960956"><ele>319.0</ele><time>2026-04-10T14:32:21.001Z</time></trkpt><trkpt lat="44.76683529102735" lon="9.9894494886405"><ele>319.0</ele><time>2026-04-10T14:32:22.001Z</time></trkpt><trkpt lat="44.76672862041045" lon="9.989403406549489"><ele>319.0</ele><time>2026-04-10T14:32:23.001Z</time></trkpt><trkpt lat="44.766640481089475" lon="9.989356499398049"><ele>318.75</ele><time>2026-04-10T14:32:24.001Z</time></trkpt><trkpt lat="44.76654334870072" lon="9.98932270148191"><ele>318.5</ele><time>2026-04-10T14:32:25.001Z</time></trkpt><trkpt lat="44.766434781234025" lon="9.989274983762849"><ele>318.25</ele><time>2026-04-10T14:32:26.001Z</time></trkpt><trkpt lat="44.76632704632311" lon="9.989200327121715"><ele>318.0</ele><time>2026-04-10T14:32:27.001Z</time></trkpt><trkpt lat="44.76622667292244" lon="9.989113087124396"><ele>318.8</ele><time>2026-04-10T14:32:28.001Z</time></trkpt><trkpt lat="44.76613079443485" lon="9.989025743655777"><ele>319.6</ele><time>2026-04-10T14:32:29.001Z</time></trkpt><trkpt lat="44.76603759264242" lon="9.988938453748549"><ele>320.40000000000003</ele><time>2026-04-10T14:32:30.001Z</time></trkpt><trkpt lat="44.765951824412475" lon="9.988847154665148"><ele>321.20000000000005</ele><time>2026-04-10T14:32:31.001Z</time></trkpt><trkpt lat="44.765866669572574" lon="9.988771915254528"><ele>322.0</ele><time>2026-04-10T14:32:32.001Z</time></trkpt><trkpt lat="44.76578344944267" lon="9.988704303088287"><ele>325.0</ele><time>2026-04-10T14:32:33.001Z</time></trkpt><trkpt lat="44.76569712304022" lon="9.988639426326909"><ele>328.0</ele><time>2026-04-10T14:32:34.001Z</time></trkpt><trkpt lat="44.765609153857525" lon="9.988574476438803"><ele>331.0</ele><time>2026-04-10T14:32:35.001Z</time></trkpt><trkpt lat="44.76552120309203" lon="9.98851037607077"><ele>334.0</ele><time>2026-04-10T14:32:36.001Z</time></trkpt><trkpt lat="44.765453414188755" lon="9.988457787788299"><ele>337.0</ele><time>2026-04-10T14:32:37.001Z</time></trkpt><trkpt lat="44.76534466254461" lon="9.988366165923708"><ele>337.40000000000003</ele><time>2026-04-10T14:32:39.001Z</time></trkpt><trkpt lat="44.765270560227464" lon="9.988306878949196"><ele>337.8</ele><time>2026-04-10T14:32:40.001Z</time></trkpt><trkpt lat="44.7651820959511" lon="9.988237271587364"><ele>338.2</ele><time>2026-04-10T14:32:41.001Z</time></trkpt><trkpt lat="44.765093762314656" lon="9.988174411838845"><ele>338.6</ele><time>2026-04-10T14:32:42.001Z</time></trkpt><trkpt lat="44.76499183859824" lon="9.98813414445142"><ele>339.0</ele><time>2026-04-10T14:32:43.001Z</time></trkpt><trkpt lat="44.76487370795148" lon="9.98808689042794"><ele>339.25</ele><time>2026-04-10T14:32:44.001Z</time></trkpt><trkpt lat="44.764750772270204" lon="9.988011613914273"><ele>339.5</ele><time>2026-04-10T14:32:45.001Z</time></trkpt><trkpt lat="44.7646402649554" lon="9.98794623536459"><ele>339.75</ele><time>2026-04-10T14:32:46.001Z</time></trkpt><trkpt lat="44.764533652572645" lon="9.987908932598561"><ele>340.0</ele><time>2026-04-10T14:32:47.001Z</time></trkpt><trkpt lat="44.764420161898535" lon="9.987899492388971"><ele>338.2</ele><time>2026-04-10T14:32:48.001Z</time></trkpt><trkpt lat="44.76429466982929" lon="9.987905283406507"><ele>336.4</ele><time>2026-04-10T14:32:49.001Z</time></trkpt><trkpt lat="44.76417324305572" lon="9.987922498009485"><ele>334.6</ele><time>2026-04-10T14:32:50.001Z</time></trkpt><trkpt lat="44.76407328840947" lon="9.987930508548757"><ele>332.8</ele><time>2026-04-10T14:32:51.001Z</time></trkpt><trkpt lat="44.763984203383586" lon="9.987928626963658"><ele>331.0</ele><time>2026-04-10T14:32:52.001Z</time></trkpt><trkpt lat="44.76391078901388" lon="9.987945596592361"><ele>331.0</ele><time>2026-04-10T14:32:53.001Z</time></trkpt><trkpt lat="44.76383279856742" lon="9.987947955204698"><ele>331.0</ele><time>2026-04-10T14:32:54.001Z</time></trkpt><trkpt lat="44.763763009159284" lon="9.987906263649528"><ele>331.0</ele><time>2026-04-10T14:32:55.001Z</time></trkpt><trkpt lat="44.763702531521716" lon="9.98781591119622"><ele>331.0</ele><time>2026-04-10T14:32:56.001Z</time></trkpt><trkpt lat="44.763689022978" lon="9.987694417284194"><ele>331.0</ele><time>2026-04-10T14:32:57.001Z</time></trkpt><trkpt lat="44.76371635079441" lon="9.987557539321205"><ele>331.0</ele><time>2026-04-10T14:32:58.001Z</time></trkpt><trkpt lat="44.763761795958956" lon="9.987390068556348"><ele>334.3333333333333</ele><time>2026-04-10T14:32:59.001Z</time></trkpt><trkpt lat="44.7638146727608" lon="9.987186310007235"><ele>337.6666666666667</ele><time>2026-04-10T14:33:00.001Z</time></trkpt><trkpt lat="44.76387766050728" lon="9.986965175027436"><ele>341.0</ele><time>2026-04-10T14:33:01.001Z</time></trkpt><trkpt lat="44.76394322577538" lon="9.986766575682836"><ele>340.0</ele><time>2026-04-10T14:33:02.001Z</time></trkpt><trkpt lat="44.764008618281814" lon="9.98659042256711"><ele>339.0</ele><time>2026-04-10T14:33:03.001Z</time></trkpt><trkpt lat="44.76407281793515" lon="9.98644046846029"><ele>338.0</ele><time>2026-04-10T14:33:04.001Z</time></trkpt><trkpt lat="44.76412867175476" lon="9.986292219529815"><ele>337.0</ele><time>2026-04-10T14:33:05.001Z</time></trkpt><trkpt lat="44.76416307529268" lon="9.986145008874251"><ele>337.0</ele><time>2026-04-10T14:33:06.001Z</time></trkpt><trkpt lat="44.76416443894758" lon="9.985999834113349"><ele>337.0</ele><time>2026-04-10T14:33:07.001Z</time></trkpt><trkpt lat="44.76414035492286" lon="9.985829273921137"><ele>337.0</ele><time>2026-04-10T14:33:08.001Z</time></trkpt><trkpt lat="44.7640932500613" lon="9.985632013674042"><ele>337.0</ele><time>2026-04-10T14:33:09.001Z</time></trkpt><trkpt lat="44.76404682641627" lon="9.985431579951026"><ele>336.75</ele><time>2026-04-10T14:33:10.001Z</time></trkpt><trkpt lat="44.76399854907326" lon="9.985247213387728"><ele>336.5</ele><time>2026-04-10T14:33:11.001Z</time></trkpt><trkpt lat="44.763929340959216" lon="9.98508895607089"><ele>336.25</ele><time>2026-04-10T14:33:12.001Z</time></trkpt><trkpt lat="44.76382488185477" lon="9.984962681400766"><ele>336.0</ele><time>2026-04-10T14:33:13.001Z</time></trkpt><trkpt lat="44.76369224785574" lon="9.98485634086345"><ele>336.0</ele><time>2026-04-10T14:33:14.001Z</time></trkpt><trkpt lat="44.76353852890514" lon="9.984729014924856"><ele>336.0</ele><time>2026-04-10T14:33:15.001Z</time></trkpt><trkpt lat="44.76338584045009" lon="9.984563850095514"><ele>336.0</ele><time>2026-04-10T14:33:16.001Z</time></trkpt><trkpt lat="44.76322057088441" lon="9.984402529589644"><ele>334.3333333333333</ele><time>2026-04-10T14:33:17.001Z</time></trkpt><trkpt lat="44.763052387189084" lon="9.984274650613932"><ele>332.66666666666663</ele><time>2026-04-10T14:33:18.001Z</time></trkpt><trkpt lat="44.76290778801827" lon="9.984153795906066"><ele>331.0</ele><time>2026-04-10T14:33:19.001Z</time></trkpt><trkpt lat="44.762781341770285" lon="9.984008184784267"><ele>328.5</ele><time>2026-04-10T14:33:20.001Z</time></trkpt><trkpt lat="44.76268092055924" lon="9.983851163659207"><ele>326.0</ele><time>2026-04-10T14:33:21.001Z</time></trkpt><trkpt lat="44.76259192395219" lon="9.9837162753129"><ele>323.5</ele><time>2026-04-10T14:33:22.001Z</time></trkpt><trkpt lat="44.7625182947285" lon="9.983624914458343"><ele>321.0</ele><time>2026-04-10T14:33:23.001Z</time></trkpt><trkpt lat="44.762439815211415" lon="9.983577433764355"><ele>321.0</ele><time>2026-04-10T14:33:24.001Z</time></trkpt><trkpt lat="44.762345433346624" lon="9.98359039248902"><ele>321.0</ele><time>2026-04-10T14:33:25.001Z</time></trkpt><trkpt lat="44.76224002542746" lon="9.98366214375184"><ele>321.0</ele><time>2026-04-10T14:33:26.001Z</time></trkpt><trkpt lat="44.76213513793303" lon="9.983780293290545"><ele>321.0</ele><time>2026-04-10T14:33:27.001Z</time></trkpt><trkpt lat="44.762052879046344" lon="9.983931355480246"><ele>321.0</ele><time>2026-04-10T14:33:28.001Z</time></trkpt><trkpt lat="44.7619954385032" lon="9.984093626920854"><ele>321.0</ele><time>2026-04-10T14:33:29.001Z</time></trkpt><trkpt lat="44.761962026650735" lon="9.984248805208669"><ele>321.0</ele><time>2026-04-10T14:33:30.001Z</time></trkpt><trkpt lat="44.76191784013057" lon="9.984373582749168"><ele>321.0</ele><time>2026-04-10T14:33:31.001Z</time></trkpt><trkpt lat="44.76183915487296" lon="9.984450311548423"><ele>321.0</ele><time>2026-04-10T14:33:32.001Z</time></trkpt><trkpt lat="44.76174434059639" lon="9.984469533230756"><ele>320.5</ele><time>2026-04-10T14:33:33.001Z</time></trkpt><trkpt lat="44.76164812964992" lon="9.984426227695218"><ele>320.0</ele><time>2026-04-10T14:33:34.001Z</time></trkpt><trkpt lat="44.761545674322996" lon="9.984331429352707"><ele>319.5</ele><time>2026-04-10T14:33:35.001Z</time></trkpt><trkpt lat="44.76143950619283" lon="9.984204087961931"><ele>319.0</ele><time>2026-04-10T14:33:36.001Z</time></trkpt><trkpt lat="44.76132890656712" lon="9.984067504060977"><ele>319.0</ele><time>2026-04-10T14:33:37.001Z</time></trkpt><trkpt lat="44.76122459216272" lon="9.98393436241581"><ele>319.0</ele><time>2026-04-10T14:33:38.001Z</time></trkpt><trkpt lat="44.76112948197428" lon="9.983810545438297"><ele>319.0</ele><time>2026-04-10T14:33:39.001Z</time></trkpt><trkpt lat="44.761039997529" lon="9.983688741117277"><ele>319.0</ele><time>2026-04-10T14:33:40.001Z</time></trkpt><trkpt lat="44.760950098968294" lon="9.983589034405966"><ele>317.59999999999997</ele><time>2026-04-10T14:33:41.001Z</time></trkpt><trkpt lat="44.76085406589394" lon="9.98351557313345"><ele>316.2</ele><time>2026-04-10T14:33:42.001Z</time></trkpt><trkpt lat="44.76075831683432" lon="9.983496230980991"><ele>314.79999999999995</ele><time>2026-04-10T14:33:43.001Z</time></trkpt><trkpt lat="44.76066311836405" lon="9.983543843488924"><ele>313.4</ele><time>2026-04-10T14:33:44.001Z</time></trkpt><trkpt lat="44.76056644267143" lon="9.983646496138174"><ele>312.0</ele><time>2026-04-10T14:33:45.001Z</time></trkpt><trkpt lat="44.76045731046754" lon="9.983781011949203"><ele>312.0</ele><time>2026-04-10T14:33:46.001Z</time></trkpt><trkpt lat="44.76032613270289" lon="9.983917897946181"><ele>312.0</ele><time>2026-04-10T14:33:47.001Z</time></trkpt><trkpt lat="44.76019455643111" lon="9.984044436005926"><ele>312.0</ele><time>2026-04-10T14:33:48.001Z</time></trkpt><trkpt lat="44.76007178576028" lon="9.984164448130636"><ele>310.0</ele><time>2026-04-10T14:33:49.001Z</time></trkpt><trkpt lat="44.75996392186302" lon="9.984273262155199"><ele>308.0</ele><time>2026-04-10T14:33:50.001Z</time></trkpt><trkpt lat="44.759864427883855" lon="9.984376858297292"><ele>306.0</ele><time>2026-04-10T14:33:51.001Z</time></trkpt><trkpt lat="44.75979014929827" lon="9.984495746025559"><ele>304.0</ele><time>2026-04-10T14:33:52.001Z</time></trkpt><trkpt lat="44.75974424308149" lon="9.984666199710391"><ele>304.0</ele><time>2026-04-10T14:33:53.001Z</time></trkpt><trkpt lat="44.7597337937325" lon="9.984880338450056"><ele>304.0</ele><time>2026-04-10T14:33:54.001Z</time></trkpt><trkpt lat="44.759764052535346" lon="9.985117835174615"><ele>304.0</ele><time>2026-04-10T14:33:55.001Z</time></trkpt><trkpt lat="44.75980158480748" lon="9.985346304076922"><ele>303.5</ele><time>2026-04-10T14:33:56.001Z</time></trkpt><trkpt lat="44.75986285081567" lon="9.985442055391463"><ele>303.0</ele><time>2026-04-10T14:33:57.001Z</time></trkpt><trkpt lat="44.75990803473514" lon="9.985611874642172"><ele>302.5</ele><time>2026-04-10T14:33:58.001Z</time></trkpt><trkpt lat="44.759909084363485" lon="9.985812851838926"><ele>302.0</ele><time>2026-04-10T14:33:59.001Z</time></trkpt><trkpt lat="44.759879902342554" lon="9.98602215762848"><ele>301.25</ele><time>2026-04-10T14:34:00.001Z</time></trkpt><trkpt lat="44.759830042325774" lon="9.986221101687256"><ele>300.5</ele><time>2026-04-10T14:34:01.001Z</time></trkpt><trkpt lat="44.75977706269988" lon="9.986409543806484"><ele>299.75</ele><time>2026-04-10T14:34:02.001Z</time></trkpt><trkpt lat="44.759729627477654" lon="9.98658142552195"><ele>299.0</ele><time>2026-04-10T14:34:03.001Z</time></trkpt><trkpt lat="44.759689087273735" lon="9.986739010435478"><ele>297.75</ele><time>2026-04-10T14:34:04.001Z</time></trkpt><trkpt lat="44.75965095654148" lon="9.986921216973794"><ele>296.5</ele><time>2026-04-10T14:34:05.001Z</time></trkpt><trkpt lat="44.75964440529053" lon="9.987112184767211"><ele>295.25</ele><time>2026-04-10T14:34:06.001Z</time></trkpt><trkpt lat="44.75966340240639" lon="9.98731292681092"><ele>294.0</ele><time>2026-04-10T14:34:07.001Z</time></trkpt><trkpt lat="44.75968193175653" lon="9.987495644771343"><ele>292.0</ele><time>2026-04-10T14:34:08.001Z</time></trkpt><trkpt lat="44.75967372036183" lon="9.987658708638612"><ele>290.0</ele><time>2026-04-10T14:34:09.001Z</time></trkpt><trkpt lat="44.75963009212934" lon="9.987799924314757"><ele>288.0</ele><time>2026-04-10T14:34:10.001Z</time></trkpt><trkpt lat="44.759539063448" lon="9.987923968437341"><ele>286.0</ele><time>2026-04-10T14:34:11.001Z</time></trkpt><trkpt lat="44.7594296286275" lon="9.988047502552563"><ele>286.75</ele><time>2026-04-10T14:34:12.001Z</time></trkpt><trkpt lat="44.75935120869883" lon="9.988178653798501"><ele>287.5</ele><time>2026-04-10T14:34:13.001Z</time></trkpt><trkpt lat="44.75929853955477" lon="9.988357962961672"><ele>288.25</ele><time>2026-04-10T14:34:14.001Z</time></trkpt><trkpt lat="44.75924945412625" lon="9.98856604161049"><ele>289.0</ele><time>2026-04-10T14:34:15.001Z</time></trkpt><trkpt lat="44.75921030346007" lon="9.988746296313543"><ele>289.0</ele><time>2026-04-10T14:34:16.001Z</time></trkpt><trkpt lat="44.75917669060874" lon="9.988901634513365"><ele>289.0</ele><time>2026-04-10T14:34:17.001Z</time></trkpt><trkpt lat="44.75913942007492" lon="9.989017510119872"><ele>289.0</ele><time>2026-04-10T14:34:18.001Z</time></trkpt><trkpt lat="44.7590883900787" lon="9.989087635716084"><ele>289.0</ele><time>2026-04-10T14:34:19.001Z</time></trkpt><trkpt lat="44.75901702643147" lon="9.989101346681187"><ele>289.0</ele><time>2026-04-10T14:34:20.001Z</time></trkpt><trkpt lat="44.75892800461815" lon="9.989053869973805"><ele>289.0</ele><time>2026-04-10T14:34:21.001Z</time></trkpt><trkpt lat="44.758851177076075" lon="9.988945132004604"><ele>289.0</ele><time>2026-04-10T14:34:22.001Z</time></trkpt><trkpt lat="44.75877313840405" lon="9.9888000904313"><ele>289.0</ele><time>2026-04-10T14:34:23.001Z</time></trkpt><trkpt lat="44.75868737845747" lon="9.988610139883026"><ele>289.0</ele><time>2026-04-10T14:34:24.001Z</time></trkpt><trkpt lat="44.75860160012697" lon="9.988427929205457"><ele>289.0</ele><time>2026-04-10T14:34:25.001Z</time></trkpt><trkpt lat="44.75851662393267" lon="9.988260884273076"><ele>288.25</ele><time>2026-04-10T14:34:26.001Z</time></trkpt><trkpt lat="44.75844568471086" lon="9.988094767275653"><ele>287.5</ele><time>2026-04-10T14:34:27.001Z</time></trkpt><trkpt lat="44.758380292859584" lon="9.987916510842183"><ele>286.75</ele><time>2026-04-10T14:34:28.001Z</time></trkpt><trkpt lat="44.758334876089314" lon="9.987733785650507"><ele>286.0</ele><time>2026-04-10T14:34:29.001Z</time></trkpt><trkpt lat="44.75831573276581" lon="9.987553461149314"><ele>287.75</ele><time>2026-04-10T14:34:30.001Z</time></trkpt><trkpt lat="44.75830362888937" lon="9.98739235794557"><ele>289.5</ele><time>2026-04-10T14:34:31.001Z</time></trkpt><trkpt lat="44.75825772582738" lon="9.98724807208688"><ele>291.25</ele><time>2026-04-10T14:34:32.001Z</time></trkpt><trkpt lat="44.75816327810326" lon="9.987116308104277"><ele>293.0</ele><time>2026-04-10T14:34:33.001Z</time></trkpt><trkpt lat="44.758027666298844" lon="9.987017296437536"><ele>293.0</ele><time>2026-04-10T14:34:34.001Z</time></trkpt><trkpt lat="44.757875740660324" lon="9.986961042292673"><ele>293.0</ele><time>2026-04-10T14:34:35.001Z</time></trkpt><trkpt lat="44.757728017943954" lon="9.986894674123175"><ele>293.0</ele><time>2026-04-10T14:34:36.001Z</time></trkpt><trkpt lat="44.7576046306737" lon="9.98682994441305"><ele>293.0</ele><time>2026-04-10T14:34:37.001Z</time></trkpt><trkpt lat="44.757472062893164" lon="9.986807070229656"><ele>287.33333333333337</ele><time>2026-04-10T14:34:38.001Z</time></trkpt><trkpt lat="44.757336952394795" lon="9.986850058229859"><ele>281.6666666666667</ele><time>2026-04-10T14:34:39.001Z</time></trkpt><trkpt lat="44.75719905592131" lon="9.986946577544778"><ele>276.0</ele><time>2026-04-10T14:34:40.001Z</time></trkpt><trkpt lat="44.75706061239498" lon="9.987090324513593"><ele>276.0</ele><time>2026-04-10T14:34:41.001Z</time></trkpt><trkpt lat="44.756917724629574" lon="9.98724198821207"><ele>276.0</ele><time>2026-04-10T14:34:42.001Z</time></trkpt><trkpt lat="44.756780058068294" lon="9.987367245271804"><ele>276.0</ele><time>2026-04-10T14:34:43.001Z</time></trkpt><trkpt lat="44.75663395264441" lon="9.987470021022146"><ele>272.5</ele><time>2026-04-10T14:34:44.001Z</time></trkpt><trkpt lat="44.756487347403485" lon="9.98753455013658"><ele>269.0</ele><time>2026-04-10T14:34:45.001Z</time></trkpt><trkpt lat="44.756346220730485" lon="9.987592748158853"><ele>265.5</ele><time>2026-04-10T14:34:46.001Z</time></trkpt><trkpt lat="44.7562126384284" lon="9.987644236812134"><ele>262.0</ele><time>2026-04-10T14:34:47.001Z</time></trkpt><trkpt lat="44.75607903078224" lon="9.987670016171771"><ele>261.0</ele><time>2026-04-10T14:34:48.001Z</time></trkpt><trkpt lat="44.75594307134784" lon="9.98766611746687"><ele>260.0</ele><time>2026-04-10T14:34:49.001Z</time></trkpt><trkpt lat="44.75581930901175" lon="9.987634013854167"><ele>259.0</ele><time>2026-04-10T14:34:50.001Z</time></trkpt><trkpt lat="44.75570255929443" lon="9.987609781637062"><ele>258.0</ele><time>2026-04-10T14:34:51.001Z</time></trkpt><trkpt lat="44.75560943777928" lon="9.98760406862425"><ele>258.0</ele><time>2026-04-10T14:34:52.001Z</time></trkpt><trkpt lat="44.75550625081099" lon="9.987688281295567"><ele>258.0</ele><time>2026-04-10T14:34:54.001Z</time></trkpt><trkpt lat="44.75550219260643" lon="9.987786765700301"><ele>258.0</ele><time>2026-04-10T14:34:55.001Z</time></trkpt><trkpt lat="44.75554306072563" lon="9.987891131172605"><ele>258.0</ele><time>2026-04-10T14:34:56.001Z</time></trkpt><trkpt lat="44.75562110589355" lon="9.987964774911777"><ele>258.0</ele><time>2026-04-10T14:34:57.001Z</time></trkpt><trkpt lat="44.755721997050856" lon="9.988033866745914"><ele>258.0</ele><time>2026-04-10T14:34:58.001Z</time></trkpt><trkpt lat="44.75584251846424" lon="9.98810000137173"><ele>258.0</ele><time>2026-04-10T14:34:59.001Z</time></trkpt><trkpt lat="44.75597395202039" lon="9.988165065998333"><ele>258.0</ele><time>2026-04-10T14:35:00.001Z</time></trkpt><trkpt lat="44.75609691905696" lon="9.988247853948398"><ele>258.0</ele><time>2026-04-10T14:35:01.001Z</time></trkpt><trkpt lat="44.75621304013467" lon="9.988334176752542"><ele>256.75</ele><time>2026-04-10T14:35:02.001Z</time></trkpt><trkpt lat="44.75633834454523" lon="9.988420696789618"><ele>255.5</ele><time>2026-04-10T14:35:03.001Z</time></trkpt><trkpt lat="44.75647783707273" lon="9.988496532182168"><ele>254.25</ele><time>2026-04-10T14:35:04.001Z</time></trkpt><trkpt lat="44.75662417314716" lon="9.988559323598965"><ele>253.0</ele><time>2026-04-10T14:35:05.001Z</time></trkpt><trkpt lat="44.7567608269714" lon="9.988591063691741"><ele>255.2</ele><time>2026-04-10T14:35:06.001Z</time></trkpt><trkpt lat="44.75687072007591" lon="9.988619440649916"><ele>257.4</ele><time>2026-04-10T14:35:07.001Z</time></trkpt><trkpt lat="44.75695423217013" lon="9.988653015023246"><ele>259.59999999999997</ele><time>2026-04-10T14:35:08.001Z</time></trkpt><trkpt lat="44.75701639918243" lon="9.988722020692348"><ele>261.8</ele><time>2026-04-10T14:35:09.001Z</time></trkpt><trkpt lat="44.75706562646487" lon="9.988844233347482"><ele>264.0</ele><time>2026-04-10T14:35:10.001Z</time></trkpt><trkpt lat="44.75709470770076" lon="9.989002831126493"><ele>262.75</ele><time>2026-04-10T14:35:11.001Z</time></trkpt><trkpt lat="44.75709844986522" lon="9.989178058301297"><ele>261.5</ele><time>2026-04-10T14:35:12.001Z</time></trkpt><trkpt lat="44.75709123490372" lon="9.989364804618813"><ele>260.25</ele><time>2026-04-10T14:35:13.001Z</time></trkpt><trkpt lat="44.75709473783674" lon="9.989548006012178"><ele>259.0</ele><time>2026-04-10T14:35:14.001Z</time></trkpt><trkpt lat="44.757114127014965" lon="9.989705317650394"><ele>259.0</ele><time>2026-04-10T14:35:15.001Z</time></trkpt><trkpt lat="44.75715933373245" lon="9.989871418517733"><ele>259.0</ele><time>2026-04-10T14:35:16.001Z</time></trkpt><trkpt lat="44.75724011685089" lon="9.990057762199434"><ele>259.0</ele><time>2026-04-10T14:35:17.001Z</time></trkpt><trkpt lat="44.75734168556289" lon="9.990247517522207"><ele>257.0</ele><time>2026-04-10T14:35:18.001Z</time></trkpt><trkpt lat="44.75743540062969" lon="9.990436393792226"><ele>255.0</ele><time>2026-04-10T14:35:19.001Z</time></trkpt><trkpt lat="44.757501479836286" lon="9.990620233897634"><ele>253.0</ele><time>2026-04-10T14:35:20.001Z</time></trkpt><trkpt lat="44.75754523446653" lon="9.990799123417535"><ele>251.0</ele><time>2026-04-10T14:35:21.001Z</time></trkpt><trkpt lat="44.75756788885408" lon="9.990973306610442"><ele>250.75</ele><time>2026-04-10T14:35:22.001Z</time></trkpt><trkpt lat="44.75759354197545" lon="9.991134520944142"><ele>250.5</ele><time>2026-04-10T14:35:23.001Z</time></trkpt><trkpt lat="44.75765082832333" lon="9.991266127096738"><ele>250.25</ele><time>2026-04-10T14:35:24.001Z</time></trkpt><trkpt lat="44.7577387539701" lon="9.99136684841678"><ele>250.0</ele><time>2026-04-10T14:35:25.001Z</time></trkpt><trkpt lat="44.75784154254643" lon="9.991429328129648"><ele>250.0</ele><time>2026-04-10T14:35:26.001Z</time></trkpt><trkpt lat="44.75793236964496" lon="9.99147178780862"><ele>250.0</ele><time>2026-04-10T14:35:27.001Z</time></trkpt><trkpt lat="44.7580075942608" lon="9.991537981678784"><ele>250.0</ele><time>2026-04-10T14:35:28.001Z</time></trkpt><trkpt lat="44.75805559898522" lon="9.991650833623165"><ele>250.0</ele><time>2026-04-10T14:35:29.001Z</time></trkpt><trkpt lat="44.758067634305924" lon="9.991785387057774"><ele>250.0</ele><time>2026-04-10T14:35:30.001Z</time></trkpt><trkpt lat="44.75804353617516" lon="9.991922624417695"><ele>248.4</ele><time>2026-04-10T14:35:31.001Z</time></trkpt><trkpt lat="44.7580194118676" lon="9.992041161412384"><ele>246.8</ele><time>2026-04-10T14:35:32.001Z</time></trkpt><trkpt lat="44.758018450068775" lon="9.992184905732369"><ele>245.2</ele><time>2026-04-10T14:35:33.001Z</time></trkpt><trkpt lat="44.75805371384796" lon="9.992339434146677"><ele>243.6</ele><time>2026-04-10T14:35:34.001Z</time></trkpt><trkpt lat="44.75811252534214" lon="9.992490982467832"><ele>242.0</ele><time>2026-04-10T14:35:35.001Z</time></trkpt><trkpt lat="44.7581653984493" lon="9.992619466751"><ele>240.39999999999998</ele><time>2026-04-10T14:35:36.001Z</time></trkpt><trkpt lat="44.758212071268275" lon="9.99273974670086"><ele>238.79999999999998</ele><time>2026-04-10T14:35:37.001Z</time></trkpt><trkpt lat="44.75826798584651" lon="9.992834878410795"><ele>237.2</ele><time>2026-04-10T14:35:38.001Z</time></trkpt><trkpt lat="44.75832395178957" lon="9.9928990120875"><ele>235.6</ele><time>2026-04-10T14:35:39.001Z</time></trkpt><trkpt lat="44.75841547661813" lon="9.992953962073035"><ele>234.0</ele><time>2026-04-10T14:35:41.001Z</time></trkpt><trkpt lat="44.7585225946885" lon="9.993003222567014"><ele>234.75</ele><time>2026-04-10T14:35:43.001Z</time></trkpt><trkpt lat="44.75862373131695" lon="9.993034017806119"><ele>235.5</ele><time>2026-04-10T14:35:44.001Z</time></trkpt><trkpt lat="44.75872950781817" lon="9.993070628149999"><ele>236.25</ele><time>2026-04-10T14:35:45.001Z</time></trkpt><trkpt lat="44.758843942772835" lon="9.993107440877031"><ele>237.0</ele><time>2026-04-10T14:35:46.001Z</time></trkpt><trkpt lat="44.75896506371682" lon="9.993141679349986"><ele>237.0</ele><time>2026-04-10T14:35:47.001Z</time></trkpt><trkpt lat="44.759096576264916" lon="9.993179296505314"><ele>237.0</ele><time>2026-04-10T14:35:48.001Z</time></trkpt><trkpt lat="44.759218535772895" lon="9.993219619107975"><ele>237.0</ele><time>2026-04-10T14:35:49.001Z</time></trkpt><trkpt lat="44.75933149276805" lon="9.993253195878054"><ele>237.0</ele><time>2026-04-10T14:35:50.001Z</time></trkpt><trkpt lat="44.759445937408" lon="9.99329975994318"><ele>237.5</ele><time>2026-04-10T14:35:51.001Z</time></trkpt><trkpt lat="44.759549730825015" lon="9.99338118623108"><ele>238.0</ele><time>2026-04-10T14:35:52.001Z</time></trkpt><trkpt lat="44.7596205184347" lon="9.993502822885377"><ele>238.5</ele><time>2026-04-10T14:35:53.001Z</time></trkpt><trkpt lat="44.75966895502077" lon="9.993665138091682"><ele>239.0</ele><time>2026-04-10T14:35:54.001Z</time></trkpt><trkpt lat="44.75970102773076" lon="9.993867826023454"><ele>239.0</ele><time>2026-04-10T14:35:55.001Z</time></trkpt><trkpt lat="44.759727208401166" lon="9.99410087708492"><ele>239.0</ele><time>2026-04-10T14:35:56.001Z</time></trkpt><trkpt lat="44.759759975369896" lon="9.994350969189512"><ele>239.0</ele><time>2026-04-10T14:35:57.001Z</time></trkpt><trkpt lat="44.75980052610287" lon="9.994601361078946"><ele>238.0</ele><time>2026-04-10T14:35:58.001Z</time></trkpt><trkpt lat="44.75982384356248" lon="9.994834190958596"><ele>237.0</ele><time>2026-04-10T14:35:59.001Z</time></trkpt><trkpt lat="44.75982055553763" lon="9.995097419674188"><ele>236.0</ele><time>2026-04-10T14:36:00.001Z</time></trkpt><trkpt lat="44.75978510577749" lon="9.995354076406205"><ele>234.66666666666669</ele><time>2026-04-10T14:36:01.001Z</time></trkpt><trkpt lat="44.75973036642387" lon="9.995604626087902"><ele>233.33333333333331</ele><time>2026-04-10T14:36:02.001Z</time></trkpt><trkpt lat="44.759675911558595" lon="9.995842314080344"><ele>232.0</ele><time>2026-04-10T14:36:03.001Z</time></trkpt><trkpt lat="44.759633141440965" lon="9.996049584095186"><ele>231.5</ele><time>2026-04-10T14:36:04.001Z</time></trkpt><trkpt lat="44.759602870798695" lon="9.996230015418902"><ele>231.0</ele><time>2026-04-10T14:36:05.001Z</time></trkpt><trkpt lat="44.75958372984204" lon="9.99638322835885"><ele>230.5</ele><time>2026-04-10T14:36:06.001Z</time></trkpt><trkpt lat="44.7595823544103" lon="9.99654390007995"><ele>230.0</ele><time>2026-04-10T14:36:07.001Z</time></trkpt><trkpt lat="44.7596102785936" lon="9.99673000115661"><ele>231.66666666666669</ele><time>2026-04-10T14:36:08.001Z</time></trkpt><trkpt lat="44.75966586947277" lon="9.996930748335478"><ele>233.33333333333331</ele><time>2026-04-10T14:36:09.001Z</time></trkpt><trkpt lat="44.75974690754577" lon="9.997144546238662"><ele>235.0</ele><time>2026-04-10T14:36:10.001Z</time></trkpt><trkpt lat="44.75984303119322" lon="9.997363901482556"><ele>237.0</ele><time>2026-04-10T14:36:11.001Z</time></trkpt><trkpt lat="44.75994561232286" lon="9.997566844691084"><ele>239.0</ele><time>2026-04-10T14:36:12.001Z</time></trkpt><trkpt lat="44.760058926751256" lon="9.997736012878827"><ele>241.0</ele><time>2026-04-10T14:36:13.001Z</time></trkpt><trkpt lat="44.76018638536377" lon="9.997881274319951"><ele>239.60000000000002</ele><time>2026-04-10T14:36:14.001Z</time></trkpt><trkpt lat="44.76029614285993" lon="9.998002092448226"><ele>238.20000000000002</ele><time>2026-04-10T14:36:15.001Z</time></trkpt><trkpt lat="44.76038680807601" lon="9.998132994321104"><ele>236.79999999999998</ele><time>2026-04-10T14:36:16.001Z</time></trkpt><trkpt lat="44.760444588028854" lon="9.99824359446818"><ele>235.39999999999998</ele><time>2026-04-10T14:36:17.001Z</time></trkpt><trkpt lat="44.760470727121444" lon="9.99835167116682"><ele>234.0</ele><time>2026-04-10T14:36:18.001Z</time></trkpt><trkpt lat="44.76046622967386" lon="9.99849822242605"><ele>234.0</ele><time>2026-04-10T14:36:19.001Z</time></trkpt><trkpt lat="44.76044849708356" lon="9.998684554378512"><ele>234.0</ele><time>2026-04-10T14:36:20.001Z</time></trkpt><trkpt lat="44.76042505793584" lon="9.998910930839623"><ele>234.0</ele><time>2026-04-10T14:36:21.001Z</time></trkpt><trkpt lat="44.760401969337096" lon="9.999131580384262"><ele>234.66666666666669</ele><time>2026-04-10T14:36:22.001Z</time></trkpt><trkpt lat="44.760382816373195" lon="9.999366120242053"><ele>235.33333333333334</ele><time>2026-04-10T14:36:23.001Z</time></trkpt><trkpt lat="44.76038174815832" lon="9.999577777413828"><ele>236.0</ele><time>2026-04-10T14:36:24.001Z</time></trkpt><trkpt lat="44.76038349785871" lon="9.9997998201784"><ele>236.0</ele><time>2026-04-10T14:36:25.001Z</time></trkpt><trkpt lat="44.76037123787494" lon="10.000054311838658"><ele>236.0</ele><time>2026-04-10T14:36:26.001Z</time></trkpt><trkpt lat="44.76034633829685" lon="10.000323519714616"><ele>236.0</ele><time>2026-04-10T14:36:27.001Z</time></trkpt><trkpt lat="44.76033500049441" lon="10.000595449740945"><ele>239.0</ele><time>2026-04-10T14:36:28.001Z</time></trkpt><trkpt lat="44.76033793546858" lon="10.000866757054728"><ele>242.0</ele><time>2026-04-10T14:36:29.001Z</time></trkpt><trkpt lat="44.76034124754831" lon="10.001097501767418"><ele>245.0</ele><time>2026-04-10T14:36:30.001Z</time></trkpt><trkpt lat="44.76033985229922" lon="10.00130983960792"><ele>245.0</ele><time>2026-04-10T14:36:31.001Z</time></trkpt><trkpt lat="44.76032518345062" lon="10.001495456777095"><ele>245.0</ele><time>2026-04-10T14:36:32.001Z</time></trkpt><trkpt lat="44.760288493482534" lon="10.001666608398372"><ele>245.0</ele><time>2026-04-10T14:36:33.001Z</time></trkpt><trkpt lat="44.760230902001254" lon="10.001819540812276"><ele>245.0</ele><time>2026-04-10T14:36:34.001Z</time></trkpt><trkpt lat="44.76018452684137" lon="10.00196116694323"><ele>245.0</ele><time>2026-04-10T14:36:35.001Z</time></trkpt><trkpt lat="44.76017535601659" lon="10.002125687028173"><ele>245.0</ele><time>2026-04-10T14:36:36.001Z</time></trkpt><trkpt lat="44.76020945515474" lon="10.002297375590674"><ele>245.0</ele><time>2026-04-10T14:36:37.001Z</time></trkpt><trkpt lat="44.76027304122542" lon="10.002468289603755"><ele>245.0</ele><time>2026-04-10T14:36:38.001Z</time></trkpt><trkpt lat="44.76033770649705" lon="10.002639666572684"><ele>245.66666666666669</ele><time>2026-04-10T14:36:39.001Z</time></trkpt><trkpt lat="44.76037990711934" lon="10.002827227708678"><ele>246.33333333333331</ele><time>2026-04-10T14:36:40.001Z</time></trkpt><trkpt lat="44.760392953684736" lon="10.003043656290622"><ele>247.0</ele><time>2026-04-10T14:36:41.001Z</time></trkpt><trkpt lat="44.76037811301876" lon="10.003281787575116"><ele>248.25</ele><time>2026-04-10T14:36:42.001Z</time></trkpt><trkpt lat="44.76035082956805" lon="10.003512971115459"><ele>249.5</ele><time>2026-04-10T14:36:43.001Z</time></trkpt><trkpt lat="44.76033242067107" lon="10.003701136725905"><ele>250.75</ele><time>2026-04-10T14:36:44.001Z</time></trkpt><trkpt lat="44.760327362664576" lon="10.003847401894678"><ele>252.0</ele><time>2026-04-10T14:36:45.001Z</time></trkpt><trkpt lat="44.760319193134386" lon="10.003957989001252"><ele>252.0</ele><time>2026-04-10T14:36:46.001Z</time></trkpt><trkpt lat="44.76022927936668" lon="10.004090092786614"><ele>252.0</ele><time>2026-04-10T14:36:48.001Z</time></trkpt><trkpt lat="44.76015413776711" lon="10.004086716341229"><ele>252.0</ele><time>2026-04-10T14:36:49.001Z</time></trkpt><trkpt lat="44.760090960155175" lon="10.00401796414884"><ele>252.0</ele><time>2026-04-10T14:36:50.001Z</time></trkpt><trkpt lat="44.7600616765385" lon="10.003905039914033"><ele>252.0</ele><time>2026-04-10T14:36:51.001Z</time></trkpt><trkpt lat="44.760051523754775" lon="10.00375633295446"><ele>253.0</ele><time>2026-04-10T14:36:52.001Z</time></trkpt><trkpt lat="44.760044667862566" lon="10.003584480284669"><ele>254.0</ele><time>2026-04-10T14:36:53.001Z</time></trkpt><trkpt lat="44.76001798869519" lon="10.003435687622659"><ele>255.0</ele><time>2026-04-10T14:36:54.001Z</time></trkpt><trkpt lat="44.759962397163065" lon="10.003304901611104"><ele>256.0</ele><time>2026-04-10T14:36:55.001Z</time></trkpt><trkpt lat="44.759872438293165" lon="10.003203627225865"><ele>256.0</ele><time>2026-04-10T14:36:56.001Z</time></trkpt><trkpt lat="44.75975246777928" lon="10.003127417489015"><ele>256.0</ele><time>2026-04-10T14:36:57.001Z</time></trkpt><trkpt lat="44.75964103435769" lon="10.003085215472941"><ele>256.0</ele><time>2026-04-10T14:36:58.001Z</time></trkpt><trkpt lat="44.759549528307055" lon="10.003071310721232"><ele>256.0</ele><time>2026-04-10T14:36:59.001Z</time></trkpt><trkpt lat="44.75946969148194" lon="10.003088151879577"><ele>256.0</ele><time>2026-04-10T14:37:00.001Z</time></trkpt><trkpt lat="44.759406339788" lon="10.003155352823892"><ele>256.0</ele><time>2026-04-10T14:37:01.001Z</time></trkpt><trkpt lat="44.75937043351933" lon="10.003265091949668"><ele>256.0</ele><time>2026-04-10T14:37:02.001Z</time></trkpt><trkpt lat="44.75937902740394" lon="10.003389150515135"><ele>256.0</ele><time>2026-04-10T14:37:03.001Z</time></trkpt><trkpt lat="44.75943253884374" lon="10.003507257246458"><ele>256.0</ele><time>2026-04-10T14:37:04.001Z</time></trkpt><trkpt lat="44.75951458393385" lon="10.003601767100262"><ele>256.0</ele><time>2026-04-10T14:37:05.001Z</time></trkpt><trkpt lat="44.759606814968855" lon="10.003686044474868"><ele>257.75</ele><time>2026-04-10T14:37:06.001Z</time></trkpt><trkpt lat="44.75967821267221" lon="10.00379004477542"><ele>259.5</ele><time>2026-04-10T14:37:07.001Z</time></trkpt><trkpt lat="44.759709018829206" lon="10.003939533646916"><ele>261.25</ele><time>2026-04-10T14:37:08.001Z</time></trkpt><trkpt lat="44.75969954287675" lon="10.004112764585459"><ele>263.0</ele><time>2026-04-10T14:37:09.001Z</time></trkpt><trkpt lat="44.75966592363307" lon="10.004296715013208"><ele>265.33333333333337</ele><time>2026-04-10T14:37:10.001Z</time></trkpt><trkpt lat="44.75961807691508" lon="10.004505156031929"><ele>267.6666666666667</ele><time>2026-04-10T14:37:11.001Z</time></trkpt><trkpt lat="44.75957552991058" lon="10.004725408142791"><ele>270.0</ele><time>2026-04-10T14:37:12.001Z</time></trkpt><trkpt lat="44.75954234455733" lon="10.004941131537912"><ele>271.3333333333333</ele><time>2026-04-10T14:37:13Z</time></trkpt><trkpt lat="44.75953679806805" lon="10.005160668667232"><ele>272.66666666666663</ele><time>2026-04-10T14:37:14Z</time></trkpt><trkpt lat="44.7595687564172" lon="10.005382864700028"><ele>274.0</ele><time>2026-04-10T14:37:15Z</time></trkpt><trkpt lat="44.759621286296294" lon="10.005577223396026"><ele>274.0</ele><time>2026-04-10T14:37:16.001Z</time></trkpt><trkpt lat="44.759680226394515" lon="10.005734011661067"><ele>274.0</ele><time>2026-04-10T14:37:17.001Z</time></trkpt><trkpt lat="44.75972763542064" lon="10.005855057654088"><ele>274.0</ele><time>2026-04-10T14:37:18.001Z</time></trkpt><trkpt lat="44.759756736970765" lon="10.00594997348615"><ele>274.0</ele><time>2026-04-10T14:37:19.001Z</time></trkpt><trkpt lat="44.75971707567117" lon="10.006088175117918"><ele>274.0</ele><time>2026-04-10T14:37:21.001Z</time></trkpt><trkpt lat="44.75965471780526" lon="10.006100469762691"><ele>274.0</ele><time>2026-04-10T14:37:22.001Z</time></trkpt><trkpt lat="44.75959959717483" lon="10.006044793560948"><ele>274.0</ele><time>2026-04-10T14:37:23.001Z</time></trkpt><trkpt lat="44.759566628237856" lon="10.005939793314534"><ele>274.0</ele><time>2026-04-10T14:37:24.001Z</time></trkpt><trkpt lat="44.75953448900957" lon="10.005798730616004"><ele>274.0</ele><time>2026-04-10T14:37:25.001Z</time></trkpt><trkpt lat="44.75947950790873" lon="10.005637216392802"><ele>274.0</ele><time>2026-04-10T14:37:26.001Z</time></trkpt><trkpt lat="44.759407352236416" lon="10.005461610025828"><ele>278.5</ele><time>2026-04-10T14:37:27.001Z</time></trkpt><trkpt lat="44.75933403595141" lon="10.005299950248835"><ele>283.0</ele><time>2026-04-10T14:37:28.001Z</time></trkpt><trkpt lat="44.75926621999815" lon="10.005170566624301"><ele>287.5</ele><time>2026-04-10T14:37:29.001Z</time></trkpt><trkpt lat="44.75918572723309" lon="10.005080586956625"><ele>292.0</ele><time>2026-04-10T14:37:30.001Z</time></trkpt><trkpt lat="44.759081930183385" lon="10.005041496395068"><ele>292.0</ele><time>2026-04-10T14:37:31.001Z</time></trkpt><trkpt lat="44.75896493170372" lon="10.005068151860794"><ele>292.0</ele><time>2026-04-10T14:37:32.001Z</time></trkpt><trkpt lat="44.758838854737974" lon="10.005140741050495"><ele>292.0</ele><time>2026-04-10T14:37:33.001Z</time></trkpt><trkpt lat="44.75869023657067" lon="10.00521512645584"><ele>292.0</ele><time>2026-04-10T14:37:34.001Z</time></trkpt><trkpt lat="44.75853855880391" lon="10.005269294773461"><ele>293.0</ele><time>2026-04-10T14:37:35.001Z</time></trkpt><trkpt lat="44.7584139050724" lon="10.005330637781343"><ele>294.0</ele><time>2026-04-10T14:37:36.001Z</time></trkpt><trkpt lat="44.75830804267367" lon="10.00543236309244"><ele>295.0</ele><time>2026-04-10T14:37:37Z</time></trkpt><trkpt lat="44.758245058952994" lon="10.005552856776987"><ele>296.0</ele><time>2026-04-10T14:37:38Z</time></trkpt><trkpt lat="44.75821329699632" lon="10.005674681409493"><ele>296.0</ele><time>2026-04-10T14:37:39Z</time></trkpt><trkpt lat="44.75821536204555" lon="10.00578930130038"><ele>296.0</ele><time>2026-04-10T14:37:40Z</time></trkpt><trkpt lat="44.75825918514102" lon="10.005889682521161"><ele>296.0</ele><time>2026-04-10T14:37:41Z</time></trkpt><trkpt lat="44.758345003606685" lon="10.005925578717376"><ele>296.0</ele><time>2026-04-10T14:37:42Z</time></trkpt><trkpt lat="44.75844549883469" lon="10.005897990301973"><ele>296.0</ele><time>2026-04-10T14:37:43Z</time></trkpt><trkpt lat="44.75854766589046" lon="10.00584372710567"><ele>295.2</ele><time>2026-04-10T14:37:44Z</time></trkpt><trkpt lat="44.75864830286376" lon="10.0058276788476"><ele>294.40000000000003</ele><time>2026-04-10T14:37:45Z</time></trkpt><trkpt lat="44.75873969588599" lon="10.005884982402915"><ele>293.6</ele><time>2026-04-10T14:37:46Z</time></trkpt><trkpt lat="44.75879315521195" lon="10.006028454225078"><ele>292.8</ele><time>2026-04-10T14:37:47Z</time></trkpt><trkpt lat="44.7588444036253" lon="10.006181296969308"><ele>292.0</ele><time>2026-04-10T14:37:48Z</time></trkpt><trkpt lat="44.75891617134886" lon="10.006349288987076"><ele>294.0</ele><time>2026-04-10T14:37:49Z</time></trkpt><trkpt lat="44.75897598413106" lon="10.006556267859727"><ele>296.0</ele><time>2026-04-10T14:37:50Z</time></trkpt><trkpt lat="44.759004419267185" lon="10.006748249253208"><ele>298.0</ele><time>2026-04-10T14:37:51Z</time></trkpt><trkpt lat="44.758997991528" lon="10.006953186320267"><ele>300.0</ele><time>2026-04-10T14:37:52Z</time></trkpt><trkpt lat="44.7589793656344" lon="10.007130140283747"><ele>302.5</ele><time>2026-04-10T14:37:53Z</time></trkpt><trkpt lat="44.7589894590725" lon="10.007288397652724"><ele>305.0</ele><time>2026-04-10T14:37:54Z</time></trkpt><trkpt lat="44.75903897011198" lon="10.007435975809695"><ele>307.5</ele><time>2026-04-10T14:37:55Z</time></trkpt><trkpt lat="44.759120962191076" lon="10.007548077321315"><ele>310.0</ele><time>2026-04-10T14:37:56Z</time></trkpt><trkpt lat="44.7592113528881" lon="10.007648231740175"><ele>309.4</ele><time>2026-04-10T14:37:57Z</time></trkpt><trkpt lat="44.75928963895209" lon="10.007717376327188"><ele>308.8</ele><time>2026-04-10T14:37:58Z</time></trkpt><trkpt lat="44.759350308636066" lon="10.007789409799335"><ele>308.2</ele><time>2026-04-10T14:37:59Z</time></trkpt><trkpt lat="44.75938132635394" lon="10.00791242324776"><ele>307.6</ele><time>2026-04-10T14:38:01Z</time></trkpt><trkpt lat="44.75925339405889" lon="10.007946743129832"><ele>307.0</ele><time>2026-04-10T14:38:03Z</time></trkpt><trkpt lat="44.75920215728717" lon="10.007851869607048"><ele>307.75</ele><time>2026-04-10T14:38:04Z</time></trkpt><trkpt lat="44.759106206222434" lon="10.007780737024836"><ele>308.5</ele><time>2026-04-10T14:38:05Z</time></trkpt><trkpt lat="44.7590007891996" lon="10.007675690775395"><ele>309.25</ele><time>2026-04-10T14:38:06Z</time></trkpt><trkpt lat="44.75888278255515" lon="10.007567836380824"><ele>310.0</ele><time>2026-04-10T14:38:07Z</time></trkpt><trkpt lat="44.7587681241379" lon="10.007484907799377"><ele>310.0</ele><time>2026-04-10T14:38:08Z</time></trkpt><trkpt lat="44.758651512914255" lon="10.007438859379121"><ele>310.0</ele><time>2026-04-10T14:38:09Z</time></trkpt><trkpt lat="44.758522659508536" lon="10.007436347449417"><ele>310.0</ele><time>2026-04-10T14:38:10Z</time></trkpt><trkpt lat="44.75837297229334" lon="10.007475631554351"><ele>310.0</ele><time>2026-04-10T14:38:11Z</time></trkpt><trkpt lat="44.758202442252326" lon="10.007512962012111"><ele>315.5</ele><time>2026-04-10T14:38:12Z</time></trkpt><trkpt lat="44.75803809762257" lon="10.00754052024901"><ele>321.0</ele><time>2026-04-10T14:38:13Z</time></trkpt><trkpt lat="44.75789451567909" lon="10.007563167049705"><ele>326.5</ele><time>2026-04-10T14:38:14Z</time></trkpt><trkpt lat="44.7577740253293" lon="10.007595719498632"><ele>332.0</ele><time>2026-04-10T14:38:15Z</time></trkpt><trkpt lat="44.757663621484795" lon="10.007653709439259"><ele>332.6</ele><time>2026-04-10T14:38:16Z</time></trkpt><trkpt lat="44.75757182608557" lon="10.007741517436308"><ele>333.20000000000005</ele><time>2026-04-10T14:38:17Z</time></trkpt><trkpt lat="44.75750705822724" lon="10.007872004379575"><ele>333.8</ele><time>2026-04-10T14:38:18Z</time></trkpt><trkpt lat="44.75749283100785" lon="10.008023454337414"><ele>334.4</ele><time>2026-04-10T14:38:19Z</time></trkpt><trkpt lat="44.757527845392914" lon="10.00817119355595"><ele>335.0</ele><time>2026-04-10T14:38:20Z</time></trkpt><trkpt lat="44.757604844079836" lon="10.008294450698548"><ele>336.33333333333337</ele><time>2026-04-10T14:38:21Z</time></trkpt><trkpt lat="44.75771600309374" lon="10.008408605953543"><ele>337.6666666666667</ele><time>2026-04-10T14:38:22Z</time></trkpt><trkpt lat="44.75785578455914" lon="10.008518024063424"><ele>339.0</ele><time>2026-04-10T14:38:23Z</time></trkpt><trkpt lat="44.75799771253038" lon="10.008625159194795"><ele>339.0</ele><time>2026-04-10T14:38:24Z</time></trkpt><trkpt lat="44.75810420782359" lon="10.008709550221935"><ele>339.0</ele><time>2026-04-10T14:38:25Z</time></trkpt><trkpt lat="44.75817862974062" lon="10.00877674037909"><ele>339.0</ele><time>2026-04-10T14:38:26Z</time></trkpt><trkpt lat="44.75822428519435" lon="10.00884868143912"><ele>339.0</ele><time>2026-04-10T14:38:27Z</time></trkpt><trkpt lat="44.758239863610356" lon="10.008969560543674"><ele>339.0</ele><time>2026-04-10T14:38:28Z</time></trkpt><trkpt lat="44.758213338427844" lon="10.009097457664831"><ele>340.0</ele><time>2026-04-10T14:38:29Z</time></trkpt><trkpt lat="44.758134081218564" lon="10.009203649288969"><ele>341.0</ele><time>2026-04-10T14:38:30Z</time></trkpt><trkpt lat="44.758065767128265" lon="10.00935874961062"><ele>342.0</ele><time>2026-04-10T14:38:31Z</time></trkpt><trkpt lat="44.757981681739544" lon="10.009507348187578"><ele>343.0</ele><time>2026-04-10T14:38:32Z</time></trkpt><trkpt lat="44.757890638510325" lon="10.00966750314488"><ele>343.0</ele><time>2026-04-10T14:38:33Z</time></trkpt><trkpt lat="44.757815053689015" lon="10.009816497721816"><ele>343.0</ele><time>2026-04-10T14:38:34Z</time></trkpt><trkpt lat="44.757749210778584" lon="10.009928646351632"><ele>343.0</ele><time>2026-04-10T14:38:35Z</time></trkpt><trkpt lat="44.757665106048314" lon="10.009993681013471"><ele>343.0</ele><time>2026-04-10T14:38:36Z</time></trkpt><trkpt lat="44.75756526607491" lon="10.009994017476815"><ele>343.0</ele><time>2026-04-10T14:38:37Z</time></trkpt><trkpt lat="44.757474004551675" lon="10.009890322109914"><ele>344.25</ele><time>2026-04-10T14:38:38Z</time></trkpt><trkpt lat="44.75739268599085" lon="10.009772349689728"><ele>345.5</ele><time>2026-04-10T14:38:39Z</time></trkpt><trkpt lat="44.7573343991666" lon="10.00963625811665"><ele>346.75</ele><time>2026-04-10T14:38:40Z</time></trkpt><trkpt lat="44.75728255353475" lon="10.009454644013335"><ele>348.0</ele><time>2026-04-10T14:38:41Z</time></trkpt><trkpt lat="44.75722690371752" lon="10.009291201373651"><ele>348.0</ele><time>2026-04-10T14:38:42Z</time></trkpt><trkpt lat="44.757187667813334" lon="10.009160533922175"><ele>348.0</ele><time>2026-04-10T14:38:43Z</time></trkpt><trkpt lat="44.75711467976611" lon="10.009073789828307"><ele>348.0</ele><time>2026-04-10T14:38:44Z</time></trkpt><trkpt lat="44.757016767911736" lon="10.009046240332026"><ele>348.0</ele><time>2026-04-10T14:38:45Z</time></trkpt><trkpt lat="44.75690640419442" lon="10.009080227175932"><ele>348.0</ele><time>2026-04-10T14:38:46Z</time></trkpt><trkpt lat="44.75679460216689" lon="10.009166643193849"><ele>350.75</ele><time>2026-04-10T14:38:47Z</time></trkpt><trkpt lat="44.756676277238306" lon="10.009271701037033"><ele>353.5</ele><time>2026-04-10T14:38:48Z</time></trkpt><trkpt lat="44.75656256667524" lon="10.009358711148277"><ele>356.25</ele><time>2026-04-10T14:38:49Z</time></trkpt><trkpt lat="44.75646561041858" lon="10.009410326092285"><ele>359.0</ele><time>2026-04-10T14:38:50Z</time></trkpt><trkpt lat="44.75636382628508" lon="10.009403426764738"><ele>359.0</ele><time>2026-04-10T14:38:51Z</time></trkpt><trkpt lat="44.756260994743904" lon="10.009329692842444"><ele>359.0</ele><time>2026-04-10T14:38:52Z</time></trkpt><trkpt lat="44.75618618323066" lon="10.009180373010878"><ele>359.0</ele><time>2026-04-10T14:38:53Z</time></trkpt><trkpt lat="44.75612588066158" lon="10.009015464951924"><ele>359.0</ele><time>2026-04-10T14:38:54Z</time></trkpt><trkpt lat="44.75606742638627" lon="10.008818580673811"><ele>363.0</ele><time>2026-04-10T14:38:55Z</time></trkpt><trkpt lat="44.75599225172979" lon="10.00861083364728"><ele>367.0</ele><time>2026-04-10T14:38:56Z</time></trkpt><trkpt lat="44.75593568808806" lon="10.008394901707119"><ele>371.0</ele><time>2026-04-10T14:38:57Z</time></trkpt><trkpt lat="44.75587970958422" lon="10.008200856880908"><ele>371.0</ele><time>2026-04-10T14:38:58Z</time></trkpt><trkpt lat="44.75582834818635" lon="10.008006421770327"><ele>371.0</ele><time>2026-04-10T14:38:59Z</time></trkpt><trkpt lat="44.75579400837315" lon="10.007827272924164"><ele>371.0</ele><time>2026-04-10T14:39:00Z</time></trkpt><trkpt lat="44.755777332460546" lon="10.007669367542967"><ele>371.0</ele><time>2026-04-10T14:39:01Z</time></trkpt><trkpt lat="44.75575636192533" lon="10.007523293708344"><ele>369.4</ele><time>2026-04-10T14:39:02Z</time></trkpt><trkpt lat="44.755718067839474" lon="10.00741242401385"><ele>367.8</ele><time>2026-04-10T14:39:03Z</time></trkpt><trkpt lat="44.755662600819825" lon="10.007327209396331"><ele>366.2</ele><time>2026-04-10T14:39:04Z</time></trkpt><trkpt lat="44.755580114881944" lon="10.007275071522836"><ele>364.59999999999997</ele><time>2026-04-10T14:39:05Z</time></trkpt><trkpt lat="44.75547921273889" lon="10.007282847401084"><ele>363.0</ele><time>2026-04-10T14:39:06Z</time></trkpt><trkpt lat="44.75536249498332" lon="10.007329353497504"><ele>363.0</ele><time>2026-04-10T14:39:07Z</time></trkpt><trkpt lat="44.75523384907776" lon="10.007382343709658"><ele>363.0</ele><time>2026-04-10T14:39:08Z</time></trkpt><trkpt lat="44.75509913047185" lon="10.007424970515444"><ele>363.0</ele><time>2026-04-10T14:39:09Z</time></trkpt><trkpt lat="44.754979617064215" lon="10.007465528202959"><ele>363.0</ele><time>2026-04-10T14:39:10Z</time></trkpt><trkpt lat="44.754893965266575" lon="10.0075235205331"><ele>365.5</ele><time>2026-04-10T14:39:11Z</time></trkpt><trkpt lat="44.754828294201175" lon="10.007604934063732"><ele>368.0</ele><time>2026-04-10T14:39:12Z</time></trkpt><trkpt lat="44.75478628684276" lon="10.00769679118401"><ele>370.5</ele><time>2026-04-10T14:39:13Z</time></trkpt><trkpt lat="44.75476794371486" lon="10.007816974583944"><ele>373.0</ele><time>2026-04-10T14:39:14Z</time></trkpt><trkpt lat="44.75476929707456" lon="10.00795233400067"><ele>375.5</ele><time>2026-04-10T14:39:15Z</time></trkpt><trkpt lat="44.75477747195326" lon="10.008086931414812"><ele>378.0</ele><time>2026-04-10T14:39:16Z</time></trkpt><trkpt lat="44.75478942392933" lon="10.00823498200392"><ele>379.0</ele><time>2026-04-10T14:39:17Z</time></trkpt><trkpt lat="44.754798419312614" lon="10.008394051988041"><ele>380.0</ele><time>2026-04-10T14:39:18Z</time></trkpt><trkpt lat="44.754813173186555" lon="10.008565918846264"><ele>381.0</ele><time>2026-04-10T14:39:19Z</time></trkpt><trkpt lat="44.75484949692859" lon="10.008748208162487"><ele>382.0</ele><time>2026-04-10T14:39:20Z</time></trkpt><trkpt lat="44.75490348645673" lon="10.00892848416264"><ele>382.0</ele><time>2026-04-10T14:39:21Z</time></trkpt><trkpt lat="44.75496087699848" lon="10.00912882911112"><ele>382.0</ele><time>2026-04-10T14:39:22Z</time></trkpt><trkpt lat="44.75499591001563" lon="10.009339339864665"><ele>382.0</ele><time>2026-04-10T14:39:23Z</time></trkpt><trkpt lat="44.755003806342984" lon="10.009542047252893"><ele>381.0</ele><time>2026-04-10T14:39:24Z</time></trkpt><trkpt lat="44.75500109882018" lon="10.009732197834438"><ele>380.0</ele><time>2026-04-10T14:39:25Z</time></trkpt><trkpt lat="44.75501797211164" lon="10.009927547553321"><ele>379.0</ele><time>2026-04-10T14:39:26Z</time></trkpt><trkpt lat="44.755079790321076" lon="10.010138290224326"><ele>378.0</ele><time>2026-04-10T14:39:27Z</time></trkpt><trkpt lat="44.755171425326324" lon="10.010356625669479"><ele>378.6666666666667</ele><time>2026-04-10T14:39:28Z</time></trkpt><trkpt lat="44.75527325401517" lon="10.0105772576818"><ele>379.33333333333337</ele><time>2026-04-10T14:39:29Z</time></trkpt><trkpt lat="44.755362537957986" lon="10.010800108850978"><ele>380.0</ele><time>2026-04-10T14:39:30Z</time></trkpt><trkpt lat="44.75543839524759" lon="10.011018039183659"><ele>380.0</ele><time>2026-04-10T14:39:31Z</time></trkpt><trkpt lat="44.75546945552687" lon="10.011223355263526"><ele>380.0</ele><time>2026-04-10T14:39:32.001Z</time></trkpt><trkpt lat="44.75551257348819" lon="10.011386802105658"><ele>380.0</ele><time>2026-04-10T14:39:33.001Z</time></trkpt><trkpt lat="44.75554248655206" lon="10.011550850059782"><ele>380.0</ele><time>2026-04-10T14:39:34.001Z</time></trkpt><trkpt lat="44.755610432732844" lon="10.0116883101659"><ele>377.75</ele><time>2026-04-10T14:39:35.001Z</time></trkpt><trkpt lat="44.75571292805803" lon="10.011792273630059"><ele>375.5</ele><time>2026-04-10T14:39:36.001Z</time></trkpt><trkpt lat="44.75581487627218" lon="10.011882005014174"><ele>373.25</ele><time>2026-04-10T14:39:37.001Z</time></trkpt><trkpt lat="44.755875408333395" lon="10.01201687484644"><ele>371.0</ele><time>2026-04-10T14:39:38.001Z</time></trkpt><trkpt lat="44.75591779742881" lon="10.012173163449452"><ele>371.0</ele><time>2026-04-10T14:39:39.001Z</time></trkpt><trkpt lat="44.75594722099273" lon="10.012359347264324"><ele>371.0</ele><time>2026-04-10T14:39:40.001Z</time></trkpt><trkpt lat="44.75591807030597" lon="10.01259143370724"><ele>371.0</ele><time>2026-04-10T14:39:41.001Z</time></trkpt><trkpt lat="44.755919919384446" lon="10.012842981424217"><ele>367.6666666666667</ele><time>2026-04-10T14:39:42.001Z</time></trkpt><trkpt lat="44.75591171774938" lon="10.013080345442829"><ele>364.3333333333333</ele><time>2026-04-10T14:39:43Z</time></trkpt><trkpt lat="44.7559026805059" lon="10.013317580819663"><ele>361.0</ele><time>2026-04-10T14:39:44Z</time></trkpt><trkpt lat="44.755875136045816" lon="10.01354850065485"><ele>359.75</ele><time>2026-04-10T14:39:45Z</time></trkpt><trkpt lat="44.7558356463457" lon="10.013754359347283"><ele>358.5</ele><time>2026-04-10T14:39:46Z</time></trkpt><trkpt lat="44.75580416923473" lon="10.013936797910402"><ele>357.25</ele><time>2026-04-10T14:39:47Z</time></trkpt><trkpt lat="44.755785509009165" lon="10.01409881756637"><ele>356.0</ele><time>2026-04-10T14:39:48Z</time></trkpt><trkpt lat="44.75579134768384" lon="10.014241848953835"><ele>355.8</ele><time>2026-04-10T14:39:49Z</time></trkpt><trkpt lat="44.755825673804814" lon="10.014367777742397"><ele>355.6</ele><time>2026-04-10T14:39:50Z</time></trkpt><trkpt lat="44.75589125827886" lon="10.014467872913459"><ele>355.4</ele><time>2026-04-10T14:39:51Z</time></trkpt><trkpt lat="44.75597944273965" lon="10.0145087100748"><ele>355.2</ele><time>2026-04-10T14:39:52Z</time></trkpt><trkpt lat="44.75608987086867" lon="10.014490707070856"><ele>355.0</ele><time>2026-04-10T14:39:53Z</time></trkpt><trkpt lat="44.75621770275746" lon="10.014428329668553"><ele>355.0</ele><time>2026-04-10T14:39:54Z</time></trkpt><trkpt lat="44.75635924750504" lon="10.014400138185005"><ele>355.0</ele><time>2026-04-10T14:39:55Z</time></trkpt><trkpt lat="44.756491639291" lon="10.014360046769744"><ele>355.0</ele><time>2026-04-10T14:39:56Z</time></trkpt><trkpt lat="44.75661228078966" lon="10.01434994260862"><ele>355.0</ele><time>2026-04-10T14:39:57Z</time></trkpt><trkpt lat="44.756723657036325" lon="10.014378010946496"><ele>355.0</ele><time>2026-04-10T14:39:58Z</time></trkpt><trkpt lat="44.75683290301836" lon="10.014460082529146"><ele>355.0</ele><time>2026-04-10T14:39:59Z</time></trkpt><trkpt lat="44.756933077460644" lon="10.01458196367604"><ele>355.0</ele><time>2026-04-10T14:40:00Z</time></trkpt><trkpt lat="44.75705244415048" lon="10.014689507006272"><ele>355.0</ele><time>2026-04-10T14:40:01Z</time></trkpt><trkpt lat="44.75717399940391" lon="10.014788753074374"><ele>356.0</ele><time>2026-04-10T14:40:02Z</time></trkpt><trkpt lat="44.75730176292108" lon="10.014865405680773"><ele>357.0</ele><time>2026-04-10T14:40:03Z</time></trkpt><trkpt lat="44.757414526434694" lon="10.01491462394362"><ele>358.0</ele><time>2026-04-10T14:40:04Z</time></trkpt><trkpt lat="44.75750757196341" lon="10.014954887811072"><ele>359.0</ele><time>2026-04-10T14:40:05Z</time></trkpt><trkpt lat="44.75756762120525" lon="10.01506804654548"><ele>356.75</ele><time>2026-04-10T14:40:06Z</time></trkpt><trkpt lat="44.757592187182205" lon="10.015217953362084"><ele>354.5</ele><time>2026-04-10T14:40:07Z</time></trkpt><trkpt lat="44.757555549016644" lon="10.015382717966075"><ele>352.25</ele><time>2026-04-10T14:40:08Z</time></trkpt><trkpt lat="44.75750002162164" lon="10.015523264307738"><ele>350.0</ele><time>2026-04-10T14:40:09Z</time></trkpt><trkpt lat="44.757428007339975" lon="10.015666193347117"><ele>352.6666666666667</ele><time>2026-04-10T14:40:10Z</time></trkpt><trkpt lat="44.757349176548935" lon="10.015857333409576"><ele>355.3333333333333</ele><time>2026-04-10T14:40:11Z</time></trkpt><trkpt lat="44.75724037221314" lon="10.016064712450781"><ele>358.0</ele><time>2026-04-10T14:40:12Z</time></trkpt><trkpt lat="44.75711936306588" lon="10.016282959368468"><ele>358.0</ele><time>2026-04-10T14:40:13Z</time></trkpt><trkpt lat="44.75697598894468" lon="10.016487853593558"><ele>358.0</ele><time>2026-04-10T14:40:14Z</time></trkpt><trkpt lat="44.7568522756629" lon="10.016707800936594"><ele>358.0</ele><time>2026-04-10T14:40:15Z</time></trkpt><trkpt lat="44.75672338845742" lon="10.01688315467881"><ele>351.0</ele><time>2026-04-10T14:40:16Z</time></trkpt><trkpt lat="44.75660754626234" lon="10.017046264444755"><ele>344.0</ele><time>2026-04-10T14:40:17Z</time></trkpt><trkpt lat="44.75649753194023" lon="10.01719454252744"><ele>337.0</ele><time>2026-04-10T14:40:18Z</time></trkpt><trkpt lat="44.756386160828065" lon="10.017331751605965"><ele>341.3333333333333</ele><time>2026-04-10T14:40:19Z</time></trkpt><trkpt lat="44.75627591295411" lon="10.01750926309556"><ele>345.6666666666667</ele><time>2026-04-10T14:40:20Z</time></trkpt><trkpt lat="44.75618017639852" lon="10.017717791481669"><ele>350.0</ele><time>2026-04-10T14:40:21Z</time></trkpt><trkpt lat="44.75609620974777" lon="10.017899912139043"><ele>346.0</ele><time>2026-04-10T14:40:22Z</time></trkpt><trkpt lat="44.75601830825054" lon="10.018057429407811"><ele>342.0</ele><time>2026-04-10T14:40:23Z</time></trkpt><trkpt lat="44.75595074775026" lon="10.018196207213792"><ele>338.0</ele><time>2026-04-10T14:40:24Z</time></trkpt><trkpt lat="44.75590368735396" lon="10.018301503309061"><ele>334.0</ele><time>2026-04-10T14:40:25Z</time></trkpt><trkpt lat="44.755866969173695" lon="10.018377505116515"><ele>330.0</ele><time>2026-04-10T14:40:26Z</time></trkpt><trkpt lat="44.75579456908965" lon="10.018399346215878"><ele>327.0</ele><time>2026-04-10T14:40:28Z</time></trkpt><trkpt lat="44.75576853796518" lon="10.018284681016945"><ele>324.0</ele><time>2026-04-10T14:40:30Z</time></trkpt><trkpt lat="44.75584556844634" lon="10.018120642505059"><ele>321.0</ele><time>2026-04-10T14:40:32Z</time></trkpt><trkpt lat="44.755894537246476" lon="10.018004155147759"><ele>318.0</ele><time>2026-04-10T14:40:33Z</time></trkpt><trkpt lat="44.75595020255339" lon="10.017871686435809"><ele>315.0</ele><time>2026-04-10T14:40:34Z</time></trkpt><trkpt lat="44.75600041141569" lon="10.017760106409611"><ele>315.0</ele><time>2026-04-10T14:40:35Z</time></trkpt><trkpt lat="44.75604311339037" lon="10.017656458795114"><ele>315.0</ele><time>2026-04-10T14:40:36Z</time></trkpt><trkpt lat="44.756076355111205" lon="10.017568563109197"><ele>315.0</ele><time>2026-04-10T14:40:37Z</time></trkpt><trkpt lat="44.75606796817289" lon="10.017431132981422"><ele>315.0</ele><time>2026-04-10T14:40:39Z</time></trkpt><trkpt lat="44.75594821042395" lon="10.017454091890162"><ele>315.0</ele><time>2026-04-10T14:40:41Z</time></trkpt><trkpt lat="44.75589954047924" lon="10.017548602112806"><ele>315.0</ele><time>2026-04-10T14:40:42Z</time></trkpt><trkpt lat="44.75583915558899" lon="10.01769328406596"><ele>315.0</ele><time>2026-04-10T14:40:43Z</time></trkpt><trkpt lat="44.755745738553934" lon="10.017889129249227"><ele>315.0</ele><time>2026-04-10T14:40:44Z</time></trkpt><trkpt lat="44.75562688386548" lon="10.01807973286683"><ele>315.0</ele><time>2026-04-10T14:40:45Z</time></trkpt><trkpt lat="44.75551969049497" lon="10.018254755306115"><ele>315.0</ele><time>2026-04-10T14:40:46Z</time></trkpt><trkpt lat="44.75543375893635" lon="10.018431303009214"><ele>315.0</ele><time>2026-04-10T14:40:47Z</time></trkpt><trkpt lat="44.75534587905847" lon="10.018598619356498"><ele>318.75</ele><time>2026-04-10T14:40:48Z</time></trkpt><trkpt lat="44.75523748807643" lon="10.018734672030392"><ele>322.5</ele><time>2026-04-10T14:40:49Z</time></trkpt><trkpt lat="44.755095955819044" lon="10.018810063647328"><ele>326.25</ele><time>2026-04-10T14:40:50Z</time></trkpt><trkpt lat="44.75496513290057" lon="10.018909793036423"><ele>330.0</ele><time>2026-04-10T14:40:51Z</time></trkpt><trkpt lat="44.75485334434658" lon="10.019017109053323"><ele>326.0</ele><time>2026-04-10T14:40:52Z</time></trkpt><trkpt lat="44.754759362549976" lon="10.019163066889615"><ele>322.0</ele><time>2026-04-10T14:40:53Z</time></trkpt><trkpt lat="44.75469105989336" lon="10.019296661363342"><ele>318.0</ele><time>2026-04-10T14:40:54Z</time></trkpt><trkpt lat="44.75463689127603" lon="10.019395974886763"><ele>314.0</ele><time>2026-04-10T14:40:55Z</time></trkpt><trkpt lat="44.75459999168652" lon="10.019468767630457"><ele>310.0</ele><time>2026-04-10T14:40:56Z</time></trkpt><trkpt lat="44.754516650586325" lon="10.019461771070139"><ele>310.0</ele><time>2026-04-10T14:40:58Z</time></trkpt><trkpt lat="44.754513865062556" lon="10.019295353335302"><ele>310.0</ele><time>2026-04-10T14:41:00Z</time></trkpt><trkpt lat="44.75459213212502" lon="10.019214743598129"><ele>310.0</ele><time>2026-04-10T14:41:01Z</time></trkpt><trkpt lat="44.75466791372363" lon="10.019067506704038"><ele>310.0</ele><time>2026-04-10T14:41:02Z</time></trkpt><trkpt lat="44.754749847726586" lon="10.018916817704067"><ele>308.0</ele><time>2026-04-10T14:41:03Z</time></trkpt><trkpt lat="44.75482543711416" lon="10.018768707670574"><ele>306.0</ele><time>2026-04-10T14:41:04Z</time></trkpt><trkpt lat="44.75490536579178" lon="10.018644266193961"><ele>304.0</ele><time>2026-04-10T14:41:05Z</time></trkpt><trkpt lat="44.75498359305792" lon="10.018556913703156"><ele>302.0</ele><time>2026-04-10T14:41:06Z</time></trkpt><trkpt lat="44.755037609769246" lon="10.018490629791746"><ele>300.0</ele><time>2026-04-10T14:41:07Z</time></trkpt><trkpt lat="44.755062974842716" lon="10.01840946082644"><ele>300.0</ele><time>2026-04-10T14:41:08Z</time></trkpt><trkpt lat="44.754994694236025" lon="10.018293027225193"><ele>300.0</ele><time>2026-04-10T14:41:10Z</time></trkpt><trkpt lat="44.754912218907144" lon="10.018308469411338"><ele>300.0</ele><time>2026-04-10T14:41:11Z</time></trkpt><trkpt lat="44.75482331408652" lon="10.01838068713129"><ele>300.0</ele><time>2026-04-10T14:41:12Z</time></trkpt><trkpt lat="44.75472903731801" lon="10.0184962837662"><ele>300.0</ele><time>2026-04-10T14:41:13Z</time></trkpt><trkpt lat="44.75462508315126" lon="10.018622674076912"><ele>300.0</ele><time>2026-04-10T14:41:14Z</time></trkpt><trkpt lat="44.7545069092523" lon="10.0187791748232"><ele>300.0</ele><time>2026-04-10T14:41:15Z</time></trkpt><trkpt lat="44.75439299010953" lon="10.018975806858528"><ele>300.0</ele><time>2026-04-10T14:41:16Z</time></trkpt><trkpt lat="44.754272238011104" lon="10.01914981030113"><ele>294.3333333333333</ele><time>2026-04-10T14:41:17Z</time></trkpt><trkpt lat="44.75415271106342" lon="10.019324515720314"><ele>288.66666666666663</ele><time>2026-04-10T14:41:18Z</time></trkpt><trkpt lat="44.754040468754184" lon="10.019496191704556"><ele>283.0</ele><time>2026-04-10T14:41:19Z</time></trkpt><trkpt lat="44.753932451988675" lon="10.019659810580183"><ele>283.0</ele><time>2026-04-10T14:41:20Z</time></trkpt><trkpt lat="44.75382541970573" lon="10.019815083129616"><ele>283.0</ele><time>2026-04-10T14:41:21Z</time></trkpt><trkpt lat="44.753716031467306" lon="10.019963375095934"><ele>283.0</ele><time>2026-04-10T14:41:22Z</time></trkpt><trkpt lat="44.75360611673119" lon="10.020126591155067"><ele>279.0</ele><time>2026-04-10T14:41:23Z</time></trkpt><trkpt lat="44.75349859272748" lon="10.020296665430726"><ele>275.0</ele><time>2026-04-10T14:41:24Z</time></trkpt><trkpt lat="44.75337704617039" lon="10.020480225417982"><ele>271.0</ele><time>2026-04-10T14:41:25Z</time></trkpt><trkpt lat="44.753262540434314" lon="10.02065360825685"><ele>273.66666666666663</ele><time>2026-04-10T14:41:26Z</time></trkpt><trkpt lat="44.7531547003309" lon="10.020820202401222"><ele>276.3333333333333</ele><time>2026-04-10T14:41:27Z</time></trkpt><trkpt lat="44.75305032201801" lon="10.020997949255028"><ele>279.0</ele><time>2026-04-10T14:41:28Z</time></trkpt><trkpt lat="44.75295680446842" lon="10.021216376940629"><ele>279.0</ele><time>2026-04-10T14:41:29Z</time></trkpt><trkpt lat="44.752885075109084" lon="10.021461830857781"><ele>279.0</ele><time>2026-04-10T14:41:30Z</time></trkpt><trkpt lat="44.75281773647879" lon="10.021714136484524"><ele>279.0</ele><time>2026-04-10T14:41:31Z</time></trkpt><trkpt lat="44.75274704239866" lon="10.02194514848501"><ele>273.0</ele><time>2026-04-10T14:41:32Z</time></trkpt><trkpt lat="44.75267600633789" lon="10.022164222321962"><ele>267.0</ele><time>2026-04-10T14:41:33Z</time></trkpt><trkpt lat="44.75261508371192" lon="10.022390236374404"><ele>261.0</ele><time>2026-04-10T14:41:34Z</time></trkpt><trkpt lat="44.75255579995446" lon="10.022608902047972"><ele>261.0</ele><time>2026-04-10T14:41:35Z</time></trkpt><trkpt lat="44.752485107377126" lon="10.022812647945683"><ele>261.0</ele><time>2026-04-10T14:41:36Z</time></trkpt><trkpt lat="44.75239614755453" lon="10.023001626499154"><ele>261.0</ele><time>2026-04-10T14:41:37Z</time></trkpt><trkpt lat="44.75229056866978" lon="10.023184855012788"><ele>264.3333333333333</ele><time>2026-04-10T14:41:38Z</time></trkpt><trkpt lat="44.75218412310963" lon="10.023362789754295"><ele>267.66666666666663</ele><time>2026-04-10T14:41:39Z</time></trkpt><trkpt lat="44.75208680097467" lon="10.023531539724136"><ele>271.0</ele><time>2026-04-10T14:41:40Z</time></trkpt><trkpt lat="44.75199736474654" lon="10.02370524341463"><ele>271.0</ele><time>2026-04-10T14:41:41Z</time></trkpt><trkpt lat="44.75192455616584" lon="10.023911268452455"><ele>271.0</ele><time>2026-04-10T14:41:42Z</time></trkpt><trkpt lat="44.751868286336226" lon="10.024152895374485"><ele>271.0</ele><time>2026-04-10T14:41:43Z</time></trkpt><trkpt lat="44.75182540922163" lon="10.024425286588853"><ele>268.66666666666663</ele><time>2026-04-10T14:41:44Z</time></trkpt><trkpt lat="44.751783365597966" lon="10.024692764044557"><ele>266.3333333333333</ele><time>2026-04-10T14:41:45Z</time></trkpt><trkpt lat="44.75173960934605" lon="10.024941851486467"><ele>264.0</ele><time>2026-04-10T14:41:46Z</time></trkpt><trkpt lat="44.75169509732684" lon="10.025179774293852"><ele>262.3333333333333</ele><time>2026-04-10T14:41:47Z</time></trkpt><trkpt lat="44.75166229090877" lon="10.025410576567221"><ele>260.66666666666663</ele><time>2026-04-10T14:41:48Z</time></trkpt><trkpt lat="44.75164767692869" lon="10.02563200632308"><ele>259.0</ele><time>2026-04-10T14:41:49Z</time></trkpt><trkpt lat="44.751639020465525" lon="10.025846227693886"><ele>257.75</ele><time>2026-04-10T14:41:50Z</time></trkpt><trkpt lat="44.75162426498258" lon="10.026047477424235"><ele>256.5</ele><time>2026-04-10T14:41:51Z</time></trkpt><trkpt lat="44.751596468208405" lon="10.026248809871072"><ele>255.25</ele><time>2026-04-10T14:41:52Z</time></trkpt><trkpt lat="44.751538078986435" lon="10.026444258613292"><ele>254.0</ele><time>2026-04-10T14:41:53Z</time></trkpt><trkpt lat="44.75142769612657" lon="10.026620413827379"><ele>254.0</ele><time>2026-04-10T14:41:54Z</time></trkpt><trkpt lat="44.75130136976911" lon="10.026792533477819"><ele>254.0</ele><time>2026-04-10T14:41:55Z</time></trkpt><trkpt lat="44.75117781917736" lon="10.026977538564624"><ele>254.0</ele><time>2026-04-10T14:41:56Z</time></trkpt><trkpt lat="44.75105912855925" lon="10.027134173131302"><ele>254.0</ele><time>2026-04-10T14:41:57Z</time></trkpt><trkpt lat="44.75095553295085" lon="10.02729384899384"><ele>254.0</ele><time>2026-04-10T14:41:58Z</time></trkpt><trkpt lat="44.750862327598625" lon="10.027445790825793"><ele>254.0</ele><time>2026-04-10T14:41:59Z</time></trkpt><trkpt lat="44.75078797887129" lon="10.02759141559711"><ele>254.0</ele><time>2026-04-10T14:42:00Z</time></trkpt><trkpt lat="44.750740717988705" lon="10.027749731648923"><ele>250.25</ele><time>2026-04-10T14:42:01Z</time></trkpt><trkpt lat="44.750725825015444" lon="10.027940240699769"><ele>246.5</ele><time>2026-04-10T14:42:02Z</time></trkpt><trkpt lat="44.75073399089117" lon="10.028131276278248"><ele>242.75</ele><time>2026-04-10T14:42:03Z</time></trkpt><trkpt lat="44.75073041924624" lon="10.028294241903668"><ele>239.0</ele><time>2026-04-10T14:42:04Z</time></trkpt><trkpt lat="44.75067441444144" lon="10.028417288407447"><ele>238.0</ele><time>2026-04-10T14:42:05Z</time></trkpt><trkpt lat="44.750623875250426" lon="10.02854475658646"><ele>236.99999999999997</ele><time>2026-04-10T14:42:06Z</time></trkpt><trkpt lat="44.75055586988887" lon="10.02863085406142"><ele>235.99999999999997</ele><time>2026-04-10T14:42:07Z</time></trkpt><trkpt lat="44.75050422961152" lon="10.028696707282661"><ele>235.0</ele><time>2026-04-10T14:42:08Z</time></trkpt><trkpt lat="44.7504471824352" lon="10.028746177612991"><ele>234.0</ele><time>2026-04-10T14:42:10Z</time></trkpt><trkpt lat="44.75036199696042" lon="10.02860849907563"><ele>234.0</ele><time>2026-04-10T14:42:12Z</time></trkpt><trkpt lat="44.75032170871053" lon="10.028489186730992"><ele>233.99999999999997</ele><time>2026-04-10T14:42:13Z</time></trkpt><trkpt lat="44.750249267360815" lon="10.028369826717979"><ele>233.99999999999997</ele><time>2026-04-10T14:42:14Z</time></trkpt><trkpt lat="44.750184903621395" lon="10.028226172218407"><ele>234.0</ele><time>2026-04-10T14:42:15Z</time></trkpt><trkpt lat="44.75011384459609" lon="10.028084716484805"><ele>234.0</ele><time>2026-04-10T14:42:16Z</time></trkpt><trkpt lat="44.7500338741763" lon="10.027936817217217"><ele>234.75</ele><time>2026-04-10T14:42:17Z</time></trkpt><trkpt lat="44.74994782977402" lon="10.027789777806978"><ele>235.5</ele><time>2026-04-10T14:42:18Z</time></trkpt><trkpt lat="44.749852740516886" lon="10.027646432899676"><ele>236.25</ele><time>2026-04-10T14:42:19Z</time></trkpt><trkpt lat="44.749752042210915" lon="10.027511827888238"><ele>237.0</ele><time>2026-04-10T14:42:20Z</time></trkpt><trkpt lat="44.749651149749496" lon="10.027360813155873"><ele>237.0</ele><time>2026-04-10T14:42:21Z</time></trkpt><trkpt lat="44.749553789764946" lon="10.027216856637114"><ele>237.0</ele><time>2026-04-10T14:42:22Z</time></trkpt><trkpt lat="44.74946060208199" lon="10.027082179487877"><ele>237.0</ele><time>2026-04-10T14:42:23Z</time></trkpt><trkpt lat="44.749368792200855" lon="10.026935144915539"><ele>237.0</ele><time>2026-04-10T14:42:24Z</time></trkpt><trkpt lat="44.74928663460739" lon="10.026795333572128"><ele>237.0</ele><time>2026-04-10T14:42:25Z</time></trkpt><trkpt lat="44.749220531119576" lon="10.026661439126729"><ele>237.0</ele><time>2026-04-10T14:42:26Z</time></trkpt><trkpt lat="44.74915482675422" lon="10.026539168780571"><ele>237.0</ele><time>2026-04-10T14:42:27Z</time></trkpt><trkpt lat="44.74908952137185" lon="10.02643722098119"><ele>237.0</ele><time>2026-04-10T14:42:28Z</time></trkpt><trkpt lat="44.74901985379106" lon="10.026351234738206"><ele>237.0</ele><time>2026-04-10T14:42:29Z</time></trkpt><trkpt lat="44.74894827653943" lon="10.026289653894986"><ele>238.0</ele><time>2026-04-10T14:42:30Z</time></trkpt><trkpt lat="44.74888054766413" lon="10.026227716130798"><ele>239.0</ele><time>2026-04-10T14:42:31Z</time></trkpt><trkpt lat="44.74883919887832" lon="10.026099917213568"><ele>240.0</ele><time>2026-04-10T14:42:32Z</time></trkpt><trkpt lat="44.74876837566388" lon="10.025963821456761"><ele>241.0</ele><time>2026-04-10T14:42:33Z</time></trkpt><trkpt lat="44.74871122566986" lon="10.02579030855293"><ele>242.0</ele><time>2026-04-10T14:42:34Z</time></trkpt><trkpt lat="44.74864396819165" lon="10.025616563577866"><ele>240.75</ele><time>2026-04-10T14:42:35Z</time></trkpt><trkpt lat="44.74857458903028" lon="10.025475365049408"><ele>239.5</ele><time>2026-04-10T14:42:36Z</time></trkpt><trkpt lat="44.74849730217942" lon="10.025360988438102"><ele>238.25</ele><time>2026-04-10T14:42:37Z</time></trkpt><trkpt lat="44.748403504166276" lon="10.025274408581186"><ele>237.0</ele><time>2026-04-10T14:42:38Z</time></trkpt><trkpt lat="44.74829840531363" lon="10.025222214181875"><ele>237.0</ele><time>2026-04-10T14:42:39Z</time></trkpt><trkpt lat="44.748193584916066" lon="10.02521872813496"><ele>237.0</ele><time>2026-04-10T14:42:40Z</time></trkpt><trkpt lat="44.748085182954554" lon="10.025251694653862"><ele>237.0</ele><time>2026-04-10T14:42:41Z</time></trkpt><trkpt lat="44.74797585023721" lon="10.025315860501307"><ele>237.0</ele><time>2026-04-10T14:42:42Z</time></trkpt><trkpt lat="44.74787436585824" lon="10.025420073782874"><ele>237.0</ele><time>2026-04-10T14:42:43Z</time></trkpt><trkpt lat="44.74776492637707" lon="10.025527509233502"><ele>237.0</ele><time>2026-04-10T14:42:44Z</time></trkpt><trkpt lat="44.747642894392456" lon="10.02563469071"><ele>237.0</ele><time>2026-04-10T14:42:45Z</time></trkpt><trkpt lat="44.747503812560375" lon="10.02574571850857"><ele>237.0</ele><time>2026-04-10T14:42:46Z</time></trkpt><trkpt lat="44.74737443197484" lon="10.025833987787223"><ele>236.75</ele><time>2026-04-10T14:42:47Z</time></trkpt><trkpt lat="44.74723441632233" lon="10.025895409814963"><ele>236.5</ele><time>2026-04-10T14:42:48Z</time></trkpt><trkpt lat="44.74710551051677" lon="10.025921927858722"><ele>236.25</ele><time>2026-04-10T14:42:49Z</time></trkpt><trkpt lat="44.746980396964204" lon="10.025933778134068"><ele>236.0</ele><time>2026-04-10T14:42:50Z</time></trkpt><trkpt lat="44.746856768466905" lon="10.02592974884282"><ele>235.75</ele><time>2026-04-10T14:42:51Z</time></trkpt><trkpt lat="44.746727112388356" lon="10.025916600401853"><ele>235.5</ele><time>2026-04-10T14:42:52Z</time></trkpt><trkpt lat="44.746592926313916" lon="10.025888220736144"><ele>235.25</ele><time>2026-04-10T14:42:53Z</time></trkpt><trkpt lat="44.746449901434914" lon="10.025836741469268"><ele>235.0</ele><time>2026-04-10T14:42:54Z</time></trkpt><trkpt lat="44.74629466393413" lon="10.025833895925434"><ele>236.0</ele><time>2026-04-10T14:42:55Z</time></trkpt><trkpt lat="44.74614172104856" lon="10.025694842155026"><ele>237.0</ele><time>2026-04-10T14:42:56Z</time></trkpt><trkpt lat="44.745972181432556" lon="10.025611406096171"><ele>238.0</ele><time>2026-04-10T14:42:57Z</time></trkpt><trkpt lat="44.74579553832914" lon="10.025506282534877"><ele>238.0</ele><time>2026-04-10T14:42:58Z</time></trkpt><trkpt lat="44.74562036752025" lon="10.025389596976717"><ele>238.0</ele><time>2026-04-10T14:42:59Z</time></trkpt><trkpt lat="44.74544207513025" lon="10.025259018204425"><ele>238.0</ele><time>2026-04-10T14:43:00Z</time></trkpt><trkpt lat="44.745278629528805" lon="10.025118505147816"><ele>239.33333333333331</ele><time>2026-04-10T14:43:01Z</time></trkpt><trkpt lat="44.74512161217643" lon="10.024962455135702"><ele>240.66666666666669</ele><time>2026-04-10T14:43:02Z</time></trkpt><trkpt lat="44.74496818572738" lon="10.02481138523156"><ele>242.0</ele><time>2026-04-10T14:43:03Z</time></trkpt><trkpt lat="44.74480519705483" lon="10.024657840642028"><ele>242.0</ele><time>2026-04-10T14:43:04Z</time></trkpt><trkpt lat="44.74465729823426" lon="10.024520687847303"><ele>242.0</ele><time>2026-04-10T14:43:05Z</time></trkpt><trkpt lat="44.744521801791194" lon="10.02438892366644"><ele>242.0</ele><time>2026-04-10T14:43:06Z</time></trkpt><trkpt lat="44.74439524371457" lon="10.024265458167609"><ele>241.75</ele><time>2026-04-10T14:43:07Z</time></trkpt><trkpt lat="44.74427604962255" lon="10.02414856854815"><ele>241.5</ele><time>2026-04-10T14:43:08Z</time></trkpt><trkpt lat="44.744168588394324" lon="10.02404090429596"><ele>241.25</ele><time>2026-04-10T14:43:09Z</time></trkpt><trkpt lat="44.74406367557913" lon="10.023937635030833"><ele>241.0</ele><time>2026-04-10T14:43:10Z</time></trkpt><trkpt lat="44.74396824759128" lon="10.023841359302255"><ele>241.60000000000002</ele><time>2026-04-10T14:43:11Z</time></trkpt><trkpt lat="44.743879197563395" lon="10.023750113728697"><ele>242.20000000000002</ele><time>2026-04-10T14:43:12Z</time></trkpt><trkpt lat="44.743795182561186" lon="10.02366720069527"><ele>242.79999999999998</ele><time>2026-04-10T14:43:13Z</time></trkpt><trkpt lat="44.74371135994366" lon="10.023583197967932"><ele>243.39999999999998</ele><time>2026-04-10T14:43:14Z</time></trkpt><trkpt lat="44.74361271265214" lon="10.023485216231771"><ele>244.0</ele><time>2026-04-10T14:43:15Z</time></trkpt><trkpt lat="44.743508592829116" lon="10.023385872450707"><ele>246.5</ele><time>2026-04-10T14:43:16Z</time></trkpt><trkpt lat="44.74339913420079" lon="10.023280692561602"><ele>249.0</ele><time>2026-04-10T14:43:17Z</time></trkpt><trkpt lat="44.743284474861994" lon="10.023168689407662"><ele>251.5</ele><time>2026-04-10T14:43:18Z</time></trkpt><trkpt lat="44.74316752088606" lon="10.023050879819333"><ele>254.0</ele><time>2026-04-10T14:43:19Z</time></trkpt><trkpt lat="44.743063081114414" lon="10.022947720259486"><ele>254.0</ele><time>2026-04-10T14:43:20Z</time></trkpt><trkpt lat="44.74295595271404" lon="10.022851804286248"><ele>254.0</ele><time>2026-04-10T14:43:21Z</time></trkpt><trkpt lat="44.742840317298025" lon="10.022763802180037"><ele>254.0</ele><time>2026-04-10T14:43:22Z</time></trkpt><trkpt lat="44.74271599537079" lon="10.022679058780035"><ele>254.0</ele><time>2026-04-10T14:43:23Z</time></trkpt><trkpt lat="44.742573729637066" lon="10.022596072506927"><ele>254.0</ele><time>2026-04-10T14:43:24Z</time></trkpt><trkpt lat="44.74241191086979" lon="10.022511429928294"><ele>254.0</ele><time>2026-04-10T14:43:25Z</time></trkpt><trkpt lat="44.74224591818189" lon="10.022422835991257"><ele>254.0</ele><time>2026-04-10T14:43:26Z</time></trkpt><trkpt lat="44.74211121162905" lon="10.022365618108074"><ele>263.6666666666667</ele><time>2026-04-10T14:43:27Z</time></trkpt><trkpt lat="44.74192715678003" lon="10.022279118629164"><ele>273.3333333333333</ele><time>2026-04-10T14:43:28Z</time></trkpt><trkpt lat="44.74174316558666" lon="10.022194836158745"><ele>283.0</ele><time>2026-04-10T14:43:29Z</time></trkpt><trkpt lat="44.74156585657675" lon="10.022114137429362"><ele>286.66666666666663</ele><time>2026-04-10T14:43:30Z</time></trkpt><trkpt lat="44.741404909362316" lon="10.022045431015643"><ele>290.3333333333333</ele><time>2026-04-10T14:43:31Z</time></trkpt><trkpt lat="44.74125767628523" lon="10.02200204732749"><ele>294.0</ele><time>2026-04-10T14:43:32Z</time></trkpt><trkpt lat="44.74110858936134" lon="10.021942743386063"><ele>290.0</ele><time>2026-04-10T14:43:33Z</time></trkpt><trkpt lat="44.740960556092865" lon="10.021844266836402"><ele>286.0</ele><time>2026-04-10T14:43:34Z</time></trkpt><trkpt lat="44.74080851794457" lon="10.021723553686755"><ele>282.0</ele><time>2026-04-10T14:43:35Z</time></trkpt><trkpt lat="44.740672300846384" lon="10.021621229632112"><ele>283.5</ele><time>2026-04-10T14:43:36Z</time></trkpt><trkpt lat="44.74054011627873" lon="10.021539199563719"><ele>285.0</ele><time>2026-04-10T14:43:37Z</time></trkpt><trkpt lat="44.740422841222156" lon="10.021475718313681"><ele>286.5</ele><time>2026-04-10T14:43:38Z</time></trkpt><trkpt lat="44.740310316524436" lon="10.021436413308502"><ele>288.0</ele><time>2026-04-10T14:43:39Z</time></trkpt><trkpt lat="44.7401930744805" lon="10.021392917424793"><ele>288.0</ele><time>2026-04-10T14:43:40Z</time></trkpt><trkpt lat="44.74010252037097" lon="10.021328305677342"><ele>288.0</ele><time>2026-04-10T14:43:41Z</time></trkpt><trkpt lat="44.740020322593644" lon="10.02122223593993"><ele>288.0</ele><time>2026-04-10T14:43:42Z</time></trkpt><trkpt lat="44.73997707870648" lon="10.02109912554697"><ele>288.0</ele><time>2026-04-10T14:43:43Z</time></trkpt><trkpt lat="44.73994798422203" lon="10.02092926649348"><ele>288.0</ele><time>2026-04-10T14:43:44Z</time></trkpt><trkpt lat="44.73993861895361" lon="10.020742460996258"><ele>289.0</ele><time>2026-04-10T14:43:45Z</time></trkpt><trkpt lat="44.73992924434519" lon="10.020604438406743"><ele>290.0</ele><time>2026-04-10T14:43:46Z</time></trkpt><trkpt lat="44.73990568900314" lon="10.020504388492327"><ele>291.0</ele><time>2026-04-10T14:43:47Z</time></trkpt><trkpt lat="44.739853893778744" lon="10.020427573606234"><ele>292.0</ele><time>2026-04-10T14:43:48Z</time></trkpt><trkpt lat="44.739782768872736" lon="10.02035888804669"><ele>293.0</ele><time>2026-04-10T14:43:49Z</time></trkpt><trkpt lat="44.73969863728197" lon="10.020260581370747"><ele>294.0</ele><time>2026-04-10T14:43:50Z</time></trkpt><trkpt lat="44.73962953741647" lon="10.020163960195964"><ele>294.0</ele><time>2026-04-10T14:43:51Z</time></trkpt><trkpt lat="44.739560201485425" lon="10.020063645460056"><ele>294.0</ele><time>2026-04-10T14:43:52Z</time></trkpt><trkpt lat="44.739497286751345" lon="10.01996633662465"><ele>294.0</ele><time>2026-04-10T14:43:53Z</time></trkpt><trkpt lat="44.73945461405551" lon="10.01987712911448"><ele>294.0</ele><time>2026-04-10T14:43:54Z</time></trkpt><trkpt lat="44.739419098973606" lon="10.019797367940626"><ele>294.0</ele><time>2026-04-10T14:43:55Z</time></trkpt><trkpt lat="44.739356286427075" lon="10.01966001709378"><ele>293.0</ele><time>2026-04-10T14:43:57Z</time></trkpt><trkpt lat="44.73930921859006" lon="10.019589906791188"><ele>292.0</ele><time>2026-04-10T14:43:58Z</time></trkpt><trkpt lat="44.73924779046018" lon="10.0195423006495"><ele>291.0</ele><time>2026-04-10T14:43:59Z</time></trkpt><trkpt lat="44.739178618710426" lon="10.019508647792836"><ele>290.0</ele><time>2026-04-10T14:44:00Z</time></trkpt><trkpt lat="44.73911347696442" lon="10.019461005214334"><ele>289.0</ele><time>2026-04-10T14:44:01Z</time></trkpt><trkpt lat="44.73905661221694" lon="10.019401959943995"><ele>288.0</ele><time>2026-04-10T14:44:02Z</time></trkpt><trkpt lat="44.738997399604926" lon="10.019346804117202"><ele>287.0</ele><time>2026-04-10T14:44:03Z</time></trkpt><trkpt lat="44.73894204024022" lon="10.019292945896662"><ele>287.0</ele><time>2026-04-10T14:44:04Z</time></trkpt><trkpt lat="44.738873694531684" lon="10.01921339877546"><ele>287.0</ele><time>2026-04-10T14:44:05Z</time></trkpt><trkpt lat="44.73879421554665" lon="10.01912415867964"><ele>287.0</ele><time>2026-04-10T14:44:06Z</time></trkpt><trkpt lat="44.738715945601484" lon="10.019040519823017"><ele>287.0</ele><time>2026-04-10T14:44:07Z</time></trkpt><trkpt lat="44.73864846843574" lon="10.018970469753118"><ele>287.0</ele><time>2026-04-10T14:44:08Z</time></trkpt><trkpt lat="44.738581045492104" lon="10.018888868317596"><ele>285.8</ele><time>2026-04-10T14:44:09Z</time></trkpt><trkpt lat="44.73852001102191" lon="10.018787932564381"><ele>284.6</ele><time>2026-04-10T14:44:10Z</time></trkpt><trkpt lat="44.73847167412374" lon="10.01866657422238"><ele>283.40000000000003</ele><time>2026-04-10T14:44:11Z</time></trkpt><trkpt lat="44.73841832942577" lon="10.01855418702038"><ele>282.2</ele><time>2026-04-10T14:44:12Z</time></trkpt><trkpt lat="44.7383553753313" lon="10.018448428397225"><ele>281.0</ele><time>2026-04-10T14:44:13Z</time></trkpt><trkpt lat="44.73829202898941" lon="10.018356022565083"><ele>280.2</ele><time>2026-04-10T14:44:14Z</time></trkpt><trkpt lat="44.738235079764515" lon="10.018278997674413"><ele>279.40000000000003</ele><time>2026-04-10T14:44:15Z</time></trkpt><trkpt lat="44.7381921789723" lon="10.018174062862382"><ele>278.6</ele><time>2026-04-10T14:44:16Z</time></trkpt><trkpt lat="44.73816143485493" lon="10.018059370024968"><ele>277.8</ele><time>2026-04-10T14:44:17Z</time></trkpt><trkpt lat="44.738147021469594" lon="10.017938800704378"><ele>277.0</ele><time>2026-04-10T14:44:18Z</time></trkpt><trkpt lat="44.7381383565737" lon="10.017779438546228"><ele>277.0</ele><time>2026-04-10T14:44:19Z</time></trkpt><trkpt lat="44.738140538021504" lon="10.017606377394042"><ele>277.0</ele><time>2026-04-10T14:44:20Z</time></trkpt><trkpt lat="44.73815003238793" lon="10.017436030040042"><ele>277.0</ele><time>2026-04-10T14:44:21Z</time></trkpt><trkpt lat="44.738135026858" lon="10.017284827021973"><ele>277.0</ele><time>2026-04-10T14:44:22Z</time></trkpt><trkpt lat="44.738079087829036" lon="10.017140993024721"><ele>276.75</ele><time>2026-04-10T14:44:23Z</time></trkpt><trkpt lat="44.737991198555754" lon="10.01700717490358"><ele>276.5</ele><time>2026-04-10T14:44:24Z</time></trkpt><trkpt lat="44.737874691220156" lon="10.016870606823804"><ele>276.25</ele><time>2026-04-10T14:44:25Z</time></trkpt><trkpt lat="44.73777112596496" lon="10.016697792920981"><ele>276.0</ele><time>2026-04-10T14:44:26Z</time></trkpt><trkpt lat="44.73768281713869" lon="10.016475079229291"><ele>276.0</ele><time>2026-04-10T14:44:27Z</time></trkpt><trkpt lat="44.737597884914514" lon="10.016218960876323"><ele>276.0</ele><time>2026-04-10T14:44:28Z</time></trkpt><trkpt lat="44.73751527131982" lon="10.015992701727223"><ele>276.0</ele><time>2026-04-10T14:44:29Z</time></trkpt><trkpt lat="44.737435435658504" lon="10.015789249018255"><ele>276.5</ele><time>2026-04-10T14:44:30Z</time></trkpt><trkpt lat="44.73736452579955" lon="10.015600723549403"><ele>277.0</ele><time>2026-04-10T14:44:31Z</time></trkpt><trkpt lat="44.73729582965164" lon="10.015432318905383"><ele>277.5</ele><time>2026-04-10T14:44:32Z</time></trkpt><trkpt lat="44.737224538509714" lon="10.015266783212518"><ele>278.0</ele><time>2026-04-10T14:44:33Z</time></trkpt><trkpt lat="44.73715804926854" lon="10.015099239982582"><ele>277.75</ele><time>2026-04-10T14:44:34Z</time></trkpt><trkpt lat="44.73710647154309" lon="10.014941609166996"><ele>277.5</ele><time>2026-04-10T14:44:35Z</time></trkpt><trkpt lat="44.737077272842626" lon="10.014791903598564"><ele>277.25</ele><time>2026-04-10T14:44:36Z</time></trkpt><trkpt lat="44.73704856626544" lon="10.014635878926585"><ele>277.0</ele><time>2026-04-10T14:44:37Z</time></trkpt><trkpt lat="44.73702087688895" lon="10.014479025089212"><ele>277.0</ele><time>2026-04-10T14:44:38Z</time></trkpt><trkpt lat="44.736994745138674" lon="10.014333680679043"><ele>277.0</ele><time>2026-04-10T14:44:39Z</time></trkpt><trkpt lat="44.73697327957946" lon="10.014196190103545"><ele>277.0</ele><time>2026-04-10T14:44:40Z</time></trkpt><trkpt lat="44.736953927495136" lon="10.01406287988149"><ele>277.0</ele><time>2026-04-10T14:44:41Z</time></trkpt><trkpt lat="44.7369336930133" lon="10.013934967526431"><ele>277.0</ele><time>2026-04-10T14:44:42Z</time></trkpt><trkpt lat="44.736902904024184" lon="10.013810891358764"><ele>278.0</ele><time>2026-04-10T14:44:43Z</time></trkpt><trkpt lat="44.736857525863705" lon="10.013696130659635"><ele>279.0</ele><time>2026-04-10T14:44:44Z</time></trkpt><trkpt lat="44.73679769623304" lon="10.013566102572865"><ele>280.0</ele><time>2026-04-10T14:44:45Z</time></trkpt><trkpt lat="44.73673611809493" lon="10.01343435438127"><ele>281.0</ele><time>2026-04-10T14:44:46Z</time></trkpt><trkpt lat="44.7366799582109" lon="10.01330244800326"><ele>282.0</ele><time>2026-04-10T14:44:47Z</time></trkpt><trkpt lat="44.736632172499135" lon="10.013161173707502"><ele>283.0</ele><time>2026-04-10T14:44:48Z</time></trkpt><trkpt lat="44.736580171951054" lon="10.013010972863354"><ele>284.0</ele><time>2026-04-10T14:44:49Z</time></trkpt><trkpt lat="44.736541621885515" lon="10.01287273000887"><ele>285.0</ele><time>2026-04-10T14:44:50Z</time></trkpt><trkpt lat="44.73652371793886" lon="10.012761700661152"><ele>286.0</ele><time>2026-04-10T14:44:51Z</time></trkpt><trkpt lat="44.73651883855163" lon="10.012622302924202"><ele>287.0</ele><time>2026-04-10T14:44:52Z</time></trkpt><trkpt lat="44.736521455916694" lon="10.012498459676566"><ele>289.6</ele><time>2026-04-10T14:44:53Z</time></trkpt><trkpt lat="44.73653934823191" lon="10.012366538158197"><ele>292.2</ele><time>2026-04-10T14:44:54Z</time></trkpt><trkpt lat="44.736566945324746" lon="10.0122358804422"><ele>294.8</ele><time>2026-04-10T14:44:55Z</time></trkpt><trkpt lat="44.73657614444792" lon="10.01209690701669"><ele>297.4</ele><time>2026-04-10T14:44:56Z</time></trkpt><trkpt lat="44.73655986729178" lon="10.011951758613218"><ele>300.0</ele><time>2026-04-10T14:44:57Z</time></trkpt><trkpt lat="44.73652936758606" lon="10.01181344797008"><ele>300.0</ele><time>2026-04-10T14:44:58Z</time></trkpt><trkpt lat="44.73648728522662" lon="10.011671280417875"><ele>300.0</ele><time>2026-04-10T14:44:59Z</time></trkpt><trkpt lat="44.7364379036531" lon="10.011539533801317"><ele>300.0</ele><time>2026-04-10T14:45:00Z</time></trkpt><trkpt lat="44.7363824918988" lon="10.011403057162758"><ele>300.0</ele><time>2026-04-10T14:45:01Z</time></trkpt><trkpt lat="44.736334892927765" lon="10.01127824799632"><ele>300.0</ele><time>2026-04-10T14:45:02Z</time></trkpt><trkpt lat="44.73628764972277" lon="10.011140826789473"><ele>303.8</ele><time>2026-04-10T14:45:03Z</time></trkpt><trkpt lat="44.736251413319145" lon="10.010996236613362"><ele>307.6</ele><time>2026-04-10T14:45:04Z</time></trkpt><trkpt lat="44.73622488639423" lon="10.010846762071044"><ele>311.4</ele><time>2026-04-10T14:45:05Z</time></trkpt><trkpt lat="44.73620644971044" lon="10.010707245521711"><ele>315.2</ele><time>2026-04-10T14:45:06Z</time></trkpt><trkpt lat="44.73617658817953" lon="10.010591003264098"><ele>319.0</ele><time>2026-04-10T14:45:07Z</time></trkpt><trkpt lat="44.736121507122675" lon="10.010465534983322"><ele>319.0</ele><time>2026-04-10T14:45:08Z</time></trkpt><trkpt lat="44.73605693536882" lon="10.010354776999495"><ele>319.0</ele><time>2026-04-10T14:45:09Z</time></trkpt><trkpt lat="44.7359755165908" lon="10.010253591602144"><ele>319.0</ele><time>2026-04-10T14:45:10Z</time></trkpt><trkpt lat="44.73589513419606" lon="10.010167891996119"><ele>319.0</ele><time>2026-04-10T14:45:11Z</time></trkpt><trkpt lat="44.73581684396069" lon="10.010077516401259"><ele>319.0</ele><time>2026-04-10T14:45:12Z</time></trkpt><trkpt lat="44.735746475658786" lon="10.009971695903408"><ele>319.0</ele><time>2026-04-10T14:45:13Z</time></trkpt><trkpt lat="44.73568609179068" lon="10.009859626862244"><ele>319.0</ele><time>2026-04-10T14:45:14Z</time></trkpt><trkpt lat="44.73562901378962" lon="10.009748720608625"><ele>319.0</ele><time>2026-04-10T14:45:15Z</time></trkpt><trkpt lat="44.735543934244085" lon="10.00959090590517"><ele>319.0</ele><time>2026-04-10T14:45:17Z</time></trkpt><trkpt lat="44.735507718214485" lon="10.009479410172425"><ele>319.0</ele><time>2026-04-10T14:45:18Z</time></trkpt><trkpt lat="44.73547997419598" lon="10.009358081977282"><ele>319.0</ele><time>2026-04-10T14:45:19Z</time></trkpt><trkpt lat="44.73547610468842" lon="10.009251938376787"><ele>319.0</ele><time>2026-04-10T14:45:20Z</time></trkpt><trkpt lat="44.73548126329048" lon="10.00913887146604"><ele>319.0</ele><time>2026-04-10T14:45:21Z</time></trkpt><trkpt lat="44.73549677659545" lon="10.009024879886669"><ele>319.0</ele><time>2026-04-10T14:45:22Z</time></trkpt><trkpt lat="44.73551341326357" lon="10.008896422417905"><ele>319.0</ele><time>2026-04-10T14:45:23Z</time></trkpt><trkpt lat="44.73552801478943" lon="10.008740967361751"><ele>319.0</ele><time>2026-04-10T14:45:24Z</time></trkpt><trkpt lat="44.7355412052182" lon="10.00859070363114"><ele>319.2</ele><time>2026-04-10T14:45:25Z</time></trkpt><trkpt lat="44.73554420813793" lon="10.008449498664167"><ele>319.4</ele><time>2026-04-10T14:45:26Z</time></trkpt><trkpt lat="44.735559649773336" lon="10.008317287897066"><ele>319.6</ele><time>2026-04-10T14:45:27Z</time></trkpt><trkpt lat="44.735577910771894" lon="10.008215034883456"><ele>319.8</ele><time>2026-04-10T14:45:28Z</time></trkpt><trkpt lat="44.735600820558645" lon="10.008073952994252"><ele>320.0</ele><time>2026-04-10T14:45:29Z</time></trkpt><trkpt lat="44.73562556082625" lon="10.007942402905966"><ele>321.75</ele><time>2026-04-10T14:45:30Z</time></trkpt><trkpt lat="44.735642237057185" lon="10.007779067240133"><ele>323.5</ele><time>2026-04-10T14:45:31Z</time></trkpt><trkpt lat="44.73566577021337" lon="10.007622532250158"><ele>325.25</ele><time>2026-04-10T14:45:32Z</time></trkpt><trkpt lat="44.73569919869922" lon="10.007475735140211"><ele>327.0</ele><time>2026-04-10T14:45:33Z</time></trkpt><trkpt lat="44.735744175017004" lon="10.007332992999938"><ele>327.5</ele><time>2026-04-10T14:45:34Z</time></trkpt><trkpt lat="44.7357898044386" lon="10.007210251199607"><ele>328.0</ele><time>2026-04-10T14:45:35Z</time></trkpt><trkpt lat="44.73581434871688" lon="10.007120968028918"><ele>328.5</ele><time>2026-04-10T14:45:36Z</time></trkpt><trkpt lat="44.73580970101376" lon="10.00702980502292"><ele>329.0</ele><time>2026-04-10T14:45:37Z</time></trkpt><trkpt lat="44.73581643289016" lon="10.00689893246856"><ele>329.5</ele><time>2026-04-10T14:45:38Z</time></trkpt><trkpt lat="44.735837172529486" lon="10.006765626660737"><ele>330.0</ele><time>2026-04-10T14:45:39Z</time></trkpt><trkpt lat="44.73587694629519" lon="10.006615613845558"><ele>330.0</ele><time>2026-04-10T14:45:40Z</time></trkpt><trkpt lat="44.73592684300128" lon="10.006491661485896"><ele>330.0</ele><time>2026-04-10T14:45:41Z</time></trkpt><trkpt lat="44.735989384086324" lon="10.006378741103934"><ele>330.0</ele><time>2026-04-10T14:45:42Z</time></trkpt><trkpt lat="44.73605236727372" lon="10.006275191408587"><ele>330.0</ele><time>2026-04-10T14:45:43Z</time></trkpt><trkpt lat="44.73612188345211" lon="10.00614983067544"><ele>330.0</ele><time>2026-04-10T14:45:44Z</time></trkpt><trkpt lat="44.736199946863316" lon="10.006050786706913"><ele>333.2</ele><time>2026-04-10T14:45:45Z</time></trkpt><trkpt lat="44.736280167122914" lon="10.005984414423382"><ele>336.4</ele><time>2026-04-10T14:45:46Z</time></trkpt><trkpt lat="44.73637856251478" lon="10.005923202074495"><ele>339.6</ele><time>2026-04-10T14:45:47Z</time></trkpt><trkpt lat="44.736485807198534" lon="10.005862565928513"><ele>342.8</ele><time>2026-04-10T14:45:48Z</time></trkpt><trkpt lat="44.736589950513185" lon="10.005790454044952"><ele>346.0</ele><time>2026-04-10T14:45:49Z</time></trkpt><trkpt lat="44.73669450131769" lon="10.005701781084673"><ele>346.75</ele><time>2026-04-10T14:45:50Z</time></trkpt><trkpt lat="44.73678981292907" lon="10.005610553300725"><ele>347.5</ele><time>2026-04-10T14:45:51Z</time></trkpt><trkpt lat="44.73688573579095" lon="10.00550636608651"><ele>348.25</ele><time>2026-04-10T14:45:52Z</time></trkpt><trkpt lat="44.73698551605843" lon="10.005396182970353"><ele>349.0</ele><time>2026-04-10T14:45:53Z</time></trkpt><trkpt lat="44.73706511480718" lon="10.005298869008715"><ele>349.0</ele><time>2026-04-10T14:45:54Z</time></trkpt><trkpt lat="44.73712755048443" lon="10.0052211983114"><ele>349.0</ele><time>2026-04-10T14:45:55Z</time></trkpt><trkpt lat="44.73717743925138" lon="10.005157121088047"><ele>349.0</ele><time>2026-04-10T14:45:56Z</time></trkpt><trkpt lat="44.737213054991194" lon="10.005074518132254"><ele>349.0</ele><time>2026-04-10T14:45:57Z</time></trkpt><trkpt lat="44.73722451692081" lon="10.004872747243063"><ele>349.0</ele><time>2026-04-10T14:45:59Z</time></trkpt><trkpt lat="44.73719350575316" lon="10.004751902879452"><ele>349.2</ele><time>2026-04-10T14:46:00Z</time></trkpt><trkpt lat="44.73714304963165" lon="10.00464283002621"><ele>349.4</ele><time>2026-04-10T14:46:01Z</time></trkpt><trkpt lat="44.737092660746285" lon="10.004514584162413"><ele>349.6</ele><time>2026-04-10T14:46:02Z</time></trkpt><trkpt lat="44.737046793942675" lon="10.004386412764726"><ele>349.8</ele><time>2026-04-10T14:46:03Z</time></trkpt><trkpt lat="44.73699918273586" lon="10.004271808139862"><ele>350.0</ele><time>2026-04-10T14:46:04Z</time></trkpt><trkpt lat="44.73695057772756" lon="10.004149681492823"><ele>350.0</ele><time>2026-04-10T14:46:05Z</time></trkpt><trkpt lat="44.73690564797533" lon="10.004036160259407"><ele>350.0</ele><time>2026-04-10T14:46:06Z</time></trkpt><trkpt lat="44.73689072328139" lon="10.003892137197377"><ele>350.0</ele><time>2026-04-10T14:46:07Z</time></trkpt><trkpt lat="44.736871816057636" lon="10.003769256690504"><ele>350.0</ele><time>2026-04-10T14:46:08Z</time></trkpt><trkpt lat="44.73685258007014" lon="10.003654006289246"><ele>350.0</ele><time>2026-04-10T14:46:09Z</time></trkpt><trkpt lat="44.736832175978186" lon="10.003542280521854"><ele>352.4</ele><time>2026-04-10T14:46:10Z</time></trkpt><trkpt lat="44.736804563768146" lon="10.003413790984563"><ele>354.8</ele><time>2026-04-10T14:46:11Z</time></trkpt><trkpt lat="44.736755732673025" lon="10.00329225507061"><ele>357.20000000000005</ele><time>2026-04-10T14:46:12Z</time></trkpt><trkpt lat="44.736727159128606" lon="10.003173132166106"><ele>359.6</ele><time>2026-04-10T14:46:13Z</time></trkpt><trkpt lat="44.73671480001928" lon="10.003047273854923"><ele>362.0</ele><time>2026-04-10T14:46:14Z</time></trkpt><trkpt lat="44.73669276709108" lon="10.002910022124574"><ele>362.8</ele><time>2026-04-10T14:46:15Z</time></trkpt><trkpt lat="44.73667272951172" lon="10.002768849354352"><ele>363.6</ele><time>2026-04-10T14:46:16Z</time></trkpt><trkpt lat="44.73666049814272" lon="10.002637340623764"><ele>364.40000000000003</ele><time>2026-04-10T14:46:17Z</time></trkpt><trkpt lat="44.73662948364432" lon="10.002509813099397"><ele>365.20000000000005</ele><time>2026-04-10T14:46:18Z</time></trkpt><trkpt lat="44.736609836522426" lon="10.002392084522908"><ele>366.0</ele><time>2026-04-10T14:46:19Z</time></trkpt><trkpt lat="44.73657410246841" lon="10.002270036841036"><ele>366.0</ele><time>2026-04-10T14:46:20Z</time></trkpt><trkpt lat="44.73652737522323" lon="10.00217075953426"><ele>366.0</ele><time>2026-04-10T14:46:21Z</time></trkpt><trkpt lat="44.736464168312644" lon="10.002081741832495"><ele>366.0</ele><time>2026-04-10T14:46:22Z</time></trkpt><trkpt lat="44.73638220266923" lon="10.002012398948908"><ele>366.0</ele><time>2026-04-10T14:46:23Z</time></trkpt><trkpt lat="44.736288782424936" lon="10.001962148013515"><ele>366.0</ele><time>2026-04-10T14:46:24Z</time></trkpt><trkpt lat="44.73618161704593" lon="10.00193587662062"><ele>366.0</ele><time>2026-04-10T14:46:25Z</time></trkpt><trkpt lat="44.736079749295975" lon="10.001914609131857"><ele>366.0</ele><time>2026-04-10T14:46:26Z</time></trkpt><trkpt lat="44.736002731808895" lon="10.001843602726673"><ele>366.0</ele><time>2026-04-10T14:46:27Z</time></trkpt><trkpt lat="44.735928637431485" lon="10.001770933979175"><ele>366.0</ele><time>2026-04-10T14:46:28Z</time></trkpt><trkpt lat="44.73587001933099" lon="10.001661106273385"><ele>366.0</ele><time>2026-04-10T14:46:29Z</time></trkpt><trkpt lat="44.73583099490935" lon="10.001533958712326"><ele>367.6</ele><time>2026-04-10T14:46:30Z</time></trkpt><trkpt lat="44.735788392943185" lon="10.001388887444225"><ele>369.20000000000005</ele><time>2026-04-10T14:46:31Z</time></trkpt><trkpt lat="44.73572891284557" lon="10.001235129618154"><ele>370.79999999999995</ele><time>2026-04-10T14:46:32Z</time></trkpt><trkpt lat="44.735696210065754" lon="10.001092791012065"><ele>372.4</ele><time>2026-04-10T14:46:33Z</time></trkpt><trkpt lat="44.735681393438476" lon="10.000949635869807"><ele>374.0</ele><time>2026-04-10T14:46:34Z</time></trkpt><trkpt lat="44.735660986476844" lon="10.000802229392104"><ele>376.0</ele><time>2026-04-10T14:46:35Z</time></trkpt><trkpt lat="44.735642734015066" lon="10.000641222278272"><ele>378.0</ele><time>2026-04-10T14:46:36Z</time></trkpt><trkpt lat="44.73562895862079" lon="10.000464701890651"><ele>380.0</ele><time>2026-04-10T14:46:37Z</time></trkpt><trkpt lat="44.73561635223521" lon="10.000291275220537"><ele>382.0</ele><time>2026-04-10T14:46:38Z</time></trkpt><trkpt lat="44.73560456378089" lon="10.000118161697921"><ele>382.0</ele><time>2026-04-10T14:46:39Z</time></trkpt><trkpt lat="44.73558434427148" lon="9.999949257428334"><ele>382.0</ele><time>2026-04-10T14:46:40Z</time></trkpt><trkpt lat="44.73554687511093" lon="9.999783507297309"><ele>382.0</ele><time>2026-04-10T14:46:41Z</time></trkpt><trkpt lat="44.73547363642899" lon="9.999662140546336"><ele>382.0</ele><time>2026-04-10T14:46:42Z</time></trkpt><trkpt lat="44.7354141655984" lon="9.99955172161535"><ele>382.0</ele><time>2026-04-10T14:46:43Z</time></trkpt><trkpt lat="44.735350428251564" lon="9.999475446530969"><ele>382.0</ele><time>2026-04-10T14:46:44Z</time></trkpt><trkpt lat="44.73528014780237" lon="9.99940876936794"><ele>382.0</ele><time>2026-04-10T14:46:45Z</time></trkpt><trkpt lat="44.73520697577111" lon="9.999357955710009"><ele>382.0</ele><time>2026-04-10T14:46:46Z</time></trkpt><trkpt lat="44.73511631564102" lon="9.999294916706571"><ele>382.0</ele><time>2026-04-10T14:46:47Z</time></trkpt><trkpt lat="44.73500406035505" lon="9.999256202206885"><ele>382.75</ele><time>2026-04-10T14:46:48Z</time></trkpt><trkpt lat="44.734894470641635" lon="9.999178395091738"><ele>383.5</ele><time>2026-04-10T14:46:49Z</time></trkpt><trkpt lat="44.73479115263069" lon="9.999117954829034"><ele>384.25</ele><time>2026-04-10T14:46:50Z</time></trkpt><trkpt lat="44.73468341014245" lon="9.999070496862025"><ele>385.0</ele><time>2026-04-10T14:46:51Z</time></trkpt><trkpt lat="44.73457007244396" lon="9.999000217451094"><ele>385.0</ele><time>2026-04-10T14:46:52Z</time></trkpt><trkpt lat="44.73444732435194" lon="9.998925236871962"><ele>385.0</ele><time>2026-04-10T14:46:53Z</time></trkpt><trkpt lat="44.734329844459324" lon="9.998826218922435"><ele>385.0</ele><time>2026-04-10T14:46:54Z</time></trkpt><trkpt lat="44.734205193121944" lon="9.998742418883678"><ele>385.0</ele><time>2026-04-10T14:46:55Z</time></trkpt><trkpt lat="44.73408114187469" lon="9.998652690718197"><ele>385.5</ele><time>2026-04-10T14:46:56Z</time></trkpt><trkpt lat="44.733973090283726" lon="9.998565703584868"><ele>386.0</ele><time>2026-04-10T14:46:57Z</time></trkpt><trkpt lat="44.733877404038815" lon="9.998460189819495"><ele>386.5</ele><time>2026-04-10T14:46:58Z</time></trkpt><trkpt lat="44.73379120698781" lon="9.998344159593783"><ele>387.0</ele><time>2026-04-10T14:46:59Z</time></trkpt><trkpt lat="44.73370393017272" lon="9.998226983325534"><ele>387.0</ele><time>2026-04-10T14:47:00Z</time></trkpt><trkpt lat="44.7336356506381" lon="9.99813587357685"><ele>387.0</ele><time>2026-04-10T14:47:01Z</time></trkpt><trkpt lat="44.733582313349935" lon="9.998069829563445"><ele>387.0</ele><time>2026-04-10T14:47:02Z</time></trkpt><trkpt lat="44.73350393309429" lon="9.997984177045582"><ele>387.0</ele><time>2026-04-10T14:47:04Z</time></trkpt><trkpt lat="44.73344088334233" lon="9.997971441754983"><ele>387.0</ele><time>2026-04-10T14:47:05Z</time></trkpt><trkpt lat="44.73338228947911" lon="9.998043050037102"><ele>387.0</ele><time>2026-04-10T14:47:06Z</time></trkpt><trkpt lat="44.733372116842915" lon="9.99822104885346"><ele>388.1666666666667</ele><time>2026-04-10T14:47:08Z</time></trkpt><trkpt lat="44.73340209022156" lon="9.99832818545846"><ele>389.33333333333337</ele><time>2026-04-10T14:47:09Z</time></trkpt><trkpt lat="44.73343081774836" lon="9.998422200053108"><ele>390.5</ele><time>2026-04-10T14:47:10Z</time></trkpt><trkpt lat="44.73336832747094" lon="9.998524634331147"><ele>391.6666666666667</ele><time>2026-04-10T14:47:12Z</time></trkpt><trkpt lat="44.73329356665979" lon="9.998549844698084"><ele>392.83333333333337</ele><time>2026-04-10T14:47:14Z</time></trkpt><trkpt lat="44.73322081205269" lon="9.998480578358528"><ele>394.0</ele><time>2026-04-10T14:47:16Z</time></trkpt><trkpt lat="44.733209888483145" lon="9.998336564096904"><ele>395.42857142857144</ele><time>2026-04-10T14:47:18Z</time></trkpt><trkpt lat="44.73320308579243" lon="9.998222987171259"><ele>396.8571428571429</ele><time>2026-04-10T14:47:19Z</time></trkpt><trkpt lat="44.733191932388635" lon="9.998135031708168"><ele>398.2857142857143</ele><time>2026-04-10T14:47:20Z</time></trkpt><trkpt lat="44.733175589397064" lon="9.998047132085434"><ele>399.7142857142857</ele><time>2026-04-10T14:47:21Z</time></trkpt><trkpt lat="44.73311943215087" lon="9.997976875114142"><ele>401.1428571428571</ele><time>2026-04-10T14:47:22Z</time></trkpt><trkpt lat="44.73304279288975" lon="9.997970364606685"><ele>402.57142857142856</ele><time>2026-04-10T14:47:23Z</time></trkpt><trkpt lat="44.732974258962095" lon="9.997980072889222"><ele>404.0</ele><time>2026-04-10T14:47:24Z</time></trkpt><trkpt lat="44.73290182895576" lon="9.998023931907492"><ele>403.99999999999994</ele><time>2026-04-10T14:47:25Z</time></trkpt><trkpt lat="44.73284110631199" lon="9.998089321101004"><ele>404.0</ele><time>2026-04-10T14:47:26Z</time></trkpt><trkpt lat="44.73276454552705" lon="9.998175772294376"><ele>404.0</ele><time>2026-04-10T14:47:27Z</time></trkpt><trkpt lat="44.73268649059595" lon="9.99823734640829"><ele>404.0</ele><time>2026-04-10T14:47:28Z</time></trkpt><trkpt lat="44.73259011398537" lon="9.998236159238052"><ele>403.99999999999994</ele><time>2026-04-10T14:47:29Z</time></trkpt><trkpt lat="44.73251056833344" lon="9.998230132321888"><ele>404.0</ele><time>2026-04-10T14:47:30Z</time></trkpt><trkpt lat="44.73241191368165" lon="9.99822183221187"><ele>406.4</ele><time>2026-04-10T14:47:31Z</time></trkpt><trkpt lat="44.73229394022524" lon="9.99823372332362"><ele>408.79999999999995</ele><time>2026-04-10T14:47:32Z</time></trkpt><trkpt lat="44.73218879654815" lon="9.998216646895699"><ele>411.20000000000005</ele><time>2026-04-10T14:47:33Z</time></trkpt><trkpt lat="44.73208300512929" lon="9.99820704164348"><ele>413.6</ele><time>2026-04-10T14:47:34Z</time></trkpt><trkpt lat="44.73199585911308" lon="9.998170440462614"><ele>416.0</ele><time>2026-04-10T14:47:35Z</time></trkpt><trkpt lat="44.73189816614856" lon="9.99813406922562"><ele>417.6</ele><time>2026-04-10T14:47:36Z</time></trkpt><trkpt lat="44.73178590033783" lon="9.99811002843516"><ele>419.20000000000005</ele><time>2026-04-10T14:47:37Z</time></trkpt><trkpt lat="44.73169338305952" lon="9.998075590598063"><ele>420.79999999999995</ele><time>2026-04-10T14:47:38Z</time></trkpt><trkpt lat="44.73160289610406" lon="9.998074861640259"><ele>422.4</ele><time>2026-04-10T14:47:39Z</time></trkpt><trkpt lat="44.731507722721204" lon="9.998108043071355"><ele>424.0</ele><time>2026-04-10T14:47:40Z</time></trkpt><trkpt lat="44.73142662863174" lon="9.998144869143069"><ele>424.0</ele><time>2026-04-10T14:47:41Z</time></trkpt><trkpt lat="44.73134027710723" lon="9.99817729714076"><ele>424.0</ele><time>2026-04-10T14:47:42Z</time></trkpt><trkpt lat="44.73125641668557" lon="9.998244711651182"><ele>424.0</ele><time>2026-04-10T14:47:43Z</time></trkpt><trkpt lat="44.73118059960416" lon="9.998304363825206"><ele>424.0</ele><time>2026-04-10T14:47:44Z</time></trkpt><trkpt lat="44.73110813073669" lon="9.998359541065316"><ele>424.0</ele><time>2026-04-10T14:47:45Z</time></trkpt><trkpt lat="44.73101686082051" lon="9.998427937054844"><ele>426.5</ele><time>2026-04-10T14:47:46Z</time></trkpt><trkpt lat="44.7309256237878" lon="9.998496384795757"><ele>429.0</ele><time>2026-04-10T14:47:47Z</time></trkpt><trkpt lat="44.73081149371272" lon="9.998604345478375"><ele>431.5</ele><time>2026-04-10T14:47:49Z</time></trkpt><trkpt lat="44.730723648227645" lon="9.998638394043727"><ele>434.0</ele><time>2026-04-10T14:47:50Z</time></trkpt><trkpt lat="44.7306135599005" lon="9.998724734983057"><ele>434.0</ele><time>2026-04-10T14:47:51Z</time></trkpt><trkpt lat="44.730513937424696" lon="9.998784238113243"><ele>434.0</ele><time>2026-04-10T14:47:52Z</time></trkpt><trkpt lat="44.7304274828277" lon="9.998817840923612"><ele>434.0</ele><time>2026-04-10T14:47:53Z</time></trkpt><trkpt lat="44.73034494637634" lon="9.998853290773823"><ele>434.0</ele><time>2026-04-10T14:47:54Z</time></trkpt><trkpt lat="44.73020116866496" lon="9.998926729632021"><ele>434.0</ele><time>2026-04-10T14:47:55Z</time></trkpt><trkpt lat="44.73012087133703" lon="9.99898381758658"><ele>434.8333333333333</ele><time>2026-04-10T14:47:56Z</time></trkpt><trkpt lat="44.730065001498666" lon="9.99908022873215"><ele>435.66666666666663</ele><time>2026-04-10T14:47:57Z</time></trkpt><trkpt lat="44.730035136919895" lon="9.999160536998804"><ele>436.5</ele><time>2026-04-10T14:47:58Z</time></trkpt><trkpt lat="44.73001262022381" lon="9.999246684499582"><ele>437.33333333333337</ele><time>2026-04-10T14:47:59Z</time></trkpt><trkpt lat="44.72998563446895" lon="9.999406853538598"><ele>438.1666666666667</ele><time>2026-04-10T14:48:00Z</time></trkpt><trkpt lat="44.72995219396329" lon="9.999550961044807"><ele>439.0</ele><time>2026-04-10T14:48:01Z</time></trkpt><trkpt lat="44.72989877182343" lon="9.999630502755213"><ele>439.0</ele><time>2026-04-10T14:48:03Z</time></trkpt><trkpt lat="44.72982629858474" lon="9.999677714495622"><ele>439.0</ele><time>2026-04-10T14:48:06Z</time></trkpt><trkpt lat="44.7297435579843" lon="9.999657062006508"><ele>439.0</ele><time>2026-04-10T14:48:09Z</time></trkpt><trkpt lat="44.7296221297264" lon="9.999655674804517"><ele>439.0</ele><time>2026-04-10T14:48:11Z</time></trkpt><trkpt lat="44.72955808792065" lon="9.999681753712615"><ele>439.0</ele><time>2026-04-10T14:48:12Z</time></trkpt><trkpt lat="44.72945742038453" lon="9.999709513970306"><ele>439.2</ele><time>2026-04-10T14:48:14Z</time></trkpt><trkpt lat="44.72937532117654" lon="9.999652443902535"><ele>439.4</ele><time>2026-04-10T14:48:16Z</time></trkpt><trkpt lat="44.72929181763057" lon="9.999546502605469"><ele>439.6</ele><time>2026-04-10T14:48:18Z</time></trkpt><trkpt lat="44.72920827327276" lon="9.999452525937686"><ele>439.8</ele><time>2026-04-10T14:48:20Z</time></trkpt><trkpt lat="44.72914559241111" lon="9.999406005629481"><ele>440.0</ele><time>2026-04-10T14:48:22Z</time></trkpt><trkpt lat="44.72908589733096" lon="9.999343955044967"><ele>439.99999999999994</ele><time>2026-04-10T14:48:24Z</time></trkpt><trkpt lat="44.729002415080195" lon="9.999278956274614"><ele>440.0</ele><time>2026-04-10T14:48:26Z</time></trkpt><trkpt lat="44.72890249198449" lon="9.99926709229965"><ele>440.0</ele><time>2026-04-10T14:48:28Z</time></trkpt><trkpt lat="44.72880014321601" lon="9.999190460774916"><ele>440.0</ele><time>2026-04-10T14:48:30Z</time></trkpt><trkpt lat="44.72874138936373" lon="9.9991338688234"><ele>439.99999999999994</ele><time>2026-04-10T14:48:31Z</time></trkpt><trkpt lat="44.72869961566467" lon="9.999063340645096"><ele>440.0</ele><time>2026-04-10T14:48:32Z</time></trkpt><trkpt lat="44.72861212611856" lon="9.999014042235673"><ele>443.6</ele><time>2026-04-10T14:48:34Z</time></trkpt><trkpt lat="44.72852998258908" lon="9.998959672401487"><ele>447.2</ele><time>2026-04-10T14:48:36Z</time></trkpt><trkpt lat="44.72844764408647" lon="9.998940994947933"><ele>450.79999999999995</ele><time>2026-04-10T14:48:37Z</time></trkpt><trkpt lat="44.728381924365905" lon="9.998927133791945"><ele>454.4</ele><time>2026-04-10T14:48:38Z</time></trkpt><trkpt lat="44.72827541283826" lon="9.998896143626895"><ele>458.0</ele><time>2026-04-10T14:48:40Z</time></trkpt><trkpt lat="44.72817338710115" lon="9.998858890842676"><ele>457.99999999999994</ele><time>2026-04-10T14:48:42Z</time></trkpt><trkpt lat="44.72807129933108" lon="9.998833353533117"><ele>458.0</ele><time>2026-04-10T14:48:44Z</time></trkpt><trkpt lat="44.72793709160521" lon="9.998808706371705"><ele>458.0</ele><time>2026-04-10T14:48:46Z</time></trkpt><trkpt lat="44.727872292674036" lon="9.998804437115554"><ele>458.0</ele><time>2026-04-10T14:48:47Z</time></trkpt><trkpt lat="44.72780463384644" lon="9.998813688592426"><ele>457.99999999999994</ele><time>2026-04-10T14:48:48Z</time></trkpt><trkpt lat="44.72773914147383" lon="9.998840158598433"><ele>458.0</ele><time>2026-04-10T14:48:49Z</time></trkpt><trkpt lat="44.72768315771162" lon="9.998911148187457"><ele>459.8333333333333</ele><time>2026-04-10T14:48:50Z</time></trkpt><trkpt lat="44.72762978935463" lon="9.998971037151735"><ele>461.66666666666663</ele><time>2026-04-10T14:48:51Z</time></trkpt><trkpt lat="44.72755345817916" lon="9.999052594559926"><ele>463.5</ele><time>2026-04-10T14:48:53Z</time></trkpt><trkpt lat="44.72744243165281" lon="9.999096501430666"><ele>465.33333333333337</ele><time>2026-04-10T14:48:55Z</time></trkpt><trkpt lat="44.72735549355315" lon="9.99913912687096"><ele>467.1666666666667</ele><time>2026-04-10T14:48:56Z</time></trkpt><trkpt lat="44.727284282953676" lon="9.999126690665896"><ele>469.0</ele><time>2026-04-10T14:48:57Z</time></trkpt><trkpt lat="44.72720077257088" lon="9.999102571722094"><ele>469.00000000000006</ele><time>2026-04-10T14:48:59Z</time></trkpt><trkpt lat="44.727117242296316" lon="9.999014630659904"><ele>469.0</ele><time>2026-04-10T14:49:01Z</time></trkpt><trkpt lat="44.72707044308554" lon="9.99894653314064"><ele>469.0</ele><time>2026-04-10T14:49:02Z</time></trkpt><trkpt lat="44.727001953490095" lon="9.998869584230105"><ele>469.0</ele><time>2026-04-10T14:49:03Z</time></trkpt><trkpt lat="44.726952657990736" lon="9.998782134283625"><ele>469.00000000000006</ele><time>2026-04-10T14:49:04Z</time></trkpt><trkpt lat="44.72690321132212" lon="9.99871681428469"><ele>469.0</ele><time>2026-04-10T14:49:05Z</time></trkpt><trkpt lat="44.72686572280716" lon="9.998633274884794"><ele>469.4</ele><time>2026-04-10T14:49:06Z</time></trkpt><trkpt lat="44.726803928706374" lon="9.998546791729611"><ele>469.79999999999995</ele><time>2026-04-10T14:49:07Z</time></trkpt><trkpt lat="44.72675326363913" lon="9.998481218121336"><ele>470.20000000000005</ele><time>2026-04-10T14:49:08Z</time></trkpt><trkpt lat="44.72667135196231" lon="9.998404897942464"><ele>470.6</ele><time>2026-04-10T14:49:10Z</time></trkpt><trkpt lat="44.72655602514625" lon="9.998416024814844"><ele>471.0</ele><time>2026-04-10T14:49:12Z</time></trkpt><trkpt lat="44.726447699222305" lon="9.998445568836395"><ele>471.0</ele><time>2026-04-10T14:49:14Z</time></trkpt><trkpt lat="44.72638823069267" lon="9.998483960620577"><ele>471.0</ele><time>2026-04-10T14:49:15Z</time></trkpt><trkpt lat="44.72628115225285" lon="9.99857138127937"><ele>471.0</ele><time>2026-04-10T14:49:17Z</time></trkpt><trkpt lat="44.726214178883836" lon="9.998625440677342"><ele>471.0</ele><time>2026-04-10T14:49:18Z</time></trkpt><trkpt lat="44.72611536245864" lon="9.998705203075264"><ele>471.0</ele><time>2026-04-10T14:49:20Z</time></trkpt><trkpt lat="44.72607244964366" lon="9.99888041096031"><ele>472.8</ele><time>2026-04-10T14:49:22Z</time></trkpt><trkpt lat="44.726017355880906" lon="9.998930713298858"><ele>474.6</ele><time>2026-04-10T14:49:23Z</time></trkpt><trkpt lat="44.72596500234143" lon="9.998987751815601"><ele>476.4</ele><time>2026-04-10T14:49:24Z</time></trkpt><trkpt lat="44.72589467334444" lon="9.999081368397228"><ele>478.2</ele><time>2026-04-10T14:49:26Z</time></trkpt><trkpt lat="44.72582472136361" lon="9.99925475178345"><ele>480.0</ele><time>2026-04-10T14:49:28Z</time></trkpt><trkpt lat="44.72578122194661" lon="9.99938360903731"><ele>480.0</ele><time>2026-04-10T14:49:29Z</time></trkpt><trkpt lat="44.725755065075475" lon="9.999486273365905"><ele>480.0</ele><time>2026-04-10T14:49:30Z</time></trkpt><trkpt lat="44.72572687749766" lon="9.999602336247243"><ele>480.0</ele><time>2026-04-10T14:49:31Z</time></trkpt><trkpt lat="44.725704977542726" lon="9.999725342528645"><ele>480.0</ele><time>2026-04-10T14:49:32Z</time></trkpt><trkpt lat="44.72566140126388" lon="9.999895002379704"><ele>480.0</ele><time>2026-04-10T14:49:34Z</time></trkpt><trkpt lat="44.72562145985045" lon="9.999983971574563"><ele>480.0</ele><time>2026-04-10T14:49:35Z</time></trkpt><trkpt lat="44.72556569334365" lon="10.000089300908993"><ele>480.0</ele><time>2026-04-10T14:49:36Z</time></trkpt><trkpt lat="44.72550360181375" lon="10.00017755145349"><ele>480.0</ele><time>2026-04-10T14:49:37Z</time></trkpt><trkpt lat="44.72545172472849" lon="10.000232840429993"><ele>480.0</ele><time>2026-04-10T14:49:38Z</time></trkpt><trkpt lat="44.725349145900104" lon="10.000291881289382"><ele>480.0</ele><time>2026-04-10T14:49:40Z</time></trkpt><trkpt lat="44.72527517183512" lon="10.00024883092901"><ele>480.0</ele><time>2026-04-10T14:49:47Z</time></trkpt><trkpt lat="44.72523996173329" lon="10.000166180290172"><ele>480.0</ele><time>2026-04-10T14:49:49Z</time></trkpt><trkpt lat="44.725242899390295" lon="10.00003170075134"><ele>480.0</ele><time>2026-04-10T14:49:51Z</time></trkpt><trkpt lat="44.72527108379575" lon="9.999860276417326"><ele>480.0</ele><time>2026-04-10T14:49:53Z</time></trkpt><trkpt lat="44.72530122447383" lon="9.999748867415217"><ele>480.0</ele><time>2026-04-10T14:49:54Z</time></trkpt><trkpt lat="44.72533114895798" lon="9.999621078982514"><ele>480.0</ele><time>2026-04-10T14:49:55Z</time></trkpt><trkpt lat="44.72534294735083" lon="9.999507013322116"><ele>480.0</ele><time>2026-04-10T14:49:56Z</time></trkpt><trkpt lat="44.72535550081691" lon="9.99940309894339"><ele>480.0</ele><time>2026-04-10T14:49:57Z</time></trkpt><trkpt lat="44.725361164037416" lon="9.999288750519296"><ele>480.0</ele><time>2026-04-10T14:49:58Z</time></trkpt><trkpt lat="44.72536347179198" lon="9.999177883234433"><ele>480.0</ele><time>2026-04-10T14:49:59Z</time></trkpt><trkpt lat="44.72536334493197" lon="9.999058745424566"><ele>480.0</ele><time>2026-04-10T14:50:00Z</time></trkpt><trkpt lat="44.72536983938783" lon="9.998909009350083"><ele>480.0</ele><time>2026-04-10T14:50:02Z</time></trkpt><trkpt lat="44.725449809588156" lon="9.998780626011095"><ele>480.8</ele><time>2026-04-10T14:50:04Z</time></trkpt><trkpt lat="44.72551245462578" lon="9.998706013315463"><ele>481.6</ele><time>2026-04-10T14:50:05Z</time></trkpt><trkpt lat="44.72557633654027" lon="9.998617631752282"><ele>482.4</ele><time>2026-04-10T14:50:06Z</time></trkpt><trkpt lat="44.72565036738866" lon="9.998513704557634"><ele>483.2</ele><time>2026-04-10T14:50:07Z</time></trkpt><trkpt lat="44.72572218616361" lon="9.998444549860176"><ele>484.0</ele><time>2026-04-10T14:50:08Z</time></trkpt><trkpt lat="44.72580411264623" lon="9.998361405174679"><ele>484.79999999999995</ele><time>2026-04-10T14:50:09Z</time></trkpt><trkpt lat="44.72588702263811" lon="9.998270842540713"><ele>485.59999999999997</ele><time>2026-04-10T14:50:10Z</time></trkpt><trkpt lat="44.725971858263506" lon="9.99815558112522"><ele>486.4</ele><time>2026-04-10T14:50:11Z</time></trkpt><trkpt lat="44.72602795736852" lon="9.998035207703326"><ele>487.2</ele><time>2026-04-10T14:50:12Z</time></trkpt><trkpt lat="44.726067393450855" lon="9.997963216100144"><ele>488.0</ele><time>2026-04-10T14:50:13Z</time></trkpt><trkpt lat="44.72612057000021" lon="9.997879376153465"><ele>487.99999999999994</ele><time>2026-04-10T14:50:14Z</time></trkpt><trkpt lat="44.72617753673772" lon="9.997801594735336"><ele>488.0</ele><time>2026-04-10T14:50:15Z</time></trkpt><trkpt lat="44.72623915448961" lon="9.997713971804854"><ele>488.0</ele><time>2026-04-10T14:50:16Z</time></trkpt><trkpt lat="44.72630417860639" lon="9.997628924058366"><ele>488.0</ele><time>2026-04-10T14:50:17Z</time></trkpt><trkpt lat="44.72637163363736" lon="9.997558973663335"><ele>487.99999999999994</ele><time>2026-04-10T14:50:18Z</time></trkpt><trkpt lat="44.72645511219897" lon="9.997461675674066"><ele>488.0</ele><time>2026-04-10T14:50:19Z</time></trkpt><trkpt lat="44.72652938364035" lon="9.997372198122141"><ele>490.2</ele><time>2026-04-10T14:50:20Z</time></trkpt><trkpt lat="44.72659599859138" lon="9.997291420404137"><ele>492.4</ele><time>2026-04-10T14:50:21Z</time></trkpt><trkpt lat="44.726658492831035" lon="9.997208566161534"><ele>494.59999999999997</ele><time>2026-04-10T14:50:22Z</time></trkpt><trkpt lat="44.726726348669764" lon="9.997092762654123"><ele>496.79999999999995</ele><time>2026-04-10T14:50:23Z</time></trkpt><trkpt lat="44.72677554829647" lon="9.996956171104054"><ele>499.0</ele><time>2026-04-10T14:50:24Z</time></trkpt><trkpt lat="44.72680598497144" lon="9.996842278282108"><ele>499.00000000000006</ele><time>2026-04-10T14:50:25Z</time></trkpt><trkpt lat="44.726850310828645" lon="9.996760961618934"><ele>499.0</ele><time>2026-04-10T14:50:26Z</time></trkpt><trkpt lat="44.72692156867433" lon="9.996664045467213"><ele>499.0</ele><time>2026-04-10T14:50:27Z</time></trkpt><trkpt lat="44.72699428103875" lon="9.996567708467518"><ele>499.0</ele><time>2026-04-10T14:50:28Z</time></trkpt><trkpt lat="44.72703728898757" lon="9.996466383950967"><ele>499.00000000000006</ele><time>2026-04-10T14:50:29Z</time></trkpt><trkpt lat="44.727062732916124" lon="9.996363149685425"><ele>499.0</ele><time>2026-04-10T14:50:30Z</time></trkpt><trkpt lat="44.727103989706755" lon="9.996239072203082"><ele>499.00000000000006</ele><time>2026-04-10T14:50:31Z</time></trkpt><trkpt lat="44.727143458815846" lon="9.99611897483098"><ele>499.0</ele><time>2026-04-10T14:50:32Z</time></trkpt><trkpt lat="44.72717019628571" lon="9.996001710783146"><ele>499.0</ele><time>2026-04-10T14:50:33Z</time></trkpt><trkpt lat="44.727186591030836" lon="9.995887992272449"><ele>499.0</ele><time>2026-04-10T14:50:34Z</time></trkpt><trkpt lat="44.72720460773047" lon="9.995793038673794"><ele>499.00000000000006</ele><time>2026-04-10T14:50:35Z</time></trkpt><trkpt lat="44.727226898477596" lon="9.995699639885398"><ele>499.0</ele><time>2026-04-10T14:50:36Z</time></trkpt><trkpt lat="44.72724558647767" lon="9.995588354324092"><ele>499.00000000000006</ele><time>2026-04-10T14:50:37Z</time></trkpt><trkpt lat="44.72725126664505" lon="9.995487171092936"><ele>499.0</ele><time>2026-04-10T14:50:38Z</time></trkpt><trkpt lat="44.72720813674569" lon="9.995315807647213"><ele>499.0</ele><time>2026-04-10T14:50:40Z</time></trkpt><trkpt lat="44.72716150791524" lon="9.995224034216768"><ele>499.0</ele><time>2026-04-10T14:50:41Z</time></trkpt><trkpt lat="44.727115111767716" lon="9.995128499127398"><ele>499.00000000000006</ele><time>2026-04-10T14:50:42Z</time></trkpt><trkpt lat="44.72708420869021" lon="9.995048725634803"><ele>499.0</ele><time>2026-04-10T14:50:43Z</time></trkpt><trkpt lat="44.72707516022892" lon="9.994953941574899"><ele>496.0</ele><time>2026-04-10T14:50:44Z</time></trkpt><trkpt lat="44.72710949189495" lon="9.994799436523468"><ele>493.0</ele><time>2026-04-10T14:50:46Z</time></trkpt><trkpt lat="44.72714999991344" lon="9.994715389644345"><ele>490.0</ele><time>2026-04-10T14:50:47Z</time></trkpt><trkpt lat="44.72719478095753" lon="9.99462862734869"><ele>487.0</ele><time>2026-04-10T14:50:48Z</time></trkpt><trkpt lat="44.72719260410367" lon="9.994423441381098"><ele>484.0</ele><time>2026-04-10T14:50:50Z</time></trkpt><trkpt lat="44.72718441221066" lon="9.994268880240421"><ele>483.4</ele><time>2026-04-10T14:50:51Z</time></trkpt><trkpt lat="44.727184044259" lon="9.99410920691598"><ele>482.79999999999995</ele><time>2026-04-10T14:50:52Z</time></trkpt><trkpt lat="44.72720332188479" lon="9.99395142803201"><ele>482.20000000000005</ele><time>2026-04-10T14:50:53Z</time></trkpt><trkpt lat="44.727218814122274" lon="9.993796337738944"><ele>481.6</ele><time>2026-04-10T14:50:54Z</time></trkpt><trkpt lat="44.72723268450575" lon="9.993652671158516"><ele>481.0</ele><time>2026-04-10T14:50:55Z</time></trkpt><trkpt lat="44.72722643997961" lon="9.993543058429562"><ele>481.00000000000006</ele><time>2026-04-10T14:50:56Z</time></trkpt><trkpt lat="44.72720640556063" lon="9.993432501521893"><ele>481.0</ele><time>2026-04-10T14:50:57Z</time></trkpt><trkpt lat="44.72718214311731" lon="9.99333395591853"><ele>481.0</ele><time>2026-04-10T14:50:58Z</time></trkpt><trkpt lat="44.72714676119643" lon="9.993240295272733"><ele>481.0</ele><time>2026-04-10T14:50:59Z</time></trkpt><trkpt lat="44.727106272715574" lon="9.993123174597171"><ele>481.00000000000006</ele><time>2026-04-10T14:51:00Z</time></trkpt><trkpt lat="44.72704863352592" lon="9.992979086354554"><ele>481.0</ele><time>2026-04-10T14:51:01Z</time></trkpt><trkpt lat="44.72700142687049" lon="9.992842975213748"><ele>479.20000000000005</ele><time>2026-04-10T14:51:02Z</time></trkpt><trkpt lat="44.72694740230063" lon="9.992712894664685"><ele>477.40000000000003</ele><time>2026-04-10T14:51:03Z</time></trkpt><trkpt lat="44.726882352484616" lon="9.992600392244773"><ele>475.6</ele><time>2026-04-10T14:51:04Z</time></trkpt><trkpt lat="44.72683806637057" lon="9.992513973586439"><ele>473.8</ele><time>2026-04-10T14:51:05Z</time></trkpt><trkpt lat="44.726759114188354" lon="9.992370537048187"><ele>472.0</ele><time>2026-04-10T14:51:07Z</time></trkpt><trkpt lat="44.72673092762733" lon="9.992269579824827"><ele>470.83333333333337</ele><time>2026-04-10T14:51:08Z</time></trkpt><trkpt lat="44.72673589096989" lon="9.992163873613917"><ele>469.6666666666667</ele><time>2026-04-10T14:51:09Z</time></trkpt><trkpt lat="44.726741793178334" lon="9.99203223026314"><ele>468.5</ele><time>2026-04-10T14:51:10Z</time></trkpt><trkpt lat="44.72675399166365" lon="9.991912609564416"><ele>467.33333333333337</ele><time>2026-04-10T14:51:11Z</time></trkpt><trkpt lat="44.726781657800245" lon="9.9917987835399"><ele>466.1666666666667</ele><time>2026-04-10T14:51:12Z</time></trkpt><trkpt lat="44.726822665898105" lon="9.991684529772309"><ele>465.0</ele><time>2026-04-10T14:51:13Z</time></trkpt><trkpt lat="44.72684686285122" lon="9.991584028361101"><ele>464.1428571428571</ele><time>2026-04-10T14:51:14Z</time></trkpt><trkpt lat="44.72685468591426" lon="9.991486568654405"><ele>463.28571428571433</ele><time>2026-04-10T14:51:15Z</time></trkpt><trkpt lat="44.726844906941245" lon="9.99137069122038"><ele>462.42857142857144</ele><time>2026-04-10T14:51:16Z</time></trkpt><trkpt lat="44.72681774489107" lon="9.991289469220236"><ele>461.57142857142856</ele><time>2026-04-10T14:51:17Z</time></trkpt><trkpt lat="44.72677573768234" lon="9.991223046093316"><ele>460.71428571428567</ele><time>2026-04-10T14:51:18Z</time></trkpt><trkpt lat="44.726727760164216" lon="9.991137977950702"><ele>459.8571428571429</ele><time>2026-04-10T14:51:19Z</time></trkpt><trkpt lat="44.72668096777086" lon="9.99103383876175"><ele>459.0</ele><time>2026-04-10T14:51:20Z</time></trkpt><trkpt lat="44.726633565160526" lon="9.990933444941538"><ele>459.4</ele><time>2026-04-10T14:51:21Z</time></trkpt><trkpt lat="44.726584879029936" lon="9.990826340642831"><ele>459.79999999999995</ele><time>2026-04-10T14:51:22Z</time></trkpt><trkpt lat="44.726556470926425" lon="9.990733870615326"><ele>460.20000000000005</ele><time>2026-04-10T14:51:23Z</time></trkpt><trkpt lat="44.7265481582894" lon="9.990622364084626"><ele>460.6</ele><time>2026-04-10T14:51:24Z</time></trkpt><trkpt lat="44.726547295253155" lon="9.990506224064916"><ele>461.0</ele><time>2026-04-10T14:51:25Z</time></trkpt><trkpt lat="44.72648598998886" lon="9.990331536688059"><ele>461.0</ele><time>2026-04-10T14:51:27Z</time></trkpt><trkpt lat="44.72641847109354" lon="9.990230039955179"><ele>461.0</ele><time>2026-04-10T14:51:28Z</time></trkpt><trkpt lat="44.726335698546535" lon="9.990125490692712"><ele>461.0</ele><time>2026-04-10T14:51:29Z</time></trkpt><trkpt lat="44.72626806905446" lon="9.99002390319092"><ele>461.0</ele><time>2026-04-10T14:51:30Z</time></trkpt><trkpt lat="44.72622307293538" lon="9.98991314233526"><ele>461.0</ele><time>2026-04-10T14:51:31Z</time></trkpt><trkpt lat="44.72617931105633" lon="9.989787538869885"><ele>460.20000000000005</ele><time>2026-04-10T14:51:32Z</time></trkpt><trkpt lat="44.72612190152898" lon="9.989670947778986"><ele>459.40000000000003</ele><time>2026-04-10T14:51:33Z</time></trkpt><trkpt lat="44.726039395801074" lon="9.989569312893382"><ele>458.6</ele><time>2026-04-10T14:51:34Z</time></trkpt><trkpt lat="44.72595977422202" lon="9.989497650298482"><ele>457.8</ele><time>2026-04-10T14:51:35Z</time></trkpt><trkpt lat="44.725887568702014" lon="9.98944563744098"><ele>457.0</ele><time>2026-04-10T14:51:36Z</time></trkpt><trkpt lat="44.725832345811" lon="9.989385903366788"><ele>456.50000000000006</ele><time>2026-04-10T14:51:37Z</time></trkpt><trkpt lat="44.725798496024524" lon="9.98930289440055"><ele>456.0</ele><time>2026-04-10T14:51:38Z</time></trkpt><trkpt lat="44.72577019357874" lon="9.98918765591315"><ele>455.5</ele><time>2026-04-10T14:51:39Z</time></trkpt><trkpt lat="44.725750759021736" lon="9.98909187387471"><ele>455.0</ele><time>2026-04-10T14:51:40Z</time></trkpt><trkpt lat="44.725721328743795" lon="9.98900433242318"><ele>454.50000000000006</ele><time>2026-04-10T14:51:41Z</time></trkpt><trkpt lat="44.72568366353696" lon="9.988886436693102"><ele>454.0</ele><time>2026-04-10T14:51:42Z</time></trkpt><trkpt lat="44.725661487198416" lon="9.988755459984617"><ele>454.0</ele><time>2026-04-10T14:51:43Z</time></trkpt><trkpt lat="44.72565521678864" lon="9.988633390631296"><ele>454.0</ele><time>2026-04-10T14:51:44Z</time></trkpt><trkpt lat="44.72564965077884" lon="9.988468760227484"><ele>454.0</ele><time>2026-04-10T14:51:46Z</time></trkpt><trkpt lat="44.72557195635948" lon="9.988296972251534"><ele>454.0</ele><time>2026-04-10T14:51:48Z</time></trkpt><trkpt lat="44.725506257807986" lon="9.988200465183741"><ele>454.0</ele><time>2026-04-10T14:51:49Z</time></trkpt><trkpt lat="44.72544168836986" lon="9.988100974217003"><ele>453.79999999999995</ele><time>2026-04-10T14:51:50Z</time></trkpt><trkpt lat="44.725392383412746" lon="9.988013352632988"><ele>453.59999999999997</ele><time>2026-04-10T14:51:51Z</time></trkpt><trkpt lat="44.72534477919369" lon="9.987910671041881"><ele>453.4</ele><time>2026-04-10T14:51:52Z</time></trkpt><trkpt lat="44.72530164768304" lon="9.987773956323267"><ele>453.2</ele><time>2026-04-10T14:51:53Z</time></trkpt><trkpt lat="44.725266566905994" lon="9.987636732231422"><ele>453.0</ele><time>2026-04-10T14:51:54Z</time></trkpt><trkpt lat="44.725247746599116" lon="9.987521657350454"><ele>452.3333333333333</ele><time>2026-04-10T14:51:55Z</time></trkpt><trkpt lat="44.72523414264633" lon="9.987400281668496"><ele>451.66666666666663</ele><time>2026-04-10T14:51:56Z</time></trkpt><trkpt lat="44.72521996880056" lon="9.987292456545218"><ele>451.0</ele><time>2026-04-10T14:51:57Z</time></trkpt><trkpt lat="44.72521376185061" lon="9.987181428690816"><ele>450.3333333333333</ele><time>2026-04-10T14:51:58Z</time></trkpt><trkpt lat="44.725210358778035" lon="9.987084371713344"><ele>449.66666666666663</ele><time>2026-04-10T14:51:59Z</time></trkpt><trkpt lat="44.725221947409125" lon="9.986977394503139"><ele>449.0</ele><time>2026-04-10T14:52:00Z</time></trkpt><trkpt lat="44.72524084074602" lon="9.986881137353906"><ele>449.0</ele><time>2026-04-10T14:52:01Z</time></trkpt><trkpt lat="44.72525697918996" lon="9.986741728109768"><ele>449.0</ele><time>2026-04-10T14:52:03Z</time></trkpt><trkpt lat="44.72523859107493" lon="9.986621941470059"><ele>449.0</ele><time>2026-04-10T14:52:05Z</time></trkpt><trkpt lat="44.72527956667043" lon="9.986468010271961"><ele>449.0</ele><time>2026-04-10T14:52:07Z</time></trkpt><trkpt lat="44.72524220683822" lon="9.986307203852077"><ele>449.0</ele><time>2026-04-10T14:52:09Z</time></trkpt><trkpt lat="44.7252100692875" lon="9.986227979819382"><ele>450.16666666666663</ele><time>2026-04-10T14:52:10Z</time></trkpt><trkpt lat="44.72519217208688" lon="9.986131992756793"><ele>451.3333333333333</ele><time>2026-04-10T14:52:11Z</time></trkpt><trkpt lat="44.725187778651566" lon="9.986011491408972"><ele>452.5</ele><time>2026-04-10T14:52:12Z</time></trkpt><trkpt lat="44.72519060317031" lon="9.985889344563338"><ele>453.66666666666663</ele><time>2026-04-10T14:52:13Z</time></trkpt><trkpt lat="44.72519583560617" lon="9.985761439749872"><ele>454.8333333333333</ele><time>2026-04-10T14:52:14Z</time></trkpt><trkpt lat="44.72520458547121" lon="9.985614049130774"><ele>456.0</ele><time>2026-04-10T14:52:15Z</time></trkpt><trkpt lat="44.725209875422344" lon="9.985490478630075"><ele>456.0</ele><time>2026-04-10T14:52:16Z</time></trkpt><trkpt lat="44.72521688501512" lon="9.985347024109714"><ele>456.0</ele><time>2026-04-10T14:52:17Z</time></trkpt><trkpt lat="44.72522297209548" lon="9.985224294770903"><ele>456.0</ele><time>2026-04-10T14:52:18Z</time></trkpt><trkpt lat="44.72522168301962" lon="9.985117400478483"><ele>456.0</ele><time>2026-04-10T14:52:19Z</time></trkpt><trkpt lat="44.725225892890805" lon="9.985024834672327"><ele>456.0</ele><time>2026-04-10T14:52:20Z</time></trkpt><trkpt lat="44.72522879921629" lon="9.984935304930703"><ele>456.0</ele><time>2026-04-10T14:52:21Z</time></trkpt><trkpt lat="44.72525439878137" lon="9.984797319285505"><ele>454.8</ele><time>2026-04-10T14:52:23Z</time></trkpt><trkpt lat="44.72530278063439" lon="9.984671550573358"><ele>453.6</ele><time>2026-04-10T14:52:25Z</time></trkpt><trkpt lat="44.72536391073462" lon="9.984596274508279"><ele>452.4</ele><time>2026-04-10T14:52:27Z</time></trkpt><trkpt lat="44.7254278776067" lon="9.984526892438193"><ele>451.2</ele><time>2026-04-10T14:52:29Z</time></trkpt><trkpt lat="44.725467179472666" lon="9.984363790052253"><ele>450.0</ele><time>2026-04-10T14:52:31Z</time></trkpt><trkpt lat="44.72546720084101" lon="9.984271218548065"><ele>450.0</ele><time>2026-04-10T14:52:32Z</time></trkpt><trkpt lat="44.72545360168672" lon="9.984174593590325"><ele>450.0</ele><time>2026-04-10T14:52:33Z</time></trkpt><trkpt lat="44.725406490759696" lon="9.984007855216406"><ele>450.0</ele><time>2026-04-10T14:52:35Z</time></trkpt><trkpt lat="44.725362437641294" lon="9.983924926533051"><ele>450.0</ele><time>2026-04-10T14:52:36Z</time></trkpt><trkpt lat="44.7253117503761" lon="9.983855229173919"><ele>450.0</ele><time>2026-04-10T14:52:37Z</time></trkpt><trkpt lat="44.7252233254648" lon="9.983803469011267"><ele>450.0</ele><time>2026-04-10T14:52:39Z</time></trkpt><trkpt lat="44.72512302594228" lon="9.983696660635138"><ele>450.0</ele><time>2026-04-10T14:52:41Z</time></trkpt><trkpt lat="44.72507156650323" lon="9.983614097218414"><ele>450.0</ele><time>2026-04-10T14:52:42Z</time></trkpt><trkpt lat="44.72500908866802" lon="9.983512997878266"><ele>450.0</ele><time>2026-04-10T14:52:43Z</time></trkpt><trkpt lat="44.724938491710034" lon="9.98341158113743"><ele>450.0</ele><time>2026-04-10T14:52:44Z</time></trkpt><trkpt lat="44.72488628870928" lon="9.983351299970368"><ele>450.0</ele><time>2026-04-10T14:52:45Z</time></trkpt><trkpt lat="44.72482549998446" lon="9.983215337977041"><ele>451.0</ele><time>2026-04-10T14:52:47Z</time></trkpt><trkpt lat="44.72480837076008" lon="9.983034592456946"><ele>452.0</ele><time>2026-04-10T14:52:49Z</time></trkpt><trkpt lat="44.724804263363026" lon="9.982931130779523"><ele>453.0</ele><time>2026-04-10T14:52:50Z</time></trkpt><trkpt lat="44.72482544685177" lon="9.982813151377835"><ele>454.0</ele><time>2026-04-10T14:52:51Z</time></trkpt><trkpt lat="44.724864596893696" lon="9.98268311874052"><ele>455.0</ele><time>2026-04-10T14:52:52Z</time></trkpt><trkpt lat="44.72491437643435" lon="9.982546027198454"><ele>455.8</ele><time>2026-04-10T14:52:53Z</time></trkpt><trkpt lat="44.724944060791785" lon="9.982433095850293"><ele>456.6</ele><time>2026-04-10T14:52:54Z</time></trkpt><trkpt lat="44.72496336334575" lon="9.98233185604282"><ele>457.4</ele><time>2026-04-10T14:52:55Z</time></trkpt><trkpt lat="44.72497789822553" lon="9.982223075391556"><ele>458.2</ele><time>2026-04-10T14:52:56Z</time></trkpt><trkpt lat="44.7249960181773" lon="9.982116805243301"><ele>459.0</ele><time>2026-04-10T14:52:57Z</time></trkpt><trkpt lat="44.72503043186563" lon="9.981923290681124"><ele>459.0</ele><time>2026-04-10T14:52:59Z</time></trkpt><trkpt lat="44.725061099487995" lon="9.98179070539767"><ele>459.0</ele><time>2026-04-10T14:53:00Z</time></trkpt><trkpt lat="44.72507858101843" lon="9.981687173952437"><ele>459.0</ele><time>2026-04-10T14:53:01Z</time></trkpt><trkpt lat="44.72507874211379" lon="9.981579480299995"><ele>459.0</ele><time>2026-04-10T14:53:02Z</time></trkpt><trkpt lat="44.72504384621644" lon="9.981489110533387"><ele>459.0</ele><time>2026-04-10T14:53:03Z</time></trkpt><trkpt lat="44.724980054324" lon="9.981392387426716"><ele>459.0</ele><time>2026-04-10T14:53:04Z</time></trkpt><trkpt lat="44.72490695922054" lon="9.981264061256631"><ele>460.25</ele><time>2026-04-10T14:53:05Z</time></trkpt><trkpt lat="44.72483782448474" lon="9.981139035448507"><ele>461.5</ele><time>2026-04-10T14:53:06Z</time></trkpt><trkpt lat="44.72475898497132" lon="9.981005208871377"><ele>462.75</ele><time>2026-04-10T14:53:07Z</time></trkpt><trkpt lat="44.724676576871644" lon="9.98087176085331"><ele>464.0</ele><time>2026-04-10T14:53:08Z</time></trkpt><trkpt lat="44.72459622537968" lon="9.980758272784396"><ele>464.2</ele><time>2026-04-10T14:53:09Z</time></trkpt><trkpt lat="44.724533763257966" lon="9.980652115307356"><ele>464.4</ele><time>2026-04-10T14:53:10Z</time></trkpt><trkpt lat="44.72445957535836" lon="9.980533483091378"><ele>464.6</ele><time>2026-04-10T14:53:11Z</time></trkpt><trkpt lat="44.72438759037849" lon="9.980396607892667"><ele>464.8</ele><time>2026-04-10T14:53:12Z</time></trkpt><trkpt lat="44.72432037900983" lon="9.980263648399324"><ele>465.0</ele><time>2026-04-10T14:53:13Z</time></trkpt><trkpt lat="44.72425188147762" lon="9.980127260969352"><ele>466.75</ele><time>2026-04-10T14:53:14Z</time></trkpt><trkpt lat="44.724175110558335" lon="9.979973448874143"><ele>468.5</ele><time>2026-04-10T14:53:15Z</time></trkpt><trkpt lat="44.72409351899305" lon="9.979804628960311"><ele>470.25</ele><time>2026-04-10T14:53:16Z</time></trkpt><trkpt lat="44.72402624337669" lon="9.97965506609196"><ele>472.0</ele><time>2026-04-10T14:53:17Z</time></trkpt><trkpt lat="44.723973248507136" lon="9.979546175966624"><ele>472.0</ele><time>2026-04-10T14:53:18Z</time></trkpt><trkpt lat="44.72389994341899" lon="9.979415499419982"><ele>472.0</ele><time>2026-04-10T14:53:20Z</time></trkpt><trkpt lat="44.72389512320037" lon="9.979319327212828"><ele>472.0</ele><time>2026-04-10T14:53:22Z</time></trkpt><trkpt lat="44.72394630471877" lon="9.979265179808083"><ele>472.0</ele><time>2026-04-10T14:53:26Z</time></trkpt></trkseg><trkseg><trkpt lat="44.72389002278062" lon="9.979251879692594"><ele>472.00000000000006</ele><time>2026-04-10T15:10:34Z</time></trkpt><trkpt lat="44.72387007694947" lon="9.979370645539465"><ele>472.0</ele><time>2026-04-10T15:10:37Z</time></trkpt><trkpt lat="44.72390622459824" lon="9.979445237912497"><ele>472.0</ele><time>2026-04-10T15:10:39Z</time></trkpt><trkpt lat="44.72396930588504" lon="9.979556380996513"><ele>472.0</ele><time>2026-04-10T15:10:41Z</time></trkpt><trkpt lat="44.72400704377353" lon="9.979631840395163"><ele>472.00000000000006</ele><time>2026-04-10T15:10:42Z</time></trkpt><trkpt lat="44.72407741230662" lon="9.979759495443528"><ele>472.0</ele><time>2026-04-10T15:10:44Z</time></trkpt><trkpt lat="44.7241105764963" lon="9.979837227909512"><ele>472.0</ele><time>2026-04-10T15:10:45Z</time></trkpt><trkpt lat="44.72416414362253" lon="9.97994727436724"><ele>472.00000000000006</ele><time>2026-04-10T15:10:46Z</time></trkpt><trkpt lat="44.72422906011473" lon="9.980081533651642"><ele>472.00000000000006</ele><time>2026-04-10T15:10:47Z</time></trkpt><trkpt lat="44.724288197963446" lon="9.980195615465387"><ele>472.0</ele><time>2026-04-10T15:10:48Z</time></trkpt><trkpt lat="44.72434860897415" lon="9.980313506725171"><ele>472.0</ele><time>2026-04-10T15:10:49Z</time></trkpt><trkpt lat="44.724412342671336" lon="9.980436051556122"><ele>471.5</ele><time>2026-04-10T15:10:50Z</time></trkpt><trkpt lat="44.72448525539111" lon="9.980568411253566"><ele>471.0</ele><time>2026-04-10T15:10:51Z</time></trkpt><trkpt lat="44.72456150585832" lon="9.980705346731353"><ele>470.5</ele><time>2026-04-10T15:10:52Z</time></trkpt><trkpt lat="44.72463500386606" lon="9.980839560594632"><ele>470.0</ele><time>2026-04-10T15:10:53Z</time></trkpt><trkpt lat="44.72471209946479" lon="9.980971923329541"><ele>468.8</ele><time>2026-04-10T15:10:54Z</time></trkpt><trkpt lat="44.72478874208462" lon="9.98109699501808"><ele>467.6</ele><time>2026-04-10T15:10:55Z</time></trkpt><trkpt lat="44.72485752635528" lon="9.981205529220437"><ele>466.4</ele><time>2026-04-10T15:10:56Z</time></trkpt><trkpt lat="44.724912227446936" lon="9.981302079987099"><ele>465.2</ele><time>2026-04-10T15:10:57Z</time></trkpt><trkpt lat="44.724966342981965" lon="9.981412637498257"><ele>464.0</ele><time>2026-04-10T15:10:58Z</time></trkpt><trkpt lat="44.725024133676605" lon="9.981531458188542"><ele>464.0</ele><time>2026-04-10T15:10:59Z</time></trkpt><trkpt lat="44.725060354268656" lon="9.981611081595274"><ele>464.0</ele><time>2026-04-10T15:11:00Z</time></trkpt><trkpt lat="44.725069766679255" lon="9.981779525987417"><ele>464.0</ele><time>2026-04-10T15:11:02.001Z</time></trkpt><trkpt lat="44.72503958035341" lon="9.981884200541826"><ele>464.0</ele><time>2026-04-10T15:11:03.001Z</time></trkpt><trkpt lat="44.724999900430205" lon="9.98203234774002"><ele>464.0</ele><time>2026-04-10T15:11:04.001Z</time></trkpt><trkpt lat="44.72497203330048" lon="9.982164356742217"><ele>463.16666666666663</ele><time>2026-04-10T15:11:05.001Z</time></trkpt><trkpt lat="44.72496060103949" lon="9.982259485144462"><ele>462.3333333333333</ele><time>2026-04-10T15:11:06.001Z</time></trkpt><trkpt lat="44.72494293121958" lon="9.982374969950268"><ele>461.5</ele><time>2026-04-10T15:11:07.001Z</time></trkpt><trkpt lat="44.724914106153804" lon="9.982498845579972"><ele>460.66666666666663</ele><time>2026-04-10T15:11:08.001Z</time></trkpt><trkpt lat="44.72489451462325" lon="9.982606067730925"><ele>459.8333333333333</ele><time>2026-04-10T15:11:09.001Z</time></trkpt><trkpt lat="44.724889069109736" lon="9.982713666405829"><ele>459.0</ele><time>2026-04-10T15:11:10.001Z</time></trkpt><trkpt lat="44.724886102775514" lon="9.982812295107347"><ele>458.3333333333333</ele><time>2026-04-10T15:11:11.001Z</time></trkpt><trkpt lat="44.72489282992263" lon="9.982939967164784"><ele>457.66666666666663</ele><time>2026-04-10T15:11:12.001Z</time></trkpt><trkpt lat="44.72491006324087" lon="9.983075600567313"><ele>457.0</ele><time>2026-04-10T15:11:13.001Z</time></trkpt><trkpt lat="44.72492957257647" lon="9.983195294027734"><ele>456.3333333333333</ele><time>2026-04-10T15:11:14.001Z</time></trkpt><trkpt lat="44.724950358373306" lon="9.98329558946802"><ele>455.66666666666663</ele><time>2026-04-10T15:11:15.001Z</time></trkpt><trkpt lat="44.72498660363067" lon="9.983373741216687"><ele>455.0</ele><time>2026-04-10T15:11:16.001Z</time></trkpt><trkpt lat="44.72504686039571" lon="9.983466599871399"><ele>454.0</ele><time>2026-04-10T15:11:17.001Z</time></trkpt><trkpt lat="44.72511959643588" lon="9.983557104069533"><ele>453.0</ele><time>2026-04-10T15:11:18.001Z</time></trkpt><trkpt lat="44.725187977422614" lon="9.983652516549258"><ele>452.0</ele><time>2026-04-10T15:11:19.001Z</time></trkpt><trkpt lat="44.72526366645281" lon="9.983760857815149"><ele>451.0</ele><time>2026-04-10T15:11:20.001Z</time></trkpt><trkpt lat="44.72533356030739" lon="9.983876104664716"><ele>450.0</ele><time>2026-04-10T15:11:21.001Z</time></trkpt><trkpt lat="44.72539034513481" lon="9.983981438031932"><ele>450.0</ele><time>2026-04-10T15:11:22.001Z</time></trkpt><trkpt lat="44.725424401377694" lon="9.984063180767187"><ele>450.0</ele><time>2026-04-10T15:11:23.001Z</time></trkpt><trkpt lat="44.72547171734074" lon="9.984244285312561"><ele>450.0</ele><time>2026-04-10T15:11:25.001Z</time></trkpt><trkpt lat="44.725487411178705" lon="9.98434437860291"><ele>450.0</ele><time>2026-04-10T15:11:26.001Z</time></trkpt><trkpt lat="44.72546579790139" lon="9.984498190520394"><ele>450.0</ele><time>2026-04-10T15:11:28.001Z</time></trkpt><trkpt lat="44.72539167395913" lon="9.984655159190213"><ele>450.0</ele><time>2026-04-10T15:11:30.001Z</time></trkpt><trkpt lat="44.72533964248071" lon="9.984742832698311"><ele>450.0</ele><time>2026-04-10T15:11:31.001Z</time></trkpt><trkpt lat="44.72529454389327" lon="9.984830602908154"><ele>450.0</ele><time>2026-04-10T15:11:32.001Z</time></trkpt><trkpt lat="44.725263802710764" lon="9.984917771747195"><ele>450.0</ele><time>2026-04-10T15:11:33.001Z</time></trkpt><trkpt lat="44.72523986391054" lon="9.98506745904884"><ele>450.0</ele><time>2026-04-10T15:11:35.001Z</time></trkpt><trkpt lat="44.72523474574239" lon="9.98515736802325"><ele>450.0</ele><time>2026-04-10T15:11:36.001Z</time></trkpt><trkpt lat="44.72522706502429" lon="9.985253898686148"><ele>451.2</ele><time>2026-04-10T15:11:37.001Z</time></trkpt><trkpt lat="44.72521830632089" lon="9.985380517092825"><ele>452.4</ele><time>2026-04-10T15:11:38.001Z</time></trkpt><trkpt lat="44.72521089794538" lon="9.985499874140999"><ele>453.6</ele><time>2026-04-10T15:11:39.001Z</time></trkpt><trkpt lat="44.7252054297271" lon="9.985622616329524"><ele>454.8</ele><time>2026-04-10T15:11:40.001Z</time></trkpt><trkpt lat="44.72519866654772" lon="9.985749531905855"><ele>456.0</ele><time>2026-04-10T15:11:41.001Z</time></trkpt><trkpt lat="44.72519126643459" lon="9.98589218324179"><ele>455.6666666666667</ele><time>2026-04-10T15:11:42.001Z</time></trkpt><trkpt lat="44.72518633566053" lon="9.986015130991209"><ele>455.33333333333337</ele><time>2026-04-10T15:11:43.001Z</time></trkpt><trkpt lat="44.72519434597754" lon="9.986142891260315"><ele>455.0</ele><time>2026-04-10T15:11:44.001Z</time></trkpt><trkpt lat="44.72520906283968" lon="9.986236307971348"><ele>454.6666666666667</ele><time>2026-04-10T15:11:45.001Z</time></trkpt><trkpt lat="44.725264317503964" lon="9.9863851720572"><ele>454.33333333333337</ele><time>2026-04-10T15:11:47.001Z</time></trkpt><trkpt lat="44.72528506681577" lon="9.986475699996118"><ele>454.0</ele><time>2026-04-10T15:11:48.001Z</time></trkpt><trkpt lat="44.725256956884515" lon="9.986611881888003"><ele>455.0</ele><time>2026-04-10T15:11:50.001Z</time></trkpt><trkpt lat="44.72521080729608" lon="9.986761109785352"><ele>456.0</ele><time>2026-04-10T15:11:52.001Z</time></trkpt><trkpt lat="44.72517360661411" lon="9.986869342592824"><ele>457.0</ele><time>2026-04-10T15:11:53.001Z</time></trkpt><trkpt lat="44.72510699602354" lon="9.986999512957158"><ele>458.0</ele><time>2026-04-10T15:11:55Z</time></trkpt><trkpt lat="44.725072410024175" lon="9.98709935179699"><ele>459.0</ele><time>2026-04-10T15:11:56Z</time></trkpt><trkpt lat="44.725039643726966" lon="9.987257962541262"><ele>459.0</ele><time>2026-04-10T15:11:58Z</time></trkpt><trkpt lat="44.72503999869035" lon="9.987362718237819"><ele>459.0</ele><time>2026-04-10T15:11:59Z</time></trkpt><trkpt lat="44.72502457661283" lon="9.98746658745286"><ele>459.0</ele><time>2026-04-10T15:12:01Z</time></trkpt><trkpt lat="44.72505994506708" lon="9.987563644921687"><ele>459.0</ele><time>2026-04-10T15:12:04.001Z</time></trkpt><trkpt lat="44.72512151489539" lon="9.987619942907818"><ele>459.0</ele><time>2026-04-10T15:12:06.001Z</time></trkpt><trkpt lat="44.725218277245794" lon="9.987621163038797"><ele>459.0</ele><time>2026-04-10T15:12:09.001Z</time></trkpt><trkpt lat="44.725283197224265" lon="9.987631282184509"><ele>457.79999999999995</ele><time>2026-04-10T15:12:12.001Z</time></trkpt><trkpt lat="44.72530943990529" lon="9.987763693485592"><ele>456.59999999999997</ele><time>2026-04-10T15:12:24.001Z</time></trkpt><trkpt lat="44.72533473076046" lon="9.987857886742797"><ele>455.4</ele><time>2026-04-10T15:12:25.001Z</time></trkpt><trkpt lat="44.72539751223552" lon="9.988005132191434"><ele>454.2</ele><time>2026-04-10T15:12:27.001Z</time></trkpt><trkpt lat="44.72547547490467" lon="9.988147166209968"><ele>453.0</ele><time>2026-04-10T15:12:29.001Z</time></trkpt><trkpt lat="44.72554782056326" lon="9.988271193672208"><ele>453.1666666666667</ele><time>2026-04-10T15:12:31.001Z</time></trkpt><trkpt lat="44.72559924471921" lon="9.988357277179794"><ele>453.33333333333337</ele><time>2026-04-10T15:12:32.001Z</time></trkpt><trkpt lat="44.72563795983562" lon="9.988455671019977"><ele>453.5</ele><time>2026-04-10T15:12:33.001Z</time></trkpt><trkpt lat="44.725666775746305" lon="9.988582222031827"><ele>453.6666666666667</ele><time>2026-04-10T15:12:35.001Z</time></trkpt><trkpt lat="44.72566026283614" lon="9.988674093457671"><ele>453.83333333333337</ele><time>2026-04-10T15:12:37.001Z</time></trkpt><trkpt lat="44.72567930688775" lon="9.988800909211447"><ele>454.0</ele><time>2026-04-10T15:12:39.001Z</time></trkpt><trkpt lat="44.725700265723056" lon="9.988911461572092"><ele>454.00000000000006</ele><time>2026-04-10T15:12:40.001Z</time></trkpt><trkpt lat="44.72571915853448" lon="9.98900446181953"><ele>454.0</ele><time>2026-04-10T15:12:41.001Z</time></trkpt><trkpt lat="44.72578028412026" lon="9.989161546547168"><ele>454.0</ele><time>2026-04-10T15:12:43.001Z</time></trkpt><trkpt lat="44.725802798861736" lon="9.989248152894088"><ele>454.0</ele><time>2026-04-10T15:12:44.001Z</time></trkpt><trkpt lat="44.72585617245816" lon="9.989400865106445"><ele>454.00000000000006</ele><time>2026-04-10T15:12:46.001Z</time></trkpt><trkpt lat="44.72590458683149" lon="9.98945818612116"><ele>454.0</ele><time>2026-04-10T15:12:47.001Z</time></trkpt><trkpt lat="44.72596673725227" lon="9.989506785782535"><ele>453.6</ele><time>2026-04-10T15:12:48.001Z</time></trkpt><trkpt lat="44.726032012293565" lon="9.989564245223509"><ele>453.2</ele><time>2026-04-10T15:12:49.001Z</time></trkpt><trkpt lat="44.72610611175577" lon="9.989642264445648"><ele>452.80000000000007</ele><time>2026-04-10T15:12:50.001Z</time></trkpt><trkpt lat="44.726174318763796" lon="9.989748217100873"><ele>452.40000000000003</ele><time>2026-04-10T15:12:51.001Z</time></trkpt><trkpt lat="44.7262333805022" lon="9.989868050052788"><ele>452.0</ele><time>2026-04-10T15:12:52.001Z</time></trkpt><trkpt lat="44.72626778917062" lon="9.989982417526978"><ele>453.49999999999994</ele><time>2026-04-10T15:12:53.001Z</time></trkpt><trkpt lat="44.72630159256243" lon="9.990086985038543"><ele>455.0</ele><time>2026-04-10T15:12:54.001Z</time></trkpt><trkpt lat="44.726356447573664" lon="9.990173243991173"><ele>456.5</ele><time>2026-04-10T15:12:55.001Z</time></trkpt><trkpt lat="44.72642850572191" lon="9.990254422198184"><ele>458.0</ele><time>2026-04-10T15:12:56.001Z</time></trkpt><trkpt lat="44.72649157458797" lon="9.990340338365854"><ele>459.49999999999994</ele><time>2026-04-10T15:12:57.001Z</time></trkpt><trkpt lat="44.72653489528251" lon="9.990427966769069"><ele>461.0</ele><time>2026-04-10T15:12:58.001Z</time></trkpt><trkpt lat="44.72656138783205" lon="9.990518484796679"><ele>460.99999999999994</ele><time>2026-04-10T15:12:59.001Z</time></trkpt><trkpt lat="44.72656051968991" lon="9.990614214415972"><ele>461.0</ele><time>2026-04-10T15:13:00.001Z</time></trkpt><trkpt lat="44.726559713712675" lon="9.990710108667894"><ele>461.0</ele><time>2026-04-10T15:13:01.001Z</time></trkpt><trkpt lat="44.726567500388775" lon="9.990801799613292"><ele>461.0</ele><time>2026-04-10T15:13:02.001Z</time></trkpt><trkpt lat="44.72661335403361" lon="9.99092354260757"><ele>460.99999999999994</ele><time>2026-04-10T15:13:03.001Z</time></trkpt><trkpt lat="44.726669353695534" lon="9.99103461948921"><ele>461.0</ele><time>2026-04-10T15:13:04.001Z</time></trkpt><trkpt lat="44.726718777155035" lon="9.991099047092666"><ele>460.66666666666663</ele><time>2026-04-10T15:13:05.001Z</time></trkpt><trkpt lat="44.726758774654996" lon="9.991201236839414"><ele>460.3333333333333</ele><time>2026-04-10T15:13:06.001Z</time></trkpt><trkpt lat="44.72680002214233" lon="9.991299470987324"><ele>460.0</ele><time>2026-04-10T15:13:07.001Z</time></trkpt><trkpt lat="44.72683967267332" lon="9.991400584912919"><ele>459.66666666666663</ele><time>2026-04-10T15:13:08.001Z</time></trkpt><trkpt lat="44.726847795890784" lon="9.991583376492573"><ele>459.3333333333333</ele><time>2026-04-10T15:13:10.001Z</time></trkpt><trkpt lat="44.72683291429743" lon="9.99168126260399"><ele>459.0</ele><time>2026-04-10T15:13:11.001Z</time></trkpt><trkpt lat="44.726796623534995" lon="9.991792458641529"><ele>460.0</ele><time>2026-04-10T15:13:12.001Z</time></trkpt><trkpt lat="44.72676249326609" lon="9.991901140731793"><ele>461.0</ele><time>2026-04-10T15:13:13.001Z</time></trkpt><trkpt lat="44.726741565652134" lon="9.99201773899767"><ele>462.0</ele><time>2026-04-10T15:13:14.001Z</time></trkpt><trkpt lat="44.72673704622624" lon="9.992152706539681"><ele>463.0</ele><time>2026-04-10T15:13:15.001Z</time></trkpt><trkpt lat="44.7267413326087" lon="9.992263047514184"><ele>464.0</ele><time>2026-04-10T15:13:16.001Z</time></trkpt><trkpt lat="44.72675381346464" lon="9.992357584853039"><ele>465.0</ele><time>2026-04-10T15:13:17.001Z</time></trkpt><trkpt lat="44.72679076432428" lon="9.992459342229793"><ele>465.4</ele><time>2026-04-10T15:13:18.001Z</time></trkpt><trkpt lat="44.72684861708931" lon="9.99254633949239"><ele>465.8</ele><time>2026-04-10T15:13:19.001Z</time></trkpt><trkpt lat="44.726913011200445" lon="9.99264830469078"><ele>466.20000000000005</ele><time>2026-04-10T15:13:20.001Z</time></trkpt><trkpt lat="44.72697101850324" lon="9.992764439593042"><ele>466.6</ele><time>2026-04-10T15:13:21.001Z</time></trkpt><trkpt lat="44.72702268245848" lon="9.992886500255045"><ele>467.0</ele><time>2026-04-10T15:13:22.001Z</time></trkpt><trkpt lat="44.727064511426946" lon="9.993002678082803"><ele>467.8333333333333</ele><time>2026-04-10T15:13:23.001Z</time></trkpt><trkpt lat="44.72710861704452" lon="9.993107683920469"><ele>468.66666666666663</ele><time>2026-04-10T15:13:24.001Z</time></trkpt><trkpt lat="44.727139517305794" lon="9.99321228766189"><ele>469.5</ele><time>2026-04-10T15:13:25.001Z</time></trkpt><trkpt lat="44.72716632425488" lon="9.993304100562622"><ele>470.33333333333337</ele><time>2026-04-10T15:13:26.001Z</time></trkpt><trkpt lat="44.72720022150401" lon="9.99340580814469"><ele>471.1666666666667</ele><time>2026-04-10T15:13:27.001Z</time></trkpt><trkpt lat="44.72722372363439" lon="9.993520373157235"><ele>472.0</ele><time>2026-04-10T15:13:28.001Z</time></trkpt><trkpt lat="44.727225412007115" lon="9.993633726302424"><ele>473.8</ele><time>2026-04-10T15:13:29.001Z</time></trkpt><trkpt lat="44.727222013040006" lon="9.993746378340377"><ele>475.6</ele><time>2026-04-10T15:13:30.001Z</time></trkpt><trkpt lat="44.727214697261736" lon="9.993853534619657"><ele>477.40000000000003</ele><time>2026-04-10T15:13:31.001Z</time></trkpt><trkpt lat="44.7272110620915" lon="9.994030536987124"><ele>479.20000000000005</ele><time>2026-04-10T15:13:32.001Z</time></trkpt><trkpt lat="44.72719706579847" lon="9.994154857681547"><ele>481.0</ele><time>2026-04-10T15:13:33.001Z</time></trkpt><trkpt lat="44.72718648990313" lon="9.994293101378245"><ele>481.50000000000006</ele><time>2026-04-10T15:13:34.001Z</time></trkpt><trkpt lat="44.727182863909626" lon="9.994428520385775"><ele>482.0</ele><time>2026-04-10T15:13:35.001Z</time></trkpt><trkpt lat="44.72719831967815" lon="9.994565238342993"><ele>482.5</ele><time>2026-04-10T15:13:36.001Z</time></trkpt><trkpt lat="44.72719900675293" lon="9.994665581590988"><ele>483.0</ele><time>2026-04-10T15:13:37.001Z</time></trkpt><trkpt lat="44.727177211801425" lon="9.994751726910563"><ele>483.50000000000006</ele><time>2026-04-10T15:13:38.001Z</time></trkpt><trkpt lat="44.72713088766159" lon="9.994839863257305"><ele>484.0</ele><time>2026-04-10T15:13:39.001Z</time></trkpt><trkpt lat="44.72707827456343" lon="9.994982002827726"><ele>487.0</ele><time>2026-04-10T15:13:41.001Z</time></trkpt><trkpt lat="44.72710936604369" lon="9.995159635481647"><ele>490.0</ele><time>2026-04-10T15:13:43.001Z</time></trkpt><trkpt lat="44.72715660680127" lon="9.995272844993801"><ele>493.0</ele><time>2026-04-10T15:13:44.001Z</time></trkpt><trkpt lat="44.727213322037734" lon="9.995381009147467"><ele>496.0</ele><time>2026-04-10T15:13:45.001Z</time></trkpt><trkpt lat="44.727251495632245" lon="9.995464238655273"><ele>499.0</ele><time>2026-04-10T15:13:46.001Z</time></trkpt><trkpt lat="44.727262193831635" lon="9.99563478157602"><ele>499.00000000000006</ele><time>2026-04-10T15:13:48.001Z</time></trkpt><trkpt lat="44.72723624210957" lon="9.995748984642086"><ele>499.0</ele><time>2026-04-10T15:13:49.001Z</time></trkpt><trkpt lat="44.72720218125037" lon="9.995873248368143"><ele>499.0</ele><time>2026-04-10T15:13:50.001Z</time></trkpt><trkpt lat="44.72716529069776" lon="9.99599323920697"><ele>499.0</ele><time>2026-04-10T15:13:51.001Z</time></trkpt><trkpt lat="44.727144790738436" lon="9.996088154205193"><ele>499.00000000000006</ele><time>2026-04-10T15:13:52.001Z</time></trkpt><trkpt lat="44.72712895485803" lon="9.996202541943731"><ele>499.0</ele><time>2026-04-10T15:13:53.001Z</time></trkpt><trkpt lat="44.727089236393226" lon="9.996319676424545"><ele>499.00000000000006</ele><time>2026-04-10T15:13:54.001Z</time></trkpt><trkpt lat="44.72704519155352" lon="9.996414725055693"><ele>499.0</ele><time>2026-04-10T15:13:55.001Z</time></trkpt><trkpt lat="44.727012321031154" lon="9.996522849251306"><ele>499.0</ele><time>2026-04-10T15:13:56.001Z</time></trkpt><trkpt lat="44.72697384297939" lon="9.99663458597344"><ele>499.0</ele><time>2026-04-10T15:13:57.001Z</time></trkpt><trkpt lat="44.726911736317234" lon="9.996740683257379"><ele>499.00000000000006</ele><time>2026-04-10T15:13:58.001Z</time></trkpt><trkpt lat="44.726835702687495" lon="9.996816429663484"><ele>499.0</ele><time>2026-04-10T15:13:59.001Z</time></trkpt><trkpt lat="44.726771405053064" lon="9.996914286334027"><ele>499.0</ele><time>2026-04-10T15:14:00.001Z</time></trkpt><trkpt lat="44.72673076215867" lon="9.997012488963692"><ele>499.0</ele><time>2026-04-10T15:14:01.001Z</time></trkpt><trkpt lat="44.7266986940548" lon="9.997136783201247"><ele>499.0</ele><time>2026-04-10T15:14:02.001Z</time></trkpt><trkpt lat="44.72664681020913" lon="9.997251688976714"><ele>499.0</ele><time>2026-04-10T15:14:03.001Z</time></trkpt><trkpt lat="44.72657285358271" lon="9.997354341888759"><ele>499.0</ele><time>2026-04-10T15:14:04.001Z</time></trkpt><trkpt lat="44.72650658194113" lon="9.997423043122248"><ele>497.1666666666667</ele><time>2026-04-10T15:14:05.001Z</time></trkpt><trkpt lat="44.72642472780241" lon="9.997505509477206"><ele>495.33333333333337</ele><time>2026-04-10T15:14:07.001Z</time></trkpt><trkpt lat="44.72637393345065" lon="9.997583448957041"><ele>493.5</ele><time>2026-04-10T15:14:09.001Z</time></trkpt><trkpt lat="44.726381206701106" lon="9.997691755473355"><ele>491.66666666666663</ele><time>2026-04-10T15:14:12.001Z</time></trkpt><trkpt lat="44.7264466009243" lon="9.997744827669072"><ele>489.8333333333333</ele><time>2026-04-10T15:14:14.001Z</time></trkpt><trkpt lat="44.72651002390841" lon="9.997757557328548"><ele>488.0</ele><time>2026-04-10T15:14:15.001Z</time></trkpt><trkpt lat="44.72657258624434" lon="9.997779200180856"><ele>487.99999999999994</ele><time>2026-04-10T15:14:16.001Z</time></trkpt><trkpt lat="44.72663501471113" lon="9.99780315105534"><ele>488.0</ele><time>2026-04-10T15:14:17.001Z</time></trkpt><trkpt lat="44.72669711336309" lon="9.997829891905688"><ele>488.0</ele><time>2026-04-10T15:14:18.001Z</time></trkpt><trkpt lat="44.726800344645724" lon="9.99790639754946"><ele>488.0</ele><time>2026-04-10T15:14:20.001Z</time></trkpt><trkpt lat="44.72685400137913" lon="9.997973649949637"><ele>487.99999999999994</ele><time>2026-04-10T15:14:22.001Z</time></trkpt><trkpt lat="44.726944776257085" lon="9.998024699566793"><ele>488.0</ele><time>2026-04-10T15:14:24.001Z</time></trkpt><trkpt lat="44.72700816264876" lon="9.998071244402396"><ele>488.3333333333333</ele><time>2026-04-10T15:14:26.001Z</time></trkpt><trkpt lat="44.72710918534553" lon="9.99813936528359"><ele>488.66666666666663</ele><time>2026-04-10T15:14:28.001Z</time></trkpt><trkpt lat="44.727184727075475" lon="9.998153082311275"><ele>489.0</ele><time>2026-04-10T15:14:30.001Z</time></trkpt><trkpt lat="44.72729432523959" lon="9.998125958059873"><ele>489.33333333333337</ele><time>2026-04-10T15:14:32.001Z</time></trkpt><trkpt lat="44.72735929586247" lon="9.998091633464416"><ele>489.6666666666667</ele><time>2026-04-10T15:14:33.001Z</time></trkpt><trkpt lat="44.7274250693995" lon="9.998042619204591"><ele>490.0</ele><time>2026-04-10T15:14:34.001Z</time></trkpt><trkpt lat="44.727495401805285" lon="9.997998208111884"><ele>490.0</ele><time>2026-04-10T15:14:35.001Z</time></trkpt><trkpt lat="44.72756019383869" lon="9.997966449969145"><ele>490.0</ele><time>2026-04-10T15:14:36.001Z</time></trkpt><trkpt lat="44.72765452413504" lon="9.997904052478578"><ele>490.0</ele><time>2026-04-10T15:14:38.001Z</time></trkpt><trkpt lat="44.72769857306032" lon="9.997840185009371"><ele>490.0</ele><time>2026-04-10T15:14:39.001Z</time></trkpt><trkpt lat="44.72778907204294" lon="9.997750090910912"><ele>490.0</ele><time>2026-04-10T15:14:41.001Z</time></trkpt><trkpt lat="44.72789305847026" lon="9.997698638807368"><ele>487.83333333333337</ele><time>2026-04-10T15:14:43.001Z</time></trkpt><trkpt lat="44.72797548445193" lon="9.997663368873322"><ele>485.6666666666667</ele><time>2026-04-10T15:14:45.001Z</time></trkpt><trkpt lat="44.72803441746649" lon="9.997605999018479"><ele>483.5</ele><time>2026-04-10T15:14:47.001Z</time></trkpt><trkpt lat="44.7281296548669" lon="9.99759094411982"><ele>481.33333333333337</ele><time>2026-04-10T15:14:49.001Z</time></trkpt><trkpt lat="44.728201363537295" lon="9.997590460775259"><ele>479.1666666666667</ele><time>2026-04-10T15:14:51.001Z</time></trkpt><trkpt lat="44.72827844387754" lon="9.997580554003545"><ele>477.0</ele><time>2026-04-10T15:14:52.001Z</time></trkpt><trkpt lat="44.728344889736015" lon="9.99757614631748"><ele>477.0</ele><time>2026-04-10T15:14:53.001Z</time></trkpt><trkpt lat="44.72845272564201" lon="9.997601156740958"><ele>476.99999999999994</ele><time>2026-04-10T15:14:55.001Z</time></trkpt><trkpt lat="44.7285184166636" lon="9.99763816703317"><ele>477.0</ele><time>2026-04-10T15:14:56.001Z</time></trkpt><trkpt lat="44.728583685433655" lon="9.997668915800217"><ele>477.0</ele><time>2026-04-10T15:14:57.001Z</time></trkpt><trkpt lat="44.72864904783471" lon="9.997706345122397"><ele>476.99999999999994</ele><time>2026-04-10T15:14:58.001Z</time></trkpt><trkpt lat="44.72869733019513" lon="9.99776697169788"><ele>477.0</ele><time>2026-04-10T15:15:00.001Z</time></trkpt><trkpt lat="44.72868580664043" lon="9.997679466791691"><ele>477.0</ele><time>2026-04-10T15:19:57.001Z</time></trkpt><trkpt lat="44.72874304187165" lon="9.997723020489536"><ele>477.0</ele><time>2026-04-10T15:20:11.001Z</time></trkpt><trkpt lat="44.72880730807734" lon="9.99774423160913"><ele>476.99999999999994</ele><time>2026-04-10T15:20:18.001Z</time></trkpt><trkpt lat="44.728741265458716" lon="9.997744408496537"><ele>477.0</ele><time>2026-04-10T15:21:05.001Z</time></trkpt><trkpt lat="44.728673699011296" lon="9.997731792114699"><ele>477.0</ele><time>2026-04-10T15:21:41.001Z</time></trkpt><trkpt lat="44.72862934695192" lon="9.997663961862079"><ele>476.99999999999994</ele><time>2026-04-10T15:27:35Z</time></trkpt><trkpt lat="44.728560762345936" lon="9.9976335710886"><ele>477.0</ele><time>2026-04-10T15:27:42Z</time></trkpt><trkpt lat="44.72849666758667" lon="9.997615746606277"><ele>477.0</ele><time>2026-04-10T15:27:47Z</time></trkpt><trkpt lat="44.72842912493482" lon="9.99758491008927"><ele>477.0</ele><time>2026-04-10T15:27:52Z</time></trkpt><trkpt lat="44.72836047178721" lon="9.997570782492657"><ele>476.99999999999994</ele><time>2026-04-10T15:27:57Z</time></trkpt><trkpt lat="44.728306537182526" lon="9.997616702735344"><ele>477.0</ele><time>2026-04-10T15:28:01Z</time></trkpt><trkpt lat="44.72822822256202" lon="9.997572979241472"><ele>477.0</ele><time>2026-04-10T15:28:16Z</time></trkpt><trkpt lat="44.728159752290956" lon="9.997575421886577"><ele>476.99999999999994</ele><time>2026-04-10T15:28:21Z</time></trkpt><trkpt lat="44.72808959027569" lon="9.997584830592432"><ele>477.0</ele><time>2026-04-10T15:28:26Z</time></trkpt><trkpt lat="44.72802694797801" lon="9.997609549363995"><ele>477.0</ele><time>2026-04-10T15:28:30Z</time></trkpt><trkpt lat="44.72796615552816" lon="9.997656135848091"><ele>477.0</ele><time>2026-04-10T15:28:35Z</time></trkpt><trkpt lat="44.72789636120885" lon="9.997684910325221"><ele>476.99999999999994</ele><time>2026-04-10T15:28:40Z</time></trkpt><trkpt lat="44.7278358337827" lon="9.997722482804953"><ele>477.0</ele><time>2026-04-10T15:28:44Z</time></trkpt><trkpt lat="44.72776996378428" lon="9.997776128527347"><ele>477.0</ele><time>2026-04-10T15:28:48Z</time></trkpt><trkpt lat="44.727709605347684" lon="9.997841014477178"><ele>476.99999999999994</ele><time>2026-04-10T15:28:52Z</time></trkpt><trkpt lat="44.727653287896594" lon="9.997906191368482"><ele>477.0</ele><time>2026-04-10T15:28:57Z</time></trkpt><trkpt lat="44.72760004302428" lon="9.997959261991198"><ele>477.0</ele><time>2026-04-10T15:29:02Z</time></trkpt><trkpt lat="44.72753790306069" lon="9.997988351792864"><ele>478.85714285714283</ele><time>2026-04-10T15:29:07Z</time></trkpt><trkpt lat="44.727472697859234" lon="9.998021609921327"><ele>480.71428571428567</ele><time>2026-04-10T15:29:12Z</time></trkpt><trkpt lat="44.72741285969228" lon="9.998052650455639"><ele>482.57142857142856</ele><time>2026-04-10T15:29:17Z</time></trkpt><trkpt lat="44.727349528017186" lon="9.998097304671981"><ele>484.42857142857144</ele><time>2026-04-10T15:29:23Z</time></trkpt><trkpt lat="44.72728913384098" lon="9.998125189952912"><ele>486.2857142857143</ele><time>2026-04-10T15:29:28Z</time></trkpt><trkpt lat="44.72721776156416" lon="9.998146564947"><ele>488.1428571428571</ele><time>2026-04-10T15:29:34Z</time></trkpt><trkpt lat="44.72714556148386" lon="9.998146039038923"><ele>490.0</ele><time>2026-04-10T15:29:39Z</time></trkpt><trkpt lat="44.72709623560589" lon="9.998088895394087"><ele>490.00000000000006</ele><time>2026-04-10T15:29:44Z</time></trkpt><trkpt lat="44.72715029908071" lon="9.998138241464785"><ele>490.0</ele><time>2026-04-10T15:30:03Z</time></trkpt><trkpt lat="44.727219140798034" lon="9.998148189233552"><ele>490.0</ele><time>2026-04-10T15:30:34.999Z</time></trkpt><trkpt lat="44.7273013427695" lon="9.998135095483974"><ele>490.0</ele><time>2026-04-10T15:30:38.999Z</time></trkpt><trkpt lat="44.72736297503811" lon="9.998088217088606"><ele>490.00000000000006</ele><time>2026-04-10T15:30:41.999Z</time></trkpt><trkpt lat="44.727422447271586" lon="9.998034208905167"><ele>490.0</ele><time>2026-04-10T15:30:44.999Z</time></trkpt><trkpt lat="44.727520594250315" lon="9.997991607896612"><ele>490.00000000000006</ele><time>2026-04-10T15:30:47.999Z</time></trkpt><trkpt lat="44.727581613644524" lon="9.997953760640053"><ele>490.0</ele><time>2026-04-10T15:30:50.999Z</time></trkpt><trkpt lat="44.72764679545549" lon="9.997892894619003"><ele>490.0</ele><time>2026-04-10T15:30:52.999Z</time></trkpt><trkpt lat="44.72770484278734" lon="9.997810702006657"><ele>490.0</ele><time>2026-04-10T15:30:55.999Z</time></trkpt><trkpt lat="44.7277627723428" lon="9.997775741791814"><ele>490.00000000000006</ele><time>2026-04-10T15:30:57.999Z</time></trkpt><trkpt lat="44.72784876022213" lon="9.99770897248764"><ele>490.0</ele><time>2026-04-10T15:31:00.999Z</time></trkpt><trkpt lat="44.72791062653584" lon="9.997686999765955"><ele>487.83333333333337</ele><time>2026-04-10T15:31:03.999Z</time></trkpt><trkpt lat="44.72798640714984" lon="9.997653941202623"><ele>485.6666666666667</ele><time>2026-04-10T15:31:09.999Z</time></trkpt><trkpt lat="44.728056989609044" lon="9.997593270995933"><ele>483.5</ele><time>2026-04-10T15:31:12.999Z</time></trkpt><trkpt lat="44.728130706666825" lon="9.997555749195772"><ele>481.33333333333337</ele><time>2026-04-10T15:31:16.999Z</time></trkpt><trkpt lat="44.72820716350708" lon="9.997554938647427"><ele>479.1666666666667</ele><time>2026-04-10T15:31:19.999Z</time></trkpt><trkpt lat="44.728272050892556" lon="9.997573306443265"><ele>477.0</ele><time>2026-04-10T15:31:23.999Z</time></trkpt><trkpt lat="44.72834757180969" lon="9.997561447661747"><ele>477.0</ele><time>2026-04-10T15:31:28Z</time></trkpt><trkpt lat="44.728411743472584" lon="9.997591092343221"><ele>476.99999999999994</ele><time>2026-04-10T15:31:32Z</time></trkpt><trkpt lat="44.728489743255466" lon="9.997612346200867"><ele>477.0</ele><time>2026-04-10T15:31:39Z</time></trkpt><trkpt lat="44.72856257308241" lon="9.997647131441502"><ele>477.0</ele><time>2026-04-10T15:31:44Z</time></trkpt><trkpt lat="44.72862710974971" lon="9.997676174786282"><ele>476.99999999999994</ele><time>2026-04-10T15:31:48Z</time></trkpt><trkpt lat="44.72869634945736" lon="9.99769747708801"><ele>477.0</ele><time>2026-04-10T15:31:54Z</time></trkpt><trkpt lat="44.72863438971575" lon="9.99765172932836"><ele>477.0</ele><time>2026-04-10T15:32:33Z</time></trkpt><trkpt lat="44.728679764370526" lon="9.997719567156556"><ele>477.57142857142856</ele><time>2026-04-10T15:33:02Z</time></trkpt><trkpt lat="44.72868194803828" lon="9.997812508803216"><ele>478.1428571428571</ele><time>2026-04-10T15:40:31Z</time></trkpt><trkpt lat="44.72868608872195" lon="9.99772109562217"><ele>478.71428571428567</ele><time>2026-04-10T15:47:30Z</time></trkpt><trkpt lat="44.72868557973574" lon="9.997818630657703"><ele>479.2857142857142</ele><time>2026-04-10T15:54:51.999Z</time></trkpt><trkpt lat="44.72872702339325" lon="9.997907239175094"><ele>479.85714285714283</ele><time>2026-04-10T15:55:51.999Z</time></trkpt><trkpt lat="44.728807854337575" lon="9.997960518081728"><ele>480.42857142857133</ele><time>2026-04-10T15:55:54.999Z</time></trkpt><trkpt lat="44.72885588428368" lon="9.998023858191802"><ele>480.99999999999994</ele><time>2026-04-10T15:55:57.999Z</time></trkpt><trkpt lat="44.72883971079959" lon="9.99812522496138"><ele>480.99999999999994</ele><time>2026-04-10T15:56:04.999Z</time></trkpt><trkpt lat="44.72878808132162" lon="9.998228357597515"><ele>481.0</ele><time>2026-04-10T15:56:08.999Z</time></trkpt><trkpt lat="44.728746539426076" lon="9.998305263123454"><ele>480.99999999999994</ele><time>2026-04-10T15:56:13.999Z</time></trkpt><trkpt lat="44.728733655658246" lon="9.998394994061774"><ele>480.99999999999994</ele><time>2026-04-10T15:56:17.999Z</time></trkpt><trkpt lat="44.72870497401553" lon="9.998482769580663"><ele>481.0</ele><time>2026-04-10T15:56:21.999Z</time></trkpt><trkpt lat="44.72867841120265" lon="9.998569533474546"><ele>480.99999999999994</ele><time>2026-04-10T15:56:26.999Z</time></trkpt><trkpt lat="44.72864808579161" lon="9.998657620086135"><ele>480.99999999999994</ele><time>2026-04-10T15:56:33.999Z</time></trkpt><trkpt lat="44.728613009355534" lon="9.99876409716939"><ele>478.00000000000006</ele><time>2026-04-10T15:56:38.999Z</time></trkpt><trkpt lat="44.72857616653243" lon="9.998859303738932"><ele>475.0</ele><time>2026-04-10T15:57:04.999Z</time></trkpt><trkpt lat="44.728583180888805" lon="9.998956889479095"><ele>472.0</ele><time>2026-04-10T15:57:06.999Z</time></trkpt><trkpt lat="44.72864141521953" lon="9.999020099598166"><ele>469.0</ele><time>2026-04-10T15:57:17.999Z</time></trkpt><trkpt lat="44.728700744147105" lon="9.999085744789454"><ele>466.00000000000006</ele><time>2026-04-10T15:57:20.999Z</time></trkpt><trkpt lat="44.7287682591749" lon="9.999189089393699"><ele>463.0</ele><time>2026-04-10T15:57:23.999Z</time></trkpt><trkpt lat="44.72884402076477" lon="9.999251579974143"><ele>458.4</ele><time>2026-04-10T15:57:26.999Z</time></trkpt><trkpt lat="44.729004567733874" lon="9.999311139990409"><ele>453.79999999999995</ele><time>2026-04-10T15:57:31.999Z</time></trkpt><trkpt lat="44.72907466619384" lon="9.999344960863882"><ele>449.2</ele><time>2026-04-10T15:57:33.999Z</time></trkpt><trkpt lat="44.72913447699627" lon="9.999394589370372"><ele>444.6</ele><time>2026-04-10T15:57:35.999Z</time></trkpt><trkpt lat="44.72921560538123" lon="9.99948751135739"><ele>440.0</ele><time>2026-04-10T15:57:38.999Z</time></trkpt><trkpt lat="44.72928364868242" lon="9.999554977139036"><ele>439.99999999999994</ele><time>2026-04-10T15:57:40.999Z</time></trkpt><trkpt lat="44.729354236855265" lon="9.999639721949995"><ele>440.0</ele><time>2026-04-10T15:57:42.999Z</time></trkpt><trkpt lat="44.72943909787016" lon="9.999711095640334"><ele>440.0</ele><time>2026-04-10T15:57:44.999Z</time></trkpt><trkpt lat="44.72953134458362" lon="9.999724702546933"><ele>440.0</ele><time>2026-04-10T15:57:46.999Z</time></trkpt><trkpt lat="44.72961002527123" lon="9.999696112344257"><ele>439.99999999999994</ele><time>2026-04-10T15:57:48.999Z</time></trkpt><trkpt lat="44.7296843242277" lon="9.999671517856337"><ele>440.0</ele><time>2026-04-10T15:57:50.999Z</time></trkpt><trkpt lat="44.72976460834116" lon="9.999679816635897"><ele>439.8</ele><time>2026-04-10T15:57:52.999Z</time></trkpt><trkpt lat="44.72982898043454" lon="9.999684771173907"><ele>439.6</ele><time>2026-04-10T15:57:54.999Z</time></trkpt><trkpt lat="44.72990893016469" lon="9.999671316500223"><ele>439.4</ele><time>2026-04-10T15:57:57.999Z</time></trkpt><trkpt lat="44.729967873835484" lon="9.999568685433905"><ele>439.2</ele><time>2026-04-10T15:58:00.999Z</time></trkpt><trkpt lat="44.7300012907542" lon="9.999447703678634"><ele>439.0</ele><time>2026-04-10T15:58:02.999Z</time></trkpt><trkpt lat="44.730029700532846" lon="9.999274075274945"><ele>439.00000000000006</ele><time>2026-04-10T15:58:04.999Z</time></trkpt><trkpt lat="44.73005036969687" lon="9.999185614224151"><ele>439.0</ele><time>2026-04-10T15:58:05.999Z</time></trkpt><trkpt lat="44.73011725658773" lon="9.99906341603152"><ele>439.0</ele><time>2026-04-10T15:58:07.999Z</time></trkpt><trkpt lat="44.73020546026581" lon="9.998967023896439"><ele>439.0</ele><time>2026-04-10T15:58:09.999Z</time></trkpt><trkpt lat="44.73027130894962" lon="9.99892268001064"><ele>439.00000000000006</ele><time>2026-04-10T15:58:10.999Z</time></trkpt><trkpt lat="44.730352549723435" lon="9.998883417459226"><ele>439.0</ele><time>2026-04-10T15:58:11.999Z</time></trkpt><trkpt lat="44.73042457975508" lon="9.998852078422388"><ele>438.1666666666667</ele><time>2026-04-10T15:58:12.999Z</time></trkpt><trkpt lat="44.730487978826346" lon="9.998805468584901"><ele>437.33333333333337</ele><time>2026-04-10T15:58:13.999Z</time></trkpt><trkpt lat="44.73055451871711" lon="9.998768046248097"><ele>436.5</ele><time>2026-04-10T15:58:14.999Z</time></trkpt><trkpt lat="44.73062245639109" lon="9.99874069764684"><ele>435.66666666666663</ele><time>2026-04-10T15:58:15.999Z</time></trkpt><trkpt lat="44.730685188566234" lon="9.9986964661755"><ele>434.8333333333333</ele><time>2026-04-10T15:58:16.999Z</time></trkpt><trkpt lat="44.730765368788774" lon="9.998647900625638"><ele>434.0</ele><time>2026-04-10T15:58:17.999Z</time></trkpt><trkpt lat="44.73083651192023" lon="9.998600848862269"><ele>433.99999999999994</ele><time>2026-04-10T15:58:18.999Z</time></trkpt><trkpt lat="44.73090592405832" lon="9.998550992327102"><ele>434.0</ele><time>2026-04-10T15:58:19.999Z</time></trkpt><trkpt lat="44.73097294676955" lon="9.998498256218804"><ele>434.0</ele><time>2026-04-10T15:58:20.999Z</time></trkpt><trkpt lat="44.731045149299874" lon="9.998450085858149"><ele>434.0</ele><time>2026-04-10T15:58:21.999Z</time></trkpt><trkpt lat="44.7311111864923" lon="9.998388494190882"><ele>433.99999999999994</ele><time>2026-04-10T15:58:22.999Z</time></trkpt><trkpt lat="44.73117153177166" lon="9.998324305111533"><ele>434.0</ele><time>2026-04-10T15:58:23.999Z</time></trkpt><trkpt lat="44.73123310433908" lon="9.998298590089409"><ele>432.3333333333333</ele><time>2026-04-10T15:58:24.999Z</time></trkpt><trkpt lat="44.73130317309154" lon="9.998250370846618"><ele>430.66666666666663</ele><time>2026-04-10T15:58:25.999Z</time></trkpt><trkpt lat="44.73136080747913" lon="9.998194134101132"><ele>429.0</ele><time>2026-04-10T15:58:26.999Z</time></trkpt><trkpt lat="44.73143476439871" lon="9.998158774116202"><ele>427.33333333333337</ele><time>2026-04-10T15:58:27.999Z</time></trkpt><trkpt lat="44.73150165785874" lon="9.998131912656934"><ele>425.6666666666667</ele><time>2026-04-10T15:58:28.999Z</time></trkpt><trkpt lat="44.731627487693466" lon="9.998110532583063"><ele>424.0</ele><time>2026-04-10T15:58:30.999Z</time></trkpt><trkpt lat="44.731736920708244" lon="9.998129233495593"><ele>424.00000000000006</ele><time>2026-04-10T15:58:32.999Z</time></trkpt><trkpt lat="44.7318440963766" lon="9.998163011142914"><ele>424.0</ele><time>2026-04-10T15:58:34.999Z</time></trkpt><trkpt lat="44.731926821443956" lon="9.99816915404518"><ele>424.0</ele><time>2026-04-10T15:58:35.999Z</time></trkpt><trkpt lat="44.73199640881685" lon="9.998198904576626"><ele>424.0</ele><time>2026-04-10T15:58:36.999Z</time></trkpt><trkpt lat="44.73206455456497" lon="9.998233177966007"><ele>424.00000000000006</ele><time>2026-04-10T15:58:37.999Z</time></trkpt><trkpt lat="44.732134521941994" lon="9.998259465526314"><ele>424.0</ele><time>2026-04-10T15:58:38.999Z</time></trkpt><trkpt lat="44.732207881000576" lon="9.998253685733902"><ele>422.8571428571429</ele><time>2026-04-10T15:58:39.999Z</time></trkpt><trkpt lat="44.73228223508621" lon="9.998257828776614"><ele>421.71428571428567</ele><time>2026-04-10T15:58:40.999Z</time></trkpt><trkpt lat="44.73236549138327" lon="9.998263353110712"><ele>420.57142857142856</ele><time>2026-04-10T15:58:41.999Z</time></trkpt><trkpt lat="44.73244148297877" lon="9.998270963468787"><ele>419.42857142857144</ele><time>2026-04-10T15:58:42.999Z</time></trkpt><trkpt lat="44.732509729195215" lon="9.998276387549447"><ele>418.28571428571433</ele><time>2026-04-10T15:58:43.999Z</time></trkpt><trkpt lat="44.73257192511146" lon="9.998257380055959"><ele>417.1428571428571</ele><time>2026-04-10T15:58:44.999Z</time></trkpt><trkpt lat="44.732645411981515" lon="9.998257022678105"><ele>416.0</ele><time>2026-04-10T15:58:45.999Z</time></trkpt><trkpt lat="44.73270876357371" lon="9.998234809803828"><ele>413.99999999999994</ele><time>2026-04-10T15:58:46.999Z</time></trkpt><trkpt lat="44.73277661674034" lon="9.998192637836626"><ele>412.0</ele><time>2026-04-10T15:58:47.999Z</time></trkpt><trkpt lat="44.73283256413796" lon="9.998131230766012"><ele>410.0</ele><time>2026-04-10T15:58:48.999Z</time></trkpt><trkpt lat="44.73294005756986" lon="9.998062619913098"><ele>408.0</ele><time>2026-04-10T15:58:50.999Z</time></trkpt><trkpt lat="44.73301611041383" lon="9.998026085479605"><ele>405.99999999999994</ele><time>2026-04-10T15:58:52.999Z</time></trkpt><trkpt lat="44.733093840815215" lon="9.998026543071255"><ele>404.0</ele><time>2026-04-10T15:58:55.999Z</time></trkpt><trkpt lat="44.73316635177591" lon="9.99811526867261"><ele>403.99999999999994</ele><time>2026-04-10T15:59:18.999Z</time></trkpt><trkpt lat="44.733167109704794" lon="9.998205952483008"><ele>404.0</ele><time>2026-04-10T15:59:20.999Z</time></trkpt><trkpt lat="44.73318943156253" lon="9.998340838290169"><ele>404.0</ele><time>2026-04-10T15:59:23.999Z</time></trkpt><trkpt lat="44.733197562357" lon="9.998456300302372"><ele>404.0</ele><time>2026-04-10T15:59:25.999Z</time></trkpt><trkpt lat="44.733256977870404" lon="9.998545769462858"><ele>403.99999999999994</ele><time>2026-04-10T15:59:27.999Z</time></trkpt><trkpt lat="44.733352679971496" lon="9.99858727762843"><ele>404.0</ele><time>2026-04-10T15:59:29.999Z</time></trkpt><trkpt lat="44.73342000668473" lon="9.99849344011943"><ele>403.99999999999994</ele><time>2026-04-10T15:59:31.999Z</time></trkpt><trkpt lat="44.7334409054796" lon="9.998363594542962"><ele>404.0</ele><time>2026-04-10T15:59:33.999Z</time></trkpt><trkpt lat="44.73340577129263" lon="9.998212566020973"><ele>404.0</ele><time>2026-04-10T15:59:35.999Z</time></trkpt><trkpt lat="44.733387377029615" lon="9.998103850065371"><ele>404.0</ele><time>2026-04-10T15:59:37.999Z</time></trkpt><trkpt lat="44.733425741389276" lon="9.99802153356694"><ele>403.99999999999994</ele><time>2026-04-10T15:59:39.999Z</time></trkpt><trkpt lat="44.733486383010245" lon="9.997988694468294"><ele>404.0</ele><time>2026-04-10T15:59:41.999Z</time></trkpt><trkpt lat="44.73359173150325" lon="9.99812185601015"><ele>400.6</ele><time>2026-04-10T15:59:43.999Z</time></trkpt><trkpt lat="44.73364492988535" lon="9.998195815713643"><ele>397.2</ele><time>2026-04-10T15:59:44.999Z</time></trkpt><trkpt lat="44.733696020794206" lon="9.998252454208027"><ele>393.8</ele><time>2026-04-10T15:59:45.999Z</time></trkpt><trkpt lat="44.73379782762278" lon="9.9983994484726"><ele>390.40000000000003</ele><time>2026-04-10T15:59:47.999Z</time></trkpt><trkpt lat="44.73387867319182" lon="9.998501662933057"><ele>387.0</ele><time>2026-04-10T15:59:48.999Z</time></trkpt><trkpt lat="44.73395115600936" lon="9.99857666700584"><ele>387.0</ele><time>2026-04-10T15:59:49.999Z</time></trkpt><trkpt lat="44.73400944606379" lon="9.998633410868718"><ele>387.0</ele><time>2026-04-10T15:59:50.999Z</time></trkpt><trkpt lat="44.734075113288725" lon="9.998691535077317"><ele>387.0</ele><time>2026-04-10T15:59:51.999Z</time></trkpt><trkpt lat="44.734140072955825" lon="9.998732628959138"><ele>387.0</ele><time>2026-04-10T15:59:52.999Z</time></trkpt><trkpt lat="44.73421554090419" lon="9.99878519724649"><ele>387.0</ele><time>2026-04-10T15:59:53.999Z</time></trkpt><trkpt lat="44.73430175610263" lon="9.998843096132605"><ele>387.0</ele><time>2026-04-10T15:59:54.999Z</time></trkpt><trkpt lat="44.734394923341185" lon="9.998902829127404"><ele>386.6666666666667</ele><time>2026-04-10T15:59:55.999Z</time></trkpt><trkpt lat="44.734478963845206" lon="9.998956320130441"><ele>386.33333333333337</ele><time>2026-04-10T15:59:56.999Z</time></trkpt><trkpt lat="44.73456833075424" lon="9.999011140261628"><ele>386.0</ele><time>2026-04-10T15:59:57.999Z</time></trkpt><trkpt lat="44.73465112621549" lon="9.999061215989938"><ele>385.6666666666667</ele><time>2026-04-10T15:59:58.999Z</time></trkpt><trkpt lat="44.7347282157455" lon="9.999109810835332"><ele>385.33333333333337</ele><time>2026-04-10T15:59:59.999Z</time></trkpt><trkpt lat="44.734807026374526" lon="9.999155152874899"><ele>385.0</ele><time>2026-04-10T16:00:00.999Z</time></trkpt><trkpt lat="44.7348800348293" lon="9.999202303660093"><ele>384.50000000000006</ele><time>2026-04-10T16:00:01.999Z</time></trkpt><trkpt lat="44.734944074602794" lon="9.999242786890948"><ele>384.0</ele><time>2026-04-10T16:00:02.999Z</time></trkpt><trkpt lat="44.735024686027785" lon="9.999285136129634"><ele>383.5</ele><time>2026-04-10T16:00:03.999Z</time></trkpt><trkpt lat="44.735100365210336" lon="9.999317044647324"><ele>383.0</ele><time>2026-04-10T16:00:04.999Z</time></trkpt><trkpt lat="44.735169336822864" lon="9.99937768024937"><ele>382.5</ele><time>2026-04-10T16:00:05.999Z</time></trkpt><trkpt lat="44.735233895336336" lon="9.999421931118384"><ele>382.0</ele><time>2026-04-10T16:00:06.999Z</time></trkpt><trkpt lat="44.7352984175247" lon="9.99947237936191"><ele>382.0</ele><time>2026-04-10T16:00:07.999Z</time></trkpt><trkpt lat="44.73538418969347" lon="9.999568092737837"><ele>382.0</ele><time>2026-04-10T16:00:09.999Z</time></trkpt><trkpt lat="44.73545831745339" lon="9.999680575665826"><ele>382.0</ele><time>2026-04-10T16:00:11.999Z</time></trkpt><trkpt lat="44.735509223188856" lon="9.999787175071123"><ele>382.0</ele><time>2026-04-10T16:00:13.999Z</time></trkpt><trkpt lat="44.735554463579106" lon="9.999938735111968"><ele>382.0</ele><time>2026-04-10T16:00:15.999Z</time></trkpt><trkpt lat="44.73556281698243" lon="10.000037718599247"><ele>382.0</ele><time>2026-04-10T16:00:16.999Z</time></trkpt><trkpt lat="44.73557381552337" lon="10.000157762229874"><ele>382.0</ele><time>2026-04-10T16:00:17.999Z</time></trkpt><trkpt lat="44.7355830819563" lon="10.000293839669425"><ele>382.0</ele><time>2026-04-10T16:00:18.999Z</time></trkpt><trkpt lat="44.73559122792969" lon="10.000408858200347"><ele>382.0</ele><time>2026-04-10T16:00:19.999Z</time></trkpt><trkpt lat="44.73559825084786" lon="10.000501174525729"><ele>382.0</ele><time>2026-04-10T16:00:20.999Z</time></trkpt><trkpt lat="44.735611914208285" lon="10.000669039075035"><ele>382.0</ele><time>2026-04-10T16:00:22.999Z</time></trkpt><trkpt lat="44.73562494847766" lon="10.00078451398891"><ele>382.0</ele><time>2026-04-10T16:00:23.999Z</time></trkpt><trkpt lat="44.735642013503" lon="10.000920102344036"><ele>382.0</ele><time>2026-04-10T16:00:24.999Z</time></trkpt><trkpt lat="44.73566692663125" lon="10.001054383389654"><ele>382.0</ele><time>2026-04-10T16:00:25.999Z</time></trkpt><trkpt lat="44.735716463413276" lon="10.00116493369442"><ele>382.0</ele><time>2026-04-10T16:00:26.999Z</time></trkpt><trkpt lat="44.735746554469046" lon="10.001295878132762"><ele>381.66666666666663</ele><time>2026-04-10T16:00:27.999Z</time></trkpt><trkpt lat="44.735776706381564" lon="10.001410707286349"><ele>381.3333333333333</ele><time>2026-04-10T16:00:28.999Z</time></trkpt><trkpt lat="44.73580562552593" lon="10.001505313906572"><ele>381.0</ele><time>2026-04-10T16:00:29.999Z</time></trkpt><trkpt lat="44.73583225928402" lon="10.001598714312417"><ele>380.6666666666667</ele><time>2026-04-10T16:00:30.999Z</time></trkpt><trkpt lat="44.73586713654432" lon="10.00169645311558"><ele>380.33333333333337</ele><time>2026-04-10T16:00:31.999Z</time></trkpt><trkpt lat="44.73591135508182" lon="10.001780735557839"><ele>380.0</ele><time>2026-04-10T16:00:32.999Z</time></trkpt><trkpt lat="44.735966219529196" lon="10.001855485602658"><ele>380.0</ele><time>2026-04-10T16:00:33.999Z</time></trkpt><trkpt lat="44.73602981658554" lon="10.001911750874989"><ele>380.0</ele><time>2026-04-10T16:00:34.999Z</time></trkpt><trkpt lat="44.73610229359463" lon="10.001948680621672"><ele>380.0</ele><time>2026-04-10T16:00:35.999Z</time></trkpt><trkpt lat="44.736174616977834" lon="10.001976008868546"><ele>380.0</ele><time>2026-04-10T16:00:36.999Z</time></trkpt><trkpt lat="44.736246151312265" lon="10.001992750001138"><ele>380.0</ele><time>2026-04-10T16:00:37.999Z</time></trkpt><trkpt lat="44.73636863757955" lon="10.002029188809692"><ele>380.0</ele><time>2026-04-10T16:00:39.999Z</time></trkpt><trkpt lat="44.73643644434118" lon="10.002081749111394"><ele>378.0</ele><time>2026-04-10T16:00:40.999Z</time></trkpt><trkpt lat="44.73648622173931" lon="10.002139174647391"><ele>376.0</ele><time>2026-04-10T16:00:41.999Z</time></trkpt><trkpt lat="44.73654161497501" lon="10.00222672605526"><ele>374.0</ele><time>2026-04-10T16:00:42.999Z</time></trkpt><trkpt lat="44.73659131964221" lon="10.002330135756724"><ele>372.0</ele><time>2026-04-10T16:00:43.999Z</time></trkpt><trkpt lat="44.73662988399237" lon="10.00241572706678"><ele>370.0</ele><time>2026-04-10T16:00:44.999Z</time></trkpt><trkpt lat="44.736648075366574" lon="10.002546740558957"><ele>368.0</ele><time>2026-04-10T16:00:45.999Z</time></trkpt><trkpt lat="44.736656864826024" lon="10.002689229392368"><ele>368.0</ele><time>2026-04-10T16:00:46.999Z</time></trkpt><trkpt lat="44.73666242890065" lon="10.00280970422649"><ele>368.0</ele><time>2026-04-10T16:00:47.999Z</time></trkpt><trkpt lat="44.73667100751298" lon="10.002927091441592"><ele>368.0</ele><time>2026-04-10T16:00:48.999Z</time></trkpt><trkpt lat="44.73668491322974" lon="10.00303224328414"><ele>368.0</ele><time>2026-04-10T16:00:49.999Z</time></trkpt><trkpt lat="44.73670898540145" lon="10.003135583238802"><ele>368.0</ele><time>2026-04-10T16:00:50.999Z</time></trkpt><trkpt lat="44.73673676017591" lon="10.00322989677523"><ele>368.0</ele><time>2026-04-10T16:00:51.999Z</time></trkpt><trkpt lat="44.73678677041759" lon="10.003399544490614"><ele>367.0</ele><time>2026-04-10T16:00:53.999Z</time></trkpt><trkpt lat="44.73682119035414" lon="10.003513547436796"><ele>366.0</ele><time>2026-04-10T16:00:54.999Z</time></trkpt><trkpt lat="44.73684275420605" lon="10.003636474313176"><ele>365.0</ele><time>2026-04-10T16:00:55.999Z</time></trkpt><trkpt lat="44.73685427716455" lon="10.003745704447617"><ele>364.0</ele><time>2026-04-10T16:00:56.999Z</time></trkpt><trkpt lat="44.73686642323116" lon="10.00385769589116"><ele>363.0</ele><time>2026-04-10T16:00:57.999Z</time></trkpt><trkpt lat="44.736884977520624" lon="10.003966518380484"><ele>362.0</ele><time>2026-04-10T16:00:58.999Z</time></trkpt><trkpt lat="44.73691250078187" lon="10.00406685782919"><ele>360.85714285714283</ele><time>2026-04-10T16:00:59.999Z</time></trkpt><trkpt lat="44.73694636815917" lon="10.004164308920435"><ele>359.71428571428567</ele><time>2026-04-10T16:01:00.999Z</time></trkpt><trkpt lat="44.73698402291595" lon="10.004258296963295"><ele>358.57142857142856</ele><time>2026-04-10T16:01:01.999Z</time></trkpt><trkpt lat="44.73702019084191" lon="10.004335875586303"><ele>357.42857142857144</ele><time>2026-04-10T16:01:02.999Z</time></trkpt><trkpt lat="44.73705482191703" lon="10.004410897807995"><ele>356.2857142857143</ele><time>2026-04-10T16:01:03.999Z</time></trkpt><trkpt lat="44.73709360561723" lon="10.004500398489443"><ele>355.14285714285717</ele><time>2026-04-10T16:01:04.999Z</time></trkpt><trkpt lat="44.737127571430726" lon="10.004582352857742"><ele>354.0</ele><time>2026-04-10T16:01:05.999Z</time></trkpt><trkpt lat="44.73715723684987" lon="10.00466436988637"><ele>354.0</ele><time>2026-04-10T16:01:06.999Z</time></trkpt><trkpt lat="44.73719735368856" lon="10.004787680363897"><ele>354.0</ele><time>2026-04-10T16:01:08.999Z</time></trkpt><trkpt lat="44.737237352488656" lon="10.004950743431701"><ele>354.0</ele><time>2026-04-10T16:01:10.999Z</time></trkpt><trkpt lat="44.73722057899654" lon="10.005105189823883"><ele>354.0</ele><time>2026-04-10T16:01:12.999Z</time></trkpt><trkpt lat="44.737125028591336" lon="10.00524662091367"><ele>353.3333333333333</ele><time>2026-04-10T16:01:14.999Z</time></trkpt><trkpt lat="44.73707035616157" lon="10.0053122918759"><ele>352.6666666666667</ele><time>2026-04-10T16:01:15.999Z</time></trkpt><trkpt lat="44.737010808027" lon="10.005368048793617"><ele>352.0</ele><time>2026-04-10T16:01:16.999Z</time></trkpt><trkpt lat="44.73694682865273" lon="10.005434795258573"><ele>351.33333333333337</ele><time>2026-04-10T16:01:17.999Z</time></trkpt><trkpt lat="44.7368802487951" lon="10.005510857645445"><ele>350.6666666666667</ele><time>2026-04-10T16:01:18.999Z</time></trkpt><trkpt lat="44.73681239277485" lon="10.005584578378391"><ele>350.0</ele><time>2026-04-10T16:01:19.999Z</time></trkpt><trkpt lat="44.73673753618535" lon="10.005652170323696"><ele>350.0</ele><time>2026-04-10T16:01:20.999Z</time></trkpt><trkpt lat="44.73667432937363" lon="10.005708808142101"><ele>350.0</ele><time>2026-04-10T16:01:21.999Z</time></trkpt><trkpt lat="44.736597882831894" lon="10.005771732784558"><ele>350.0</ele><time>2026-04-10T16:01:22.999Z</time></trkpt><trkpt lat="44.73653429336311" lon="10.005831121621855"><ele>350.0</ele><time>2026-04-10T16:01:23.999Z</time></trkpt><trkpt lat="44.73641041082395" lon="10.005920135140002"><ele>350.0</ele><time>2026-04-10T16:01:25.999Z</time></trkpt><trkpt lat="44.73634714793543" lon="10.005958802188195"><ele>350.0</ele><time>2026-04-10T16:01:26.999Z</time></trkpt><trkpt lat="44.73624029932858" lon="10.006034598685615"><ele>349.2</ele><time>2026-04-10T16:01:29Z</time></trkpt><trkpt lat="44.73614131669226" lon="10.006133037351018"><ele>348.4</ele><time>2026-04-10T16:01:31Z</time></trkpt><trkpt lat="44.736055401507684" lon="10.006287712520875"><ele>347.6</ele><time>2026-04-10T16:01:33Z</time></trkpt><trkpt lat="44.73600060008106" lon="10.006387246345968"><ele>346.8</ele><time>2026-04-10T16:01:34Z</time></trkpt><trkpt lat="44.735961234735555" lon="10.006481257606117"><ele>346.0</ele><time>2026-04-10T16:01:35Z</time></trkpt><trkpt lat="44.73592148240675" lon="10.00657845700257"><ele>343.3333333333333</ele><time>2026-04-10T16:01:36Z</time></trkpt><trkpt lat="44.73587107292943" lon="10.006729004990657"><ele>340.66666666666663</ele><time>2026-04-10T16:01:38Z</time></trkpt><trkpt lat="44.73585179029788" lon="10.006826669758274"><ele>338.0</ele><time>2026-04-10T16:01:39Z</time></trkpt><trkpt lat="44.735830112852156" lon="10.006937236977244"><ele>335.3333333333333</ele><time>2026-04-10T16:01:40Z</time></trkpt><trkpt lat="44.735823690039425" lon="10.007035629812897"><ele>332.6666666666667</ele><time>2026-04-10T16:01:41Z</time></trkpt><trkpt lat="44.735814766710554" lon="10.007133235088883"><ele>330.0</ele><time>2026-04-10T16:01:42Z</time></trkpt><trkpt lat="44.735801695419774" lon="10.007225682609665"><ele>330.0</ele><time>2026-04-10T16:01:43Z</time></trkpt><trkpt lat="44.73578428225625" lon="10.007313895995555"><ele>330.0</ele><time>2026-04-10T16:01:44Z</time></trkpt><trkpt lat="44.735751887057184" lon="10.00739801437589"><ele>330.0</ele><time>2026-04-10T16:01:45Z</time></trkpt><trkpt lat="44.73571640697571" lon="10.00749555019458"><ele>330.0</ele><time>2026-04-10T16:01:46Z</time></trkpt><trkpt lat="44.73569329598013" lon="10.007608625693472"><ele>330.0</ele><time>2026-04-10T16:01:47Z</time></trkpt><trkpt lat="44.7356707343037" lon="10.007730152988803"><ele>330.0</ele><time>2026-04-10T16:01:48Z</time></trkpt><trkpt lat="44.73565678004542" lon="10.007847350843514"><ele>329.5</ele><time>2026-04-10T16:01:49Z</time></trkpt><trkpt lat="44.735643787726715" lon="10.007958759353432"><ele>329.0</ele><time>2026-04-10T16:01:50Z</time></trkpt><trkpt lat="44.73562308545879" lon="10.008077670564308"><ele>328.5</ele><time>2026-04-10T16:01:51Z</time></trkpt><trkpt lat="44.73560780450722" lon="10.008194600882465"><ele>328.0</ele><time>2026-04-10T16:01:52Z</time></trkpt><trkpt lat="44.73558719237452" lon="10.008299884855688"><ele>327.5</ele><time>2026-04-10T16:01:53Z</time></trkpt><trkpt lat="44.735567826354796" lon="10.008400902615122"><ele>327.0</ele><time>2026-04-10T16:01:54Z</time></trkpt><trkpt lat="44.73555905766478" lon="10.008498506691105"><ele>325.8333333333333</ele><time>2026-04-10T16:01:55Z</time></trkpt><trkpt lat="44.735555200549356" lon="10.008589881998585"><ele>324.6666666666667</ele><time>2026-04-10T16:01:56Z</time></trkpt><trkpt lat="44.73555038077754" lon="10.008699922647578"><ele>323.5</ele><time>2026-04-10T16:01:57Z</time></trkpt><trkpt lat="44.73553907084242" lon="10.008814664129108"><ele>322.33333333333337</ele><time>2026-04-10T16:01:58Z</time></trkpt><trkpt lat="44.735520609798286" lon="10.008981252137469"><ele>321.1666666666667</ele><time>2026-04-10T16:02:00Z</time></trkpt><trkpt lat="44.73551055352421" lon="10.009090212362732"><ele>320.0</ele><time>2026-04-10T16:02:01.999Z</time></trkpt><trkpt lat="44.73549918042325" lon="10.009186192929516"><ele>319.83333333333337</ele><time>2026-04-10T16:02:03.999Z</time></trkpt><trkpt lat="44.7354893934028" lon="10.009288877350588"><ele>319.6666666666667</ele><time>2026-04-10T16:02:06.999Z</time></trkpt><trkpt lat="44.73551124604337" lon="10.009418361836186"><ele>319.5</ele><time>2026-04-10T16:02:12Z</time></trkpt><trkpt lat="44.735524439149074" lon="10.009515220682077"><ele>319.3333333333333</ele><time>2026-04-10T16:02:14Z</time></trkpt><trkpt lat="44.7355518016815" lon="10.009623173087167"><ele>319.16666666666663</ele><time>2026-04-10T16:02:17Z</time></trkpt><trkpt lat="44.73559482662424" lon="10.009709322810673"><ele>319.0</ele><time>2026-04-10T16:05:08Z</time></trkpt><trkpt lat="44.73566724299481" lon="10.009802693759136"><ele>319.0</ele><time>2026-04-10T16:05:11Z</time></trkpt><trkpt lat="44.73572477253813" lon="10.009910691635696"><ele>319.0</ele><time>2026-04-10T16:05:13Z</time></trkpt><trkpt lat="44.735799742921785" lon="10.010029755959579"><ele>319.0</ele><time>2026-04-10T16:05:15Z</time></trkpt><trkpt lat="44.73584733950165" lon="10.01009510945412"><ele>319.0</ele><time>2026-04-10T16:05:16Z</time></trkpt><trkpt lat="44.7358984160168" lon="10.010162405603042"><ele>319.0</ele><time>2026-04-10T16:05:17Z</time></trkpt><trkpt lat="44.73594796112347" lon="10.010220369348128"><ele>319.0</ele><time>2026-04-10T16:05:18Z</time></trkpt><trkpt lat="44.73599587257265" lon="10.010281542112589"><ele>319.0</ele><time>2026-04-10T16:05:19Z</time></trkpt><trkpt lat="44.73607186070188" lon="10.010387036978573"><ele>319.0</ele><time>2026-04-10T16:05:21Z</time></trkpt><trkpt lat="44.736137440497046" lon="10.010508839914028"><ele>319.0</ele><time>2026-04-10T16:05:23Z</time></trkpt><trkpt lat="44.7361772308346" lon="10.010600054402438"><ele>319.0</ele><time>2026-04-10T16:05:24Z</time></trkpt><trkpt lat="44.73620569890272" lon="10.010688159927316"><ele>319.0</ele><time>2026-04-10T16:05:25Z</time></trkpt><trkpt lat="44.736234296502495" lon="10.010848443488065"><ele>319.0</ele><time>2026-04-10T16:05:27Z</time></trkpt><trkpt lat="44.736266701528244" lon="10.011005801678012"><ele>319.0</ele><time>2026-04-10T16:05:29Z</time></trkpt><trkpt lat="44.736306224312" lon="10.011145279097205"><ele>319.0</ele><time>2026-04-10T16:05:31Z</time></trkpt><trkpt lat="44.736329209735274" lon="10.011230971967098"><ele>319.0</ele><time>2026-04-10T16:05:32Z</time></trkpt><trkpt lat="44.736357679279166" lon="10.011314772952062"><ele>319.0</ele><time>2026-04-10T16:05:33Z</time></trkpt><trkpt lat="44.73641159370218" lon="10.01146739721609"><ele>319.0</ele><time>2026-04-10T16:05:35Z</time></trkpt><trkpt lat="44.73645037030035" lon="10.011577690477036"><ele>319.0</ele><time>2026-04-10T16:05:36Z</time></trkpt><trkpt lat="44.73650674585707" lon="10.011732036668143"><ele>319.0</ele><time>2026-04-10T16:05:38Z</time></trkpt><trkpt lat="44.73654758646701" lon="10.011879623400636"><ele>319.0</ele><time>2026-04-10T16:05:40Z</time></trkpt><trkpt lat="44.73656766085497" lon="10.012008083884218"><ele>319.0</ele><time>2026-04-10T16:05:42Z</time></trkpt><trkpt lat="44.73657175985242" lon="10.012109388575615"><ele>315.8333333333333</ele><time>2026-04-10T16:05:44Z</time></trkpt><trkpt lat="44.73649951657754" lon="10.012159610151935"><ele>312.66666666666663</ele><time>2026-04-10T16:05:47Z</time></trkpt><trkpt lat="44.736446302767725" lon="10.012075487327696"><ele>309.5</ele><time>2026-04-10T16:05:49Z</time></trkpt><trkpt lat="44.73641947347826" lon="10.011990298093894"><ele>306.3333333333333</ele><time>2026-04-10T16:05:50Z</time></trkpt><trkpt lat="44.736372019683344" lon="10.011901272077207"><ele>303.1666666666667</ele><time>2026-04-10T16:05:51Z</time></trkpt><trkpt lat="44.73631424885581" lon="10.011837499923388"><ele>300.0</ele><time>2026-04-10T16:05:52Z</time></trkpt><trkpt lat="44.73624815799439" lon="10.011786211344036"><ele>300.0</ele><time>2026-04-10T16:05:53Z</time></trkpt><trkpt lat="44.73613432616024" lon="10.011708512027802"><ele>300.0</ele><time>2026-04-10T16:05:55Z</time></trkpt><trkpt lat="44.73605315132966" lon="10.01165357630255"><ele>300.0</ele><time>2026-04-10T16:05:56Z</time></trkpt><trkpt lat="44.73596623925698" lon="10.011607278352402"><ele>300.0</ele><time>2026-04-10T16:05:57Z</time></trkpt><trkpt lat="44.735871662045284" lon="10.011562928201693"><ele>300.0</ele><time>2026-04-10T16:05:58Z</time></trkpt><trkpt lat="44.73580231676601" lon="10.011528589257237"><ele>296.3333333333333</ele><time>2026-04-10T16:05:59Z</time></trkpt><trkpt lat="44.73553644555215" lon="10.011377480729271"><ele>292.66666666666663</ele><time>2026-04-10T16:06:02Z</time></trkpt><trkpt lat="44.73545377798863" lon="10.011326866281319"><ele>289.0</ele><time>2026-04-10T16:06:03Z</time></trkpt><trkpt lat="44.73538052140531" lon="10.011275471337065"><ele>289.0</ele><time>2026-04-10T16:06:04Z</time></trkpt><trkpt lat="44.73532213931663" lon="10.011227042043648"><ele>289.0</ele><time>2026-04-10T16:06:05Z</time></trkpt><trkpt lat="44.73521477159228" lon="10.011184335578267"><ele>289.0</ele><time>2026-04-10T16:06:07Z</time></trkpt><trkpt lat="44.73512042335784" lon="10.01129278114261"><ele>289.0</ele><time>2026-04-10T16:06:09Z</time></trkpt><trkpt lat="44.735093353214964" lon="10.011382096397476"><ele>289.0</ele><time>2026-04-10T16:06:10Z</time></trkpt><trkpt lat="44.735083695485" lon="10.01154924214534"><ele>290.5</ele><time>2026-04-10T16:06:12Z</time></trkpt><trkpt lat="44.73506738853013" lon="10.01171484265862"><ele>292.0</ele><time>2026-04-10T16:06:13.999Z</time></trkpt><trkpt lat="44.73504706458709" lon="10.011804068057705"><ele>293.5</ele><time>2026-04-10T16:06:14.999Z</time></trkpt><trkpt lat="44.73502730223578" lon="10.01189833167997"><ele>295.0</ele><time>2026-04-10T16:06:15.999Z</time></trkpt><trkpt lat="44.7350086595799" lon="10.011994806633417"><ele>296.5</ele><time>2026-04-10T16:06:16.999Z</time></trkpt><trkpt lat="44.73497999934951" lon="10.012101714185148"><ele>298.0</ele><time>2026-04-10T16:06:17.999Z</time></trkpt><trkpt lat="44.73495612885033" lon="10.012199941094234"><ele>298.0</ele><time>2026-04-10T16:06:18.999Z</time></trkpt><trkpt lat="44.73493048727139" lon="10.012293025729493"><ele>298.0</ele><time>2026-04-10T16:06:19.999Z</time></trkpt><trkpt lat="44.7348612527418" lon="10.012403846989367"><ele>298.0</ele><time>2026-04-10T16:06:21.999Z</time></trkpt><trkpt lat="44.73478439168105" lon="10.012493311709942"><ele>298.0</ele><time>2026-04-10T16:06:23.999Z</time></trkpt><trkpt lat="44.73480637048774" lon="10.012642492033587"><ele>298.0</ele><time>2026-04-10T16:06:25.999Z</time></trkpt><trkpt lat="44.734895078434306" lon="10.012740443627068"><ele>298.8</ele><time>2026-04-10T16:06:27.999Z</time></trkpt><trkpt lat="44.73500622262825" lon="10.012735005303357"><ele>299.6</ele><time>2026-04-10T16:06:29.999Z</time></trkpt><trkpt lat="44.73510581330575" lon="10.012651798095595"><ele>300.4</ele><time>2026-04-10T16:06:31.999Z</time></trkpt><trkpt lat="44.73522817740765" lon="10.012590006458737"><ele>301.2</ele><time>2026-04-10T16:06:33.999Z</time></trkpt><trkpt lat="44.73530218287774" lon="10.012560937020647"><ele>302.0</ele><time>2026-04-10T16:06:34.999Z</time></trkpt><trkpt lat="44.73540228065667" lon="10.012572003600576"><ele>302.0</ele><time>2026-04-10T16:06:36.999Z</time></trkpt><trkpt lat="44.735468141177925" lon="10.012667808505688"><ele>302.0</ele><time>2026-04-10T16:06:38.999Z</time></trkpt><trkpt lat="44.73548766411741" lon="10.012821838693217"><ele>302.0</ele><time>2026-04-10T16:06:40.999Z</time></trkpt><trkpt lat="44.73545277490644" lon="10.012971375416301"><ele>302.0</ele><time>2026-04-10T16:06:42.999Z</time></trkpt><trkpt lat="44.73542959467244" lon="10.013084004295358"><ele>302.0</ele><time>2026-04-10T16:06:43.999Z</time></trkpt><trkpt lat="44.735391305331675" lon="10.013185675553682"><ele>302.0</ele><time>2026-04-10T16:06:44.999Z</time></trkpt><trkpt lat="44.735353599959105" lon="10.013259022518286"><ele>302.0</ele><time>2026-04-10T16:06:45.999Z</time></trkpt><trkpt lat="44.735315368504594" lon="10.013344168761881"><ele>302.0</ele><time>2026-04-10T16:06:48Z</time></trkpt><trkpt lat="44.73526711106513" lon="10.013525078783893"><ele>302.0</ele><time>2026-04-10T16:06:50Z</time></trkpt><trkpt lat="44.73524915687463" lon="10.013643443222149"><ele>302.0</ele><time>2026-04-10T16:06:51Z</time></trkpt><trkpt lat="44.735244321115985" lon="10.01376765866797"><ele>302.0</ele><time>2026-04-10T16:06:52Z</time></trkpt><trkpt lat="44.73524829136094" lon="10.013890745678314"><ele>304.1666666666667</ele><time>2026-04-10T16:06:53Z</time></trkpt><trkpt lat="44.73525715459752" lon="10.013991493094954"><ele>306.33333333333337</ele><time>2026-04-10T16:06:54Z</time></trkpt><trkpt lat="44.735268991928876" lon="10.014087796557954"><ele>308.5</ele><time>2026-04-10T16:06:55Z</time></trkpt><trkpt lat="44.735264178738134" lon="10.014228582907446"><ele>310.6666666666667</ele><time>2026-04-10T16:06:57Z</time></trkpt><trkpt lat="44.73520592565045" lon="10.014375726277795"><ele>312.8333333333333</ele><time>2026-04-10T16:06:59Z</time></trkpt><trkpt lat="44.73515390080233" lon="10.014444248009909"><ele>315.0</ele><time>2026-04-10T16:07:00Z</time></trkpt><trkpt lat="44.73509729598008" lon="10.014504696456395"><ele>318.5</ele><time>2026-04-10T16:07:01Z</time></trkpt><trkpt lat="44.73503395857662" lon="10.014553011846779"><ele>322.0</ele><time>2026-04-10T16:07:02Z</time></trkpt><trkpt lat="44.73497432373991" lon="10.01458963422224"><ele>325.5</ele><time>2026-04-10T16:07:03Z</time></trkpt><trkpt lat="44.73485312138608" lon="10.01462607924323"><ele>329.0</ele><time>2026-04-10T16:07:05Z</time></trkpt><trkpt lat="44.73478486987669" lon="10.014630135004863"><ele>332.5</ele><time>2026-04-10T16:07:06Z</time></trkpt><trkpt lat="44.73470401577825" lon="10.014630105694128"><ele>336.0</ele><time>2026-04-10T16:07:07Z</time></trkpt><trkpt lat="44.73462405046295" lon="10.014635033488206"><ele>336.0</ele><time>2026-04-10T16:07:08Z</time></trkpt><trkpt lat="44.73453918165412" lon="10.01463590207704"><ele>336.0</ele><time>2026-04-10T16:07:09Z</time></trkpt><trkpt lat="44.73445108581243" lon="10.01463350440828"><ele>336.0</ele><time>2026-04-10T16:07:10Z</time></trkpt><trkpt lat="44.7343708691402" lon="10.014629685750009"><ele>336.0</ele><time>2026-04-10T16:07:11Z</time></trkpt><trkpt lat="44.734291436845105" lon="10.014628333799573"><ele>336.0</ele><time>2026-04-10T16:07:12Z</time></trkpt><trkpt lat="44.734218977608016" lon="10.014625257689405"><ele>336.0</ele><time>2026-04-10T16:07:13Z</time></trkpt><trkpt lat="44.73415328346529" lon="10.01462451772314"><ele>337.6</ele><time>2026-04-10T16:07:14Z</time></trkpt><trkpt lat="44.7340860778554" lon="10.014625044470478"><ele>339.20000000000005</ele><time>2026-04-10T16:07:15Z</time></trkpt><trkpt lat="44.733963749784245" lon="10.014628003306877"><ele>340.79999999999995</ele><time>2026-04-10T16:07:17Z</time></trkpt><trkpt lat="44.73385059203127" lon="10.014580390294588"><ele>342.4</ele><time>2026-04-10T16:07:19Z</time></trkpt><trkpt lat="44.73375232557346" lon="10.014531140529087"><ele>344.0</ele><time>2026-04-10T16:07:21Z</time></trkpt><trkpt lat="44.73365162039607" lon="10.014486570553764"><ele>344.2</ele><time>2026-04-10T16:07:23Z</time></trkpt><trkpt lat="44.73354586569879" lon="10.014459823819752"><ele>344.4</ele><time>2026-04-10T16:07:25Z</time></trkpt><trkpt lat="44.73345486664988" lon="10.01440860106684"><ele>344.6</ele><time>2026-04-10T16:07:27Z</time></trkpt><trkpt lat="44.73337901223272" lon="10.014325013194807"><ele>344.8</ele><time>2026-04-10T16:07:29Z</time></trkpt><trkpt lat="44.73328426516218" lon="10.014214692093294"><ele>345.0</ele><time>2026-04-10T16:07:31Z</time></trkpt><trkpt lat="44.73323743074647" lon="10.014151267076752"><ele>343.75</ele><time>2026-04-10T16:07:32Z</time></trkpt><trkpt lat="44.73311488578094" lon="10.013907756124109"><ele>342.5</ele><time>2026-04-10T16:07:36Z</time></trkpt><trkpt lat="44.73302814663091" lon="10.013820774958065"><ele>341.25</ele><time>2026-04-10T16:07:38Z</time></trkpt><trkpt lat="44.732938920485985" lon="10.013784078441994"><ele>340.0</ele><time>2026-04-10T16:07:40Z</time></trkpt><trkpt lat="44.7328485392182" lon="10.013710361986806"><ele>340.0</ele><time>2026-04-10T16:07:42Z</time></trkpt><trkpt lat="44.73279381474483" lon="10.013662439195041"><ele>340.0</ele><time>2026-04-10T16:07:43Z</time></trkpt><trkpt lat="44.73273272945482" lon="10.013613355833819"><ele>340.0</ele><time>2026-04-10T16:07:44Z</time></trkpt><trkpt lat="44.73266951386449" lon="10.013565855580945"><ele>340.0</ele><time>2026-04-10T16:07:45Z</time></trkpt><trkpt lat="44.73255688694381" lon="10.01349770593261"><ele>340.0</ele><time>2026-04-10T16:07:47Z</time></trkpt><trkpt lat="44.73244482118312" lon="10.013424597920016"><ele>342.2</ele><time>2026-04-10T16:07:49Z</time></trkpt><trkpt lat="44.732345514712094" lon="10.013356939226156"><ele>344.4</ele><time>2026-04-10T16:07:51Z</time></trkpt><trkpt lat="44.732245267130054" lon="10.01334082837989"><ele>346.6</ele><time>2026-04-10T16:07:53Z</time></trkpt><trkpt lat="44.73212242660648" lon="10.013357058131461"><ele>348.8</ele><time>2026-04-10T16:07:55Z</time></trkpt><trkpt lat="44.73205510057631" lon="10.013372889038495"><ele>351.0</ele><time>2026-04-10T16:07:56Z</time></trkpt><trkpt lat="44.73199413293006" lon="10.013399587230357"><ele>351.0</ele><time>2026-04-10T16:07:57Z</time></trkpt><trkpt lat="44.73188931313699" lon="10.013438841347236"><ele>351.0</ele><time>2026-04-10T16:07:59Z</time></trkpt><trkpt lat="44.73179943242611" lon="10.013470093501567"><ele>351.0</ele><time>2026-04-10T16:08:01Z</time></trkpt><trkpt lat="44.73186735770851" lon="10.01347284258291"><ele>351.0</ele><time>2026-04-10T16:09:09Z</time></trkpt><trkpt lat="44.73196044445102" lon="10.013429605893181"><ele>351.0</ele><time>2026-04-10T16:09:12Z</time></trkpt><trkpt lat="44.73204523121479" lon="10.013408275045263"><ele>351.0</ele><time>2026-04-10T16:09:14Z</time></trkpt><trkpt lat="44.73211841191178" lon="10.013385255881335"><ele>351.0</ele><time>2026-04-10T16:09:16Z</time></trkpt><trkpt lat="44.73219499439499" lon="10.013369367013647"><ele>351.0</ele><time>2026-04-10T16:09:29Z</time></trkpt><trkpt lat="44.73229695966157" lon="10.013377217158808"><ele>351.0</ele><time>2026-04-10T16:09:31Z</time></trkpt><trkpt lat="44.73239011863444" lon="10.01340193588958"><ele>351.0</ele><time>2026-04-10T16:09:33Z</time></trkpt><trkpt lat="44.73245026143464" lon="10.013446327393131"><ele>351.0</ele><time>2026-04-10T16:09:35Z</time></trkpt><trkpt lat="44.73250936178137" lon="10.013489944615863"><ele>351.0</ele><time>2026-04-10T16:09:38Z</time></trkpt><trkpt lat="44.7325945330281" lon="10.013515372925886"><ele>351.0</ele><time>2026-04-10T16:09:41Z</time></trkpt><trkpt lat="44.73268156045176" lon="10.013579786231723"><ele>351.0</ele><time>2026-04-10T16:09:43Z</time></trkpt><trkpt lat="44.73278494057128" lon="10.013655545679734"><ele>351.0</ele><time>2026-04-10T16:09:45Z</time></trkpt><trkpt lat="44.73288097364265" lon="10.013733289177294"><ele>351.0</ele><time>2026-04-10T16:09:47Z</time></trkpt><trkpt lat="44.73295615236091" lon="10.013785357946462"><ele>349.8</ele><time>2026-04-10T16:09:49Z</time></trkpt><trkpt lat="44.73302804171098" lon="10.01385349488137"><ele>348.6</ele><time>2026-04-10T16:09:51Z</time></trkpt><trkpt lat="44.73310228063483" lon="10.013919958918605"><ele>347.4</ele><time>2026-04-10T16:09:53Z</time></trkpt><trkpt lat="44.73317081472335" lon="10.014000455285315"><ele>346.2</ele><time>2026-04-10T16:09:55Z</time></trkpt><trkpt lat="44.73321994593927" lon="10.01411074913155"><ele>345.0</ele><time>2026-04-10T16:09:57Z</time></trkpt><trkpt lat="44.73330860060793" lon="10.014232705170642"><ele>345.0</ele><time>2026-04-10T16:09:59Z</time></trkpt><trkpt lat="44.73338385005193" lon="10.01430998253321"><ele>345.0</ele><time>2026-04-10T16:10:01Z</time></trkpt><trkpt lat="44.73345108242102" lon="10.014383444710607"><ele>345.0</ele><time>2026-04-10T16:10:03Z</time></trkpt><trkpt lat="44.73351000258857" lon="10.014434837373527"><ele>345.0</ele><time>2026-04-10T16:10:05Z</time></trkpt><trkpt lat="44.73360535505209" lon="10.014476876016444"><ele>345.0</ele><time>2026-04-10T16:10:07Z</time></trkpt><trkpt lat="44.73369193849423" lon="10.014493806328572"><ele>345.0</ele><time>2026-04-10T16:10:09Z</time></trkpt><trkpt lat="44.733758190477964" lon="10.014512380470888"><ele>344.8333333333333</ele><time>2026-04-10T16:10:11Z</time></trkpt><trkpt lat="44.73382339691482" lon="10.014588859685036"><ele>344.6666666666667</ele><time>2026-04-10T16:10:14Z</time></trkpt><trkpt lat="44.733810260323416" lon="10.014687551672996"><ele>344.5</ele><time>2026-04-10T16:10:17Z</time></trkpt><trkpt lat="44.73379186297372" lon="10.014808218839168"><ele>344.33333333333337</ele><time>2026-04-10T16:10:20Z</time></trkpt><trkpt lat="44.73384573660691" lon="10.014907617158569"><ele>344.1666666666667</ele><time>2026-04-10T16:10:22Z</time></trkpt><trkpt lat="44.73388808941342" lon="10.015010513086919"><ele>344.0</ele><time>2026-04-10T16:10:24Z</time></trkpt><trkpt lat="44.73391642386267" lon="10.015107430572316"><ele>343.5714285714286</ele><time>2026-04-10T16:10:26Z</time></trkpt><trkpt lat="44.733925533862006" lon="10.01520456762205"><ele>343.14285714285717</ele><time>2026-04-10T16:10:28Z</time></trkpt><trkpt lat="44.73395668530337" lon="10.015294735268157"><ele>342.7142857142857</ele><time>2026-04-10T16:10:36Z</time></trkpt><trkpt lat="44.73390025186754" lon="10.015253791622785"><ele>342.28571428571433</ele><time>2026-04-10T16:10:54Z</time></trkpt><trkpt lat="44.73383683295133" lon="10.015322003297733"><ele>341.8571428571429</ele><time>2026-04-10T16:10:58Z</time></trkpt><trkpt lat="44.73378484799059" lon="10.01539770494653"><ele>341.42857142857144</ele><time>2026-04-10T16:11:00Z</time></trkpt><trkpt lat="44.733726936184134" lon="10.015493045261676"><ele>341.0</ele><time>2026-04-10T16:11:02Z</time></trkpt><trkpt lat="44.733688237356816" lon="10.015571308806146"><ele>341.0</ele><time>2026-04-10T16:11:04Z</time></trkpt><trkpt lat="44.7336314063508" lon="10.015650722644457"><ele>341.0</ele><time>2026-04-10T16:11:06Z</time></trkpt><trkpt lat="44.733578754457724" lon="10.015733980919975"><ele>341.0</ele><time>2026-04-10T16:11:08Z</time></trkpt><trkpt lat="44.73354001004494" lon="10.01580750639739"><ele>341.0</ele><time>2026-04-10T16:11:10Z</time></trkpt><trkpt lat="44.73348513679013" lon="10.015903980234885"><ele>341.0</ele><time>2026-04-10T16:11:13Z</time></trkpt><trkpt lat="44.73343895919936" lon="10.015979953902338"><ele>341.0</ele><time>2026-04-10T16:11:16Z</time></trkpt><trkpt lat="44.73339953313999" lon="10.016050885347392"><ele>341.0</ele><time>2026-04-10T16:11:18Z</time></trkpt><trkpt lat="44.73335712491068" lon="10.016128795811847"><ele>338.5</ele><time>2026-04-10T16:11:20Z</time></trkpt><trkpt lat="44.73330509237956" lon="10.016235470019481"><ele>336.0</ele><time>2026-04-10T16:11:23Z</time></trkpt><trkpt lat="44.73327460384688" lon="10.016319943789869"><ele>333.5</ele><time>2026-04-10T16:11:25Z</time></trkpt><trkpt lat="44.73323435927362" lon="10.016397292881955"><ele>331.0</ele><time>2026-04-10T16:11:27Z</time></trkpt><trkpt lat="44.733193824582614" lon="10.016495321623047"><ele>328.5</ele><time>2026-04-10T16:11:29Z</time></trkpt><trkpt lat="44.73315582906923" lon="10.016581341736718"><ele>326.0</ele><time>2026-04-10T16:11:31.001Z</time></trkpt><trkpt lat="44.733117019766425" lon="10.016695618435705"><ele>323.6666666666667</ele><time>2026-04-10T16:11:34.001Z</time></trkpt><trkpt lat="44.7330664948492" lon="10.016768060078087"><ele>321.33333333333337</ele><time>2026-04-10T16:11:36.001Z</time></trkpt><trkpt lat="44.73298936139151" lon="10.01685574276391"><ele>319.0</ele><time>2026-04-10T16:11:39.001Z</time></trkpt><trkpt lat="44.73291689399924" lon="10.016894211955755"><ele>316.6666666666667</ele><time>2026-04-10T16:11:41.001Z</time></trkpt><trkpt lat="44.732844169229935" lon="10.016894025897402"><ele>314.3333333333333</ele><time>2026-04-10T16:11:43.001Z</time></trkpt><trkpt lat="44.73277421544217" lon="10.016869441379834"><ele>312.0</ele><time>2026-04-10T16:11:47.001Z</time></trkpt><trkpt lat="44.73271348804047" lon="10.016845744682573"><ele>310.14285714285717</ele><time>2026-04-10T16:11:49.001Z</time></trkpt><trkpt lat="44.73264757135048" lon="10.016818326842982"><ele>308.2857142857143</ele><time>2026-04-10T16:11:51.001Z</time></trkpt><trkpt lat="44.732573736851315" lon="10.016808213300267"><ele>306.42857142857144</ele><time>2026-04-10T16:11:54.001Z</time></trkpt><trkpt lat="44.732504179671686" lon="10.016815079017837"><ele>304.57142857142856</ele><time>2026-04-10T16:11:56.001Z</time></trkpt><trkpt lat="44.732433176370115" lon="10.016820038998205"><ele>302.7142857142857</ele><time>2026-04-10T16:11:58.001Z</time></trkpt><trkpt lat="44.73236243191764" lon="10.016836517261378"><ele>300.85714285714283</ele><time>2026-04-10T16:12:01.001Z</time></trkpt><trkpt lat="44.73229024967122" lon="10.01685734745811"><ele>299.0</ele><time>2026-04-10T16:12:04.001Z</time></trkpt><trkpt lat="44.73222916509656" lon="10.016924448881468"><ele>299.0</ele><time>2026-04-10T16:12:08.001Z</time></trkpt><trkpt lat="44.732221356656275" lon="10.017048709800651"><ele>299.0</ele><time>2026-04-10T16:12:12.001Z</time></trkpt><trkpt lat="44.73221444205359" lon="10.01716193532028"><ele>299.0</ele><time>2026-04-10T16:12:15.001Z</time></trkpt><trkpt lat="44.73221668029747" lon="10.017263206007435"><ele>299.0</ele><time>2026-04-10T16:12:37.001Z</time></trkpt><trkpt lat="44.73213956906983" lon="10.017209916162212"><ele>299.0</ele><time>2026-04-10T16:12:45.001Z</time></trkpt><trkpt lat="44.7320889288483" lon="10.01714922838466"><ele>299.0</ele><time>2026-04-10T16:12:50.001Z</time></trkpt><trkpt lat="44.73200969427259" lon="10.017111725340287"><ele>299.0</ele><time>2026-04-10T16:12:54.001Z</time></trkpt><trkpt lat="44.73193367483644" lon="10.017130926130433"><ele>299.0</ele><time>2026-04-10T16:12:57.001Z</time></trkpt><trkpt lat="44.73185064090102" lon="10.017181355277993"><ele>299.0</ele><time>2026-04-10T16:13:02.001Z</time></trkpt><trkpt lat="44.73178444972485" lon="10.017201931605243"><ele>299.0</ele><time>2026-04-10T16:13:03.001Z</time></trkpt><trkpt lat="44.731696330231216" lon="10.017244136553744"><ele>299.0</ele><time>2026-04-10T16:13:05.001Z</time></trkpt><trkpt lat="44.73162347854074" lon="10.017277123828816"><ele>299.0</ele><time>2026-04-10T16:13:07.001Z</time></trkpt><trkpt lat="44.73155494496974" lon="10.017332614546609"><ele>299.2857142857143</ele><time>2026-04-10T16:13:41.001Z</time></trkpt><trkpt lat="44.731535020109064" lon="10.017431499415768"><ele>299.57142857142856</ele><time>2026-04-10T16:13:45.001Z</time></trkpt><trkpt lat="44.73154262987575" lon="10.017566139268418"><ele>299.8571428571429</ele><time>2026-04-10T16:13:48.001Z</time></trkpt><trkpt lat="44.73153994191178" lon="10.017663793420978"><ele>300.1428571428571</ele><time>2026-04-10T16:13:50.001Z</time></trkpt><trkpt lat="44.73153989111143" lon="10.017758428347069"><ele>300.42857142857144</ele><time>2026-04-10T16:13:52.001Z</time></trkpt><trkpt lat="44.731536883862546" lon="10.01785484775064"><ele>300.7142857142857</ele><time>2026-04-10T16:13:54.001Z</time></trkpt><trkpt lat="44.73155113763951" lon="10.017953300024246"><ele>301.0</ele><time>2026-04-10T16:13:56.001Z</time></trkpt><trkpt lat="44.73157100333514" lon="10.018078308409327"><ele>301.0</ele><time>2026-04-10T16:13:59.001Z</time></trkpt><trkpt lat="44.731547672861915" lon="10.018165151377938"><ele>301.0</ele><time>2026-04-10T16:14:01.001Z</time></trkpt><trkpt lat="44.7314843625284" lon="10.018235599140848"><ele>301.0</ele><time>2026-04-10T16:14:03.001Z</time></trkpt><trkpt lat="44.73138482243358" lon="10.018281464251611"><ele>301.0</ele><time>2026-04-10T16:14:05.001Z</time></trkpt><trkpt lat="44.731280419672444" lon="10.018287472223586"><ele>301.0</ele><time>2026-04-10T16:14:07.001Z</time></trkpt><trkpt lat="44.731184537788764" lon="10.01829944735108"><ele>301.0</ele><time>2026-04-10T16:14:09.001Z</time></trkpt><trkpt lat="44.73108983930094" lon="10.018311649700747"><ele>301.0</ele><time>2026-04-10T16:14:11.001Z</time></trkpt><trkpt lat="44.73099471740851" lon="10.018329024599133"><ele>301.0</ele><time>2026-04-10T16:14:13.001Z</time></trkpt><trkpt lat="44.730883755414325" lon="10.018341823348699"><ele>301.0</ele><time>2026-04-10T16:14:15.001Z</time></trkpt><trkpt lat="44.730783825095784" lon="10.018343208532597"><ele>301.0</ele><time>2026-04-10T16:14:17.001Z</time></trkpt><trkpt lat="44.73067512952644" lon="10.018349741893683"><ele>304.0</ele><time>2026-04-10T16:14:19.001Z</time></trkpt><trkpt lat="44.730599008923235" lon="10.018379123581985"><ele>307.0</ele><time>2026-04-10T16:14:21.001Z</time></trkpt><trkpt lat="44.730479595982196" lon="10.018408331268555"><ele>310.0</ele><time>2026-04-10T16:14:23.001Z</time></trkpt><trkpt lat="44.730383174721304" lon="10.0184673609386"><ele>313.0</ele><time>2026-04-10T16:14:25.001Z</time></trkpt><trkpt lat="44.73029212743643" lon="10.018497481997318"><ele>316.0</ele><time>2026-04-10T16:14:27.001Z</time></trkpt><trkpt lat="44.73022062347912" lon="10.018490565527019"><ele>317.66666666666663</ele><time>2026-04-10T16:14:29.001Z</time></trkpt><trkpt lat="44.73013552941495" lon="10.018463008618195"><ele>319.3333333333333</ele><time>2026-04-10T16:14:31.001Z</time></trkpt><trkpt lat="44.73005638941808" lon="10.018453355860515"><ele>321.0</ele><time>2026-04-10T16:14:33.001Z</time></trkpt><trkpt lat="44.72994760743021" lon="10.018485267176873"><ele>322.6666666666667</ele><time>2026-04-10T16:14:35.001Z</time></trkpt><trkpt lat="44.72986622437611" lon="10.018533180028726"><ele>324.33333333333337</ele><time>2026-04-10T16:14:37.001Z</time></trkpt><trkpt lat="44.729806457355096" lon="10.018580967523166"><ele>326.0</ele><time>2026-04-10T16:14:39.001Z</time></trkpt><trkpt lat="44.72972616148019" lon="10.018588016263884"><ele>326.0</ele><time>2026-04-10T16:14:41.001Z</time></trkpt><trkpt lat="44.729640837723885" lon="10.018575720345662"><ele>326.0</ele><time>2026-04-10T16:14:43.001Z</time></trkpt><trkpt lat="44.729577689697564" lon="10.018579983421786"><ele>326.0</ele><time>2026-04-10T16:14:45.001Z</time></trkpt><trkpt lat="44.72951861080108" lon="10.01865655491388"><ele>326.0</ele><time>2026-04-10T16:14:48.001Z</time></trkpt><trkpt lat="44.72948517790736" lon="10.018734532013372"><ele>326.0</ele><time>2026-04-10T16:15:31.001Z</time></trkpt><trkpt lat="44.72945143080179" lon="10.018836953085154"><ele>326.0</ele><time>2026-04-10T16:15:46.001Z</time></trkpt><trkpt lat="44.72941225592106" lon="10.01893580139975"><ele>327.0</ele><time>2026-04-10T16:16:03.001Z</time></trkpt><trkpt lat="44.72934092524171" lon="10.019021500581395"><ele>328.0</ele><time>2026-04-10T16:16:11.001Z</time></trkpt><trkpt lat="44.72926881208917" lon="10.019058527201274"><ele>329.0</ele><time>2026-04-10T16:16:15.001Z</time></trkpt><trkpt lat="44.72919581382765" lon="10.019081758661313"><ele>330.0</ele><time>2026-04-10T16:16:18.001Z</time></trkpt><trkpt lat="44.72912941545828" lon="10.019102345530762"><ele>331.0</ele><time>2026-04-10T16:16:21.001Z</time></trkpt><trkpt lat="44.72906477660117" lon="10.019119224828682"><ele>332.0</ele><time>2026-04-10T16:16:24.001Z</time></trkpt><trkpt lat="44.72899069247785" lon="10.019139102867321"><ele>334.0</ele><time>2026-04-10T16:16:27.001Z</time></trkpt><trkpt lat="44.72891658017455" lon="10.019160254522735"><ele>336.0</ele><time>2026-04-10T16:16:31.001Z</time></trkpt><trkpt lat="44.728856717466165" lon="10.01919812355197"><ele>338.0</ele><time>2026-04-10T16:16:34.001Z</time></trkpt><trkpt lat="44.7288157316982" lon="10.019276961342666"><ele>340.0</ele><time>2026-04-10T16:21:41Z</time></trkpt><trkpt lat="44.72877212989496" lon="10.019358612389844"><ele>342.0</ele><time>2026-04-10T16:21:44Z</time></trkpt><trkpt lat="44.728719404671445" lon="10.019421405122529"><ele>344.0</ele><time>2026-04-10T16:21:47Z</time></trkpt><trkpt lat="44.7286343014378" lon="10.019470156843864"><ele>346.0</ele><time>2026-04-10T16:21:50Z</time></trkpt><trkpt lat="44.728553440986595" lon="10.01950110167912"><ele>348.0</ele><time>2026-04-10T16:21:53Z</time></trkpt><trkpt lat="44.72847226439536" lon="10.019570286792426"><ele>350.0</ele><time>2026-04-10T16:21:56Z</time></trkpt><trkpt lat="44.72843798948032" lon="10.01966213848251"><ele>352.0</ele><time>2026-04-10T16:21:58Z</time></trkpt><trkpt lat="44.728396796299755" lon="10.019780388249696"><ele>354.0</ele><time>2026-04-10T16:22:00Z</time></trkpt><trkpt lat="44.728373858258045" lon="10.019892784278136"><ele>356.0</ele><time>2026-04-10T16:22:02Z</time></trkpt><trkpt lat="44.728342724674214" lon="10.019998027125261"><ele>358.0</ele><time>2026-04-10T16:22:05Z</time></trkpt><trkpt lat="44.728293018715036" lon="10.020090363001035"><ele>358.16666666666663</ele><time>2026-04-10T16:22:13Z</time></trkpt><trkpt lat="44.7282515405051" lon="10.020158147857044"><ele>358.3333333333333</ele><time>2026-04-10T16:22:15Z</time></trkpt><trkpt lat="44.728205290669614" lon="10.02026446638962"><ele>358.5</ele><time>2026-04-10T16:22:17Z</time></trkpt><trkpt lat="44.72816339234624" lon="10.020352344116736"><ele>358.6666666666667</ele><time>2026-04-10T16:22:19Z</time></trkpt><trkpt lat="44.72812770582302" lon="10.020439972044406"><ele>358.83333333333337</ele><time>2026-04-10T16:22:21Z</time></trkpt><trkpt lat="44.72808856856117" lon="10.020511923709376"><ele>359.0</ele><time>2026-04-10T16:22:23Z</time></trkpt><trkpt lat="44.728054565668536" lon="10.020630693005598"><ele>359.0</ele><time>2026-04-10T16:22:25Z</time></trkpt><trkpt lat="44.728011649585646" lon="10.020765294557082"><ele>359.0</ele><time>2026-04-10T16:22:27Z</time></trkpt><trkpt lat="44.727968946468884" lon="10.020893406959392"><ele>359.0</ele><time>2026-04-10T16:22:29Z</time></trkpt><trkpt lat="44.72792362480793" lon="10.020999721575384"><ele>359.0</ele><time>2026-04-10T16:22:31Z</time></trkpt><trkpt lat="44.72788108850925" lon="10.021070855078502"><ele>359.0</ele><time>2026-04-10T16:22:33Z</time></trkpt><trkpt lat="44.727826237580494" lon="10.021172906928422"><ele>358.5</ele><time>2026-04-10T16:22:36Z</time></trkpt><trkpt lat="44.72782043533508" lon="10.021273890615795"><ele>358.0</ele><time>2026-04-10T16:22:39Z</time></trkpt><trkpt lat="44.72783529916356" lon="10.021361624859553"><ele>357.5</ele><time>2026-04-10T16:22:44Z</time></trkpt><trkpt lat="44.7278639768884" lon="10.021453311272603"><ele>357.0</ele><time>2026-04-10T16:23:02Z</time></trkpt><trkpt lat="44.7278904678588" lon="10.02155000992062"><ele>356.5</ele><time>2026-04-10T16:23:05Z</time></trkpt><trkpt lat="44.72793130457643" lon="10.021667370043538"><ele>356.0</ele><time>2026-04-10T16:23:08Z</time></trkpt><trkpt lat="44.72798327442328" lon="10.02175765331303"><ele>354.99999999999994</ele><time>2026-04-10T16:23:10Z</time></trkpt><trkpt lat="44.728050771286235" lon="10.021809148136045"><ele>354.0</ele><time>2026-04-10T16:23:49Z</time></trkpt><trkpt lat="44.72810146072327" lon="10.02188684624886"><ele>353.0</ele><time>2026-04-10T16:24:21Z</time></trkpt><trkpt lat="44.728072730247796" lon="10.021794462426696"><ele>352.0</ele><time>2026-04-10T16:25:15.999Z</time></trkpt><trkpt lat="44.728089062758045" lon="10.021881124895366"><ele>351.0</ele><time>2026-04-10T16:26:13.999Z</time></trkpt><trkpt lat="44.72814963801834" lon="10.021939444931363"><ele>349.99999999999994</ele><time>2026-04-10T16:26:19.999Z</time></trkpt><trkpt lat="44.72821743786749" lon="10.0219828095826"><ele>349.0</ele><time>2026-04-10T16:26:58.999Z</time></trkpt><trkpt lat="44.72827754575785" lon="10.022072782241835"><ele>349.0</ele><time>2026-04-10T16:27:00.999Z</time></trkpt><trkpt lat="44.72833405460589" lon="10.02219586137832"><ele>349.0</ele><time>2026-04-10T16:27:02.999Z</time></trkpt><trkpt lat="44.728391487199644" lon="10.02235376727498"><ele>349.0</ele><time>2026-04-10T16:27:04.999Z</time></trkpt><trkpt lat="44.728422398015965" lon="10.022432872459811"><ele>349.0</ele><time>2026-04-10T16:27:05.999Z</time></trkpt><trkpt lat="44.728478277909076" lon="10.022549816038573"><ele>349.0</ele><time>2026-04-10T16:27:07.999Z</time></trkpt><trkpt lat="44.72852557373779" lon="10.022634988813612"><ele>349.0</ele><time>2026-04-10T16:27:09.999Z</time></trkpt><trkpt lat="44.72858286333226" lon="10.022736433303972"><ele>349.0</ele><time>2026-04-10T16:27:11.999Z</time></trkpt><trkpt lat="44.72863336064298" lon="10.022831692437016"><ele>349.0</ele><time>2026-04-10T16:27:14Z</time></trkpt><trkpt lat="44.72869130892" lon="10.02293853279824"><ele>349.0</ele><time>2026-04-10T16:27:16Z</time></trkpt><trkpt lat="44.72875285716471" lon="10.023059370196114"><ele>349.0</ele><time>2026-04-10T16:27:18Z</time></trkpt><trkpt lat="44.728813553443466" lon="10.023188314076256"><ele>349.0</ele><time>2026-04-10T16:27:20Z</time></trkpt><trkpt lat="44.72886751851029" lon="10.023300137979586"><ele>349.0</ele><time>2026-04-10T16:27:22Z</time></trkpt><trkpt lat="44.72891459298185" lon="10.023437393026112"><ele>349.0</ele><time>2026-04-10T16:27:24Z</time></trkpt><trkpt lat="44.72896494016472" lon="10.023568005471194"><ele>349.0</ele><time>2026-04-10T16:27:26Z</time></trkpt><trkpt lat="44.72902427203913" lon="10.02369729521215"><ele>349.0</ele><time>2026-04-10T16:27:28Z</time></trkpt><trkpt lat="44.729099491211" lon="10.023818075916969"><ele>351.0</ele><time>2026-04-10T16:27:30Z</time></trkpt><trkpt lat="44.72917352489742" lon="10.023938118616002"><ele>353.0</ele><time>2026-04-10T16:27:32Z</time></trkpt><trkpt lat="44.72921783653829" lon="10.024053464168928"><ele>355.0</ele><time>2026-04-10T16:27:34Z</time></trkpt><trkpt lat="44.72928526975113" lon="10.024148371111437"><ele>357.0</ele><time>2026-04-10T16:27:37Z</time></trkpt><trkpt lat="44.729325376011104" lon="10.024232081005515"><ele>359.0</ele><time>2026-04-10T16:27:39Z</time></trkpt><trkpt lat="44.72937463859894" lon="10.024324153580979"><ele>359.2</ele><time>2026-04-10T16:27:41Z</time></trkpt><trkpt lat="44.729420423015824" lon="10.024400430942597"><ele>359.4</ele><time>2026-04-10T16:27:43Z</time></trkpt><trkpt lat="44.72949047680248" lon="10.024455572357791"><ele>359.6</ele><time>2026-04-10T16:27:45Z</time></trkpt><trkpt lat="44.72958300420024" lon="10.024535491247445"><ele>359.8</ele><time>2026-04-10T16:27:47Z</time></trkpt><trkpt lat="44.72966941738535" lon="10.02459731840943"><ele>360.0</ele><time>2026-04-10T16:27:49Z</time></trkpt><trkpt lat="44.72975485947884" lon="10.024668707260957"><ele>360.0</ele><time>2026-04-10T16:27:51Z</time></trkpt><trkpt lat="44.72985082760795" lon="10.024756073450575"><ele>360.0</ele><time>2026-04-10T16:27:53Z</time></trkpt><trkpt lat="44.72993464137731" lon="10.024845800272033"><ele>360.0</ele><time>2026-04-10T16:27:55Z</time></trkpt><trkpt lat="44.730013060067265" lon="10.024915744133553"><ele>360.0</ele><time>2026-04-10T16:27:57Z</time></trkpt><trkpt lat="44.730092559251744" lon="10.024972193284233"><ele>360.0</ele><time>2026-04-10T16:27:59Z</time></trkpt><trkpt lat="44.730175681525424" lon="10.024991632453482"><ele>362.4</ele><time>2026-04-10T16:28:01Z</time></trkpt><trkpt lat="44.7302694858887" lon="10.024985376412015"><ele>364.8</ele><time>2026-04-10T16:28:03Z</time></trkpt><trkpt lat="44.73038262084664" lon="10.025023893114037"><ele>367.20000000000005</ele><time>2026-04-10T16:28:05Z</time></trkpt><trkpt lat="44.73047143585771" lon="10.025092205379117"><ele>369.6</ele><time>2026-04-10T16:28:07Z</time></trkpt><trkpt lat="44.73054848610916" lon="10.025139763738029"><ele>372.0</ele><time>2026-04-10T16:28:09Z</time></trkpt><trkpt lat="44.73060110381315" lon="10.025209103862101"><ele>372.0</ele><time>2026-04-10T16:28:12Z</time></trkpt></trkseg></trk></gpx>